<?xml version="1.0" encoding="UTF-8" standalone="no" ?>
<gpx xmlns="http://www.topografix.com/GPX/1/1" xmlns:xsi="http://www.w3.org/2001/XMLSchema-instance" xsi:schemaLocation="http://www.topografix.com/GPX/1/1 http://www.topografix.com/GPX/1/1/gpx.xsd" version="1.1" creator="VisuGPX - https://www.visugpx.com">
  <metadata>
    <name>VTT du mercredi 31 janvier 2018</name>
    <desc><![CDATA[Ciel bien gris, température de 7°, mais PAS DE PLUIE !
Je voulais aller à Bougnon par la route D100 mais Christian nous a fait passer par le chateau de Vallerois et les bois. Pour rentrer depuis Grattery je voulais passer par la route de Scye mais Christian là encore nous a conduit dans le bois La Pelleroye. Je ne lui en veux pas mais il a fallu laver les vélos car les bois sont boueux. Pour se faire pardonner il m'a prêté un résumé de Hara Kiri ...]]></desc>
  </metadata>
  <trk>
    <name><![CDATA[2018-01-31 09:35]]></name>
    <desc><![CDATA[<p>Heure de départ: 01/31/2018 09:35<br/>Heure d'arrivée: 01/31/2018 11:50<br/>Distance: 22,5 km (02:15)<br/>Temps déplacement: 01:50<br/>Vitesse moyenne: 9,95 km/h<br/>Vitesse moyenne mouv.: 12,16 km/h<br/>Vitesse Max.: 34,4 km/h<br/>Altitude minimale: 227 m<br/>Altitude maximale: 308 m<br/>Vitesse de montée: 158,2 m/h<br/>Vitesse de descente: -196,1 m/h<br/>Gain d'altitude: 145 m<br/>Perte d'altitude: -140 m<br/>Temps de montée: 00:55<br/>Temps de descente: 00:43<br/></p><hr align="center" width="480" style="height: 2px; width: 517px"/>]]></desc>
    <trkseg>
      <trkpt lat="47.68625" lon="6.04546">
        <ele>240.05</ele>
        <time>2018-01-31T08:35:06Z</time>
      </trkpt>
      <trkpt lat="47.68629" lon="6.0454">
        <ele>239.58</ele>
        <time>2018-01-31T08:35:26Z</time>
      </trkpt>
      <trkpt lat="47.68633" lon="6.04535">
        <ele>239.37</ele>
        <time>2018-01-31T08:35:28Z</time>
      </trkpt>
      <trkpt lat="47.68638" lon="6.04535">
        <ele>239.16</ele>
        <time>2018-01-31T08:35:30Z</time>
      </trkpt>
      <trkpt lat="47.68642" lon="6.04538">
        <ele>238.86</ele>
        <time>2018-01-31T08:35:33Z</time>
      </trkpt>
      <trkpt lat="47.68647" lon="6.04543">
        <ele>238.46</ele>
        <time>2018-01-31T08:35:37Z</time>
      </trkpt>
      <trkpt lat="47.68651" lon="6.04548">
        <ele>238.27</ele>
        <time>2018-01-31T08:35:39Z</time>
      </trkpt>
      <trkpt lat="47.68655" lon="6.04553">
        <ele>238.08</ele>
        <time>2018-01-31T08:35:41Z</time>
      </trkpt>
      <trkpt lat="47.68659" lon="6.04559">
        <ele>237.9</ele>
        <time>2018-01-31T08:35:43Z</time>
      </trkpt>
      <trkpt lat="47.68664" lon="6.04566">
        <ele>237.67</ele>
        <time>2018-01-31T08:35:46Z</time>
      </trkpt>
      <trkpt lat="47.68667" lon="6.04572">
        <ele>237.53</ele>
        <time>2018-01-31T08:35:48Z</time>
      </trkpt>
      <trkpt lat="47.68671" lon="6.04578">
        <ele>237.4</ele>
        <time>2018-01-31T08:35:50Z</time>
      </trkpt>
      <trkpt lat="47.68673" lon="6.04585">
        <ele>237.28</ele>
        <time>2018-01-31T08:35:52Z</time>
      </trkpt>
      <trkpt lat="47.68675" lon="6.04591">
        <ele>237.16</ele>
        <time>2018-01-31T08:35:54Z</time>
      </trkpt>
      <trkpt lat="47.68678" lon="6.04597">
        <ele>237.03</ele>
        <time>2018-01-31T08:35:56Z</time>
      </trkpt>
      <trkpt lat="47.6868" lon="6.04603">
        <ele>236.88</ele>
        <time>2018-01-31T08:35:58Z</time>
      </trkpt>
      <trkpt lat="47.68684" lon="6.04612">
        <ele>236.67</ele>
        <time>2018-01-31T08:36:01Z</time>
      </trkpt>
      <trkpt lat="47.68686" lon="6.04619">
        <ele>236.55</ele>
        <time>2018-01-31T08:36:03Z</time>
      </trkpt>
      <trkpt lat="47.68689" lon="6.04625">
        <ele>236.44</ele>
        <time>2018-01-31T08:36:05Z</time>
      </trkpt>
      <trkpt lat="47.68692" lon="6.04632">
        <ele>236.33</ele>
        <time>2018-01-31T08:36:07Z</time>
      </trkpt>
      <trkpt lat="47.68696" lon="6.04639">
        <ele>236.21</ele>
        <time>2018-01-31T08:36:09Z</time>
      </trkpt>
      <trkpt lat="47.68699" lon="6.04647">
        <ele>236.08</ele>
        <time>2018-01-31T08:36:11Z</time>
      </trkpt>
      <trkpt lat="47.68703" lon="6.04654">
        <ele>235.93</ele>
        <time>2018-01-31T08:36:13Z</time>
      </trkpt>
      <trkpt lat="47.68706" lon="6.0466">
        <ele>235.78</ele>
        <time>2018-01-31T08:36:15Z</time>
      </trkpt>
      <trkpt lat="47.6871" lon="6.04667">
        <ele>235.6</ele>
        <time>2018-01-31T08:36:17Z</time>
      </trkpt>
      <trkpt lat="47.68713" lon="6.04674">
        <ele>235.44</ele>
        <time>2018-01-31T08:36:19Z</time>
      </trkpt>
      <trkpt lat="47.68717" lon="6.04684">
        <ele>235.27</ele>
        <time>2018-01-31T08:36:21Z</time>
      </trkpt>
      <trkpt lat="47.68721" lon="6.04693">
        <ele>235.09</ele>
        <time>2018-01-31T08:36:23Z</time>
      </trkpt>
      <trkpt lat="47.68724" lon="6.04702">
        <ele>234.9</ele>
        <time>2018-01-31T08:36:25Z</time>
      </trkpt>
      <trkpt lat="47.68727" lon="6.0471">
        <ele>234.71</ele>
        <time>2018-01-31T08:36:27Z</time>
      </trkpt>
      <trkpt lat="47.6873" lon="6.04719">
        <ele>234.54</ele>
        <time>2018-01-31T08:36:29Z</time>
      </trkpt>
      <trkpt lat="47.68733" lon="6.04727">
        <ele>234.36</ele>
        <time>2018-01-31T08:36:31Z</time>
      </trkpt>
      <trkpt lat="47.68735" lon="6.04736">
        <ele>234.19</ele>
        <time>2018-01-31T08:36:33Z</time>
      </trkpt>
      <trkpt lat="47.68738" lon="6.04744">
        <ele>234.02</ele>
        <time>2018-01-31T08:36:35Z</time>
      </trkpt>
      <trkpt lat="47.68741" lon="6.04754">
        <ele>233.85</ele>
        <time>2018-01-31T08:36:37Z</time>
      </trkpt>
      <trkpt lat="47.68743" lon="6.04763">
        <ele>232.61</ele>
        <time>2018-01-31T08:36:39Z</time>
      </trkpt>
      <trkpt lat="47.68746" lon="6.04773">
        <ele>231.58</ele>
        <time>2018-01-31T08:36:41Z</time>
      </trkpt>
      <trkpt lat="47.68749" lon="6.04784">
        <ele>230.92</ele>
        <time>2018-01-31T08:36:43Z</time>
      </trkpt>
      <trkpt lat="47.6875" lon="6.04791">
        <ele>230.68</ele>
        <time>2018-01-31T08:36:44Z</time>
      </trkpt>
      <trkpt lat="47.68752" lon="6.04798">
        <ele>230.49</ele>
        <time>2018-01-31T08:36:45Z</time>
      </trkpt>
      <trkpt lat="47.68754" lon="6.04805">
        <ele>230.34</ele>
        <time>2018-01-31T08:36:46Z</time>
      </trkpt>
      <trkpt lat="47.68756" lon="6.04811">
        <ele>230.21</ele>
        <time>2018-01-31T08:36:47Z</time>
      </trkpt>
      <trkpt lat="47.68758" lon="6.04818">
        <ele>230.1</ele>
        <time>2018-01-31T08:36:48Z</time>
      </trkpt>
      <trkpt lat="47.6876" lon="6.04825">
        <ele>230</ele>
        <time>2018-01-31T08:36:49Z</time>
      </trkpt>
      <trkpt lat="47.68761" lon="6.04832">
        <ele>229.9</ele>
        <time>2018-01-31T08:36:50Z</time>
      </trkpt>
      <trkpt lat="47.68763" lon="6.0484">
        <ele>229.79</ele>
        <time>2018-01-31T08:36:51Z</time>
      </trkpt>
      <trkpt lat="47.68765" lon="6.04847">
        <ele>229.68</ele>
        <time>2018-01-31T08:36:52Z</time>
      </trkpt>
      <trkpt lat="47.68767" lon="6.04854">
        <ele>229.57</ele>
        <time>2018-01-31T08:36:53Z</time>
      </trkpt>
      <trkpt lat="47.68769" lon="6.04861">
        <ele>229.47</ele>
        <time>2018-01-31T08:36:54Z</time>
      </trkpt>
      <trkpt lat="47.6877" lon="6.04869">
        <ele>229.36</ele>
        <time>2018-01-31T08:36:55Z</time>
      </trkpt>
      <trkpt lat="47.68772" lon="6.04876">
        <ele>229.27</ele>
        <time>2018-01-31T08:36:56Z</time>
      </trkpt>
      <trkpt lat="47.68775" lon="6.04884">
        <ele>229.19</ele>
        <time>2018-01-31T08:36:57Z</time>
      </trkpt>
      <trkpt lat="47.68777" lon="6.0489">
        <ele>229.1</ele>
        <time>2018-01-31T08:36:58Z</time>
      </trkpt>
      <trkpt lat="47.68779" lon="6.04897">
        <ele>229.01</ele>
        <time>2018-01-31T08:36:59Z</time>
      </trkpt>
      <trkpt lat="47.68783" lon="6.04908">
        <ele>228.84</ele>
        <time>2018-01-31T08:37:01Z</time>
      </trkpt>
      <trkpt lat="47.68785" lon="6.04919">
        <ele>228.8</ele>
        <time>2018-01-31T08:37:03Z</time>
      </trkpt>
      <trkpt lat="47.68788" lon="6.04928">
        <ele>228.78</ele>
        <time>2018-01-31T08:37:05Z</time>
      </trkpt>
      <trkpt lat="47.68791" lon="6.04933">
        <ele>228.76</ele>
        <time>2018-01-31T08:37:07Z</time>
      </trkpt>
      <trkpt lat="47.68795" lon="6.04936">
        <ele>228.73</ele>
        <time>2018-01-31T08:37:15Z</time>
      </trkpt>
      <trkpt lat="47.68802" lon="6.04934">
        <ele>228.75</ele>
        <time>2018-01-31T08:37:18Z</time>
      </trkpt>
      <trkpt lat="47.68807" lon="6.04925">
        <ele>228.76</ele>
        <time>2018-01-31T08:37:20Z</time>
      </trkpt>
      <trkpt lat="47.68811" lon="6.04915">
        <ele>228.69</ele>
        <time>2018-01-31T08:37:22Z</time>
      </trkpt>
      <trkpt lat="47.68818" lon="6.04905">
        <ele>228.61</ele>
        <time>2018-01-31T08:37:24Z</time>
      </trkpt>
      <trkpt lat="47.68823" lon="6.04902">
        <ele>228.47</ele>
        <time>2018-01-31T08:37:25Z</time>
      </trkpt>
      <trkpt lat="47.68828" lon="6.04902">
        <ele>228.31</ele>
        <time>2018-01-31T08:37:26Z</time>
      </trkpt>
      <trkpt lat="47.68833" lon="6.04906">
        <ele>228.17</ele>
        <time>2018-01-31T08:37:27Z</time>
      </trkpt>
      <trkpt lat="47.68838" lon="6.04911">
        <ele>228.05</ele>
        <time>2018-01-31T08:37:28Z</time>
      </trkpt>
      <trkpt lat="47.68841" lon="6.04917">
        <ele>227.96</ele>
        <time>2018-01-31T08:37:29Z</time>
      </trkpt>
      <trkpt lat="47.68844" lon="6.04923">
        <ele>227.9</ele>
        <time>2018-01-31T08:37:30Z</time>
      </trkpt>
      <trkpt lat="47.68848" lon="6.04932">
        <ele>227.87</ele>
        <time>2018-01-31T08:37:32Z</time>
      </trkpt>
      <trkpt lat="47.68853" lon="6.04942">
        <ele>227.89</ele>
        <time>2018-01-31T08:37:34Z</time>
      </trkpt>
      <trkpt lat="47.68857" lon="6.0495">
        <ele>227.9</ele>
        <time>2018-01-31T08:37:36Z</time>
      </trkpt>
      <trkpt lat="47.68861" lon="6.04957">
        <ele>227.91</ele>
        <time>2018-01-31T08:37:38Z</time>
      </trkpt>
      <trkpt lat="47.68864" lon="6.04964">
        <ele>227.94</ele>
        <time>2018-01-31T08:37:40Z</time>
      </trkpt>
      <trkpt lat="47.68867" lon="6.04971">
        <ele>227.97</ele>
        <time>2018-01-31T08:37:42Z</time>
      </trkpt>
      <trkpt lat="47.68871" lon="6.04978">
        <ele>228</ele>
        <time>2018-01-31T08:37:44Z</time>
      </trkpt>
      <trkpt lat="47.68874" lon="6.04984">
        <ele>228.04</ele>
        <time>2018-01-31T08:37:46Z</time>
      </trkpt>
      <trkpt lat="47.68878" lon="6.04992">
        <ele>228.08</ele>
        <time>2018-01-31T08:37:48Z</time>
      </trkpt>
      <trkpt lat="47.68882" lon="6.04999">
        <ele>228.14</ele>
        <time>2018-01-31T08:37:50Z</time>
      </trkpt>
      <trkpt lat="47.68886" lon="6.05005">
        <ele>228.2</ele>
        <time>2018-01-31T08:37:52Z</time>
      </trkpt>
      <trkpt lat="47.68892" lon="6.0501">
        <ele>228.26</ele>
        <time>2018-01-31T08:37:54Z</time>
      </trkpt>
      <trkpt lat="47.68897" lon="6.05015">
        <ele>228.34</ele>
        <time>2018-01-31T08:37:56Z</time>
      </trkpt>
      <trkpt lat="47.68902" lon="6.05019">
        <ele>228.41</ele>
        <time>2018-01-31T08:37:58Z</time>
      </trkpt>
      <trkpt lat="47.68907" lon="6.05023">
        <ele>228.49</ele>
        <time>2018-01-31T08:38:00Z</time>
      </trkpt>
      <trkpt lat="47.68912" lon="6.05027">
        <ele>228.57</ele>
        <time>2018-01-31T08:38:02Z</time>
      </trkpt>
      <trkpt lat="47.68917" lon="6.0503">
        <ele>228.65</ele>
        <time>2018-01-31T08:38:04Z</time>
      </trkpt>
      <trkpt lat="47.68922" lon="6.05034">
        <ele>228.74</ele>
        <time>2018-01-31T08:38:06Z</time>
      </trkpt>
      <trkpt lat="47.68927" lon="6.05038">
        <ele>228.82</ele>
        <time>2018-01-31T08:38:08Z</time>
      </trkpt>
      <trkpt lat="47.68932" lon="6.05042">
        <ele>228.91</ele>
        <time>2018-01-31T08:38:10Z</time>
      </trkpt>
      <trkpt lat="47.68937" lon="6.05046">
        <ele>229.01</ele>
        <time>2018-01-31T08:38:12Z</time>
      </trkpt>
      <trkpt lat="47.68942" lon="6.0505">
        <ele>229.11</ele>
        <time>2018-01-31T08:38:14Z</time>
      </trkpt>
      <trkpt lat="47.68947" lon="6.05053">
        <ele>229.21</ele>
        <time>2018-01-31T08:38:16Z</time>
      </trkpt>
      <trkpt lat="47.68951" lon="6.05057">
        <ele>229.32</ele>
        <time>2018-01-31T08:38:18Z</time>
      </trkpt>
      <trkpt lat="47.68955" lon="6.0506">
        <ele>229.44</ele>
        <time>2018-01-31T08:38:20Z</time>
      </trkpt>
      <trkpt lat="47.6896" lon="6.05062">
        <ele>229.55</ele>
        <time>2018-01-31T08:38:22Z</time>
      </trkpt>
      <trkpt lat="47.68965" lon="6.05066">
        <ele>229.73</ele>
        <time>2018-01-31T08:38:25Z</time>
      </trkpt>
      <trkpt lat="47.6897" lon="6.05068">
        <ele>229.92</ele>
        <time>2018-01-31T08:38:28Z</time>
      </trkpt>
      <trkpt lat="47.68976" lon="6.05072">
        <ele>230.11</ele>
        <time>2018-01-31T08:38:31Z</time>
      </trkpt>
      <trkpt lat="47.68981" lon="6.05076">
        <ele>230.32</ele>
        <time>2018-01-31T08:38:34Z</time>
      </trkpt>
      <trkpt lat="47.68986" lon="6.0508">
        <ele>230.53</ele>
        <time>2018-01-31T08:38:37Z</time>
      </trkpt>
      <trkpt lat="47.68992" lon="6.05084">
        <ele>230.75</ele>
        <time>2018-01-31T08:38:40Z</time>
      </trkpt>
      <trkpt lat="47.68997" lon="6.05087">
        <ele>230.97</ele>
        <time>2018-01-31T08:38:43Z</time>
      </trkpt>
      <trkpt lat="47.69002" lon="6.05089">
        <ele>231.2</ele>
        <time>2018-01-31T08:38:46Z</time>
      </trkpt>
      <trkpt lat="47.69006" lon="6.05093">
        <ele>231.43</ele>
        <time>2018-01-31T08:38:49Z</time>
      </trkpt>
      <trkpt lat="47.6901" lon="6.05095">
        <ele>231.67</ele>
        <time>2018-01-31T08:38:52Z</time>
      </trkpt>
      <trkpt lat="47.69015" lon="6.05098">
        <ele>231.92</ele>
        <time>2018-01-31T08:38:55Z</time>
      </trkpt>
      <trkpt lat="47.6902" lon="6.05102">
        <ele>232.17</ele>
        <time>2018-01-31T08:38:58Z</time>
      </trkpt>
      <trkpt lat="47.69024" lon="6.05104">
        <ele>232.42</ele>
        <time>2018-01-31T08:39:01Z</time>
      </trkpt>
      <trkpt lat="47.69029" lon="6.05107">
        <ele>232.69</ele>
        <time>2018-01-31T08:39:04Z</time>
      </trkpt>
      <trkpt lat="47.69034" lon="6.05109">
        <ele>232.97</ele>
        <time>2018-01-31T08:39:07Z</time>
      </trkpt>
      <trkpt lat="47.69039" lon="6.05113">
        <ele>233.27</ele>
        <time>2018-01-31T08:39:10Z</time>
      </trkpt>
      <trkpt lat="47.69044" lon="6.05117">
        <ele>233.58</ele>
        <time>2018-01-31T08:39:13Z</time>
      </trkpt>
      <trkpt lat="47.69049" lon="6.0512">
        <ele>233.89</ele>
        <time>2018-01-31T08:39:16Z</time>
      </trkpt>
      <trkpt lat="47.69054" lon="6.05125">
        <ele>234.33</ele>
        <time>2018-01-31T08:39:20Z</time>
      </trkpt>
      <trkpt lat="47.69058" lon="6.05128">
        <ele>234.68</ele>
        <time>2018-01-31T08:39:23Z</time>
      </trkpt>
      <trkpt lat="47.69063" lon="6.05132">
        <ele>235.03</ele>
        <time>2018-01-31T08:39:26Z</time>
      </trkpt>
      <trkpt lat="47.69068" lon="6.05134">
        <ele>235.38</ele>
        <time>2018-01-31T08:39:29Z</time>
      </trkpt>
      <trkpt lat="47.69073" lon="6.05138">
        <ele>235.74</ele>
        <time>2018-01-31T08:39:32Z</time>
      </trkpt>
      <trkpt lat="47.69078" lon="6.05141">
        <ele>236.09</ele>
        <time>2018-01-31T08:39:35Z</time>
      </trkpt>
      <trkpt lat="47.69083" lon="6.05145">
        <ele>236.43</ele>
        <time>2018-01-31T08:39:38Z</time>
      </trkpt>
      <trkpt lat="47.69089" lon="6.05149">
        <ele>236.77</ele>
        <time>2018-01-31T08:39:41Z</time>
      </trkpt>
      <trkpt lat="47.69095" lon="6.05153">
        <ele>237.1</ele>
        <time>2018-01-31T08:39:44Z</time>
      </trkpt>
      <trkpt lat="47.691" lon="6.05157">
        <ele>237.41</ele>
        <time>2018-01-31T08:39:47Z</time>
      </trkpt>
      <trkpt lat="47.69106" lon="6.05161">
        <ele>237.71</ele>
        <time>2018-01-31T08:39:50Z</time>
      </trkpt>
      <trkpt lat="47.69112" lon="6.05165">
        <ele>238</ele>
        <time>2018-01-31T08:39:53Z</time>
      </trkpt>
      <trkpt lat="47.69116" lon="6.05169">
        <ele>238.19</ele>
        <time>2018-01-31T08:39:55Z</time>
      </trkpt>
      <trkpt lat="47.69121" lon="6.05172">
        <ele>238.37</ele>
        <time>2018-01-31T08:39:57Z</time>
      </trkpt>
      <trkpt lat="47.69125" lon="6.05175">
        <ele>238.55</ele>
        <time>2018-01-31T08:39:59Z</time>
      </trkpt>
      <trkpt lat="47.69131" lon="6.05181">
        <ele>238.74</ele>
        <time>2018-01-31T08:40:01Z</time>
      </trkpt>
      <trkpt lat="47.69138" lon="6.05187">
        <ele>238.92</ele>
        <time>2018-01-31T08:40:03Z</time>
      </trkpt>
      <trkpt lat="47.69144" lon="6.05192">
        <ele>239.1</ele>
        <time>2018-01-31T08:40:05Z</time>
      </trkpt>
      <trkpt lat="47.69149" lon="6.05196">
        <ele>239.28</ele>
        <time>2018-01-31T08:40:07Z</time>
      </trkpt>
      <trkpt lat="47.69155" lon="6.05201">
        <ele>239.47</ele>
        <time>2018-01-31T08:40:09Z</time>
      </trkpt>
      <trkpt lat="47.6916" lon="6.05206">
        <ele>239.65</ele>
        <time>2018-01-31T08:40:11Z</time>
      </trkpt>
      <trkpt lat="47.69165" lon="6.05212">
        <ele>239.84</ele>
        <time>2018-01-31T08:40:13Z</time>
      </trkpt>
      <trkpt lat="47.69171" lon="6.05219">
        <ele>240.03</ele>
        <time>2018-01-31T08:40:15Z</time>
      </trkpt>
      <trkpt lat="47.69176" lon="6.05225">
        <ele>240.22</ele>
        <time>2018-01-31T08:40:17Z</time>
      </trkpt>
      <trkpt lat="47.69181" lon="6.05231">
        <ele>240.4</ele>
        <time>2018-01-31T08:40:19Z</time>
      </trkpt>
      <trkpt lat="47.69186" lon="6.05236">
        <ele>240.58</ele>
        <time>2018-01-31T08:40:21Z</time>
      </trkpt>
      <trkpt lat="47.69191" lon="6.05242">
        <ele>240.75</ele>
        <time>2018-01-31T08:40:23Z</time>
      </trkpt>
      <trkpt lat="47.69196" lon="6.05248">
        <ele>240.92</ele>
        <time>2018-01-31T08:40:25Z</time>
      </trkpt>
      <trkpt lat="47.69201" lon="6.05254">
        <ele>241.08</ele>
        <time>2018-01-31T08:40:27Z</time>
      </trkpt>
      <trkpt lat="47.69206" lon="6.0526">
        <ele>241.23</ele>
        <time>2018-01-31T08:40:29Z</time>
      </trkpt>
      <trkpt lat="47.69212" lon="6.05266">
        <ele>241.38</ele>
        <time>2018-01-31T08:40:31Z</time>
      </trkpt>
      <trkpt lat="47.69218" lon="6.05272">
        <ele>241.53</ele>
        <time>2018-01-31T08:40:33Z</time>
      </trkpt>
      <trkpt lat="47.69222" lon="6.05277">
        <ele>241.68</ele>
        <time>2018-01-31T08:40:35Z</time>
      </trkpt>
      <trkpt lat="47.69228" lon="6.05284">
        <ele>242.24</ele>
        <time>2018-01-31T08:40:37Z</time>
      </trkpt>
      <trkpt lat="47.69234" lon="6.05292">
        <ele>243.21</ele>
        <time>2018-01-31T08:40:39Z</time>
      </trkpt>
      <trkpt lat="47.6924" lon="6.05299">
        <ele>243.44</ele>
        <time>2018-01-31T08:40:41Z</time>
      </trkpt>
      <trkpt lat="47.69246" lon="6.05305">
        <ele>243.52</ele>
        <time>2018-01-31T08:40:43Z</time>
      </trkpt>
      <trkpt lat="47.69252" lon="6.05311">
        <ele>243.58</ele>
        <time>2018-01-31T08:40:45Z</time>
      </trkpt>
      <trkpt lat="47.69258" lon="6.05316">
        <ele>243.65</ele>
        <time>2018-01-31T08:40:47Z</time>
      </trkpt>
      <trkpt lat="47.69264" lon="6.05322">
        <ele>243.71</ele>
        <time>2018-01-31T08:40:49Z</time>
      </trkpt>
      <trkpt lat="47.69269" lon="6.05327">
        <ele>243.77</ele>
        <time>2018-01-31T08:40:51Z</time>
      </trkpt>
      <trkpt lat="47.69275" lon="6.05331">
        <ele>243.83</ele>
        <time>2018-01-31T08:40:53Z</time>
      </trkpt>
      <trkpt lat="47.69281" lon="6.05336">
        <ele>243.88</ele>
        <time>2018-01-31T08:40:55Z</time>
      </trkpt>
      <trkpt lat="47.69287" lon="6.05341">
        <ele>243.92</ele>
        <time>2018-01-31T08:40:57Z</time>
      </trkpt>
      <trkpt lat="47.69293" lon="6.05346">
        <ele>243.97</ele>
        <time>2018-01-31T08:40:59Z</time>
      </trkpt>
      <trkpt lat="47.69299" lon="6.05351">
        <ele>244.01</ele>
        <time>2018-01-31T08:41:01Z</time>
      </trkpt>
      <trkpt lat="47.69305" lon="6.05356">
        <ele>244.05</ele>
        <time>2018-01-31T08:41:03Z</time>
      </trkpt>
      <trkpt lat="47.69312" lon="6.05361">
        <ele>244.09</ele>
        <time>2018-01-31T08:41:05Z</time>
      </trkpt>
      <trkpt lat="47.69317" lon="6.05365">
        <ele>244.13</ele>
        <time>2018-01-31T08:41:07Z</time>
      </trkpt>
      <trkpt lat="47.69323" lon="6.0537">
        <ele>244.17</ele>
        <time>2018-01-31T08:41:09Z</time>
      </trkpt>
      <trkpt lat="47.69329" lon="6.05375">
        <ele>244.21</ele>
        <time>2018-01-31T08:41:11Z</time>
      </trkpt>
      <trkpt lat="47.69335" lon="6.05379">
        <ele>244.25</ele>
        <time>2018-01-31T08:41:13Z</time>
      </trkpt>
      <trkpt lat="47.69341" lon="6.05384">
        <ele>244.29</ele>
        <time>2018-01-31T08:41:15Z</time>
      </trkpt>
      <trkpt lat="47.69347" lon="6.05389">
        <ele>244.33</ele>
        <time>2018-01-31T08:41:17Z</time>
      </trkpt>
      <trkpt lat="47.69353" lon="6.05393">
        <ele>244.36</ele>
        <time>2018-01-31T08:41:19Z</time>
      </trkpt>
      <trkpt lat="47.69359" lon="6.05398">
        <ele>244.4</ele>
        <time>2018-01-31T08:41:21Z</time>
      </trkpt>
      <trkpt lat="47.69365" lon="6.05403">
        <ele>244.44</ele>
        <time>2018-01-31T08:41:23Z</time>
      </trkpt>
      <trkpt lat="47.69371" lon="6.05407">
        <ele>244.48</ele>
        <time>2018-01-31T08:41:25Z</time>
      </trkpt>
      <trkpt lat="47.69376" lon="6.05411">
        <ele>244.52</ele>
        <time>2018-01-31T08:41:27Z</time>
      </trkpt>
      <trkpt lat="47.69381" lon="6.05415">
        <ele>244.57</ele>
        <time>2018-01-31T08:41:29Z</time>
      </trkpt>
      <trkpt lat="47.69388" lon="6.0542">
        <ele>244.78</ele>
        <time>2018-01-31T08:41:31Z</time>
      </trkpt>
      <trkpt lat="47.69394" lon="6.05425">
        <ele>244.94</ele>
        <time>2018-01-31T08:41:33Z</time>
      </trkpt>
      <trkpt lat="47.69401" lon="6.0543">
        <ele>245.18</ele>
        <time>2018-01-31T08:41:35Z</time>
      </trkpt>
      <trkpt lat="47.69408" lon="6.05436">
        <ele>245.33</ele>
        <time>2018-01-31T08:41:37Z</time>
      </trkpt>
      <trkpt lat="47.69415" lon="6.05442">
        <ele>245.44</ele>
        <time>2018-01-31T08:41:39Z</time>
      </trkpt>
      <trkpt lat="47.69422" lon="6.05448">
        <ele>245.5</ele>
        <time>2018-01-31T08:41:41Z</time>
      </trkpt>
      <trkpt lat="47.69429" lon="6.05454">
        <ele>245.55</ele>
        <time>2018-01-31T08:41:43Z</time>
      </trkpt>
      <trkpt lat="47.69434" lon="6.05461">
        <ele>245.57</ele>
        <time>2018-01-31T08:41:45Z</time>
      </trkpt>
      <trkpt lat="47.69438" lon="6.0547">
        <ele>245.58</ele>
        <time>2018-01-31T08:41:47Z</time>
      </trkpt>
      <trkpt lat="47.6944" lon="6.05478">
        <ele>245.6</ele>
        <time>2018-01-31T08:41:49Z</time>
      </trkpt>
      <trkpt lat="47.69443" lon="6.05486">
        <ele>245.62</ele>
        <time>2018-01-31T08:41:51Z</time>
      </trkpt>
      <trkpt lat="47.69447" lon="6.05494">
        <ele>245.64</ele>
        <time>2018-01-31T08:41:53Z</time>
      </trkpt>
      <trkpt lat="47.6945" lon="6.05501">
        <ele>245.67</ele>
        <time>2018-01-31T08:41:55Z</time>
      </trkpt>
      <trkpt lat="47.69453" lon="6.05508">
        <ele>245.7</ele>
        <time>2018-01-31T08:41:57Z</time>
      </trkpt>
      <trkpt lat="47.69456" lon="6.05515">
        <ele>245.74</ele>
        <time>2018-01-31T08:41:59Z</time>
      </trkpt>
      <trkpt lat="47.69459" lon="6.05522">
        <ele>245.77</ele>
        <time>2018-01-31T08:42:01Z</time>
      </trkpt>
      <trkpt lat="47.69462" lon="6.05529">
        <ele>245.81</ele>
        <time>2018-01-31T08:42:03Z</time>
      </trkpt>
      <trkpt lat="47.69464" lon="6.05536">
        <ele>245.85</ele>
        <time>2018-01-31T08:42:05Z</time>
      </trkpt>
      <trkpt lat="47.69467" lon="6.05544">
        <ele>245.89</ele>
        <time>2018-01-31T08:42:07Z</time>
      </trkpt>
      <trkpt lat="47.69471" lon="6.05552">
        <ele>245.94</ele>
        <time>2018-01-31T08:42:09Z</time>
      </trkpt>
      <trkpt lat="47.69474" lon="6.0556">
        <ele>245.99</ele>
        <time>2018-01-31T08:42:11Z</time>
      </trkpt>
      <trkpt lat="47.69477" lon="6.05567">
        <ele>246.04</ele>
        <time>2018-01-31T08:42:13Z</time>
      </trkpt>
      <trkpt lat="47.6948" lon="6.05575">
        <ele>246.09</ele>
        <time>2018-01-31T08:42:15Z</time>
      </trkpt>
      <trkpt lat="47.69483" lon="6.05582">
        <ele>246.15</ele>
        <time>2018-01-31T08:42:17Z</time>
      </trkpt>
      <trkpt lat="47.69486" lon="6.05589">
        <ele>246.2</ele>
        <time>2018-01-31T08:42:19Z</time>
      </trkpt>
      <trkpt lat="47.69488" lon="6.05596">
        <ele>246.26</ele>
        <time>2018-01-31T08:42:21Z</time>
      </trkpt>
      <trkpt lat="47.69491" lon="6.05603">
        <ele>246.32</ele>
        <time>2018-01-31T08:42:23Z</time>
      </trkpt>
      <trkpt lat="47.69493" lon="6.0561">
        <ele>246.38</ele>
        <time>2018-01-31T08:42:25Z</time>
      </trkpt>
      <trkpt lat="47.69496" lon="6.05618">
        <ele>246.45</ele>
        <time>2018-01-31T08:42:27Z</time>
      </trkpt>
      <trkpt lat="47.69498" lon="6.05625">
        <ele>246.51</ele>
        <time>2018-01-31T08:42:29Z</time>
      </trkpt>
      <trkpt lat="47.69499" lon="6.05632">
        <ele>246.57</ele>
        <time>2018-01-31T08:42:31Z</time>
      </trkpt>
      <trkpt lat="47.69501" lon="6.05639">
        <ele>246.64</ele>
        <time>2018-01-31T08:42:33Z</time>
      </trkpt>
      <trkpt lat="47.69502" lon="6.05646">
        <ele>246.71</ele>
        <time>2018-01-31T08:42:35Z</time>
      </trkpt>
      <trkpt lat="47.69504" lon="6.05653">
        <ele>246.78</ele>
        <time>2018-01-31T08:42:37Z</time>
      </trkpt>
      <trkpt lat="47.69506" lon="6.0566">
        <ele>246.85</ele>
        <time>2018-01-31T08:42:39Z</time>
      </trkpt>
      <trkpt lat="47.69507" lon="6.05668">
        <ele>246.93</ele>
        <time>2018-01-31T08:42:41Z</time>
      </trkpt>
      <trkpt lat="47.69509" lon="6.05674">
        <ele>247</ele>
        <time>2018-01-31T08:42:43Z</time>
      </trkpt>
      <trkpt lat="47.69511" lon="6.05684">
        <ele>247.12</ele>
        <time>2018-01-31T08:42:46Z</time>
      </trkpt>
      <trkpt lat="47.69514" lon="6.05691">
        <ele>247.2</ele>
        <time>2018-01-31T08:42:48Z</time>
      </trkpt>
      <trkpt lat="47.69516" lon="6.05698">
        <ele>247.28</ele>
        <time>2018-01-31T08:42:50Z</time>
      </trkpt>
      <trkpt lat="47.69517" lon="6.05706">
        <ele>247.36</ele>
        <time>2018-01-31T08:42:52Z</time>
      </trkpt>
      <trkpt lat="47.6952" lon="6.05715">
        <ele>247.49</ele>
        <time>2018-01-31T08:42:55Z</time>
      </trkpt>
      <trkpt lat="47.69522" lon="6.05722">
        <ele>247.57</ele>
        <time>2018-01-31T08:42:57Z</time>
      </trkpt>
      <trkpt lat="47.69524" lon="6.05728">
        <ele>247.66</ele>
        <time>2018-01-31T08:42:59Z</time>
      </trkpt>
      <trkpt lat="47.69526" lon="6.05735">
        <ele>247.75</ele>
        <time>2018-01-31T08:43:01Z</time>
      </trkpt>
      <trkpt lat="47.69527" lon="6.05741">
        <ele>247.84</ele>
        <time>2018-01-31T08:43:03Z</time>
      </trkpt>
      <trkpt lat="47.69529" lon="6.05748">
        <ele>247.93</ele>
        <time>2018-01-31T08:43:05Z</time>
      </trkpt>
      <trkpt lat="47.69532" lon="6.05755">
        <ele>248.01</ele>
        <time>2018-01-31T08:43:07Z</time>
      </trkpt>
      <trkpt lat="47.69534" lon="6.05762">
        <ele>248.1</ele>
        <time>2018-01-31T08:43:09Z</time>
      </trkpt>
      <trkpt lat="47.69536" lon="6.05769">
        <ele>248.19</ele>
        <time>2018-01-31T08:43:11Z</time>
      </trkpt>
      <trkpt lat="47.69538" lon="6.05776">
        <ele>248.28</ele>
        <time>2018-01-31T08:43:13Z</time>
      </trkpt>
      <trkpt lat="47.6954" lon="6.05782">
        <ele>248.37</ele>
        <time>2018-01-31T08:43:15Z</time>
      </trkpt>
      <trkpt lat="47.69541" lon="6.05789">
        <ele>248.45</ele>
        <time>2018-01-31T08:43:17Z</time>
      </trkpt>
      <trkpt lat="47.69543" lon="6.05796">
        <ele>248.54</ele>
        <time>2018-01-31T08:43:19Z</time>
      </trkpt>
      <trkpt lat="47.69544" lon="6.05803">
        <ele>248.64</ele>
        <time>2018-01-31T08:43:21Z</time>
      </trkpt>
      <trkpt lat="47.69546" lon="6.05809">
        <ele>248.73</ele>
        <time>2018-01-31T08:43:23Z</time>
      </trkpt>
      <trkpt lat="47.69548" lon="6.05816">
        <ele>248.82</ele>
        <time>2018-01-31T08:43:25Z</time>
      </trkpt>
      <trkpt lat="47.6955" lon="6.05825">
        <ele>248.96</ele>
        <time>2018-01-31T08:43:28Z</time>
      </trkpt>
      <trkpt lat="47.69552" lon="6.05832">
        <ele>249.06</ele>
        <time>2018-01-31T08:43:30Z</time>
      </trkpt>
      <trkpt lat="47.69554" lon="6.05838">
        <ele>249.16</ele>
        <time>2018-01-31T08:43:32Z</time>
      </trkpt>
      <trkpt lat="47.69555" lon="6.05846">
        <ele>249.25</ele>
        <time>2018-01-31T08:43:34Z</time>
      </trkpt>
      <trkpt lat="47.69557" lon="6.05853">
        <ele>249.35</ele>
        <time>2018-01-31T08:43:36Z</time>
      </trkpt>
      <trkpt lat="47.69559" lon="6.0586">
        <ele>249.45</ele>
        <time>2018-01-31T08:43:38Z</time>
      </trkpt>
      <trkpt lat="47.69561" lon="6.05867">
        <ele>249.54</ele>
        <time>2018-01-31T08:43:40Z</time>
      </trkpt>
      <trkpt lat="47.69563" lon="6.05875">
        <ele>249.64</ele>
        <time>2018-01-31T08:43:42Z</time>
      </trkpt>
      <trkpt lat="47.69565" lon="6.05881">
        <ele>249.73</ele>
        <time>2018-01-31T08:43:44Z</time>
      </trkpt>
      <trkpt lat="47.69566" lon="6.05888">
        <ele>249.82</ele>
        <time>2018-01-31T08:43:46Z</time>
      </trkpt>
      <trkpt lat="47.69568" lon="6.05895">
        <ele>249.91</ele>
        <time>2018-01-31T08:43:48Z</time>
      </trkpt>
      <trkpt lat="47.69569" lon="6.05903">
        <ele>250</ele>
        <time>2018-01-31T08:43:50Z</time>
      </trkpt>
      <trkpt lat="47.69571" lon="6.0591">
        <ele>250.09</ele>
        <time>2018-01-31T08:43:52Z</time>
      </trkpt>
      <trkpt lat="47.69572" lon="6.05918">
        <ele>250.18</ele>
        <time>2018-01-31T08:43:54Z</time>
      </trkpt>
      <trkpt lat="47.69574" lon="6.05925">
        <ele>250.27</ele>
        <time>2018-01-31T08:43:56Z</time>
      </trkpt>
      <trkpt lat="47.69576" lon="6.05933">
        <ele>250.36</ele>
        <time>2018-01-31T08:43:58Z</time>
      </trkpt>
      <trkpt lat="47.69577" lon="6.05941">
        <ele>250.45</ele>
        <time>2018-01-31T08:44:00Z</time>
      </trkpt>
      <trkpt lat="47.69578" lon="6.05948">
        <ele>250.54</ele>
        <time>2018-01-31T08:44:02Z</time>
      </trkpt>
      <trkpt lat="47.69579" lon="6.05957">
        <ele>250.64</ele>
        <time>2018-01-31T08:44:04Z</time>
      </trkpt>
      <trkpt lat="47.69581" lon="6.05964">
        <ele>250.73</ele>
        <time>2018-01-31T08:44:06Z</time>
      </trkpt>
      <trkpt lat="47.69583" lon="6.05972">
        <ele>250.82</ele>
        <time>2018-01-31T08:44:08Z</time>
      </trkpt>
      <trkpt lat="47.69585" lon="6.0598">
        <ele>250.91</ele>
        <time>2018-01-31T08:44:10Z</time>
      </trkpt>
      <trkpt lat="47.69587" lon="6.05988">
        <ele>251.01</ele>
        <time>2018-01-31T08:44:12Z</time>
      </trkpt>
      <trkpt lat="47.6959" lon="6.05995">
        <ele>251.1</ele>
        <time>2018-01-31T08:44:14Z</time>
      </trkpt>
      <trkpt lat="47.69592" lon="6.06002">
        <ele>251.19</ele>
        <time>2018-01-31T08:44:16Z</time>
      </trkpt>
      <trkpt lat="47.69594" lon="6.06009">
        <ele>251.29</ele>
        <time>2018-01-31T08:44:18Z</time>
      </trkpt>
      <trkpt lat="47.69596" lon="6.06017">
        <ele>251.38</ele>
        <time>2018-01-31T08:44:20Z</time>
      </trkpt>
      <trkpt lat="47.69599" lon="6.06024">
        <ele>251.47</ele>
        <time>2018-01-31T08:44:22Z</time>
      </trkpt>
      <trkpt lat="47.69601" lon="6.06031">
        <ele>251.57</ele>
        <time>2018-01-31T08:44:24Z</time>
      </trkpt>
      <trkpt lat="47.69603" lon="6.06038">
        <ele>251.66</ele>
        <time>2018-01-31T08:44:26Z</time>
      </trkpt>
      <trkpt lat="47.69606" lon="6.06045">
        <ele>251.75</ele>
        <time>2018-01-31T08:44:28Z</time>
      </trkpt>
      <trkpt lat="47.69608" lon="6.06052">
        <ele>251.84</ele>
        <time>2018-01-31T08:44:30Z</time>
      </trkpt>
      <trkpt lat="47.6961" lon="6.06058">
        <ele>251.94</ele>
        <time>2018-01-31T08:44:32Z</time>
      </trkpt>
      <trkpt lat="47.69612" lon="6.06065">
        <ele>252.03</ele>
        <time>2018-01-31T08:44:34Z</time>
      </trkpt>
      <trkpt lat="47.69615" lon="6.06074">
        <ele>252.17</ele>
        <time>2018-01-31T08:44:37Z</time>
      </trkpt>
      <trkpt lat="47.69618" lon="6.06083">
        <ele>252.31</ele>
        <time>2018-01-31T08:44:40Z</time>
      </trkpt>
      <trkpt lat="47.69621" lon="6.06092">
        <ele>252.45</ele>
        <time>2018-01-31T08:44:43Z</time>
      </trkpt>
      <trkpt lat="47.69623" lon="6.06098">
        <ele>252.54</ele>
        <time>2018-01-31T08:44:45Z</time>
      </trkpt>
      <trkpt lat="47.69626" lon="6.06107">
        <ele>252.67</ele>
        <time>2018-01-31T08:44:48Z</time>
      </trkpt>
      <trkpt lat="47.69628" lon="6.06113">
        <ele>252.76</ele>
        <time>2018-01-31T08:44:50Z</time>
      </trkpt>
      <trkpt lat="47.6963" lon="6.0612">
        <ele>252.85</ele>
        <time>2018-01-31T08:44:52Z</time>
      </trkpt>
      <trkpt lat="47.69633" lon="6.06129">
        <ele>252.97</ele>
        <time>2018-01-31T08:44:55Z</time>
      </trkpt>
      <trkpt lat="47.69635" lon="6.06135">
        <ele>253.05</ele>
        <time>2018-01-31T08:44:57Z</time>
      </trkpt>
      <trkpt lat="47.69637" lon="6.06142">
        <ele>253.13</ele>
        <time>2018-01-31T08:44:59Z</time>
      </trkpt>
      <trkpt lat="47.69639" lon="6.06149">
        <ele>253.21</ele>
        <time>2018-01-31T08:45:01Z</time>
      </trkpt>
      <trkpt lat="47.69641" lon="6.06156">
        <ele>253.29</ele>
        <time>2018-01-31T08:45:03Z</time>
      </trkpt>
      <trkpt lat="47.69643" lon="6.06164">
        <ele>253.37</ele>
        <time>2018-01-31T08:45:05Z</time>
      </trkpt>
      <trkpt lat="47.69645" lon="6.06172">
        <ele>253.45</ele>
        <time>2018-01-31T08:45:07Z</time>
      </trkpt>
      <trkpt lat="47.69647" lon="6.0618">
        <ele>253.53</ele>
        <time>2018-01-31T08:45:09Z</time>
      </trkpt>
      <trkpt lat="47.69649" lon="6.06189">
        <ele>253.61</ele>
        <time>2018-01-31T08:45:11Z</time>
      </trkpt>
      <trkpt lat="47.69651" lon="6.06198">
        <ele>253.69</ele>
        <time>2018-01-31T08:45:13Z</time>
      </trkpt>
      <trkpt lat="47.69654" lon="6.06208">
        <ele>253.76</ele>
        <time>2018-01-31T08:45:15Z</time>
      </trkpt>
      <trkpt lat="47.69655" lon="6.06217">
        <ele>253.84</ele>
        <time>2018-01-31T08:45:17Z</time>
      </trkpt>
      <trkpt lat="47.69657" lon="6.06226">
        <ele>253.92</ele>
        <time>2018-01-31T08:45:18Z</time>
      </trkpt>
      <trkpt lat="47.69659" lon="6.06235">
        <ele>254</ele>
        <time>2018-01-31T08:45:20Z</time>
      </trkpt>
      <trkpt lat="47.69661" lon="6.06244">
        <ele>254.09</ele>
        <time>2018-01-31T08:45:22Z</time>
      </trkpt>
      <trkpt lat="47.69663" lon="6.06252">
        <ele>254.17</ele>
        <time>2018-01-31T08:45:24Z</time>
      </trkpt>
      <trkpt lat="47.69665" lon="6.0626">
        <ele>254.25</ele>
        <time>2018-01-31T08:45:26Z</time>
      </trkpt>
      <trkpt lat="47.69667" lon="6.06268">
        <ele>254.33</ele>
        <time>2018-01-31T08:45:28Z</time>
      </trkpt>
      <trkpt lat="47.69669" lon="6.06276">
        <ele>254.42</ele>
        <time>2018-01-31T08:45:30Z</time>
      </trkpt>
      <trkpt lat="47.69671" lon="6.06284">
        <ele>254.5</ele>
        <time>2018-01-31T08:45:32Z</time>
      </trkpt>
      <trkpt lat="47.69672" lon="6.06292">
        <ele>254.58</ele>
        <time>2018-01-31T08:45:34Z</time>
      </trkpt>
      <trkpt lat="47.69674" lon="6.063">
        <ele>254.67</ele>
        <time>2018-01-31T08:45:36Z</time>
      </trkpt>
      <trkpt lat="47.69675" lon="6.06308">
        <ele>254.75</ele>
        <time>2018-01-31T08:45:38Z</time>
      </trkpt>
      <trkpt lat="47.69677" lon="6.06317">
        <ele>254.84</ele>
        <time>2018-01-31T08:45:40Z</time>
      </trkpt>
      <trkpt lat="47.69678" lon="6.06327">
        <ele>254.92</ele>
        <time>2018-01-31T08:45:42Z</time>
      </trkpt>
      <trkpt lat="47.69681" lon="6.06334">
        <ele>255.01</ele>
        <time>2018-01-31T08:45:44Z</time>
      </trkpt>
      <trkpt lat="47.69683" lon="6.06342">
        <ele>255.09</ele>
        <time>2018-01-31T08:45:46Z</time>
      </trkpt>
      <trkpt lat="47.69686" lon="6.0635">
        <ele>255.18</ele>
        <time>2018-01-31T08:45:48Z</time>
      </trkpt>
      <trkpt lat="47.69689" lon="6.06359">
        <ele>255.26</ele>
        <time>2018-01-31T08:45:50Z</time>
      </trkpt>
      <trkpt lat="47.69692" lon="6.06369">
        <ele>255.91</ele>
        <time>2018-01-31T08:45:52Z</time>
      </trkpt>
      <trkpt lat="47.69696" lon="6.06381">
        <ele>256.48</ele>
        <time>2018-01-31T08:45:54Z</time>
      </trkpt>
      <trkpt lat="47.69701" lon="6.06392">
        <ele>256.87</ele>
        <time>2018-01-31T08:45:56Z</time>
      </trkpt>
      <trkpt lat="47.69704" lon="6.06398">
        <ele>257.01</ele>
        <time>2018-01-31T08:45:57Z</time>
      </trkpt>
      <trkpt lat="47.69706" lon="6.06404">
        <ele>257.13</ele>
        <time>2018-01-31T08:45:58Z</time>
      </trkpt>
      <trkpt lat="47.69709" lon="6.0641">
        <ele>257.23</ele>
        <time>2018-01-31T08:45:59Z</time>
      </trkpt>
      <trkpt lat="47.69712" lon="6.06417">
        <ele>257.31</ele>
        <time>2018-01-31T08:46:00Z</time>
      </trkpt>
      <trkpt lat="47.69714" lon="6.06423">
        <ele>257.38</ele>
        <time>2018-01-31T08:46:01Z</time>
      </trkpt>
      <trkpt lat="47.69716" lon="6.0643">
        <ele>257.44</ele>
        <time>2018-01-31T08:46:02Z</time>
      </trkpt>
      <trkpt lat="47.69719" lon="6.06436">
        <ele>257.49</ele>
        <time>2018-01-31T08:46:03Z</time>
      </trkpt>
      <trkpt lat="47.69722" lon="6.06447">
        <ele>257.56</ele>
        <time>2018-01-31T08:46:05Z</time>
      </trkpt>
      <trkpt lat="47.69725" lon="6.06455">
        <ele>257.57</ele>
        <time>2018-01-31T08:46:07Z</time>
      </trkpt>
      <trkpt lat="47.69725" lon="6.06465">
        <ele>257.59</ele>
        <time>2018-01-31T08:46:10Z</time>
      </trkpt>
      <trkpt lat="47.69726" lon="6.06472">
        <ele>257.6</ele>
        <time>2018-01-31T08:46:12Z</time>
      </trkpt>
      <trkpt lat="47.69726" lon="6.0648">
        <ele>257.61</ele>
        <time>2018-01-31T08:46:14Z</time>
      </trkpt>
      <trkpt lat="47.69725" lon="6.06488">
        <ele>257.62</ele>
        <time>2018-01-31T08:46:16Z</time>
      </trkpt>
      <trkpt lat="47.69724" lon="6.06495">
        <ele>257.64</ele>
        <time>2018-01-31T08:46:18Z</time>
      </trkpt>
      <trkpt lat="47.69723" lon="6.06504">
        <ele>257.67</ele>
        <time>2018-01-31T08:46:21Z</time>
      </trkpt>
      <trkpt lat="47.69721" lon="6.06512">
        <ele>257.7</ele>
        <time>2018-01-31T08:46:24Z</time>
      </trkpt>
      <trkpt lat="47.6972" lon="6.0652">
        <ele>257.74</ele>
        <time>2018-01-31T08:46:27Z</time>
      </trkpt>
      <trkpt lat="47.69719" lon="6.06528">
        <ele>257.78</ele>
        <time>2018-01-31T08:46:30Z</time>
      </trkpt>
      <trkpt lat="47.69719" lon="6.06537">
        <ele>257.82</ele>
        <time>2018-01-31T08:46:33Z</time>
      </trkpt>
      <trkpt lat="47.69719" lon="6.06545">
        <ele>257.88</ele>
        <time>2018-01-31T08:46:37Z</time>
      </trkpt>
      <trkpt lat="47.69719" lon="6.06553">
        <ele>257.93</ele>
        <time>2018-01-31T08:46:40Z</time>
      </trkpt>
      <trkpt lat="47.69718" lon="6.0656">
        <ele>257.99</ele>
        <time>2018-01-31T08:46:43Z</time>
      </trkpt>
      <trkpt lat="47.69717" lon="6.06568">
        <ele>258.05</ele>
        <time>2018-01-31T08:46:46Z</time>
      </trkpt>
      <trkpt lat="47.69717" lon="6.06576">
        <ele>258.14</ele>
        <time>2018-01-31T08:46:50Z</time>
      </trkpt>
      <trkpt lat="47.69717" lon="6.06584">
        <ele>258.21</ele>
        <time>2018-01-31T08:46:53Z</time>
      </trkpt>
      <trkpt lat="47.69716" lon="6.06593">
        <ele>258.3</ele>
        <time>2018-01-31T08:46:57Z</time>
      </trkpt>
      <trkpt lat="47.69715" lon="6.06601">
        <ele>258.36</ele>
        <time>2018-01-31T08:47:00Z</time>
      </trkpt>
      <trkpt lat="47.69714" lon="6.06608">
        <ele>258.45</ele>
        <time>2018-01-31T08:47:04Z</time>
      </trkpt>
      <trkpt lat="47.69712" lon="6.06615">
        <ele>258.53</ele>
        <time>2018-01-31T08:47:08Z</time>
      </trkpt>
      <trkpt lat="47.69712" lon="6.06623">
        <ele>258.59</ele>
        <time>2018-01-31T08:47:11Z</time>
      </trkpt>
      <trkpt lat="47.69713" lon="6.0663">
        <ele>258.65</ele>
        <time>2018-01-31T08:47:14Z</time>
      </trkpt>
      <trkpt lat="47.69713" lon="6.06637">
        <ele>258.74</ele>
        <time>2018-01-31T08:47:19Z</time>
      </trkpt>
      <trkpt lat="47.69716" lon="6.06644">
        <ele>258.83</ele>
        <time>2018-01-31T08:47:24Z</time>
      </trkpt>
      <trkpt lat="47.69718" lon="6.06652">
        <ele>258.89</ele>
        <time>2018-01-31T08:47:28Z</time>
      </trkpt>
      <trkpt lat="47.69716" lon="6.06658">
        <ele>258.94</ele>
        <time>2018-01-31T08:47:32Z</time>
      </trkpt>
      <trkpt lat="47.69711" lon="6.06668">
        <ele>258.96</ele>
        <time>2018-01-31T08:47:33Z</time>
      </trkpt>
      <trkpt lat="47.69712" lon="6.06675">
        <ele>259.01</ele>
        <time>2018-01-31T08:47:36Z</time>
      </trkpt>
      <trkpt lat="47.69714" lon="6.06682">
        <ele>259.07</ele>
        <time>2018-01-31T08:47:40Z</time>
      </trkpt>
      <trkpt lat="47.69713" lon="6.06689">
        <ele>259.12</ele>
        <time>2018-01-31T08:47:43Z</time>
      </trkpt>
      <trkpt lat="47.69713" lon="6.06698">
        <ele>259.17</ele>
        <time>2018-01-31T08:47:46Z</time>
      </trkpt>
      <trkpt lat="47.69713" lon="6.06707">
        <ele>259.19</ele>
        <time>2018-01-31T08:47:48Z</time>
      </trkpt>
      <trkpt lat="47.69713" lon="6.06716">
        <ele>259.22</ele>
        <time>2018-01-31T08:47:50Z</time>
      </trkpt>
      <trkpt lat="47.69711" lon="6.06726">
        <ele>259.25</ele>
        <time>2018-01-31T08:47:52Z</time>
      </trkpt>
      <trkpt lat="47.6971" lon="6.06733">
        <ele>259.26</ele>
        <time>2018-01-31T08:47:53Z</time>
      </trkpt>
      <trkpt lat="47.69712" lon="6.0674">
        <ele>259.27</ele>
        <time>2018-01-31T08:47:54Z</time>
      </trkpt>
      <trkpt lat="47.6971" lon="6.06752">
        <ele>259.3</ele>
        <time>2018-01-31T08:47:56Z</time>
      </trkpt>
      <trkpt lat="47.69705" lon="6.06763">
        <ele>259.31</ele>
        <time>2018-01-31T08:47:57Z</time>
      </trkpt>
      <trkpt lat="47.69704" lon="6.06771">
        <ele>259.34</ele>
        <time>2018-01-31T08:47:59Z</time>
      </trkpt>
      <trkpt lat="47.69704" lon="6.06779">
        <ele>259.37</ele>
        <time>2018-01-31T08:48:01Z</time>
      </trkpt>
      <trkpt lat="47.69704" lon="6.06786">
        <ele>259.41</ele>
        <time>2018-01-31T08:48:04Z</time>
      </trkpt>
      <trkpt lat="47.69703" lon="6.06795">
        <ele>259.44</ele>
        <time>2018-01-31T08:48:06Z</time>
      </trkpt>
      <trkpt lat="47.69703" lon="6.06804">
        <ele>259.5</ele>
        <time>2018-01-31T08:48:09Z</time>
      </trkpt>
      <trkpt lat="47.69701" lon="6.0681">
        <ele>259.84</ele>
        <time>2018-01-31T08:48:35Z</time>
      </trkpt>
      <trkpt lat="47.69699" lon="6.06819">
        <ele>260.4</ele>
        <time>2018-01-31T08:49:55Z</time>
      </trkpt>
      <trkpt lat="47.697" lon="6.06826">
        <ele>260.45</ele>
        <time>2018-01-31T08:49:57Z</time>
      </trkpt>
      <trkpt lat="47.69701" lon="6.06836">
        <ele>260.5</ele>
        <time>2018-01-31T08:49:59Z</time>
      </trkpt>
      <trkpt lat="47.69701" lon="6.06848">
        <ele>260.56</ele>
        <time>2018-01-31T08:50:01Z</time>
      </trkpt>
      <trkpt lat="47.69701" lon="6.06859">
        <ele>260.61</ele>
        <time>2018-01-31T08:50:03Z</time>
      </trkpt>
      <trkpt lat="47.69702" lon="6.06868">
        <ele>260.66</ele>
        <time>2018-01-31T08:50:05Z</time>
      </trkpt>
      <trkpt lat="47.69702" lon="6.06876">
        <ele>260.72</ele>
        <time>2018-01-31T08:50:07Z</time>
      </trkpt>
      <trkpt lat="47.69703" lon="6.06884">
        <ele>260.78</ele>
        <time>2018-01-31T08:50:09Z</time>
      </trkpt>
      <trkpt lat="47.69706" lon="6.06893">
        <ele>260.84</ele>
        <time>2018-01-31T08:50:11Z</time>
      </trkpt>
      <trkpt lat="47.69707" lon="6.06899">
        <ele>260.9</ele>
        <time>2018-01-31T08:50:13Z</time>
      </trkpt>
      <trkpt lat="47.69707" lon="6.06909">
        <ele>261.02</ele>
        <time>2018-01-31T08:50:17Z</time>
      </trkpt>
      <trkpt lat="47.69709" lon="6.06916">
        <ele>261.12</ele>
        <time>2018-01-31T08:50:20Z</time>
      </trkpt>
      <trkpt lat="47.69711" lon="6.06922">
        <ele>261.18</ele>
        <time>2018-01-31T08:50:22Z</time>
      </trkpt>
      <trkpt lat="47.69713" lon="6.06931">
        <ele>261.28</ele>
        <time>2018-01-31T08:50:25Z</time>
      </trkpt>
      <trkpt lat="47.69714" lon="6.06942">
        <ele>261.39</ele>
        <time>2018-01-31T08:50:28Z</time>
      </trkpt>
      <trkpt lat="47.69717" lon="6.06951">
        <ele>261.46</ele>
        <time>2018-01-31T08:50:30Z</time>
      </trkpt>
      <trkpt lat="47.6972" lon="6.0696">
        <ele>261.54</ele>
        <time>2018-01-31T08:50:32Z</time>
      </trkpt>
      <trkpt lat="47.69725" lon="6.06969">
        <ele>261.61</ele>
        <time>2018-01-31T08:50:34Z</time>
      </trkpt>
      <trkpt lat="47.69727" lon="6.06976">
        <ele>261.69</ele>
        <time>2018-01-31T08:50:36Z</time>
      </trkpt>
      <trkpt lat="47.69729" lon="6.06983">
        <ele>261.77</ele>
        <time>2018-01-31T08:50:38Z</time>
      </trkpt>
      <trkpt lat="47.69732" lon="6.0699">
        <ele>261.85</ele>
        <time>2018-01-31T08:50:40Z</time>
      </trkpt>
      <trkpt lat="47.69734" lon="6.06997">
        <ele>261.93</ele>
        <time>2018-01-31T08:50:42Z</time>
      </trkpt>
      <trkpt lat="47.69737" lon="6.07003">
        <ele>262.01</ele>
        <time>2018-01-31T08:50:44Z</time>
      </trkpt>
      <trkpt lat="47.6974" lon="6.0701">
        <ele>262.09</ele>
        <time>2018-01-31T08:50:46Z</time>
      </trkpt>
      <trkpt lat="47.69744" lon="6.07017">
        <ele>262.18</ele>
        <time>2018-01-31T08:50:48Z</time>
      </trkpt>
      <trkpt lat="47.69747" lon="6.07022">
        <ele>262.22</ele>
        <time>2018-01-31T08:50:49Z</time>
      </trkpt>
      <trkpt lat="47.6975" lon="6.07027">
        <ele>262.26</ele>
        <time>2018-01-31T08:50:50Z</time>
      </trkpt>
      <trkpt lat="47.69756" lon="6.07036">
        <ele>262.34</ele>
        <time>2018-01-31T08:50:52Z</time>
      </trkpt>
      <trkpt lat="47.6976" lon="6.07044">
        <ele>262.42</ele>
        <time>2018-01-31T08:50:54Z</time>
      </trkpt>
      <trkpt lat="47.69764" lon="6.07052">
        <ele>262.5</ele>
        <time>2018-01-31T08:50:56Z</time>
      </trkpt>
      <trkpt lat="47.69767" lon="6.0706">
        <ele>262.58</ele>
        <time>2018-01-31T08:50:58Z</time>
      </trkpt>
      <trkpt lat="47.6977" lon="6.07068">
        <ele>262.66</ele>
        <time>2018-01-31T08:51:00Z</time>
      </trkpt>
      <trkpt lat="47.69774" lon="6.07078">
        <ele>262.74</ele>
        <time>2018-01-31T08:51:02Z</time>
      </trkpt>
      <trkpt lat="47.69778" lon="6.07087">
        <ele>262.81</ele>
        <time>2018-01-31T08:51:04Z</time>
      </trkpt>
      <trkpt lat="47.69782" lon="6.07095">
        <ele>262.88</ele>
        <time>2018-01-31T08:51:06Z</time>
      </trkpt>
      <trkpt lat="47.69785" lon="6.07102">
        <ele>262.95</ele>
        <time>2018-01-31T08:51:08Z</time>
      </trkpt>
      <trkpt lat="47.69788" lon="6.0711">
        <ele>263.02</ele>
        <time>2018-01-31T08:51:10Z</time>
      </trkpt>
      <trkpt lat="47.6979" lon="6.07118">
        <ele>263.08</ele>
        <time>2018-01-31T08:51:12Z</time>
      </trkpt>
      <trkpt lat="47.69793" lon="6.07126">
        <ele>263.14</ele>
        <time>2018-01-31T08:51:14Z</time>
      </trkpt>
      <trkpt lat="47.69797" lon="6.07136">
        <ele>263.2</ele>
        <time>2018-01-31T08:51:16Z</time>
      </trkpt>
      <trkpt lat="47.698" lon="6.07147">
        <ele>263.26</ele>
        <time>2018-01-31T08:51:18Z</time>
      </trkpt>
      <trkpt lat="47.69801" lon="6.07158">
        <ele>263.32</ele>
        <time>2018-01-31T08:51:20Z</time>
      </trkpt>
      <trkpt lat="47.69802" lon="6.07168">
        <ele>263.37</ele>
        <time>2018-01-31T08:51:22Z</time>
      </trkpt>
      <trkpt lat="47.69803" lon="6.07177">
        <ele>263.42</ele>
        <time>2018-01-31T08:51:24Z</time>
      </trkpt>
      <trkpt lat="47.69803" lon="6.07185">
        <ele>263.47</ele>
        <time>2018-01-31T08:51:26Z</time>
      </trkpt>
      <trkpt lat="47.69803" lon="6.07192">
        <ele>263.52</ele>
        <time>2018-01-31T08:51:28Z</time>
      </trkpt>
      <trkpt lat="47.69803" lon="6.07199">
        <ele>263.56</ele>
        <time>2018-01-31T08:51:30Z</time>
      </trkpt>
      <trkpt lat="47.69803" lon="6.07209">
        <ele>263.63</ele>
        <time>2018-01-31T08:51:33Z</time>
      </trkpt>
      <trkpt lat="47.69803" lon="6.07217">
        <ele>263.67</ele>
        <time>2018-01-31T08:51:35Z</time>
      </trkpt>
      <trkpt lat="47.69803" lon="6.07228">
        <ele>263.84</ele>
        <time>2018-01-31T08:51:37Z</time>
      </trkpt>
      <trkpt lat="47.69803" lon="6.0724">
        <ele>263.92</ele>
        <time>2018-01-31T08:51:39Z</time>
      </trkpt>
      <trkpt lat="47.69804" lon="6.07252">
        <ele>263.95</ele>
        <time>2018-01-31T08:51:41Z</time>
      </trkpt>
      <trkpt lat="47.69804" lon="6.07261">
        <ele>263.98</ele>
        <time>2018-01-31T08:51:43Z</time>
      </trkpt>
      <trkpt lat="47.69804" lon="6.07271">
        <ele>264</ele>
        <time>2018-01-31T08:51:45Z</time>
      </trkpt>
      <trkpt lat="47.69804" lon="6.07281">
        <ele>264.02</ele>
        <time>2018-01-31T08:51:47Z</time>
      </trkpt>
      <trkpt lat="47.69803" lon="6.0729">
        <ele>264.05</ele>
        <time>2018-01-31T08:51:49Z</time>
      </trkpt>
      <trkpt lat="47.69802" lon="6.073">
        <ele>264.07</ele>
        <time>2018-01-31T08:51:51Z</time>
      </trkpt>
      <trkpt lat="47.69801" lon="6.07309">
        <ele>264.08</ele>
        <time>2018-01-31T08:51:53Z</time>
      </trkpt>
      <trkpt lat="47.69801" lon="6.07319">
        <ele>264.1</ele>
        <time>2018-01-31T08:51:55Z</time>
      </trkpt>
      <trkpt lat="47.698" lon="6.07329">
        <ele>264.12</ele>
        <time>2018-01-31T08:51:57Z</time>
      </trkpt>
      <trkpt lat="47.69799" lon="6.0734">
        <ele>264.24</ele>
        <time>2018-01-31T08:51:59Z</time>
      </trkpt>
      <trkpt lat="47.69798" lon="6.07351">
        <ele>264.27</ele>
        <time>2018-01-31T08:52:01Z</time>
      </trkpt>
      <trkpt lat="47.69797" lon="6.0736">
        <ele>264.29</ele>
        <time>2018-01-31T08:52:03Z</time>
      </trkpt>
      <trkpt lat="47.69796" lon="6.07369">
        <ele>264.3</ele>
        <time>2018-01-31T08:52:05Z</time>
      </trkpt>
      <trkpt lat="47.69796" lon="6.07378">
        <ele>264.31</ele>
        <time>2018-01-31T08:52:07Z</time>
      </trkpt>
      <trkpt lat="47.69795" lon="6.07387">
        <ele>264.32</ele>
        <time>2018-01-31T08:52:09Z</time>
      </trkpt>
      <trkpt lat="47.69794" lon="6.07396">
        <ele>264.33</ele>
        <time>2018-01-31T08:52:11Z</time>
      </trkpt>
      <trkpt lat="47.69793" lon="6.07405">
        <ele>264.34</ele>
        <time>2018-01-31T08:52:13Z</time>
      </trkpt>
      <trkpt lat="47.69792" lon="6.07414">
        <ele>264.35</ele>
        <time>2018-01-31T08:52:15Z</time>
      </trkpt>
      <trkpt lat="47.69791" lon="6.07422">
        <ele>264.36</ele>
        <time>2018-01-31T08:52:17Z</time>
      </trkpt>
      <trkpt lat="47.69791" lon="6.0743">
        <ele>264.37</ele>
        <time>2018-01-31T08:52:19Z</time>
      </trkpt>
      <trkpt lat="47.6979" lon="6.07438">
        <ele>264.38</ele>
        <time>2018-01-31T08:52:21Z</time>
      </trkpt>
      <trkpt lat="47.69789" lon="6.07447">
        <ele>264.39</ele>
        <time>2018-01-31T08:52:23Z</time>
      </trkpt>
      <trkpt lat="47.69789" lon="6.07455">
        <ele>264.4</ele>
        <time>2018-01-31T08:52:25Z</time>
      </trkpt>
      <trkpt lat="47.69789" lon="6.07462">
        <ele>264.41</ele>
        <time>2018-01-31T08:52:27Z</time>
      </trkpt>
      <trkpt lat="47.6979" lon="6.0747">
        <ele>264.42</ele>
        <time>2018-01-31T08:52:29Z</time>
      </trkpt>
      <trkpt lat="47.69791" lon="6.07477">
        <ele>264.43</ele>
        <time>2018-01-31T08:52:31Z</time>
      </trkpt>
      <trkpt lat="47.69795" lon="6.07484">
        <ele>264.44</ele>
        <time>2018-01-31T08:52:33Z</time>
      </trkpt>
      <trkpt lat="47.69799" lon="6.07489">
        <ele>264.45</ele>
        <time>2018-01-31T08:52:35Z</time>
      </trkpt>
      <trkpt lat="47.69802" lon="6.07494">
        <ele>264.46</ele>
        <time>2018-01-31T08:52:37Z</time>
      </trkpt>
      <trkpt lat="47.69807" lon="6.07497">
        <ele>264.47</ele>
        <time>2018-01-31T08:52:39Z</time>
      </trkpt>
      <trkpt lat="47.69811" lon="6.07499">
        <ele>264.48</ele>
        <time>2018-01-31T08:52:41Z</time>
      </trkpt>
      <trkpt lat="47.69816" lon="6.07502">
        <ele>264.48</ele>
        <time>2018-01-31T08:52:43Z</time>
      </trkpt>
      <trkpt lat="47.6982" lon="6.07504">
        <ele>264.49</ele>
        <time>2018-01-31T08:52:45Z</time>
      </trkpt>
      <trkpt lat="47.69826" lon="6.07508">
        <ele>264.5</ele>
        <time>2018-01-31T08:52:48Z</time>
      </trkpt>
      <trkpt lat="47.6983" lon="6.0751">
        <ele>264.51</ele>
        <time>2018-01-31T08:52:50Z</time>
      </trkpt>
      <trkpt lat="47.69836" lon="6.07514">
        <ele>264.52</ele>
        <time>2018-01-31T08:52:52Z</time>
      </trkpt>
      <trkpt lat="47.6984" lon="6.07517">
        <ele>264.52</ele>
        <time>2018-01-31T08:52:54Z</time>
      </trkpt>
      <trkpt lat="47.69844" lon="6.07521">
        <ele>264.53</ele>
        <time>2018-01-31T08:52:57Z</time>
      </trkpt>
      <trkpt lat="47.69848" lon="6.07525">
        <ele>264.54</ele>
        <time>2018-01-31T08:53:01Z</time>
      </trkpt>
      <trkpt lat="47.69851" lon="6.0753">
        <ele>264.53</ele>
        <time>2018-01-31T08:53:22Z</time>
      </trkpt>
      <trkpt lat="47.6985" lon="6.07537">
        <ele>264.52</ele>
        <time>2018-01-31T08:53:34Z</time>
      </trkpt>
      <trkpt lat="47.69847" lon="6.07543">
        <ele>264.51</ele>
        <time>2018-01-31T08:53:37Z</time>
      </trkpt>
      <trkpt lat="47.69844" lon="6.07549">
        <ele>264.49</ele>
        <time>2018-01-31T08:53:42Z</time>
      </trkpt>
      <trkpt lat="47.69842" lon="6.07555">
        <ele>264.47</ele>
        <time>2018-01-31T08:53:47Z</time>
      </trkpt>
      <trkpt lat="47.69845" lon="6.07561">
        <ele>264.45</ele>
        <time>2018-01-31T08:53:53Z</time>
      </trkpt>
      <trkpt lat="47.6985" lon="6.07558">
        <ele>264.43</ele>
        <time>2018-01-31T08:53:58Z</time>
      </trkpt>
      <trkpt lat="47.69854" lon="6.07553">
        <ele>264.42</ele>
        <time>2018-01-31T08:54:04Z</time>
      </trkpt>
      <trkpt lat="47.69857" lon="6.07547">
        <ele>264.4</ele>
        <time>2018-01-31T08:54:13Z</time>
      </trkpt>
      <trkpt lat="47.69862" lon="6.07548">
        <ele>264.4</ele>
        <time>2018-01-31T08:54:21Z</time>
      </trkpt>
      <trkpt lat="47.69866" lon="6.07551">
        <ele>264.39</ele>
        <time>2018-01-31T08:54:31Z</time>
      </trkpt>
      <trkpt lat="47.69871" lon="6.07556">
        <ele>264.39</ele>
        <time>2018-01-31T08:54:34Z</time>
      </trkpt>
      <trkpt lat="47.69877" lon="6.07557">
        <ele>264.38</ele>
        <time>2018-01-31T08:54:37Z</time>
      </trkpt>
      <trkpt lat="47.69883" lon="6.07561">
        <ele>264.37</ele>
        <time>2018-01-31T08:54:39Z</time>
      </trkpt>
      <trkpt lat="47.69891" lon="6.07568">
        <ele>264.35</ele>
        <time>2018-01-31T08:54:41Z</time>
      </trkpt>
      <trkpt lat="47.69897" lon="6.07573">
        <ele>264.35</ele>
        <time>2018-01-31T08:54:43Z</time>
      </trkpt>
      <trkpt lat="47.69904" lon="6.07578">
        <ele>264.35</ele>
        <time>2018-01-31T08:54:45Z</time>
      </trkpt>
      <trkpt lat="47.69911" lon="6.07585">
        <ele>264.34</ele>
        <time>2018-01-31T08:54:47Z</time>
      </trkpt>
      <trkpt lat="47.69917" lon="6.0759">
        <ele>264.34</ele>
        <time>2018-01-31T08:54:49Z</time>
      </trkpt>
      <trkpt lat="47.69923" lon="6.07595">
        <ele>264.34</ele>
        <time>2018-01-31T08:54:51Z</time>
      </trkpt>
      <trkpt lat="47.69928" lon="6.076">
        <ele>264.34</ele>
        <time>2018-01-31T08:54:53Z</time>
      </trkpt>
      <trkpt lat="47.69932" lon="6.07605">
        <ele>264.34</ele>
        <time>2018-01-31T08:54:55Z</time>
      </trkpt>
      <trkpt lat="47.69937" lon="6.07608">
        <ele>264.35</ele>
        <time>2018-01-31T08:54:57Z</time>
      </trkpt>
      <trkpt lat="47.69942" lon="6.07611">
        <ele>264.35</ele>
        <time>2018-01-31T08:55:00Z</time>
      </trkpt>
      <trkpt lat="47.69946" lon="6.07614">
        <ele>264.36</ele>
        <time>2018-01-31T08:55:02Z</time>
      </trkpt>
      <trkpt lat="47.69951" lon="6.07618">
        <ele>264.36</ele>
        <time>2018-01-31T08:55:05Z</time>
      </trkpt>
      <trkpt lat="47.69957" lon="6.07621">
        <ele>264.37</ele>
        <time>2018-01-31T08:55:08Z</time>
      </trkpt>
      <trkpt lat="47.69961" lon="6.07626">
        <ele>264.37</ele>
        <time>2018-01-31T08:55:12Z</time>
      </trkpt>
      <trkpt lat="47.69967" lon="6.0763">
        <ele>264.38</ele>
        <time>2018-01-31T08:55:16Z</time>
      </trkpt>
      <trkpt lat="47.69971" lon="6.07635">
        <ele>264.38</ele>
        <time>2018-01-31T08:55:19Z</time>
      </trkpt>
      <trkpt lat="47.69975" lon="6.07639">
        <ele>264.38</ele>
        <time>2018-01-31T08:55:21Z</time>
      </trkpt>
      <trkpt lat="47.69978" lon="6.07648">
        <ele>264.39</ele>
        <time>2018-01-31T08:55:24Z</time>
      </trkpt>
      <trkpt lat="47.6998" lon="6.07654">
        <ele>264.39</ele>
        <time>2018-01-31T08:55:26Z</time>
      </trkpt>
      <trkpt lat="47.69981" lon="6.07662">
        <ele>264.4</ele>
        <time>2018-01-31T08:55:28Z</time>
      </trkpt>
      <trkpt lat="47.69981" lon="6.07669">
        <ele>264.4</ele>
        <time>2018-01-31T08:55:30Z</time>
      </trkpt>
      <trkpt lat="47.69979" lon="6.07676">
        <ele>264.41</ele>
        <time>2018-01-31T08:55:32Z</time>
      </trkpt>
      <trkpt lat="47.69976" lon="6.07684">
        <ele>264.42</ele>
        <time>2018-01-31T08:55:35Z</time>
      </trkpt>
      <trkpt lat="47.69972" lon="6.0769">
        <ele>264.43</ele>
        <time>2018-01-31T08:55:38Z</time>
      </trkpt>
      <trkpt lat="47.69968" lon="6.07694">
        <ele>264.44</ele>
        <time>2018-01-31T08:55:41Z</time>
      </trkpt>
      <trkpt lat="47.69963" lon="6.077">
        <ele>264.45</ele>
        <time>2018-01-31T08:55:44Z</time>
      </trkpt>
      <trkpt lat="47.6996" lon="6.07708">
        <ele>264.46</ele>
        <time>2018-01-31T08:55:47Z</time>
      </trkpt>
      <trkpt lat="47.69958" lon="6.07716">
        <ele>264.47</ele>
        <time>2018-01-31T08:55:49Z</time>
      </trkpt>
      <trkpt lat="47.69959" lon="6.07725">
        <ele>264.47</ele>
        <time>2018-01-31T08:55:51Z</time>
      </trkpt>
      <trkpt lat="47.6996" lon="6.07735">
        <ele>264.48</ele>
        <time>2018-01-31T08:55:53Z</time>
      </trkpt>
      <trkpt lat="47.69963" lon="6.07743">
        <ele>264.48</ele>
        <time>2018-01-31T08:55:55Z</time>
      </trkpt>
      <trkpt lat="47.69965" lon="6.07751">
        <ele>264.49</ele>
        <time>2018-01-31T08:55:57Z</time>
      </trkpt>
      <trkpt lat="47.69967" lon="6.07758">
        <ele>264.5</ele>
        <time>2018-01-31T08:56:00Z</time>
      </trkpt>
      <trkpt lat="47.6997" lon="6.07765">
        <ele>264.52</ele>
        <time>2018-01-31T08:56:03Z</time>
      </trkpt>
      <trkpt lat="47.69972" lon="6.07772">
        <ele>264.52</ele>
        <time>2018-01-31T08:56:05Z</time>
      </trkpt>
      <trkpt lat="47.69975" lon="6.07778">
        <ele>264.53</ele>
        <time>2018-01-31T08:56:07Z</time>
      </trkpt>
      <trkpt lat="47.6998" lon="6.07781">
        <ele>264.54</ele>
        <time>2018-01-31T08:56:09Z</time>
      </trkpt>
      <trkpt lat="47.69986" lon="6.07784">
        <ele>264.56</ele>
        <time>2018-01-31T08:56:12Z</time>
      </trkpt>
      <trkpt lat="47.69992" lon="6.07785">
        <ele>264.59</ele>
        <time>2018-01-31T08:56:15Z</time>
      </trkpt>
      <trkpt lat="47.69997" lon="6.07786">
        <ele>264.6</ele>
        <time>2018-01-31T08:56:17Z</time>
      </trkpt>
      <trkpt lat="47.70002" lon="6.07789">
        <ele>264.63</ele>
        <time>2018-01-31T08:56:20Z</time>
      </trkpt>
      <trkpt lat="47.70006" lon="6.07792">
        <ele>264.64</ele>
        <time>2018-01-31T08:56:22Z</time>
      </trkpt>
      <trkpt lat="47.7001" lon="6.07797">
        <ele>264.66</ele>
        <time>2018-01-31T08:56:24Z</time>
      </trkpt>
      <trkpt lat="47.70016" lon="6.078">
        <ele>264.68</ele>
        <time>2018-01-31T08:56:26Z</time>
      </trkpt>
      <trkpt lat="47.70022" lon="6.07804">
        <ele>264.7</ele>
        <time>2018-01-31T08:56:28Z</time>
      </trkpt>
      <trkpt lat="47.70027" lon="6.07808">
        <ele>264.72</ele>
        <time>2018-01-31T08:56:30Z</time>
      </trkpt>
      <trkpt lat="47.70034" lon="6.07813">
        <ele>264.81</ele>
        <time>2018-01-31T08:56:32Z</time>
      </trkpt>
      <trkpt lat="47.70042" lon="6.07817">
        <ele>264.97</ele>
        <time>2018-01-31T08:56:34Z</time>
      </trkpt>
      <trkpt lat="47.70047" lon="6.0782">
        <ele>265.04</ele>
        <time>2018-01-31T08:56:35Z</time>
      </trkpt>
      <trkpt lat="47.70051" lon="6.07823">
        <ele>265.09</ele>
        <time>2018-01-31T08:56:36Z</time>
      </trkpt>
      <trkpt lat="47.70055" lon="6.07826">
        <ele>265.14</ele>
        <time>2018-01-31T08:56:37Z</time>
      </trkpt>
      <trkpt lat="47.7006" lon="6.07831">
        <ele>265.17</ele>
        <time>2018-01-31T08:56:38Z</time>
      </trkpt>
      <trkpt lat="47.70064" lon="6.07835">
        <ele>265.2</ele>
        <time>2018-01-31T08:56:39Z</time>
      </trkpt>
      <trkpt lat="47.70066" lon="6.0784">
        <ele>265.23</ele>
        <time>2018-01-31T08:56:40Z</time>
      </trkpt>
      <trkpt lat="47.70069" lon="6.07846">
        <ele>265.24</ele>
        <time>2018-01-31T08:56:41Z</time>
      </trkpt>
      <trkpt lat="47.70072" lon="6.07853">
        <ele>265.25</ele>
        <time>2018-01-31T08:56:42Z</time>
      </trkpt>
      <trkpt lat="47.70074" lon="6.0786">
        <ele>265.26</ele>
        <time>2018-01-31T08:56:43Z</time>
      </trkpt>
      <trkpt lat="47.70076" lon="6.0787">
        <ele>265.25</ele>
        <time>2018-01-31T08:56:44Z</time>
      </trkpt>
      <trkpt lat="47.70078" lon="6.07879">
        <ele>265.24</ele>
        <time>2018-01-31T08:56:45Z</time>
      </trkpt>
      <trkpt lat="47.7008" lon="6.07888">
        <ele>265.22</ele>
        <time>2018-01-31T08:56:46Z</time>
      </trkpt>
      <trkpt lat="47.70081" lon="6.07898">
        <ele>265.19</ele>
        <time>2018-01-31T08:56:47Z</time>
      </trkpt>
      <trkpt lat="47.70082" lon="6.07907">
        <ele>265.16</ele>
        <time>2018-01-31T08:56:48Z</time>
      </trkpt>
      <trkpt lat="47.70081" lon="6.07915">
        <ele>265.13</ele>
        <time>2018-01-31T08:56:49Z</time>
      </trkpt>
      <trkpt lat="47.7008" lon="6.07922">
        <ele>265.09</ele>
        <time>2018-01-31T08:56:50Z</time>
      </trkpt>
      <trkpt lat="47.70076" lon="6.07933">
        <ele>265.03</ele>
        <time>2018-01-31T08:56:52Z</time>
      </trkpt>
      <trkpt lat="47.70072" lon="6.07943">
        <ele>265.01</ele>
        <time>2018-01-31T08:56:54Z</time>
      </trkpt>
      <trkpt lat="47.70068" lon="6.07953">
        <ele>265.01</ele>
        <time>2018-01-31T08:56:56Z</time>
      </trkpt>
      <trkpt lat="47.70064" lon="6.07964">
        <ele>265.01</ele>
        <time>2018-01-31T08:56:58Z</time>
      </trkpt>
      <trkpt lat="47.70061" lon="6.07974">
        <ele>265</ele>
        <time>2018-01-31T08:57:00Z</time>
      </trkpt>
      <trkpt lat="47.70057" lon="6.07986">
        <ele>265</ele>
        <time>2018-01-31T08:57:02Z</time>
      </trkpt>
      <trkpt lat="47.70055" lon="6.07995">
        <ele>265</ele>
        <time>2018-01-31T08:57:04Z</time>
      </trkpt>
      <trkpt lat="47.70052" lon="6.08004">
        <ele>265</ele>
        <time>2018-01-31T08:57:06Z</time>
      </trkpt>
      <trkpt lat="47.7005" lon="6.08011">
        <ele>265.01</ele>
        <time>2018-01-31T08:57:08Z</time>
      </trkpt>
      <trkpt lat="47.70047" lon="6.08019">
        <ele>265.02</ele>
        <time>2018-01-31T08:57:11Z</time>
      </trkpt>
      <trkpt lat="47.70045" lon="6.08027">
        <ele>265.04</ele>
        <time>2018-01-31T08:57:14Z</time>
      </trkpt>
      <trkpt lat="47.70043" lon="6.08034">
        <ele>265.07</ele>
        <time>2018-01-31T08:57:17Z</time>
      </trkpt>
      <trkpt lat="47.70041" lon="6.08041">
        <ele>265.1</ele>
        <time>2018-01-31T08:57:20Z</time>
      </trkpt>
      <trkpt lat="47.70039" lon="6.08048">
        <ele>265.15</ele>
        <time>2018-01-31T08:57:23Z</time>
      </trkpt>
      <trkpt lat="47.70036" lon="6.08055">
        <ele>265.2</ele>
        <time>2018-01-31T08:57:26Z</time>
      </trkpt>
      <trkpt lat="47.70035" lon="6.08061">
        <ele>265.27</ele>
        <time>2018-01-31T08:57:29Z</time>
      </trkpt>
      <trkpt lat="47.70034" lon="6.0807">
        <ele>265.36</ele>
        <time>2018-01-31T08:57:32Z</time>
      </trkpt>
      <trkpt lat="47.70034" lon="6.08077">
        <ele>265.47</ele>
        <time>2018-01-31T08:57:35Z</time>
      </trkpt>
      <trkpt lat="47.70036" lon="6.08085">
        <ele>265.6</ele>
        <time>2018-01-31T08:57:38Z</time>
      </trkpt>
      <trkpt lat="47.70038" lon="6.08092">
        <ele>265.75</ele>
        <time>2018-01-31T08:57:41Z</time>
      </trkpt>
      <trkpt lat="47.70041" lon="6.08099">
        <ele>265.91</ele>
        <time>2018-01-31T08:57:44Z</time>
      </trkpt>
      <trkpt lat="47.70044" lon="6.08105">
        <ele>266.07</ele>
        <time>2018-01-31T08:57:47Z</time>
      </trkpt>
      <trkpt lat="47.70046" lon="6.08112">
        <ele>266.24</ele>
        <time>2018-01-31T08:57:50Z</time>
      </trkpt>
      <trkpt lat="47.70049" lon="6.08119">
        <ele>266.43</ele>
        <time>2018-01-31T08:57:53Z</time>
      </trkpt>
      <trkpt lat="47.70052" lon="6.08127">
        <ele>266.63</ele>
        <time>2018-01-31T08:57:56Z</time>
      </trkpt>
      <trkpt lat="47.70055" lon="6.08134">
        <ele>266.83</ele>
        <time>2018-01-31T08:57:59Z</time>
      </trkpt>
      <trkpt lat="47.70058" lon="6.08141">
        <ele>267.03</ele>
        <time>2018-01-31T08:58:02Z</time>
      </trkpt>
      <trkpt lat="47.70061" lon="6.08148">
        <ele>267.23</ele>
        <time>2018-01-31T08:58:05Z</time>
      </trkpt>
      <trkpt lat="47.70063" lon="6.08155">
        <ele>267.44</ele>
        <time>2018-01-31T08:58:08Z</time>
      </trkpt>
      <trkpt lat="47.70067" lon="6.08162">
        <ele>267.65</ele>
        <time>2018-01-31T08:58:11Z</time>
      </trkpt>
      <trkpt lat="47.7007" lon="6.08169">
        <ele>267.85</ele>
        <time>2018-01-31T08:58:14Z</time>
      </trkpt>
      <trkpt lat="47.70073" lon="6.08176">
        <ele>268.05</ele>
        <time>2018-01-31T08:58:17Z</time>
      </trkpt>
      <trkpt lat="47.70077" lon="6.08183">
        <ele>268.25</ele>
        <time>2018-01-31T08:58:20Z</time>
      </trkpt>
      <trkpt lat="47.70079" lon="6.0819">
        <ele>268.43</ele>
        <time>2018-01-31T08:58:23Z</time>
      </trkpt>
      <trkpt lat="47.70082" lon="6.08197">
        <ele>268.62</ele>
        <time>2018-01-31T08:58:26Z</time>
      </trkpt>
      <trkpt lat="47.70086" lon="6.08203">
        <ele>268.8</ele>
        <time>2018-01-31T08:58:29Z</time>
      </trkpt>
      <trkpt lat="47.70088" lon="6.0821">
        <ele>268.99</ele>
        <time>2018-01-31T08:58:32Z</time>
      </trkpt>
      <trkpt lat="47.7009" lon="6.08216">
        <ele>269.19</ele>
        <time>2018-01-31T08:58:35Z</time>
      </trkpt>
      <trkpt lat="47.70092" lon="6.08222">
        <ele>269.38</ele>
        <time>2018-01-31T08:58:38Z</time>
      </trkpt>
      <trkpt lat="47.70094" lon="6.0823">
        <ele>269.57</ele>
        <time>2018-01-31T08:58:41Z</time>
      </trkpt>
      <trkpt lat="47.70097" lon="6.08237">
        <ele>269.78</ele>
        <time>2018-01-31T08:58:44Z</time>
      </trkpt>
      <trkpt lat="47.70099" lon="6.08244">
        <ele>270.05</ele>
        <time>2018-01-31T08:58:48Z</time>
      </trkpt>
      <trkpt lat="47.70102" lon="6.0825">
        <ele>270.41</ele>
        <time>2018-01-31T08:58:53Z</time>
      </trkpt>
      <trkpt lat="47.70104" lon="6.08261">
        <ele>271.4</ele>
        <time>2018-01-31T08:59:05Z</time>
      </trkpt>
      <trkpt lat="47.70106" lon="6.08269">
        <ele>272.01</ele>
        <time>2018-01-31T08:59:12Z</time>
      </trkpt>
      <trkpt lat="47.70108" lon="6.08276">
        <ele>272.28</ele>
        <time>2018-01-31T08:59:15Z</time>
      </trkpt>
      <trkpt lat="47.70111" lon="6.08284">
        <ele>272.64</ele>
        <time>2018-01-31T08:59:19Z</time>
      </trkpt>
      <trkpt lat="47.70114" lon="6.08292">
        <ele>272.91</ele>
        <time>2018-01-31T08:59:22Z</time>
      </trkpt>
      <trkpt lat="47.70117" lon="6.08299">
        <ele>273.19</ele>
        <time>2018-01-31T08:59:25Z</time>
      </trkpt>
      <trkpt lat="47.7012" lon="6.08306">
        <ele>273.59</ele>
        <time>2018-01-31T08:59:29Z</time>
      </trkpt>
      <trkpt lat="47.70121" lon="6.08312">
        <ele>273.9</ele>
        <time>2018-01-31T08:59:32Z</time>
      </trkpt>
      <trkpt lat="47.70122" lon="6.0832">
        <ele>274.21</ele>
        <time>2018-01-31T08:59:35Z</time>
      </trkpt>
      <trkpt lat="47.70124" lon="6.08327">
        <ele>274.53</ele>
        <time>2018-01-31T08:59:38Z</time>
      </trkpt>
      <trkpt lat="47.70124" lon="6.08333">
        <ele>274.85</ele>
        <time>2018-01-31T08:59:41Z</time>
      </trkpt>
      <trkpt lat="47.70125" lon="6.0834">
        <ele>275.17</ele>
        <time>2018-01-31T08:59:44Z</time>
      </trkpt>
      <trkpt lat="47.70126" lon="6.08348">
        <ele>275.58</ele>
        <time>2018-01-31T08:59:48Z</time>
      </trkpt>
      <trkpt lat="47.70128" lon="6.08357">
        <ele>275.89</ele>
        <time>2018-01-31T08:59:51Z</time>
      </trkpt>
      <trkpt lat="47.7013" lon="6.08363">
        <ele>276.2</ele>
        <time>2018-01-31T08:59:54Z</time>
      </trkpt>
      <trkpt lat="47.7013" lon="6.08371">
        <ele>276.5</ele>
        <time>2018-01-31T08:59:57Z</time>
      </trkpt>
      <trkpt lat="47.70131" lon="6.08378">
        <ele>276.81</ele>
        <time>2018-01-31T09:00:00Z</time>
      </trkpt>
      <trkpt lat="47.70134" lon="6.08385">
        <ele>277.12</ele>
        <time>2018-01-31T09:00:03Z</time>
      </trkpt>
      <trkpt lat="47.70135" lon="6.08393">
        <ele>277.41</ele>
        <time>2018-01-31T09:00:06Z</time>
      </trkpt>
      <trkpt lat="47.70137" lon="6.08398">
        <ele>277.71</ele>
        <time>2018-01-31T09:00:09Z</time>
      </trkpt>
      <trkpt lat="47.7014" lon="6.08406">
        <ele>278.01</ele>
        <time>2018-01-31T09:00:12Z</time>
      </trkpt>
      <trkpt lat="47.70142" lon="6.08414">
        <ele>278.32</ele>
        <time>2018-01-31T09:00:15Z</time>
      </trkpt>
      <trkpt lat="47.70145" lon="6.08418">
        <ele>278.52</ele>
        <time>2018-01-31T09:00:17Z</time>
      </trkpt>
      <trkpt lat="47.70149" lon="6.08425">
        <ele>278.84</ele>
        <time>2018-01-31T09:00:20Z</time>
      </trkpt>
      <trkpt lat="47.70153" lon="6.08429">
        <ele>279.06</ele>
        <time>2018-01-31T09:00:22Z</time>
      </trkpt>
      <trkpt lat="47.70158" lon="6.08433">
        <ele>279.27</ele>
        <time>2018-01-31T09:00:24Z</time>
      </trkpt>
      <trkpt lat="47.70163" lon="6.08437">
        <ele>279.49</ele>
        <time>2018-01-31T09:00:26Z</time>
      </trkpt>
      <trkpt lat="47.70167" lon="6.08441">
        <ele>279.71</ele>
        <time>2018-01-31T09:00:28Z</time>
      </trkpt>
      <trkpt lat="47.70171" lon="6.08444">
        <ele>279.93</ele>
        <time>2018-01-31T09:00:30Z</time>
      </trkpt>
      <trkpt lat="47.70176" lon="6.08448">
        <ele>280.26</ele>
        <time>2018-01-31T09:00:33Z</time>
      </trkpt>
      <trkpt lat="47.70181" lon="6.08451">
        <ele>280.48</ele>
        <time>2018-01-31T09:00:35Z</time>
      </trkpt>
      <trkpt lat="47.70187" lon="6.08456">
        <ele>280.82</ele>
        <time>2018-01-31T09:00:38Z</time>
      </trkpt>
      <trkpt lat="47.70192" lon="6.08461">
        <ele>281.04</ele>
        <time>2018-01-31T09:00:40Z</time>
      </trkpt>
      <trkpt lat="47.70198" lon="6.08463">
        <ele>281.26</ele>
        <time>2018-01-31T09:00:42Z</time>
      </trkpt>
      <trkpt lat="47.70202" lon="6.08463">
        <ele>281.37</ele>
        <time>2018-01-31T09:00:43Z</time>
      </trkpt>
      <trkpt lat="47.70208" lon="6.08463">
        <ele>281.59</ele>
        <time>2018-01-31T09:00:45Z</time>
      </trkpt>
      <trkpt lat="47.70213" lon="6.08463">
        <ele>281.81</ele>
        <time>2018-01-31T09:00:47Z</time>
      </trkpt>
      <trkpt lat="47.70219" lon="6.08467">
        <ele>282.13</ele>
        <time>2018-01-31T09:00:50Z</time>
      </trkpt>
      <trkpt lat="47.70224" lon="6.0847">
        <ele>282.33</ele>
        <time>2018-01-31T09:00:52Z</time>
      </trkpt>
      <trkpt lat="47.7023" lon="6.08472">
        <ele>282.64</ele>
        <time>2018-01-31T09:00:55Z</time>
      </trkpt>
      <trkpt lat="47.70236" lon="6.08477">
        <ele>282.94</ele>
        <time>2018-01-31T09:00:58Z</time>
      </trkpt>
      <trkpt lat="47.70242" lon="6.08478">
        <ele>283.14</ele>
        <time>2018-01-31T09:01:00Z</time>
      </trkpt>
      <trkpt lat="47.70244" lon="6.08485">
        <ele>283.54</ele>
        <time>2018-01-31T09:01:04Z</time>
      </trkpt>
      <trkpt lat="47.7025" lon="6.08487">
        <ele>283.74</ele>
        <time>2018-01-31T09:01:06Z</time>
      </trkpt>
      <trkpt lat="47.70255" lon="6.0849">
        <ele>284.04</ele>
        <time>2018-01-31T09:01:09Z</time>
      </trkpt>
      <trkpt lat="47.7026" lon="6.08493">
        <ele>284.32</ele>
        <time>2018-01-31T09:01:12Z</time>
      </trkpt>
      <trkpt lat="47.70264" lon="6.08496">
        <ele>284.6</ele>
        <time>2018-01-31T09:01:15Z</time>
      </trkpt>
      <trkpt lat="47.7027" lon="6.08499">
        <ele>284.85</ele>
        <time>2018-01-31T09:01:18Z</time>
      </trkpt>
      <trkpt lat="47.70274" lon="6.08501">
        <ele>285.02</ele>
        <time>2018-01-31T09:01:20Z</time>
      </trkpt>
      <trkpt lat="47.7028" lon="6.08504">
        <ele>285.18</ele>
        <time>2018-01-31T09:01:22Z</time>
      </trkpt>
      <trkpt lat="47.70283" lon="6.08508">
        <ele>285.33</ele>
        <time>2018-01-31T09:01:24Z</time>
      </trkpt>
      <trkpt lat="47.70289" lon="6.08512">
        <ele>285.55</ele>
        <time>2018-01-31T09:01:27Z</time>
      </trkpt>
      <trkpt lat="47.70293" lon="6.08515">
        <ele>285.76</ele>
        <time>2018-01-31T09:01:30Z</time>
      </trkpt>
      <trkpt lat="47.70298" lon="6.08519">
        <ele>285.96</ele>
        <time>2018-01-31T09:01:33Z</time>
      </trkpt>
      <trkpt lat="47.70303" lon="6.08522">
        <ele>286.08</ele>
        <time>2018-01-31T09:01:35Z</time>
      </trkpt>
      <trkpt lat="47.70309" lon="6.08527">
        <ele>286.26</ele>
        <time>2018-01-31T09:01:38Z</time>
      </trkpt>
      <trkpt lat="47.70313" lon="6.08531">
        <ele>286.37</ele>
        <time>2018-01-31T09:01:40Z</time>
      </trkpt>
      <trkpt lat="47.70319" lon="6.08535">
        <ele>286.48</ele>
        <time>2018-01-31T09:01:42Z</time>
      </trkpt>
      <trkpt lat="47.70323" lon="6.08539">
        <ele>286.58</ele>
        <time>2018-01-31T09:01:44Z</time>
      </trkpt>
      <trkpt lat="47.70327" lon="6.08541">
        <ele>286.68</ele>
        <time>2018-01-31T09:01:46Z</time>
      </trkpt>
      <trkpt lat="47.70332" lon="6.08545">
        <ele>286.78</ele>
        <time>2018-01-31T09:01:48Z</time>
      </trkpt>
      <trkpt lat="47.70337" lon="6.08547">
        <ele>286.87</ele>
        <time>2018-01-31T09:01:50Z</time>
      </trkpt>
      <trkpt lat="47.70341" lon="6.08551">
        <ele>286.95</ele>
        <time>2018-01-31T09:01:52Z</time>
      </trkpt>
      <trkpt lat="47.70344" lon="6.08556">
        <ele>287.08</ele>
        <time>2018-01-31T09:01:55Z</time>
      </trkpt>
      <trkpt lat="47.70348" lon="6.08561">
        <ele>287.15</ele>
        <time>2018-01-31T09:01:57Z</time>
      </trkpt>
      <trkpt lat="47.70356" lon="6.08564">
        <ele>287.23</ele>
        <time>2018-01-31T09:01:59Z</time>
      </trkpt>
      <trkpt lat="47.70362" lon="6.08569">
        <ele>287.3</ele>
        <time>2018-01-31T09:02:01Z</time>
      </trkpt>
      <trkpt lat="47.70365" lon="6.08575">
        <ele>287.42</ele>
        <time>2018-01-31T09:02:04Z</time>
      </trkpt>
      <trkpt lat="47.70369" lon="6.08578">
        <ele>287.46</ele>
        <time>2018-01-31T09:02:05Z</time>
      </trkpt>
      <trkpt lat="47.70372" lon="6.08586">
        <ele>287.58</ele>
        <time>2018-01-31T09:02:08Z</time>
      </trkpt>
      <trkpt lat="47.70376" lon="6.08589">
        <ele>287.66</ele>
        <time>2018-01-31T09:02:10Z</time>
      </trkpt>
      <trkpt lat="47.7038" lon="6.08593">
        <ele>287.79</ele>
        <time>2018-01-31T09:02:13Z</time>
      </trkpt>
      <trkpt lat="47.70385" lon="6.08596">
        <ele>287.93</ele>
        <time>2018-01-31T09:02:16Z</time>
      </trkpt>
      <trkpt lat="47.7039" lon="6.08599">
        <ele>288.07</ele>
        <time>2018-01-31T09:02:19Z</time>
      </trkpt>
      <trkpt lat="47.70394" lon="6.08604">
        <ele>288.26</ele>
        <time>2018-01-31T09:02:23Z</time>
      </trkpt>
      <trkpt lat="47.70398" lon="6.0861">
        <ele>288.47</ele>
        <time>2018-01-31T09:02:27Z</time>
      </trkpt>
      <trkpt lat="47.70402" lon="6.08615">
        <ele>288.63</ele>
        <time>2018-01-31T09:02:30Z</time>
      </trkpt>
      <trkpt lat="47.70406" lon="6.0862">
        <ele>288.8</ele>
        <time>2018-01-31T09:02:33Z</time>
      </trkpt>
      <trkpt lat="47.70411" lon="6.08624">
        <ele>288.98</ele>
        <time>2018-01-31T09:02:36Z</time>
      </trkpt>
      <trkpt lat="47.70414" lon="6.08629">
        <ele>289.15</ele>
        <time>2018-01-31T09:02:39Z</time>
      </trkpt>
      <trkpt lat="47.7042" lon="6.08633">
        <ele>289.37</ele>
        <time>2018-01-31T09:02:43Z</time>
      </trkpt>
      <trkpt lat="47.70424" lon="6.08639">
        <ele>289.48</ele>
        <time>2018-01-31T09:02:45Z</time>
      </trkpt>
      <trkpt lat="47.70431" lon="6.08644">
        <ele>289.59</ele>
        <time>2018-01-31T09:02:47Z</time>
      </trkpt>
      <trkpt lat="47.70436" lon="6.08648">
        <ele>289.7</ele>
        <time>2018-01-31T09:02:49Z</time>
      </trkpt>
      <trkpt lat="47.70441" lon="6.08653">
        <ele>289.81</ele>
        <time>2018-01-31T09:02:51Z</time>
      </trkpt>
      <trkpt lat="47.70446" lon="6.08655">
        <ele>289.87</ele>
        <time>2018-01-31T09:02:52Z</time>
      </trkpt>
      <trkpt lat="47.70452" lon="6.0866">
        <ele>290.04</ele>
        <time>2018-01-31T09:02:55Z</time>
      </trkpt>
      <trkpt lat="47.7046" lon="6.08663">
        <ele>290.15</ele>
        <time>2018-01-31T09:02:57Z</time>
      </trkpt>
      <trkpt lat="47.70465" lon="6.08667">
        <ele>290.26</ele>
        <time>2018-01-31T09:02:59Z</time>
      </trkpt>
      <trkpt lat="47.7047" lon="6.08673">
        <ele>290.49</ele>
        <time>2018-01-31T09:03:03Z</time>
      </trkpt>
      <trkpt lat="47.70477" lon="6.08676">
        <ele>290.61</ele>
        <time>2018-01-31T09:03:05Z</time>
      </trkpt>
      <trkpt lat="47.70483" lon="6.08678">
        <ele>290.73</ele>
        <time>2018-01-31T09:03:07Z</time>
      </trkpt>
      <trkpt lat="47.70488" lon="6.08682">
        <ele>290.84</ele>
        <time>2018-01-31T09:03:09Z</time>
      </trkpt>
      <trkpt lat="47.70492" lon="6.08686">
        <ele>290.96</ele>
        <time>2018-01-31T09:03:11Z</time>
      </trkpt>
      <trkpt lat="47.70498" lon="6.08691">
        <ele>291.14</ele>
        <time>2018-01-31T09:03:14Z</time>
      </trkpt>
      <trkpt lat="47.70504" lon="6.08694">
        <ele>291.25</ele>
        <time>2018-01-31T09:03:16Z</time>
      </trkpt>
      <trkpt lat="47.7051" lon="6.08697">
        <ele>291.37</ele>
        <time>2018-01-31T09:03:18Z</time>
      </trkpt>
      <trkpt lat="47.70514" lon="6.08701">
        <ele>291.49</ele>
        <time>2018-01-31T09:03:20Z</time>
      </trkpt>
      <trkpt lat="47.70519" lon="6.08705">
        <ele>291.68</ele>
        <time>2018-01-31T09:03:23Z</time>
      </trkpt>
      <trkpt lat="47.70524" lon="6.08708">
        <ele>291.93</ele>
        <time>2018-01-31T09:03:27Z</time>
      </trkpt>
      <trkpt lat="47.70528" lon="6.08714">
        <ele>292.23</ele>
        <time>2018-01-31T09:03:32Z</time>
      </trkpt>
      <trkpt lat="47.70533" lon="6.08718">
        <ele>292.47</ele>
        <time>2018-01-31T09:03:36Z</time>
      </trkpt>
      <trkpt lat="47.70537" lon="6.08724">
        <ele>292.71</ele>
        <time>2018-01-31T09:03:40Z</time>
      </trkpt>
      <trkpt lat="47.7054" lon="6.08729">
        <ele>292.89</ele>
        <time>2018-01-31T09:03:43Z</time>
      </trkpt>
      <trkpt lat="47.70544" lon="6.08733">
        <ele>293.06</ele>
        <time>2018-01-31T09:03:46Z</time>
      </trkpt>
      <trkpt lat="47.70548" lon="6.08737">
        <ele>293.24</ele>
        <time>2018-01-31T09:03:49Z</time>
      </trkpt>
      <trkpt lat="47.70553" lon="6.08741">
        <ele>293.41</ele>
        <time>2018-01-31T09:03:52Z</time>
      </trkpt>
      <trkpt lat="47.70557" lon="6.08745">
        <ele>293.58</ele>
        <time>2018-01-31T09:03:55Z</time>
      </trkpt>
      <trkpt lat="47.70561" lon="6.08748">
        <ele>293.7</ele>
        <time>2018-01-31T09:03:57Z</time>
      </trkpt>
      <trkpt lat="47.70565" lon="6.08751">
        <ele>293.81</ele>
        <time>2018-01-31T09:03:59Z</time>
      </trkpt>
      <trkpt lat="47.70571" lon="6.08755">
        <ele>293.98</ele>
        <time>2018-01-31T09:04:02Z</time>
      </trkpt>
      <trkpt lat="47.70574" lon="6.0876">
        <ele>294.15</ele>
        <time>2018-01-31T09:04:05Z</time>
      </trkpt>
      <trkpt lat="47.70577" lon="6.08767">
        <ele>294.31</ele>
        <time>2018-01-31T09:04:08Z</time>
      </trkpt>
      <trkpt lat="47.70577" lon="6.08776">
        <ele>294.48</ele>
        <time>2018-01-31T09:04:11Z</time>
      </trkpt>
      <trkpt lat="47.70578" lon="6.08784">
        <ele>294.64</ele>
        <time>2018-01-31T09:04:14Z</time>
      </trkpt>
      <trkpt lat="47.70578" lon="6.08791">
        <ele>294.76</ele>
        <time>2018-01-31T09:04:16Z</time>
      </trkpt>
      <trkpt lat="47.70578" lon="6.08799">
        <ele>294.93</ele>
        <time>2018-01-31T09:04:19Z</time>
      </trkpt>
      <trkpt lat="47.70577" lon="6.08808">
        <ele>295.15</ele>
        <time>2018-01-31T09:04:23Z</time>
      </trkpt>
      <trkpt lat="47.70576" lon="6.08814">
        <ele>295.27</ele>
        <time>2018-01-31T09:04:25Z</time>
      </trkpt>
      <trkpt lat="47.70576" lon="6.08822">
        <ele>295.44</ele>
        <time>2018-01-31T09:04:28Z</time>
      </trkpt>
      <trkpt lat="47.70577" lon="6.08829">
        <ele>295.77</ele>
        <time>2018-01-31T09:04:34Z</time>
      </trkpt>
      <trkpt lat="47.70575" lon="6.08843">
        <ele>295.93</ele>
        <time>2018-01-31T09:04:37Z</time>
      </trkpt>
      <trkpt lat="47.70573" lon="6.08849">
        <ele>296.08</ele>
        <time>2018-01-31T09:04:40Z</time>
      </trkpt>
      <trkpt lat="47.7057" lon="6.08857">
        <ele>296.18</ele>
        <time>2018-01-31T09:04:42Z</time>
      </trkpt>
      <trkpt lat="47.70568" lon="6.08865">
        <ele>296.27</ele>
        <time>2018-01-31T09:04:44Z</time>
      </trkpt>
      <trkpt lat="47.70562" lon="6.08875">
        <ele>296.37</ele>
        <time>2018-01-31T09:04:46Z</time>
      </trkpt>
      <trkpt lat="47.70558" lon="6.0888">
        <ele>296.41</ele>
        <time>2018-01-31T09:04:47Z</time>
      </trkpt>
      <trkpt lat="47.70554" lon="6.08885">
        <ele>296.5</ele>
        <time>2018-01-31T09:04:49Z</time>
      </trkpt>
      <trkpt lat="47.70551" lon="6.08889">
        <ele>296.6</ele>
        <time>2018-01-31T09:04:51Z</time>
      </trkpt>
      <trkpt lat="47.70546" lon="6.08892">
        <ele>296.73</ele>
        <time>2018-01-31T09:04:54Z</time>
      </trkpt>
      <trkpt lat="47.70541" lon="6.08896">
        <ele>296.91</ele>
        <time>2018-01-31T09:04:58Z</time>
      </trkpt>
      <trkpt lat="47.70533" lon="6.089">
        <ele>296.99</ele>
        <time>2018-01-31T09:05:00Z</time>
      </trkpt>
      <trkpt lat="47.70529" lon="6.08904">
        <ele>297.07</ele>
        <time>2018-01-31T09:05:02Z</time>
      </trkpt>
      <trkpt lat="47.70524" lon="6.08907">
        <ele>297.2</ele>
        <time>2018-01-31T09:05:05Z</time>
      </trkpt>
      <trkpt lat="47.7052" lon="6.08909">
        <ele>297.38</ele>
        <time>2018-01-31T09:05:09Z</time>
      </trkpt>
      <trkpt lat="47.70516" lon="6.08914">
        <ele>297.66</ele>
        <time>2018-01-31T09:05:20Z</time>
      </trkpt>
      <trkpt lat="47.70511" lon="6.08917">
        <ele>297.88</ele>
        <time>2018-01-31T09:05:24Z</time>
      </trkpt>
      <trkpt lat="47.70507" lon="6.08922">
        <ele>298.15</ele>
        <time>2018-01-31T09:05:29Z</time>
      </trkpt>
      <trkpt lat="47.70503" lon="6.08927">
        <ele>298.53</ele>
        <time>2018-01-31T09:05:36Z</time>
      </trkpt>
      <trkpt lat="47.70499" lon="6.08931">
        <ele>298.92</ele>
        <time>2018-01-31T09:05:43Z</time>
      </trkpt>
      <trkpt lat="47.70497" lon="6.08936">
        <ele>299.21</ele>
        <time>2018-01-31T09:05:49Z</time>
      </trkpt>
      <trkpt lat="47.70491" lon="6.08937">
        <ele>299.41</ele>
        <time>2018-01-31T09:06:04Z</time>
      </trkpt>
      <trkpt lat="47.70486" lon="6.08938">
        <ele>299.54</ele>
        <time>2018-01-31T09:06:06Z</time>
      </trkpt>
      <trkpt lat="47.70482" lon="6.08939">
        <ele>299.67</ele>
        <time>2018-01-31T09:06:08Z</time>
      </trkpt>
      <trkpt lat="47.70477" lon="6.08941">
        <ele>299.8</ele>
        <time>2018-01-31T09:06:10Z</time>
      </trkpt>
      <trkpt lat="47.70472" lon="6.08944">
        <ele>300</ele>
        <time>2018-01-31T09:06:13Z</time>
      </trkpt>
      <trkpt lat="47.70467" lon="6.08946">
        <ele>300.19</ele>
        <time>2018-01-31T09:06:16Z</time>
      </trkpt>
      <trkpt lat="47.70463" lon="6.08949">
        <ele>300.37</ele>
        <time>2018-01-31T09:06:19Z</time>
      </trkpt>
      <trkpt lat="47.70459" lon="6.08954">
        <ele>300.55</ele>
        <time>2018-01-31T09:06:22Z</time>
      </trkpt>
      <trkpt lat="47.70456" lon="6.08959">
        <ele>300.66</ele>
        <time>2018-01-31T09:06:24Z</time>
      </trkpt>
      <trkpt lat="47.70452" lon="6.08965">
        <ele>300.77</ele>
        <time>2018-01-31T09:06:26Z</time>
      </trkpt>
      <trkpt lat="47.70447" lon="6.08969">
        <ele>300.93</ele>
        <time>2018-01-31T09:06:29Z</time>
      </trkpt>
      <trkpt lat="47.70444" lon="6.08974">
        <ele>301.03</ele>
        <time>2018-01-31T09:06:31Z</time>
      </trkpt>
      <trkpt lat="47.7044" lon="6.08983">
        <ele>301.13</ele>
        <time>2018-01-31T09:06:33Z</time>
      </trkpt>
      <trkpt lat="47.70437" lon="6.08989">
        <ele>301.23</ele>
        <time>2018-01-31T09:06:35Z</time>
      </trkpt>
      <trkpt lat="47.70435" lon="6.08996">
        <ele>301.38</ele>
        <time>2018-01-31T09:06:38Z</time>
      </trkpt>
      <trkpt lat="47.70432" lon="6.09003">
        <ele>301.53</ele>
        <time>2018-01-31T09:06:41Z</time>
      </trkpt>
      <trkpt lat="47.70427" lon="6.09005">
        <ele>301.72</ele>
        <time>2018-01-31T09:06:45Z</time>
      </trkpt>
      <trkpt lat="47.70422" lon="6.09005">
        <ele>301.91</ele>
        <time>2018-01-31T09:06:50Z</time>
      </trkpt>
      <trkpt lat="47.70417" lon="6.09002">
        <ele>302.05</ele>
        <time>2018-01-31T09:06:53Z</time>
      </trkpt>
      <trkpt lat="47.70413" lon="6.08996">
        <ele>302.25</ele>
        <time>2018-01-31T09:06:57Z</time>
      </trkpt>
      <trkpt lat="47.70407" lon="6.08993">
        <ele>302.45</ele>
        <time>2018-01-31T09:07:01Z</time>
      </trkpt>
      <trkpt lat="47.70401" lon="6.08993">
        <ele>302.65</ele>
        <time>2018-01-31T09:07:05Z</time>
      </trkpt>
      <trkpt lat="47.70397" lon="6.08991">
        <ele>302.8</ele>
        <time>2018-01-31T09:07:09Z</time>
      </trkpt>
      <trkpt lat="47.70391" lon="6.08987">
        <ele>302.94</ele>
        <time>2018-01-31T09:07:12Z</time>
      </trkpt>
      <trkpt lat="47.70383" lon="6.08983">
        <ele>303.03</ele>
        <time>2018-01-31T09:07:14Z</time>
      </trkpt>
      <trkpt lat="47.70377" lon="6.08981">
        <ele>303.12</ele>
        <time>2018-01-31T09:07:16Z</time>
      </trkpt>
      <trkpt lat="47.70373" lon="6.08984">
        <ele>303.21</ele>
        <time>2018-01-31T09:07:18Z</time>
      </trkpt>
      <trkpt lat="47.70367" lon="6.08988">
        <ele>303.3</ele>
        <time>2018-01-31T09:07:20Z</time>
      </trkpt>
      <trkpt lat="47.70362" lon="6.08989">
        <ele>303.44</ele>
        <time>2018-01-31T09:07:23Z</time>
      </trkpt>
      <trkpt lat="47.70356" lon="6.0899">
        <ele>303.53</ele>
        <time>2018-01-31T09:07:25Z</time>
      </trkpt>
      <trkpt lat="47.7035" lon="6.0899">
        <ele>303.67</ele>
        <time>2018-01-31T09:07:28Z</time>
      </trkpt>
      <trkpt lat="47.70346" lon="6.08991">
        <ele>303.72</ele>
        <time>2018-01-31T09:07:30Z</time>
      </trkpt>
      <trkpt lat="47.70339" lon="6.08992">
        <ele>303.86</ele>
        <time>2018-01-31T09:07:33Z</time>
      </trkpt>
      <trkpt lat="47.70333" lon="6.08994">
        <ele>304.01</ele>
        <time>2018-01-31T09:07:36Z</time>
      </trkpt>
      <trkpt lat="47.70328" lon="6.08992">
        <ele>304.11</ele>
        <time>2018-01-31T09:07:38Z</time>
      </trkpt>
      <trkpt lat="47.70323" lon="6.08995">
        <ele>304.21</ele>
        <time>2018-01-31T09:07:40Z</time>
      </trkpt>
      <trkpt lat="47.70318" lon="6.08993">
        <ele>304.42</ele>
        <time>2018-01-31T09:07:44Z</time>
      </trkpt>
      <trkpt lat="47.70313" lon="6.08995">
        <ele>304.57</ele>
        <time>2018-01-31T09:07:47Z</time>
      </trkpt>
      <trkpt lat="47.70307" lon="6.08996">
        <ele>304.72</ele>
        <time>2018-01-31T09:07:50Z</time>
      </trkpt>
      <trkpt lat="47.70301" lon="6.09">
        <ele>304.82</ele>
        <time>2018-01-31T09:07:52Z</time>
      </trkpt>
      <trkpt lat="47.70297" lon="6.09003">
        <ele>304.91</ele>
        <time>2018-01-31T09:07:54Z</time>
      </trkpt>
      <trkpt lat="47.70291" lon="6.09005">
        <ele>305.09</ele>
        <time>2018-01-31T09:07:58Z</time>
      </trkpt>
      <trkpt lat="47.70287" lon="6.09009">
        <ele>305.22</ele>
        <time>2018-01-31T09:08:01Z</time>
      </trkpt>
      <trkpt lat="47.70283" lon="6.09013">
        <ele>305.34</ele>
        <time>2018-01-31T09:08:04Z</time>
      </trkpt>
      <trkpt lat="47.70278" lon="6.09016">
        <ele>305.47</ele>
        <time>2018-01-31T09:08:08Z</time>
      </trkpt>
      <trkpt lat="47.70273" lon="6.09021">
        <ele>305.58</ele>
        <time>2018-01-31T09:08:12Z</time>
      </trkpt>
      <trkpt lat="47.70269" lon="6.09027">
        <ele>305.7</ele>
        <time>2018-01-31T09:08:15Z</time>
      </trkpt>
      <trkpt lat="47.70265" lon="6.09028">
        <ele>305.81</ele>
        <time>2018-01-31T09:08:18Z</time>
      </trkpt>
      <trkpt lat="47.70259" lon="6.09033">
        <ele>305.95</ele>
        <time>2018-01-31T09:08:22Z</time>
      </trkpt>
      <trkpt lat="47.70255" lon="6.09036">
        <ele>306.06</ele>
        <time>2018-01-31T09:08:25Z</time>
      </trkpt>
      <trkpt lat="47.7025" lon="6.09046">
        <ele>306.16</ele>
        <time>2018-01-31T09:08:28Z</time>
      </trkpt>
      <trkpt lat="47.70246" lon="6.09056">
        <ele>306.23</ele>
        <time>2018-01-31T09:08:30Z</time>
      </trkpt>
      <trkpt lat="47.70241" lon="6.09059">
        <ele>306.37</ele>
        <time>2018-01-31T09:08:34Z</time>
      </trkpt>
      <trkpt lat="47.70237" lon="6.09063">
        <ele>306.47</ele>
        <time>2018-01-31T09:08:37Z</time>
      </trkpt>
      <trkpt lat="47.70233" lon="6.09067">
        <ele>306.54</ele>
        <time>2018-01-31T09:08:39Z</time>
      </trkpt>
      <trkpt lat="47.70228" lon="6.09071">
        <ele>306.65</ele>
        <time>2018-01-31T09:08:42Z</time>
      </trkpt>
      <trkpt lat="47.70223" lon="6.09075">
        <ele>306.75</ele>
        <time>2018-01-31T09:08:45Z</time>
      </trkpt>
      <trkpt lat="47.7022" lon="6.09082">
        <ele>306.85</ele>
        <time>2018-01-31T09:08:48Z</time>
      </trkpt>
      <trkpt lat="47.70216" lon="6.0909">
        <ele>306.97</ele>
        <time>2018-01-31T09:08:52Z</time>
      </trkpt>
      <trkpt lat="47.70215" lon="6.09098">
        <ele>307.05</ele>
        <time>2018-01-31T09:08:55Z</time>
      </trkpt>
      <trkpt lat="47.70211" lon="6.09107">
        <ele>307.1</ele>
        <time>2018-01-31T09:08:57Z</time>
      </trkpt>
      <trkpt lat="47.70209" lon="6.09117">
        <ele>307.15</ele>
        <time>2018-01-31T09:08:59Z</time>
      </trkpt>
      <trkpt lat="47.70207" lon="6.09124">
        <ele>307.2</ele>
        <time>2018-01-31T09:09:01Z</time>
      </trkpt>
      <trkpt lat="47.70205" lon="6.09132">
        <ele>307.26</ele>
        <time>2018-01-31T09:09:04Z</time>
      </trkpt>
      <trkpt lat="47.70202" lon="6.09142">
        <ele>307.3</ele>
        <time>2018-01-31T09:09:06Z</time>
      </trkpt>
      <trkpt lat="47.702" lon="6.09151">
        <ele>307.33</ele>
        <time>2018-01-31T09:09:08Z</time>
      </trkpt>
      <trkpt lat="47.70198" lon="6.09157">
        <ele>307.35</ele>
        <time>2018-01-31T09:09:09Z</time>
      </trkpt>
      <trkpt lat="47.70196" lon="6.09164">
        <ele>307.37</ele>
        <time>2018-01-31T09:09:10Z</time>
      </trkpt>
      <trkpt lat="47.70194" lon="6.0917">
        <ele>307.38</ele>
        <time>2018-01-31T09:09:11Z</time>
      </trkpt>
      <trkpt lat="47.70191" lon="6.09182">
        <ele>307.41</ele>
        <time>2018-01-31T09:09:13Z</time>
      </trkpt>
      <trkpt lat="47.70188" lon="6.09198">
        <ele>307.44</ele>
        <time>2018-01-31T09:09:15Z</time>
      </trkpt>
      <trkpt lat="47.70185" lon="6.09208">
        <ele>307.47</ele>
        <time>2018-01-31T09:09:17Z</time>
      </trkpt>
      <trkpt lat="47.70182" lon="6.09221">
        <ele>307.5</ele>
        <time>2018-01-31T09:09:19Z</time>
      </trkpt>
      <trkpt lat="47.7018" lon="6.09229">
        <ele>307.51</ele>
        <time>2018-01-31T09:09:20Z</time>
      </trkpt>
      <trkpt lat="47.70178" lon="6.09235">
        <ele>307.53</ele>
        <time>2018-01-31T09:09:21Z</time>
      </trkpt>
      <trkpt lat="47.70176" lon="6.09243">
        <ele>307.56</ele>
        <time>2018-01-31T09:09:23Z</time>
      </trkpt>
      <trkpt lat="47.70173" lon="6.09249">
        <ele>307.58</ele>
        <time>2018-01-31T09:09:25Z</time>
      </trkpt>
      <trkpt lat="47.7017" lon="6.09257">
        <ele>307.61</ele>
        <time>2018-01-31T09:09:27Z</time>
      </trkpt>
      <trkpt lat="47.70166" lon="6.0927">
        <ele>307.71</ele>
        <time>2018-01-31T09:09:29Z</time>
      </trkpt>
      <trkpt lat="47.70164" lon="6.09279">
        <ele>307.81</ele>
        <time>2018-01-31T09:09:30Z</time>
      </trkpt>
      <trkpt lat="47.70162" lon="6.09287">
        <ele>307.85</ele>
        <time>2018-01-31T09:09:31Z</time>
      </trkpt>
      <trkpt lat="47.7016" lon="6.09296">
        <ele>307.86</ele>
        <time>2018-01-31T09:09:32Z</time>
      </trkpt>
      <trkpt lat="47.70157" lon="6.09304">
        <ele>307.92</ele>
        <time>2018-01-31T09:09:33Z</time>
      </trkpt>
      <trkpt lat="47.70155" lon="6.09311">
        <ele>307.95</ele>
        <time>2018-01-31T09:09:34Z</time>
      </trkpt>
      <trkpt lat="47.70152" lon="6.09321">
        <ele>307.97</ele>
        <time>2018-01-31T09:09:36Z</time>
      </trkpt>
      <trkpt lat="47.70149" lon="6.0933">
        <ele>307.98</ele>
        <time>2018-01-31T09:09:38Z</time>
      </trkpt>
      <trkpt lat="47.70147" lon="6.09339">
        <ele>307.99</ele>
        <time>2018-01-31T09:09:40Z</time>
      </trkpt>
      <trkpt lat="47.70143" lon="6.0935">
        <ele>308.01</ele>
        <time>2018-01-31T09:09:42Z</time>
      </trkpt>
      <trkpt lat="47.70141" lon="6.09357">
        <ele>308.01</ele>
        <time>2018-01-31T09:09:43Z</time>
      </trkpt>
      <trkpt lat="47.7014" lon="6.09366">
        <ele>308.02</ele>
        <time>2018-01-31T09:09:44Z</time>
      </trkpt>
      <trkpt lat="47.70138" lon="6.09374">
        <ele>308.03</ele>
        <time>2018-01-31T09:09:45Z</time>
      </trkpt>
      <trkpt lat="47.70135" lon="6.09383">
        <ele>308.13</ele>
        <time>2018-01-31T09:09:47Z</time>
      </trkpt>
      <trkpt lat="47.70132" lon="6.09396">
        <ele>308.21</ele>
        <time>2018-01-31T09:09:49Z</time>
      </trkpt>
      <trkpt lat="47.7013" lon="6.09406">
        <ele>308.23</ele>
        <time>2018-01-31T09:09:51Z</time>
      </trkpt>
      <trkpt lat="47.70127" lon="6.09416">
        <ele>308.24</ele>
        <time>2018-01-31T09:09:53Z</time>
      </trkpt>
      <trkpt lat="47.70125" lon="6.09424">
        <ele>308.24</ele>
        <time>2018-01-31T09:09:55Z</time>
      </trkpt>
      <trkpt lat="47.70123" lon="6.09434">
        <ele>308.24</ele>
        <time>2018-01-31T09:09:57Z</time>
      </trkpt>
      <trkpt lat="47.70122" lon="6.09443">
        <ele>308.24</ele>
        <time>2018-01-31T09:09:59Z</time>
      </trkpt>
      <trkpt lat="47.70119" lon="6.09451">
        <ele>308.24</ele>
        <time>2018-01-31T09:10:01Z</time>
      </trkpt>
      <trkpt lat="47.70116" lon="6.0946">
        <ele>308.24</ele>
        <time>2018-01-31T09:10:03Z</time>
      </trkpt>
      <trkpt lat="47.70114" lon="6.0947">
        <ele>308.23</ele>
        <time>2018-01-31T09:10:05Z</time>
      </trkpt>
      <trkpt lat="47.70112" lon="6.09481">
        <ele>308.23</ele>
        <time>2018-01-31T09:10:07Z</time>
      </trkpt>
      <trkpt lat="47.7011" lon="6.09491">
        <ele>308.23</ele>
        <time>2018-01-31T09:10:09Z</time>
      </trkpt>
      <trkpt lat="47.70108" lon="6.095">
        <ele>308.23</ele>
        <time>2018-01-31T09:10:11Z</time>
      </trkpt>
      <trkpt lat="47.70107" lon="6.09507">
        <ele>308.23</ele>
        <time>2018-01-31T09:10:13Z</time>
      </trkpt>
      <trkpt lat="47.70104" lon="6.09514">
        <ele>308.22</ele>
        <time>2018-01-31T09:10:15Z</time>
      </trkpt>
      <trkpt lat="47.70102" lon="6.0952">
        <ele>308.21</ele>
        <time>2018-01-31T09:10:17Z</time>
      </trkpt>
      <trkpt lat="47.701" lon="6.09526">
        <ele>308.21</ele>
        <time>2018-01-31T09:10:19Z</time>
      </trkpt>
      <trkpt lat="47.70098" lon="6.09535">
        <ele>308.2</ele>
        <time>2018-01-31T09:10:20Z</time>
      </trkpt>
      <trkpt lat="47.70095" lon="6.09545">
        <ele>308.2</ele>
        <time>2018-01-31T09:10:22Z</time>
      </trkpt>
      <trkpt lat="47.70093" lon="6.09552">
        <ele>308.19</ele>
        <time>2018-01-31T09:10:24Z</time>
      </trkpt>
      <trkpt lat="47.7009" lon="6.09558">
        <ele>308.19</ele>
        <time>2018-01-31T09:10:25Z</time>
      </trkpt>
      <trkpt lat="47.70086" lon="6.09565">
        <ele>308.18</ele>
        <time>2018-01-31T09:10:27Z</time>
      </trkpt>
      <trkpt lat="47.70083" lon="6.09571">
        <ele>308.17</ele>
        <time>2018-01-31T09:10:29Z</time>
      </trkpt>
      <trkpt lat="47.7008" lon="6.09577">
        <ele>308.16</ele>
        <time>2018-01-31T09:10:31Z</time>
      </trkpt>
      <trkpt lat="47.70077" lon="6.09583">
        <ele>308.15</ele>
        <time>2018-01-31T09:10:33Z</time>
      </trkpt>
      <trkpt lat="47.70074" lon="6.0959">
        <ele>308.13</ele>
        <time>2018-01-31T09:10:35Z</time>
      </trkpt>
      <trkpt lat="47.70071" lon="6.09596">
        <ele>308.12</ele>
        <time>2018-01-31T09:10:37Z</time>
      </trkpt>
      <trkpt lat="47.70069" lon="6.09602">
        <ele>308.09</ele>
        <time>2018-01-31T09:10:40Z</time>
      </trkpt>
      <trkpt lat="47.70064" lon="6.09605">
        <ele>308.07</ele>
        <time>2018-01-31T09:10:42Z</time>
      </trkpt>
      <trkpt lat="47.70059" lon="6.09607">
        <ele>308.05</ele>
        <time>2018-01-31T09:10:44Z</time>
      </trkpt>
      <trkpt lat="47.70053" lon="6.09609">
        <ele>308.02</ele>
        <time>2018-01-31T09:10:47Z</time>
      </trkpt>
      <trkpt lat="47.70048" lon="6.09609">
        <ele>307.98</ele>
        <time>2018-01-31T09:10:50Z</time>
      </trkpt>
      <trkpt lat="47.70043" lon="6.09607">
        <ele>307.94</ele>
        <time>2018-01-31T09:10:53Z</time>
      </trkpt>
      <trkpt lat="47.70038" lon="6.09606">
        <ele>307.9</ele>
        <time>2018-01-31T09:10:56Z</time>
      </trkpt>
      <trkpt lat="47.70032" lon="6.09604">
        <ele>307.86</ele>
        <time>2018-01-31T09:10:59Z</time>
      </trkpt>
      <trkpt lat="47.70027" lon="6.09603">
        <ele>307.83</ele>
        <time>2018-01-31T09:11:01Z</time>
      </trkpt>
      <trkpt lat="47.70022" lon="6.09601">
        <ele>307.8</ele>
        <time>2018-01-31T09:11:03Z</time>
      </trkpt>
      <trkpt lat="47.70016" lon="6.09599">
        <ele>307.77</ele>
        <time>2018-01-31T09:11:05Z</time>
      </trkpt>
      <trkpt lat="47.7001" lon="6.09596">
        <ele>307.72</ele>
        <time>2018-01-31T09:11:08Z</time>
      </trkpt>
      <trkpt lat="47.70006" lon="6.09593">
        <ele>307.69</ele>
        <time>2018-01-31T09:11:10Z</time>
      </trkpt>
      <trkpt lat="47.7" lon="6.09591">
        <ele>307.65</ele>
        <time>2018-01-31T09:11:13Z</time>
      </trkpt>
      <trkpt lat="47.69995" lon="6.09589">
        <ele>307.61</ele>
        <time>2018-01-31T09:11:15Z</time>
      </trkpt>
      <trkpt lat="47.6999" lon="6.09587">
        <ele>307.58</ele>
        <time>2018-01-31T09:11:17Z</time>
      </trkpt>
      <trkpt lat="47.69984" lon="6.09584">
        <ele>307.53</ele>
        <time>2018-01-31T09:11:20Z</time>
      </trkpt>
      <trkpt lat="47.6998" lon="6.09582">
        <ele>307.5</ele>
        <time>2018-01-31T09:11:22Z</time>
      </trkpt>
      <trkpt lat="47.69972" lon="6.09578">
        <ele>307.36</ele>
        <time>2018-01-31T09:11:24Z</time>
      </trkpt>
      <trkpt lat="47.69968" lon="6.09576">
        <ele>307.22</ele>
        <time>2018-01-31T09:11:25Z</time>
      </trkpt>
      <trkpt lat="47.69963" lon="6.09575">
        <ele>307.1</ele>
        <time>2018-01-31T09:11:26Z</time>
      </trkpt>
      <trkpt lat="47.69958" lon="6.09573">
        <ele>306.99</ele>
        <time>2018-01-31T09:11:27Z</time>
      </trkpt>
      <trkpt lat="47.69953" lon="6.09571">
        <ele>306.9</ele>
        <time>2018-01-31T09:11:28Z</time>
      </trkpt>
      <trkpt lat="47.69946" lon="6.09572">
        <ele>306.75</ele>
        <time>2018-01-31T09:11:30Z</time>
      </trkpt>
      <trkpt lat="47.69942" lon="6.09577">
        <ele>306.69</ele>
        <time>2018-01-31T09:11:31Z</time>
      </trkpt>
      <trkpt lat="47.69937" lon="6.09583">
        <ele>306.65</ele>
        <time>2018-01-31T09:11:32Z</time>
      </trkpt>
      <trkpt lat="47.69933" lon="6.0959">
        <ele>306.6</ele>
        <time>2018-01-31T09:11:33Z</time>
      </trkpt>
      <trkpt lat="47.69928" lon="6.09598">
        <ele>306.55</ele>
        <time>2018-01-31T09:11:34Z</time>
      </trkpt>
      <trkpt lat="47.69923" lon="6.09606">
        <ele>306.49</ele>
        <time>2018-01-31T09:11:35Z</time>
      </trkpt>
      <trkpt lat="47.69918" lon="6.09616">
        <ele>306.45</ele>
        <time>2018-01-31T09:11:36Z</time>
      </trkpt>
      <trkpt lat="47.69914" lon="6.09625">
        <ele>306.4</ele>
        <time>2018-01-31T09:11:37Z</time>
      </trkpt>
      <trkpt lat="47.69912" lon="6.09635">
        <ele>306.28</ele>
        <time>2018-01-31T09:11:38Z</time>
      </trkpt>
      <trkpt lat="47.69908" lon="6.09643">
        <ele>306.16</ele>
        <time>2018-01-31T09:11:39Z</time>
      </trkpt>
      <trkpt lat="47.69904" lon="6.09651">
        <ele>305.96</ele>
        <time>2018-01-31T09:11:40Z</time>
      </trkpt>
      <trkpt lat="47.699" lon="6.09659">
        <ele>305.63</ele>
        <time>2018-01-31T09:11:41Z</time>
      </trkpt>
      <trkpt lat="47.69895" lon="6.09668">
        <ele>305.03</ele>
        <time>2018-01-31T09:11:42Z</time>
      </trkpt>
      <trkpt lat="47.6989" lon="6.09676">
        <ele>304.23</ele>
        <time>2018-01-31T09:11:43Z</time>
      </trkpt>
      <trkpt lat="47.69886" lon="6.09685">
        <ele>303.27</ele>
        <time>2018-01-31T09:11:44Z</time>
      </trkpt>
      <trkpt lat="47.69881" lon="6.0969">
        <ele>302.4</ele>
        <time>2018-01-31T09:11:45Z</time>
      </trkpt>
      <trkpt lat="47.69876" lon="6.09696">
        <ele>301.39</ele>
        <time>2018-01-31T09:11:46Z</time>
      </trkpt>
      <trkpt lat="47.69871" lon="6.09703">
        <ele>300.12</ele>
        <time>2018-01-31T09:11:47Z</time>
      </trkpt>
      <trkpt lat="47.69866" lon="6.09708">
        <ele>298.86</ele>
        <time>2018-01-31T09:11:48Z</time>
      </trkpt>
      <trkpt lat="47.69862" lon="6.09714">
        <ele>297.57</ele>
        <time>2018-01-31T09:11:49Z</time>
      </trkpt>
      <trkpt lat="47.69858" lon="6.09718">
        <ele>296.39</ele>
        <time>2018-01-31T09:11:50Z</time>
      </trkpt>
      <trkpt lat="47.69851" lon="6.09726">
        <ele>295.77</ele>
        <time>2018-01-31T09:11:52Z</time>
      </trkpt>
      <trkpt lat="47.69845" lon="6.09732">
        <ele>295.54</ele>
        <time>2018-01-31T09:11:54Z</time>
      </trkpt>
      <trkpt lat="47.69841" lon="6.09737">
        <ele>295.34</ele>
        <time>2018-01-31T09:11:56Z</time>
      </trkpt>
      <trkpt lat="47.69836" lon="6.09742">
        <ele>295.14</ele>
        <time>2018-01-31T09:11:58Z</time>
      </trkpt>
      <trkpt lat="47.69831" lon="6.09745">
        <ele>294.93</ele>
        <time>2018-01-31T09:12:00Z</time>
      </trkpt>
      <trkpt lat="47.69827" lon="6.09749">
        <ele>294.69</ele>
        <time>2018-01-31T09:12:02Z</time>
      </trkpt>
      <trkpt lat="47.69823" lon="6.09754">
        <ele>294.46</ele>
        <time>2018-01-31T09:12:04Z</time>
      </trkpt>
      <trkpt lat="47.69817" lon="6.09759">
        <ele>294.22</ele>
        <time>2018-01-31T09:12:06Z</time>
      </trkpt>
      <trkpt lat="47.69812" lon="6.09764">
        <ele>293.99</ele>
        <time>2018-01-31T09:12:08Z</time>
      </trkpt>
      <trkpt lat="47.69806" lon="6.09768">
        <ele>293.75</ele>
        <time>2018-01-31T09:12:10Z</time>
      </trkpt>
      <trkpt lat="47.69801" lon="6.09774">
        <ele>293.5</ele>
        <time>2018-01-31T09:12:12Z</time>
      </trkpt>
      <trkpt lat="47.69796" lon="6.09778">
        <ele>293.26</ele>
        <time>2018-01-31T09:12:14Z</time>
      </trkpt>
      <trkpt lat="47.69791" lon="6.09783">
        <ele>293.03</ele>
        <time>2018-01-31T09:12:16Z</time>
      </trkpt>
      <trkpt lat="47.69784" lon="6.09789">
        <ele>292.8</ele>
        <time>2018-01-31T09:12:18Z</time>
      </trkpt>
      <trkpt lat="47.69779" lon="6.09795">
        <ele>292.57</ele>
        <time>2018-01-31T09:12:20Z</time>
      </trkpt>
      <trkpt lat="47.69774" lon="6.09802">
        <ele>292.34</ele>
        <time>2018-01-31T09:12:22Z</time>
      </trkpt>
      <trkpt lat="47.69769" lon="6.09809">
        <ele>291.38</ele>
        <time>2018-01-31T09:12:24Z</time>
      </trkpt>
      <trkpt lat="47.69763" lon="6.09817">
        <ele>289.65</ele>
        <time>2018-01-31T09:12:26Z</time>
      </trkpt>
      <trkpt lat="47.69758" lon="6.09825">
        <ele>288.35</ele>
        <time>2018-01-31T09:12:28Z</time>
      </trkpt>
      <trkpt lat="47.69753" lon="6.09834">
        <ele>287.37</ele>
        <time>2018-01-31T09:12:30Z</time>
      </trkpt>
      <trkpt lat="47.6975" lon="6.09839">
        <ele>286.97</ele>
        <time>2018-01-31T09:12:31Z</time>
      </trkpt>
      <trkpt lat="47.69745" lon="6.0985">
        <ele>286.24</ele>
        <time>2018-01-31T09:12:33Z</time>
      </trkpt>
      <trkpt lat="47.69739" lon="6.09859">
        <ele>285.65</ele>
        <time>2018-01-31T09:12:35Z</time>
      </trkpt>
      <trkpt lat="47.69733" lon="6.0987">
        <ele>285.19</ele>
        <time>2018-01-31T09:12:37Z</time>
      </trkpt>
      <trkpt lat="47.6973" lon="6.09876">
        <ele>284.99</ele>
        <time>2018-01-31T09:12:38Z</time>
      </trkpt>
      <trkpt lat="47.69727" lon="6.09881">
        <ele>284.8</ele>
        <time>2018-01-31T09:12:39Z</time>
      </trkpt>
      <trkpt lat="47.69724" lon="6.09886">
        <ele>284.63</ele>
        <time>2018-01-31T09:12:40Z</time>
      </trkpt>
      <trkpt lat="47.6972" lon="6.09892">
        <ele>284.47</ele>
        <time>2018-01-31T09:12:41Z</time>
      </trkpt>
      <trkpt lat="47.69716" lon="6.09897">
        <ele>284.32</ele>
        <time>2018-01-31T09:12:42Z</time>
      </trkpt>
      <trkpt lat="47.69712" lon="6.09903">
        <ele>284.15</ele>
        <time>2018-01-31T09:12:43Z</time>
      </trkpt>
      <trkpt lat="47.69707" lon="6.0991">
        <ele>283.95</ele>
        <time>2018-01-31T09:12:44Z</time>
      </trkpt>
      <trkpt lat="47.69703" lon="6.09916">
        <ele>283.74</ele>
        <time>2018-01-31T09:12:45Z</time>
      </trkpt>
      <trkpt lat="47.69699" lon="6.09922">
        <ele>283.54</ele>
        <time>2018-01-31T09:12:46Z</time>
      </trkpt>
      <trkpt lat="47.69694" lon="6.09929">
        <ele>283.34</ele>
        <time>2018-01-31T09:12:47Z</time>
      </trkpt>
      <trkpt lat="47.69689" lon="6.09935">
        <ele>283.12</ele>
        <time>2018-01-31T09:12:48Z</time>
      </trkpt>
      <trkpt lat="47.69682" lon="6.09943">
        <ele>282.76</ele>
        <time>2018-01-31T09:12:49Z</time>
      </trkpt>
      <trkpt lat="47.69677" lon="6.0995">
        <ele>282.38</ele>
        <time>2018-01-31T09:12:50Z</time>
      </trkpt>
      <trkpt lat="47.69671" lon="6.09957">
        <ele>282.01</ele>
        <time>2018-01-31T09:12:51Z</time>
      </trkpt>
      <trkpt lat="47.69666" lon="6.09964">
        <ele>281.66</ele>
        <time>2018-01-31T09:12:52Z</time>
      </trkpt>
      <trkpt lat="47.69661" lon="6.09971">
        <ele>281.33</ele>
        <time>2018-01-31T09:12:53Z</time>
      </trkpt>
      <trkpt lat="47.69656" lon="6.09977">
        <ele>281.03</ele>
        <time>2018-01-31T09:12:54Z</time>
      </trkpt>
      <trkpt lat="47.6965" lon="6.09985">
        <ele>280.64</ele>
        <time>2018-01-31T09:12:55Z</time>
      </trkpt>
      <trkpt lat="47.69644" lon="6.09992">
        <ele>280.18</ele>
        <time>2018-01-31T09:12:56Z</time>
      </trkpt>
      <trkpt lat="47.69637" lon="6.09999">
        <ele>279.59</ele>
        <time>2018-01-31T09:12:57Z</time>
      </trkpt>
      <trkpt lat="47.6963" lon="6.10008">
        <ele>278.93</ele>
        <time>2018-01-31T09:12:58Z</time>
      </trkpt>
      <trkpt lat="47.69625" lon="6.10017">
        <ele>278.28</ele>
        <time>2018-01-31T09:12:59Z</time>
      </trkpt>
      <trkpt lat="47.6962" lon="6.10025">
        <ele>277.63</ele>
        <time>2018-01-31T09:13:00Z</time>
      </trkpt>
      <trkpt lat="47.69614" lon="6.10034">
        <ele>276.94</ele>
        <time>2018-01-31T09:13:01Z</time>
      </trkpt>
      <trkpt lat="47.69609" lon="6.10043">
        <ele>276.26</ele>
        <time>2018-01-31T09:13:02Z</time>
      </trkpt>
      <trkpt lat="47.69603" lon="6.10054">
        <ele>275.64</ele>
        <time>2018-01-31T09:13:03Z</time>
      </trkpt>
      <trkpt lat="47.69598" lon="6.10065">
        <ele>275.19</ele>
        <time>2018-01-31T09:13:04Z</time>
      </trkpt>
      <trkpt lat="47.69593" lon="6.10077">
        <ele>274.72</ele>
        <time>2018-01-31T09:13:05Z</time>
      </trkpt>
      <trkpt lat="47.69589" lon="6.10088">
        <ele>274.28</ele>
        <time>2018-01-31T09:13:06Z</time>
      </trkpt>
      <trkpt lat="47.69588" lon="6.10101">
        <ele>273.91</ele>
        <time>2018-01-31T09:13:07Z</time>
      </trkpt>
      <trkpt lat="47.69586" lon="6.10113">
        <ele>273.6</ele>
        <time>2018-01-31T09:13:08Z</time>
      </trkpt>
      <trkpt lat="47.69584" lon="6.10125">
        <ele>273.3</ele>
        <time>2018-01-31T09:13:09Z</time>
      </trkpt>
      <trkpt lat="47.69583" lon="6.10137">
        <ele>273.03</ele>
        <time>2018-01-31T09:13:10Z</time>
      </trkpt>
      <trkpt lat="47.69582" lon="6.10149">
        <ele>272.8</ele>
        <time>2018-01-31T09:13:11Z</time>
      </trkpt>
      <trkpt lat="47.6958" lon="6.1016">
        <ele>272.62</ele>
        <time>2018-01-31T09:13:12Z</time>
      </trkpt>
      <trkpt lat="47.69578" lon="6.10171">
        <ele>272.47</ele>
        <time>2018-01-31T09:13:13Z</time>
      </trkpt>
      <trkpt lat="47.69575" lon="6.10181">
        <ele>272.3</ele>
        <time>2018-01-31T09:13:14Z</time>
      </trkpt>
      <trkpt lat="47.69572" lon="6.1019">
        <ele>272.17</ele>
        <time>2018-01-31T09:13:15Z</time>
      </trkpt>
      <trkpt lat="47.69568" lon="6.10198">
        <ele>271.99</ele>
        <time>2018-01-31T09:13:16Z</time>
      </trkpt>
      <trkpt lat="47.69564" lon="6.10206">
        <ele>271.85</ele>
        <time>2018-01-31T09:13:17Z</time>
      </trkpt>
      <trkpt lat="47.69561" lon="6.10215">
        <ele>271.72</ele>
        <time>2018-01-31T09:13:18Z</time>
      </trkpt>
      <trkpt lat="47.69559" lon="6.10223">
        <ele>271.59</ele>
        <time>2018-01-31T09:13:19Z</time>
      </trkpt>
      <trkpt lat="47.69559" lon="6.10231">
        <ele>271.46</ele>
        <time>2018-01-31T09:13:20Z</time>
      </trkpt>
      <trkpt lat="47.69557" lon="6.10239">
        <ele>271.35</ele>
        <time>2018-01-31T09:13:21Z</time>
      </trkpt>
      <trkpt lat="47.69556" lon="6.10245">
        <ele>271.26</ele>
        <time>2018-01-31T09:13:22Z</time>
      </trkpt>
      <trkpt lat="47.69554" lon="6.10257">
        <ele>271.02</ele>
        <time>2018-01-31T09:13:24Z</time>
      </trkpt>
      <trkpt lat="47.69551" lon="6.10267">
        <ele>270.94</ele>
        <time>2018-01-31T09:13:26Z</time>
      </trkpt>
      <trkpt lat="47.69548" lon="6.10278">
        <ele>270.89</ele>
        <time>2018-01-31T09:13:28Z</time>
      </trkpt>
      <trkpt lat="47.69546" lon="6.10288">
        <ele>270.86</ele>
        <time>2018-01-31T09:13:30Z</time>
      </trkpt>
      <trkpt lat="47.69543" lon="6.10297">
        <ele>270.8</ele>
        <time>2018-01-31T09:13:32Z</time>
      </trkpt>
      <trkpt lat="47.6954" lon="6.10308">
        <ele>270.18</ele>
        <time>2018-01-31T09:13:34Z</time>
      </trkpt>
      <trkpt lat="47.69538" lon="6.10314">
        <ele>270.05</ele>
        <time>2018-01-31T09:13:35Z</time>
      </trkpt>
      <trkpt lat="47.69535" lon="6.10323">
        <ele>269.96</ele>
        <time>2018-01-31T09:13:37Z</time>
      </trkpt>
      <trkpt lat="47.69531" lon="6.10329">
        <ele>269.88</ele>
        <time>2018-01-31T09:13:39Z</time>
      </trkpt>
      <trkpt lat="47.69526" lon="6.10335">
        <ele>269.81</ele>
        <time>2018-01-31T09:13:41Z</time>
      </trkpt>
      <trkpt lat="47.69521" lon="6.10342">
        <ele>269.72</ele>
        <time>2018-01-31T09:13:43Z</time>
      </trkpt>
      <trkpt lat="47.69515" lon="6.10347">
        <ele>269.63</ele>
        <time>2018-01-31T09:13:45Z</time>
      </trkpt>
      <trkpt lat="47.6951" lon="6.10352">
        <ele>269.53</ele>
        <time>2018-01-31T09:13:47Z</time>
      </trkpt>
      <trkpt lat="47.69505" lon="6.10357">
        <ele>269.42</ele>
        <time>2018-01-31T09:13:49Z</time>
      </trkpt>
      <trkpt lat="47.695" lon="6.10362">
        <ele>269.3</ele>
        <time>2018-01-31T09:13:51Z</time>
      </trkpt>
      <trkpt lat="47.69496" lon="6.10367">
        <ele>269.15</ele>
        <time>2018-01-31T09:13:53Z</time>
      </trkpt>
      <trkpt lat="47.69491" lon="6.10373">
        <ele>268.98</ele>
        <time>2018-01-31T09:13:55Z</time>
      </trkpt>
      <trkpt lat="47.69487" lon="6.10378">
        <ele>268.78</ele>
        <time>2018-01-31T09:13:57Z</time>
      </trkpt>
      <trkpt lat="47.69482" lon="6.10382">
        <ele>268.55</ele>
        <time>2018-01-31T09:13:59Z</time>
      </trkpt>
      <trkpt lat="47.69478" lon="6.10388">
        <ele>268.3</ele>
        <time>2018-01-31T09:14:01Z</time>
      </trkpt>
      <trkpt lat="47.69474" lon="6.10393">
        <ele>267.9</ele>
        <time>2018-01-31T09:14:04Z</time>
      </trkpt>
      <trkpt lat="47.69471" lon="6.10396">
        <ele>267.61</ele>
        <time>2018-01-31T09:14:06Z</time>
      </trkpt>
      <trkpt lat="47.69466" lon="6.10402">
        <ele>267.13</ele>
        <time>2018-01-31T09:14:09Z</time>
      </trkpt>
      <trkpt lat="47.69462" lon="6.10406">
        <ele>266.61</ele>
        <time>2018-01-31T09:14:12Z</time>
      </trkpt>
      <trkpt lat="47.69458" lon="6.10409">
        <ele>266.08</ele>
        <time>2018-01-31T09:14:15Z</time>
      </trkpt>
      <trkpt lat="47.69454" lon="6.10414">
        <ele>265.55</ele>
        <time>2018-01-31T09:14:18Z</time>
      </trkpt>
      <trkpt lat="47.69449" lon="6.10418">
        <ele>265.05</ele>
        <time>2018-01-31T09:14:21Z</time>
      </trkpt>
      <trkpt lat="47.69445" lon="6.10422">
        <ele>264.73</ele>
        <time>2018-01-31T09:14:23Z</time>
      </trkpt>
      <trkpt lat="47.6944" lon="6.10427">
        <ele>264.29</ele>
        <time>2018-01-31T09:14:26Z</time>
      </trkpt>
      <trkpt lat="47.69436" lon="6.10432">
        <ele>263.89</ele>
        <time>2018-01-31T09:14:29Z</time>
      </trkpt>
      <trkpt lat="47.69431" lon="6.10435">
        <ele>263.51</ele>
        <time>2018-01-31T09:14:32Z</time>
      </trkpt>
      <trkpt lat="47.69426" lon="6.1044">
        <ele>263.15</ele>
        <time>2018-01-31T09:14:35Z</time>
      </trkpt>
      <trkpt lat="47.69423" lon="6.10444">
        <ele>262.84</ele>
        <time>2018-01-31T09:14:38Z</time>
      </trkpt>
      <trkpt lat="47.69418" lon="6.10448">
        <ele>262.56</ele>
        <time>2018-01-31T09:14:41Z</time>
      </trkpt>
      <trkpt lat="47.69414" lon="6.10452">
        <ele>262.29</ele>
        <time>2018-01-31T09:14:44Z</time>
      </trkpt>
      <trkpt lat="47.6941" lon="6.10455">
        <ele>262.04</ele>
        <time>2018-01-31T09:14:47Z</time>
      </trkpt>
      <trkpt lat="47.69405" lon="6.10458">
        <ele>261.72</ele>
        <time>2018-01-31T09:14:51Z</time>
      </trkpt>
      <trkpt lat="47.694" lon="6.10459">
        <ele>261.48</ele>
        <time>2018-01-31T09:14:54Z</time>
      </trkpt>
      <trkpt lat="47.69395" lon="6.1046">
        <ele>261.18</ele>
        <time>2018-01-31T09:14:58Z</time>
      </trkpt>
      <trkpt lat="47.6939" lon="6.10463">
        <ele>260.85</ele>
        <time>2018-01-31T09:15:03Z</time>
      </trkpt>
      <trkpt lat="47.69385" lon="6.10465">
        <ele>260.68</ele>
        <time>2018-01-31T09:15:06Z</time>
      </trkpt>
      <trkpt lat="47.6938" lon="6.10468">
        <ele>260.52</ele>
        <time>2018-01-31T09:15:09Z</time>
      </trkpt>
      <trkpt lat="47.69375" lon="6.10471">
        <ele>260.38</ele>
        <time>2018-01-31T09:15:12Z</time>
      </trkpt>
      <trkpt lat="47.69371" lon="6.10475">
        <ele>260.26</ele>
        <time>2018-01-31T09:15:15Z</time>
      </trkpt>
      <trkpt lat="47.69367" lon="6.10477">
        <ele>260.16</ele>
        <time>2018-01-31T09:15:18Z</time>
      </trkpt>
      <trkpt lat="47.69363" lon="6.10482">
        <ele>260.06</ele>
        <time>2018-01-31T09:15:21Z</time>
      </trkpt>
      <trkpt lat="47.69359" lon="6.10487">
        <ele>259.98</ele>
        <time>2018-01-31T09:15:24Z</time>
      </trkpt>
      <trkpt lat="47.69356" lon="6.10492">
        <ele>259.92</ele>
        <time>2018-01-31T09:15:27Z</time>
      </trkpt>
      <trkpt lat="47.69352" lon="6.10496">
        <ele>259.87</ele>
        <time>2018-01-31T09:15:30Z</time>
      </trkpt>
      <trkpt lat="47.69348" lon="6.10502">
        <ele>259.83</ele>
        <time>2018-01-31T09:15:33Z</time>
      </trkpt>
      <trkpt lat="47.69346" lon="6.10509">
        <ele>259.8</ele>
        <time>2018-01-31T09:15:37Z</time>
      </trkpt>
      <trkpt lat="47.69343" lon="6.10515">
        <ele>259.78</ele>
        <time>2018-01-31T09:15:41Z</time>
      </trkpt>
      <trkpt lat="47.6934" lon="6.10522">
        <ele>259.75</ele>
        <time>2018-01-31T09:15:45Z</time>
      </trkpt>
      <trkpt lat="47.69337" lon="6.10529">
        <ele>259.71</ele>
        <time>2018-01-31T09:15:49Z</time>
      </trkpt>
      <trkpt lat="47.69334" lon="6.10535">
        <ele>259.68</ele>
        <time>2018-01-31T09:15:53Z</time>
      </trkpt>
      <trkpt lat="47.6933" lon="6.10541">
        <ele>259.67</ele>
        <time>2018-01-31T09:15:57Z</time>
      </trkpt>
      <trkpt lat="47.69326" lon="6.10545">
        <ele>259.67</ele>
        <time>2018-01-31T09:16:00Z</time>
      </trkpt>
      <trkpt lat="47.69323" lon="6.10551">
        <ele>259.67</ele>
        <time>2018-01-31T09:16:04Z</time>
      </trkpt>
      <trkpt lat="47.69319" lon="6.10556">
        <ele>259.71</ele>
        <time>2018-01-31T09:16:08Z</time>
      </trkpt>
      <trkpt lat="47.69316" lon="6.10563">
        <ele>259.74</ele>
        <time>2018-01-31T09:16:11Z</time>
      </trkpt>
      <trkpt lat="47.69313" lon="6.10569">
        <ele>259.78</ele>
        <time>2018-01-31T09:16:14Z</time>
      </trkpt>
      <trkpt lat="47.6931" lon="6.10575">
        <ele>259.83</ele>
        <time>2018-01-31T09:16:17Z</time>
      </trkpt>
      <trkpt lat="47.69308" lon="6.10582">
        <ele>259.89</ele>
        <time>2018-01-31T09:16:20Z</time>
      </trkpt>
      <trkpt lat="47.69306" lon="6.10589">
        <ele>259.97</ele>
        <time>2018-01-31T09:16:23Z</time>
      </trkpt>
      <trkpt lat="47.69304" lon="6.10596">
        <ele>260.05</ele>
        <time>2018-01-31T09:16:26Z</time>
      </trkpt>
      <trkpt lat="47.69302" lon="6.10603">
        <ele>260.14</ele>
        <time>2018-01-31T09:16:29Z</time>
      </trkpt>
      <trkpt lat="47.693" lon="6.10611">
        <ele>260.24</ele>
        <time>2018-01-31T09:16:32Z</time>
      </trkpt>
      <trkpt lat="47.69299" lon="6.10618">
        <ele>260.31</ele>
        <time>2018-01-31T09:16:34Z</time>
      </trkpt>
      <trkpt lat="47.69295" lon="6.10629">
        <ele>260.39</ele>
        <time>2018-01-31T09:16:36Z</time>
      </trkpt>
      <trkpt lat="47.69293" lon="6.10638">
        <ele>260.49</ele>
        <time>2018-01-31T09:16:38Z</time>
      </trkpt>
      <trkpt lat="47.69291" lon="6.10647">
        <ele>260.65</ele>
        <time>2018-01-31T09:16:41Z</time>
      </trkpt>
      <trkpt lat="47.69289" lon="6.10655">
        <ele>260.86</ele>
        <time>2018-01-31T09:16:44Z</time>
      </trkpt>
      <trkpt lat="47.69286" lon="6.10662">
        <ele>261.09</ele>
        <time>2018-01-31T09:16:47Z</time>
      </trkpt>
      <trkpt lat="47.69283" lon="6.10671">
        <ele>261.33</ele>
        <time>2018-01-31T09:16:50Z</time>
      </trkpt>
      <trkpt lat="47.69281" lon="6.10679">
        <ele>261.59</ele>
        <time>2018-01-31T09:16:53Z</time>
      </trkpt>
      <trkpt lat="47.69278" lon="6.10686">
        <ele>261.85</ele>
        <time>2018-01-31T09:16:56Z</time>
      </trkpt>
      <trkpt lat="47.69273" lon="6.1069">
        <ele>262.12</ele>
        <time>2018-01-31T09:16:59Z</time>
      </trkpt>
      <trkpt lat="47.69268" lon="6.10693">
        <ele>262.41</ele>
        <time>2018-01-31T09:17:02Z</time>
      </trkpt>
      <trkpt lat="47.69263" lon="6.10696">
        <ele>262.63</ele>
        <time>2018-01-31T09:17:04Z</time>
      </trkpt>
      <trkpt lat="47.69259" lon="6.10699">
        <ele>262.88</ele>
        <time>2018-01-31T09:17:06Z</time>
      </trkpt>
      <trkpt lat="47.69254" lon="6.107">
        <ele>263.3</ele>
        <time>2018-01-31T09:17:09Z</time>
      </trkpt>
      <trkpt lat="47.69249" lon="6.10701">
        <ele>263.71</ele>
        <time>2018-01-31T09:17:12Z</time>
      </trkpt>
      <trkpt lat="47.69243" lon="6.10704">
        <ele>264.14</ele>
        <time>2018-01-31T09:17:15Z</time>
      </trkpt>
      <trkpt lat="47.69238" lon="6.10708">
        <ele>264.43</ele>
        <time>2018-01-31T09:17:17Z</time>
      </trkpt>
      <trkpt lat="47.69233" lon="6.10713">
        <ele>264.73</ele>
        <time>2018-01-31T09:17:19Z</time>
      </trkpt>
      <trkpt lat="47.69229" lon="6.10718">
        <ele>265.04</ele>
        <time>2018-01-31T09:17:21Z</time>
      </trkpt>
      <trkpt lat="47.69226" lon="6.10724">
        <ele>265.36</ele>
        <time>2018-01-31T09:17:23Z</time>
      </trkpt>
      <trkpt lat="47.69224" lon="6.10732">
        <ele>265.67</ele>
        <time>2018-01-31T09:17:25Z</time>
      </trkpt>
      <trkpt lat="47.69222" lon="6.10741">
        <ele>265.97</ele>
        <time>2018-01-31T09:17:27Z</time>
      </trkpt>
      <trkpt lat="47.69219" lon="6.10749">
        <ele>266.26</ele>
        <time>2018-01-31T09:17:29Z</time>
      </trkpt>
      <trkpt lat="47.69216" lon="6.10756">
        <ele>266.54</ele>
        <time>2018-01-31T09:17:31Z</time>
      </trkpt>
      <trkpt lat="47.69214" lon="6.10764">
        <ele>266.81</ele>
        <time>2018-01-31T09:17:33Z</time>
      </trkpt>
      <trkpt lat="47.69213" lon="6.10773">
        <ele>267.07</ele>
        <time>2018-01-31T09:17:35Z</time>
      </trkpt>
      <trkpt lat="47.69212" lon="6.10782">
        <ele>267.33</ele>
        <time>2018-01-31T09:17:37Z</time>
      </trkpt>
      <trkpt lat="47.69212" lon="6.1079">
        <ele>267.57</ele>
        <time>2018-01-31T09:17:39Z</time>
      </trkpt>
      <trkpt lat="47.69211" lon="6.10798">
        <ele>267.82</ele>
        <time>2018-01-31T09:17:41Z</time>
      </trkpt>
      <trkpt lat="47.6921" lon="6.10807">
        <ele>268.17</ele>
        <time>2018-01-31T09:17:44Z</time>
      </trkpt>
      <trkpt lat="47.69217" lon="6.10809">
        <ele>268.51</ele>
        <time>2018-01-31T09:17:47Z</time>
      </trkpt>
      <trkpt lat="47.69222" lon="6.10807">
        <ele>268.73</ele>
        <time>2018-01-31T09:17:49Z</time>
      </trkpt>
      <trkpt lat="47.69226" lon="6.10803">
        <ele>268.94</ele>
        <time>2018-01-31T09:17:51Z</time>
      </trkpt>
      <trkpt lat="47.69232" lon="6.10799">
        <ele>269.15</ele>
        <time>2018-01-31T09:17:53Z</time>
      </trkpt>
      <trkpt lat="47.69236" lon="6.10797">
        <ele>269.34</ele>
        <time>2018-01-31T09:17:55Z</time>
      </trkpt>
      <trkpt lat="47.69241" lon="6.10794">
        <ele>269.52</ele>
        <time>2018-01-31T09:17:57Z</time>
      </trkpt>
      <trkpt lat="47.69246" lon="6.10792">
        <ele>270.39</ele>
        <time>2018-01-31T09:18:16Z</time>
      </trkpt>
      <trkpt lat="47.6925" lon="6.10788">
        <ele>270.54</ele>
        <time>2018-01-31T09:18:19Z</time>
      </trkpt>
      <trkpt lat="47.69252" lon="6.1078">
        <ele>270.67</ele>
        <time>2018-01-31T09:18:22Z</time>
      </trkpt>
      <trkpt lat="47.69252" lon="6.10771">
        <ele>270.79</ele>
        <time>2018-01-31T09:18:25Z</time>
      </trkpt>
      <trkpt lat="47.69254" lon="6.10763">
        <ele>270.9</ele>
        <time>2018-01-31T09:18:28Z</time>
      </trkpt>
      <trkpt lat="47.69254" lon="6.10756">
        <ele>270.97</ele>
        <time>2018-01-31T09:18:30Z</time>
      </trkpt>
      <trkpt lat="47.69256" lon="6.10749">
        <ele>271.1</ele>
        <time>2018-01-31T09:18:34Z</time>
      </trkpt>
      <trkpt lat="47.69252" lon="6.10744">
        <ele>271.33</ele>
        <time>2018-01-31T09:18:42Z</time>
      </trkpt>
      <trkpt lat="47.69247" lon="6.10739">
        <ele>271.42</ele>
        <time>2018-01-31T09:18:45Z</time>
      </trkpt>
      <trkpt lat="47.69241" lon="6.10733">
        <ele>271.5</ele>
        <time>2018-01-31T09:18:48Z</time>
      </trkpt>
      <trkpt lat="47.69237" lon="6.10727">
        <ele>271.59</ele>
        <time>2018-01-31T09:18:51Z</time>
      </trkpt>
      <trkpt lat="47.69232" lon="6.10726">
        <ele>271.68</ele>
        <time>2018-01-31T09:18:54Z</time>
      </trkpt>
      <trkpt lat="47.69226" lon="6.10728">
        <ele>271.76</ele>
        <time>2018-01-31T09:18:57Z</time>
      </trkpt>
      <trkpt lat="47.69222" lon="6.10734">
        <ele>271.92</ele>
        <time>2018-01-31T09:19:02Z</time>
      </trkpt>
      <trkpt lat="47.69218" lon="6.10739">
        <ele>272.04</ele>
        <time>2018-01-31T09:19:06Z</time>
      </trkpt>
      <trkpt lat="47.69215" lon="6.10733">
        <ele>272.15</ele>
        <time>2018-01-31T09:19:10Z</time>
      </trkpt>
      <trkpt lat="47.69214" lon="6.10724">
        <ele>272.23</ele>
        <time>2018-01-31T09:19:13Z</time>
      </trkpt>
      <trkpt lat="47.6921" lon="6.10718">
        <ele>272.28</ele>
        <time>2018-01-31T09:19:15Z</time>
      </trkpt>
      <trkpt lat="47.69205" lon="6.10714">
        <ele>272.33</ele>
        <time>2018-01-31T09:19:17Z</time>
      </trkpt>
      <trkpt lat="47.69199" lon="6.10712">
        <ele>272.38</ele>
        <time>2018-01-31T09:19:19Z</time>
      </trkpt>
      <trkpt lat="47.69193" lon="6.10708">
        <ele>272.43</ele>
        <time>2018-01-31T09:19:21Z</time>
      </trkpt>
      <trkpt lat="47.69189" lon="6.10706">
        <ele>272.48</ele>
        <time>2018-01-31T09:19:23Z</time>
      </trkpt>
      <trkpt lat="47.69184" lon="6.10704">
        <ele>272.54</ele>
        <time>2018-01-31T09:19:25Z</time>
      </trkpt>
      <trkpt lat="47.69178" lon="6.10702">
        <ele>272.59</ele>
        <time>2018-01-31T09:19:27Z</time>
      </trkpt>
      <trkpt lat="47.69173" lon="6.10699">
        <ele>272.64</ele>
        <time>2018-01-31T09:19:29Z</time>
      </trkpt>
      <trkpt lat="47.69167" lon="6.10698">
        <ele>272.71</ele>
        <time>2018-01-31T09:19:32Z</time>
      </trkpt>
      <trkpt lat="47.69166" lon="6.10689">
        <ele>272.82</ele>
        <time>2018-01-31T09:19:37Z</time>
      </trkpt>
      <trkpt lat="47.69167" lon="6.10682">
        <ele>272.86</ele>
        <time>2018-01-31T09:19:39Z</time>
      </trkpt>
      <trkpt lat="47.69168" lon="6.10673">
        <ele>272.9</ele>
        <time>2018-01-31T09:19:41Z</time>
      </trkpt>
      <trkpt lat="47.69169" lon="6.10664">
        <ele>272.93</ele>
        <time>2018-01-31T09:19:43Z</time>
      </trkpt>
      <trkpt lat="47.6917" lon="6.10656">
        <ele>272.96</ele>
        <time>2018-01-31T09:19:45Z</time>
      </trkpt>
      <trkpt lat="47.69172" lon="6.10648">
        <ele>272.99</ele>
        <time>2018-01-31T09:19:47Z</time>
      </trkpt>
      <trkpt lat="47.69173" lon="6.10641">
        <ele>273.01</ele>
        <time>2018-01-31T09:19:49Z</time>
      </trkpt>
      <trkpt lat="47.6917" lon="6.10646">
        <ele>273.08</ele>
        <time>2018-01-31T09:20:12Z</time>
      </trkpt>
      <trkpt lat="47.69169" lon="6.10653">
        <ele>273.07</ele>
        <time>2018-01-31T09:20:15Z</time>
      </trkpt>
      <trkpt lat="47.69166" lon="6.10659">
        <ele>273.08</ele>
        <time>2018-01-31T09:20:22Z</time>
      </trkpt>
      <trkpt lat="47.69164" lon="6.10665">
        <ele>273.1</ele>
        <time>2018-01-31T09:20:25Z</time>
      </trkpt>
      <trkpt lat="47.69161" lon="6.10675">
        <ele>273.13</ele>
        <time>2018-01-31T09:20:28Z</time>
      </trkpt>
      <trkpt lat="47.6916" lon="6.10681">
        <ele>273.15</ele>
        <time>2018-01-31T09:20:30Z</time>
      </trkpt>
      <trkpt lat="47.69158" lon="6.10689">
        <ele>273.18</ele>
        <time>2018-01-31T09:20:33Z</time>
      </trkpt>
      <trkpt lat="47.69156" lon="6.10697">
        <ele>273.21</ele>
        <time>2018-01-31T09:20:36Z</time>
      </trkpt>
      <trkpt lat="47.69158" lon="6.10704">
        <ele>273.24</ele>
        <time>2018-01-31T09:20:39Z</time>
      </trkpt>
      <trkpt lat="47.69164" lon="6.10708">
        <ele>273.26</ele>
        <time>2018-01-31T09:20:41Z</time>
      </trkpt>
      <trkpt lat="47.69169" lon="6.10712">
        <ele>273.27</ele>
        <time>2018-01-31T09:20:43Z</time>
      </trkpt>
      <trkpt lat="47.69176" lon="6.10713">
        <ele>273.29</ele>
        <time>2018-01-31T09:20:45Z</time>
      </trkpt>
      <trkpt lat="47.69184" lon="6.10717">
        <ele>273.3</ele>
        <time>2018-01-31T09:20:47Z</time>
      </trkpt>
      <trkpt lat="47.69191" lon="6.10719">
        <ele>273.31</ele>
        <time>2018-01-31T09:20:49Z</time>
      </trkpt>
      <trkpt lat="47.69197" lon="6.10723">
        <ele>273.31</ele>
        <time>2018-01-31T09:20:51Z</time>
      </trkpt>
      <trkpt lat="47.69203" lon="6.10729">
        <ele>273.31</ele>
        <time>2018-01-31T09:20:53Z</time>
      </trkpt>
      <trkpt lat="47.69208" lon="6.10734">
        <ele>273.31</ele>
        <time>2018-01-31T09:20:55Z</time>
      </trkpt>
      <trkpt lat="47.69207" lon="6.10743">
        <ele>273.31</ele>
        <time>2018-01-31T09:20:57Z</time>
      </trkpt>
      <trkpt lat="47.69205" lon="6.10752">
        <ele>273.31</ele>
        <time>2018-01-31T09:20:59Z</time>
      </trkpt>
      <trkpt lat="47.69206" lon="6.1076">
        <ele>273.31</ele>
        <time>2018-01-31T09:21:02Z</time>
      </trkpt>
      <trkpt lat="47.69207" lon="6.10767">
        <ele>273.31</ele>
        <time>2018-01-31T09:21:04Z</time>
      </trkpt>
      <trkpt lat="47.69208" lon="6.10775">
        <ele>273.32</ele>
        <time>2018-01-31T09:21:06Z</time>
      </trkpt>
      <trkpt lat="47.69207" lon="6.10782">
        <ele>273.32</ele>
        <time>2018-01-31T09:21:08Z</time>
      </trkpt>
      <trkpt lat="47.69207" lon="6.10791">
        <ele>273.32</ele>
        <time>2018-01-31T09:21:11Z</time>
      </trkpt>
      <trkpt lat="47.69207" lon="6.10801">
        <ele>273.33</ele>
        <time>2018-01-31T09:21:14Z</time>
      </trkpt>
      <trkpt lat="47.69207" lon="6.10808">
        <ele>273.34</ele>
        <time>2018-01-31T09:21:17Z</time>
      </trkpt>
      <trkpt lat="47.69212" lon="6.10806">
        <ele>273.47</ele>
        <time>2018-01-31T09:22:22Z</time>
      </trkpt>
      <trkpt lat="47.69213" lon="6.10813">
        <ele>274.25</ele>
        <time>2018-01-31T09:23:13Z</time>
      </trkpt>
      <trkpt lat="47.69216" lon="6.10819">
        <ele>274.38</ele>
        <time>2018-01-31T09:23:15Z</time>
      </trkpt>
      <trkpt lat="47.69219" lon="6.10831">
        <ele>274.5</ele>
        <time>2018-01-31T09:23:17Z</time>
      </trkpt>
      <trkpt lat="47.69218" lon="6.1084">
        <ele>274.62</ele>
        <time>2018-01-31T09:23:19Z</time>
      </trkpt>
      <trkpt lat="47.69219" lon="6.1085">
        <ele>274.74</ele>
        <time>2018-01-31T09:23:21Z</time>
      </trkpt>
      <trkpt lat="47.69219" lon="6.10859">
        <ele>274.85</ele>
        <time>2018-01-31T09:23:23Z</time>
      </trkpt>
      <trkpt lat="47.69219" lon="6.10867">
        <ele>274.96</ele>
        <time>2018-01-31T09:23:25Z</time>
      </trkpt>
      <trkpt lat="47.6922" lon="6.10876">
        <ele>275.06</ele>
        <time>2018-01-31T09:23:27Z</time>
      </trkpt>
      <trkpt lat="47.69219" lon="6.10885">
        <ele>275.16</ele>
        <time>2018-01-31T09:23:29Z</time>
      </trkpt>
      <trkpt lat="47.6922" lon="6.10894">
        <ele>275.26</ele>
        <time>2018-01-31T09:23:31Z</time>
      </trkpt>
      <trkpt lat="47.69221" lon="6.10906">
        <ele>275.35</ele>
        <time>2018-01-31T09:23:33Z</time>
      </trkpt>
      <trkpt lat="47.69221" lon="6.10915">
        <ele>275.45</ele>
        <time>2018-01-31T09:23:35Z</time>
      </trkpt>
      <trkpt lat="47.69224" lon="6.10925">
        <ele>275.54</ele>
        <time>2018-01-31T09:23:37Z</time>
      </trkpt>
      <trkpt lat="47.69225" lon="6.10936">
        <ele>275.91</ele>
        <time>2018-01-31T09:23:39Z</time>
      </trkpt>
      <trkpt lat="47.69227" lon="6.10947">
        <ele>276.32</ele>
        <time>2018-01-31T09:23:41Z</time>
      </trkpt>
      <trkpt lat="47.69229" lon="6.10956">
        <ele>276.48</ele>
        <time>2018-01-31T09:23:43Z</time>
      </trkpt>
      <trkpt lat="47.69232" lon="6.10961">
        <ele>276.52</ele>
        <time>2018-01-31T09:23:44Z</time>
      </trkpt>
      <trkpt lat="47.69236" lon="6.10972">
        <ele>276.83</ele>
        <time>2018-01-31T09:23:46Z</time>
      </trkpt>
      <trkpt lat="47.69238" lon="6.10983">
        <ele>277.24</ele>
        <time>2018-01-31T09:23:48Z</time>
      </trkpt>
      <trkpt lat="47.69237" lon="6.10996">
        <ele>277.57</ele>
        <time>2018-01-31T09:23:50Z</time>
      </trkpt>
      <trkpt lat="47.69232" lon="6.11005">
        <ele>277.81</ele>
        <time>2018-01-31T09:23:52Z</time>
      </trkpt>
      <trkpt lat="47.69226" lon="6.11011">
        <ele>277.98</ele>
        <time>2018-01-31T09:23:54Z</time>
      </trkpt>
      <trkpt lat="47.69219" lon="6.11017">
        <ele>278.07</ele>
        <time>2018-01-31T09:23:56Z</time>
      </trkpt>
      <trkpt lat="47.69213" lon="6.11022">
        <ele>278.09</ele>
        <time>2018-01-31T09:23:58Z</time>
      </trkpt>
      <trkpt lat="47.69206" lon="6.11027">
        <ele>278.1</ele>
        <time>2018-01-31T09:24:00Z</time>
      </trkpt>
      <trkpt lat="47.69201" lon="6.11033">
        <ele>278.11</ele>
        <time>2018-01-31T09:24:02Z</time>
      </trkpt>
      <trkpt lat="47.69196" lon="6.11038">
        <ele>278.13</ele>
        <time>2018-01-31T09:24:04Z</time>
      </trkpt>
      <trkpt lat="47.69193" lon="6.11045">
        <ele>278.14</ele>
        <time>2018-01-31T09:24:06Z</time>
      </trkpt>
      <trkpt lat="47.6919" lon="6.11052">
        <ele>278.16</ele>
        <time>2018-01-31T09:24:08Z</time>
      </trkpt>
      <trkpt lat="47.69189" lon="6.11061">
        <ele>278.18</ele>
        <time>2018-01-31T09:24:10Z</time>
      </trkpt>
      <trkpt lat="47.69187" lon="6.11069">
        <ele>278.2</ele>
        <time>2018-01-31T09:24:12Z</time>
      </trkpt>
      <trkpt lat="47.69185" lon="6.11076">
        <ele>278.22</ele>
        <time>2018-01-31T09:24:14Z</time>
      </trkpt>
      <trkpt lat="47.69183" lon="6.11085">
        <ele>278.24</ele>
        <time>2018-01-31T09:24:16Z</time>
      </trkpt>
      <trkpt lat="47.69182" lon="6.11094">
        <ele>278.26</ele>
        <time>2018-01-31T09:24:18Z</time>
      </trkpt>
      <trkpt lat="47.6918" lon="6.11103">
        <ele>278.28</ele>
        <time>2018-01-31T09:24:20Z</time>
      </trkpt>
      <trkpt lat="47.69178" lon="6.11112">
        <ele>278.3</ele>
        <time>2018-01-31T09:24:22Z</time>
      </trkpt>
      <trkpt lat="47.69176" lon="6.1112">
        <ele>278.32</ele>
        <time>2018-01-31T09:24:24Z</time>
      </trkpt>
      <trkpt lat="47.69173" lon="6.11129">
        <ele>278.34</ele>
        <time>2018-01-31T09:24:26Z</time>
      </trkpt>
      <trkpt lat="47.69171" lon="6.11136">
        <ele>278.37</ele>
        <time>2018-01-31T09:24:28Z</time>
      </trkpt>
      <trkpt lat="47.69169" lon="6.11143">
        <ele>278.39</ele>
        <time>2018-01-31T09:24:30Z</time>
      </trkpt>
      <trkpt lat="47.69167" lon="6.11151">
        <ele>278.41</ele>
        <time>2018-01-31T09:24:32Z</time>
      </trkpt>
      <trkpt lat="47.69164" lon="6.11164">
        <ele>278.6</ele>
        <time>2018-01-31T09:24:34Z</time>
      </trkpt>
      <trkpt lat="47.69162" lon="6.1117">
        <ele>278.69</ele>
        <time>2018-01-31T09:24:35Z</time>
      </trkpt>
      <trkpt lat="47.6916" lon="6.11176">
        <ele>278.77</ele>
        <time>2018-01-31T09:24:36Z</time>
      </trkpt>
      <trkpt lat="47.69158" lon="6.11182">
        <ele>278.83</ele>
        <time>2018-01-31T09:24:37Z</time>
      </trkpt>
      <trkpt lat="47.69156" lon="6.11189">
        <ele>278.89</ele>
        <time>2018-01-31T09:24:38Z</time>
      </trkpt>
      <trkpt lat="47.69154" lon="6.11195">
        <ele>278.93</ele>
        <time>2018-01-31T09:24:39Z</time>
      </trkpt>
      <trkpt lat="47.69152" lon="6.11202">
        <ele>278.97</ele>
        <time>2018-01-31T09:24:40Z</time>
      </trkpt>
      <trkpt lat="47.6915" lon="6.11208">
        <ele>279.01</ele>
        <time>2018-01-31T09:24:41Z</time>
      </trkpt>
      <trkpt lat="47.69148" lon="6.11215">
        <ele>279.04</ele>
        <time>2018-01-31T09:24:42Z</time>
      </trkpt>
      <trkpt lat="47.69146" lon="6.11221">
        <ele>279.06</ele>
        <time>2018-01-31T09:24:43Z</time>
      </trkpt>
      <trkpt lat="47.69143" lon="6.11233">
        <ele>279.11</ele>
        <time>2018-01-31T09:24:45Z</time>
      </trkpt>
      <trkpt lat="47.6914" lon="6.11244">
        <ele>279.15</ele>
        <time>2018-01-31T09:24:47Z</time>
      </trkpt>
      <trkpt lat="47.69138" lon="6.11253">
        <ele>279.16</ele>
        <time>2018-01-31T09:24:49Z</time>
      </trkpt>
      <trkpt lat="47.69135" lon="6.11262">
        <ele>279.16</ele>
        <time>2018-01-31T09:24:51Z</time>
      </trkpt>
      <trkpt lat="47.69133" lon="6.11272">
        <ele>279.17</ele>
        <time>2018-01-31T09:24:53Z</time>
      </trkpt>
      <trkpt lat="47.69131" lon="6.11282">
        <ele>279.18</ele>
        <time>2018-01-31T09:24:55Z</time>
      </trkpt>
      <trkpt lat="47.69128" lon="6.11293">
        <ele>279.21</ele>
        <time>2018-01-31T09:24:57Z</time>
      </trkpt>
      <trkpt lat="47.69125" lon="6.11304">
        <ele>279.23</ele>
        <time>2018-01-31T09:24:59Z</time>
      </trkpt>
      <trkpt lat="47.69122" lon="6.11314">
        <ele>279.24</ele>
        <time>2018-01-31T09:25:01Z</time>
      </trkpt>
      <trkpt lat="47.69119" lon="6.11324">
        <ele>279.32</ele>
        <time>2018-01-31T09:25:03Z</time>
      </trkpt>
      <trkpt lat="47.69116" lon="6.11333">
        <ele>279.37</ele>
        <time>2018-01-31T09:25:05Z</time>
      </trkpt>
      <trkpt lat="47.69114" lon="6.11343">
        <ele>279.39</ele>
        <time>2018-01-31T09:25:07Z</time>
      </trkpt>
      <trkpt lat="47.69113" lon="6.11354">
        <ele>279.4</ele>
        <time>2018-01-31T09:25:09Z</time>
      </trkpt>
      <trkpt lat="47.69112" lon="6.11365">
        <ele>279.41</ele>
        <time>2018-01-31T09:25:11Z</time>
      </trkpt>
      <trkpt lat="47.69109" lon="6.11374">
        <ele>279.43</ele>
        <time>2018-01-31T09:25:13Z</time>
      </trkpt>
      <trkpt lat="47.69106" lon="6.11385">
        <ele>279.44</ele>
        <time>2018-01-31T09:25:15Z</time>
      </trkpt>
      <trkpt lat="47.69104" lon="6.11394">
        <ele>279.45</ele>
        <time>2018-01-31T09:25:17Z</time>
      </trkpt>
      <trkpt lat="47.69102" lon="6.11403">
        <ele>279.46</ele>
        <time>2018-01-31T09:25:19Z</time>
      </trkpt>
      <trkpt lat="47.69102" lon="6.11412">
        <ele>279.48</ele>
        <time>2018-01-31T09:25:21Z</time>
      </trkpt>
      <trkpt lat="47.69101" lon="6.1142">
        <ele>279.49</ele>
        <time>2018-01-31T09:25:23Z</time>
      </trkpt>
      <trkpt lat="47.69099" lon="6.11429">
        <ele>279.5</ele>
        <time>2018-01-31T09:25:25Z</time>
      </trkpt>
      <trkpt lat="47.69098" lon="6.11438">
        <ele>279.52</ele>
        <time>2018-01-31T09:25:27Z</time>
      </trkpt>
      <trkpt lat="47.69097" lon="6.11447">
        <ele>279.54</ele>
        <time>2018-01-31T09:25:29Z</time>
      </trkpt>
      <trkpt lat="47.69096" lon="6.11458">
        <ele>279.55</ele>
        <time>2018-01-31T09:25:31Z</time>
      </trkpt>
      <trkpt lat="47.69095" lon="6.11469">
        <ele>279.57</ele>
        <time>2018-01-31T09:25:33Z</time>
      </trkpt>
      <trkpt lat="47.69094" lon="6.11478">
        <ele>279.59</ele>
        <time>2018-01-31T09:25:35Z</time>
      </trkpt>
      <trkpt lat="47.69094" lon="6.11488">
        <ele>279.61</ele>
        <time>2018-01-31T09:25:37Z</time>
      </trkpt>
      <trkpt lat="47.69094" lon="6.11499">
        <ele>279.63</ele>
        <time>2018-01-31T09:25:39Z</time>
      </trkpt>
      <trkpt lat="47.69093" lon="6.11508">
        <ele>279.65</ele>
        <time>2018-01-31T09:25:41Z</time>
      </trkpt>
      <trkpt lat="47.69093" lon="6.11519">
        <ele>279.66</ele>
        <time>2018-01-31T09:25:43Z</time>
      </trkpt>
      <trkpt lat="47.69093" lon="6.1153">
        <ele>279.68</ele>
        <time>2018-01-31T09:25:45Z</time>
      </trkpt>
      <trkpt lat="47.69093" lon="6.11541">
        <ele>279.75</ele>
        <time>2018-01-31T09:25:47Z</time>
      </trkpt>
      <trkpt lat="47.69093" lon="6.11553">
        <ele>279.85</ele>
        <time>2018-01-31T09:25:49Z</time>
      </trkpt>
      <trkpt lat="47.69094" lon="6.11565">
        <ele>279.91</ele>
        <time>2018-01-31T09:25:51Z</time>
      </trkpt>
      <trkpt lat="47.69094" lon="6.11578">
        <ele>279.93</ele>
        <time>2018-01-31T09:25:53Z</time>
      </trkpt>
      <trkpt lat="47.69094" lon="6.1159">
        <ele>279.93</ele>
        <time>2018-01-31T09:25:55Z</time>
      </trkpt>
      <trkpt lat="47.69094" lon="6.11602">
        <ele>279.92</ele>
        <time>2018-01-31T09:25:57Z</time>
      </trkpt>
      <trkpt lat="47.69094" lon="6.11614">
        <ele>279.9</ele>
        <time>2018-01-31T09:25:59Z</time>
      </trkpt>
      <trkpt lat="47.69093" lon="6.11625">
        <ele>279.89</ele>
        <time>2018-01-31T09:26:01Z</time>
      </trkpt>
      <trkpt lat="47.69092" lon="6.11637">
        <ele>279.87</ele>
        <time>2018-01-31T09:26:03Z</time>
      </trkpt>
      <trkpt lat="47.6909" lon="6.11648">
        <ele>279.87</ele>
        <time>2018-01-31T09:26:05Z</time>
      </trkpt>
      <trkpt lat="47.69089" lon="6.1166">
        <ele>279.87</ele>
        <time>2018-01-31T09:26:07Z</time>
      </trkpt>
      <trkpt lat="47.69087" lon="6.1167">
        <ele>279.87</ele>
        <time>2018-01-31T09:26:09Z</time>
      </trkpt>
      <trkpt lat="47.69084" lon="6.11679">
        <ele>279.87</ele>
        <time>2018-01-31T09:26:11Z</time>
      </trkpt>
      <trkpt lat="47.69081" lon="6.11687">
        <ele>279.88</ele>
        <time>2018-01-31T09:26:13Z</time>
      </trkpt>
      <trkpt lat="47.69077" lon="6.11695">
        <ele>279.89</ele>
        <time>2018-01-31T09:26:15Z</time>
      </trkpt>
      <trkpt lat="47.69073" lon="6.11704">
        <ele>279.89</ele>
        <time>2018-01-31T09:26:17Z</time>
      </trkpt>
      <trkpt lat="47.69069" lon="6.11712">
        <ele>279.9</ele>
        <time>2018-01-31T09:26:19Z</time>
      </trkpt>
      <trkpt lat="47.69064" lon="6.11722">
        <ele>279.97</ele>
        <time>2018-01-31T09:26:21Z</time>
      </trkpt>
      <trkpt lat="47.6906" lon="6.11732">
        <ele>280.01</ele>
        <time>2018-01-31T09:26:23Z</time>
      </trkpt>
      <trkpt lat="47.69056" lon="6.1174">
        <ele>280.02</ele>
        <time>2018-01-31T09:26:25Z</time>
      </trkpt>
      <trkpt lat="47.69052" lon="6.1175">
        <ele>280.03</ele>
        <time>2018-01-31T09:26:27Z</time>
      </trkpt>
      <trkpt lat="47.69049" lon="6.1176">
        <ele>280.04</ele>
        <time>2018-01-31T09:26:29Z</time>
      </trkpt>
      <trkpt lat="47.69046" lon="6.1177">
        <ele>280.11</ele>
        <time>2018-01-31T09:26:31Z</time>
      </trkpt>
      <trkpt lat="47.69043" lon="6.1178">
        <ele>280.16</ele>
        <time>2018-01-31T09:26:33Z</time>
      </trkpt>
      <trkpt lat="47.6904" lon="6.11791">
        <ele>280.22</ele>
        <time>2018-01-31T09:26:35Z</time>
      </trkpt>
      <trkpt lat="47.69038" lon="6.11802">
        <ele>280.28</ele>
        <time>2018-01-31T09:26:37Z</time>
      </trkpt>
      <trkpt lat="47.69036" lon="6.11812">
        <ele>280.33</ele>
        <time>2018-01-31T09:26:39Z</time>
      </trkpt>
      <trkpt lat="47.69035" lon="6.11824">
        <ele>280.37</ele>
        <time>2018-01-31T09:26:41Z</time>
      </trkpt>
      <trkpt lat="47.69034" lon="6.11836">
        <ele>280.42</ele>
        <time>2018-01-31T09:26:43Z</time>
      </trkpt>
      <trkpt lat="47.69033" lon="6.11848">
        <ele>280.46</ele>
        <time>2018-01-31T09:26:45Z</time>
      </trkpt>
      <trkpt lat="47.69032" lon="6.11861">
        <ele>280.49</ele>
        <time>2018-01-31T09:26:47Z</time>
      </trkpt>
      <trkpt lat="47.69032" lon="6.11867">
        <ele>280.51</ele>
        <time>2018-01-31T09:26:48Z</time>
      </trkpt>
      <trkpt lat="47.69033" lon="6.11874">
        <ele>280.52</ele>
        <time>2018-01-31T09:26:49Z</time>
      </trkpt>
      <trkpt lat="47.69033" lon="6.11882">
        <ele>280.53</ele>
        <time>2018-01-31T09:26:50Z</time>
      </trkpt>
      <trkpt lat="47.69034" lon="6.1189">
        <ele>280.54</ele>
        <time>2018-01-31T09:26:51Z</time>
      </trkpt>
      <trkpt lat="47.69035" lon="6.11898">
        <ele>280.55</ele>
        <time>2018-01-31T09:26:52Z</time>
      </trkpt>
      <trkpt lat="47.69036" lon="6.11907">
        <ele>280.56</ele>
        <time>2018-01-31T09:26:53Z</time>
      </trkpt>
      <trkpt lat="47.69037" lon="6.11915">
        <ele>280.57</ele>
        <time>2018-01-31T09:26:54Z</time>
      </trkpt>
      <trkpt lat="47.69038" lon="6.11924">
        <ele>280.58</ele>
        <time>2018-01-31T09:26:55Z</time>
      </trkpt>
      <trkpt lat="47.69039" lon="6.11932">
        <ele>280.59</ele>
        <time>2018-01-31T09:26:56Z</time>
      </trkpt>
      <trkpt lat="47.6904" lon="6.1194">
        <ele>280.6</ele>
        <time>2018-01-31T09:26:57Z</time>
      </trkpt>
      <trkpt lat="47.69041" lon="6.11947">
        <ele>280.61</ele>
        <time>2018-01-31T09:26:58Z</time>
      </trkpt>
      <trkpt lat="47.69043" lon="6.11955">
        <ele>280.62</ele>
        <time>2018-01-31T09:26:59Z</time>
      </trkpt>
      <trkpt lat="47.69045" lon="6.11969">
        <ele>280.64</ele>
        <time>2018-01-31T09:27:01Z</time>
      </trkpt>
      <trkpt lat="47.69046" lon="6.11976">
        <ele>280.65</ele>
        <time>2018-01-31T09:27:02Z</time>
      </trkpt>
      <trkpt lat="47.69048" lon="6.11984">
        <ele>280.65</ele>
        <time>2018-01-31T09:27:03Z</time>
      </trkpt>
      <trkpt lat="47.69049" lon="6.11991">
        <ele>280.66</ele>
        <time>2018-01-31T09:27:04Z</time>
      </trkpt>
      <trkpt lat="47.6905" lon="6.11998">
        <ele>280.66</ele>
        <time>2018-01-31T09:27:05Z</time>
      </trkpt>
      <trkpt lat="47.69051" lon="6.12004">
        <ele>280.65</ele>
        <time>2018-01-31T09:27:06Z</time>
      </trkpt>
      <trkpt lat="47.69052" lon="6.12011">
        <ele>280.65</ele>
        <time>2018-01-31T09:27:07Z</time>
      </trkpt>
      <trkpt lat="47.69053" lon="6.12017">
        <ele>280.64</ele>
        <time>2018-01-31T09:27:08Z</time>
      </trkpt>
      <trkpt lat="47.69054" lon="6.12024">
        <ele>280.63</ele>
        <time>2018-01-31T09:27:09Z</time>
      </trkpt>
      <trkpt lat="47.69057" lon="6.12036">
        <ele>280.6</ele>
        <time>2018-01-31T09:27:11Z</time>
      </trkpt>
      <trkpt lat="47.69059" lon="6.12048">
        <ele>280.57</ele>
        <time>2018-01-31T09:27:13Z</time>
      </trkpt>
      <trkpt lat="47.69061" lon="6.1206">
        <ele>280.54</ele>
        <time>2018-01-31T09:27:15Z</time>
      </trkpt>
      <trkpt lat="47.69063" lon="6.12072">
        <ele>280.5</ele>
        <time>2018-01-31T09:27:17Z</time>
      </trkpt>
      <trkpt lat="47.69065" lon="6.12085">
        <ele>280.46</ele>
        <time>2018-01-31T09:27:19Z</time>
      </trkpt>
      <trkpt lat="47.69067" lon="6.12098">
        <ele>280.43</ele>
        <time>2018-01-31T09:27:21Z</time>
      </trkpt>
      <trkpt lat="47.69068" lon="6.12105">
        <ele>280.41</ele>
        <time>2018-01-31T09:27:22Z</time>
      </trkpt>
      <trkpt lat="47.69069" lon="6.12113">
        <ele>280.39</ele>
        <time>2018-01-31T09:27:23Z</time>
      </trkpt>
      <trkpt lat="47.6907" lon="6.12121">
        <ele>280.37</ele>
        <time>2018-01-31T09:27:24Z</time>
      </trkpt>
      <trkpt lat="47.69071" lon="6.1213">
        <ele>280.35</ele>
        <time>2018-01-31T09:27:25Z</time>
      </trkpt>
      <trkpt lat="47.69072" lon="6.12138">
        <ele>280.33</ele>
        <time>2018-01-31T09:27:26Z</time>
      </trkpt>
      <trkpt lat="47.69072" lon="6.12146">
        <ele>280.32</ele>
        <time>2018-01-31T09:27:27Z</time>
      </trkpt>
      <trkpt lat="47.69073" lon="6.12154">
        <ele>280.3</ele>
        <time>2018-01-31T09:27:28Z</time>
      </trkpt>
      <trkpt lat="47.69073" lon="6.12162">
        <ele>280.28</ele>
        <time>2018-01-31T09:27:29Z</time>
      </trkpt>
      <trkpt lat="47.69073" lon="6.1217">
        <ele>280.26</ele>
        <time>2018-01-31T09:27:30Z</time>
      </trkpt>
      <trkpt lat="47.69072" lon="6.12179">
        <ele>280.24</ele>
        <time>2018-01-31T09:27:31Z</time>
      </trkpt>
      <trkpt lat="47.69072" lon="6.12187">
        <ele>280.23</ele>
        <time>2018-01-31T09:27:32Z</time>
      </trkpt>
      <trkpt lat="47.69072" lon="6.12195">
        <ele>280.22</ele>
        <time>2018-01-31T09:27:33Z</time>
      </trkpt>
      <trkpt lat="47.69071" lon="6.12203">
        <ele>280.21</ele>
        <time>2018-01-31T09:27:34Z</time>
      </trkpt>
      <trkpt lat="47.6907" lon="6.12212">
        <ele>280.2</ele>
        <time>2018-01-31T09:27:35Z</time>
      </trkpt>
      <trkpt lat="47.6907" lon="6.12219">
        <ele>280.2</ele>
        <time>2018-01-31T09:27:36Z</time>
      </trkpt>
      <trkpt lat="47.69069" lon="6.12227">
        <ele>280.19</ele>
        <time>2018-01-31T09:27:37Z</time>
      </trkpt>
      <trkpt lat="47.69068" lon="6.12235">
        <ele>280.19</ele>
        <time>2018-01-31T09:27:38Z</time>
      </trkpt>
      <trkpt lat="47.69067" lon="6.12242">
        <ele>280.19</ele>
        <time>2018-01-31T09:27:39Z</time>
      </trkpt>
      <trkpt lat="47.69066" lon="6.12249">
        <ele>280.19</ele>
        <time>2018-01-31T09:27:40Z</time>
      </trkpt>
      <trkpt lat="47.69065" lon="6.12255">
        <ele>280.19</ele>
        <time>2018-01-31T09:27:41Z</time>
      </trkpt>
      <trkpt lat="47.69063" lon="6.12268">
        <ele>280.2</ele>
        <time>2018-01-31T09:27:43Z</time>
      </trkpt>
      <trkpt lat="47.69062" lon="6.1228">
        <ele>280.21</ele>
        <time>2018-01-31T09:27:45Z</time>
      </trkpt>
      <trkpt lat="47.6906" lon="6.12293">
        <ele>280.23</ele>
        <time>2018-01-31T09:27:47Z</time>
      </trkpt>
      <trkpt lat="47.69058" lon="6.12304">
        <ele>280.25</ele>
        <time>2018-01-31T09:27:49Z</time>
      </trkpt>
      <trkpt lat="47.69056" lon="6.12315">
        <ele>280.27</ele>
        <time>2018-01-31T09:27:51Z</time>
      </trkpt>
      <trkpt lat="47.69055" lon="6.12327">
        <ele>280.29</ele>
        <time>2018-01-31T09:27:53Z</time>
      </trkpt>
      <trkpt lat="47.69053" lon="6.12339">
        <ele>280.31</ele>
        <time>2018-01-31T09:27:55Z</time>
      </trkpt>
      <trkpt lat="47.69052" lon="6.12349">
        <ele>280.34</ele>
        <time>2018-01-31T09:27:57Z</time>
      </trkpt>
      <trkpt lat="47.69049" lon="6.12362">
        <ele>280.36</ele>
        <time>2018-01-31T09:27:59Z</time>
      </trkpt>
      <trkpt lat="47.69046" lon="6.12373">
        <ele>280.38</ele>
        <time>2018-01-31T09:28:01Z</time>
      </trkpt>
      <trkpt lat="47.69044" lon="6.12379">
        <ele>280.38</ele>
        <time>2018-01-31T09:28:02Z</time>
      </trkpt>
      <trkpt lat="47.69042" lon="6.12386">
        <ele>280.39</ele>
        <time>2018-01-31T09:28:03Z</time>
      </trkpt>
      <trkpt lat="47.69038" lon="6.12398">
        <ele>280.42</ele>
        <time>2018-01-31T09:28:05Z</time>
      </trkpt>
      <trkpt lat="47.69037" lon="6.12405">
        <ele>280.43</ele>
        <time>2018-01-31T09:28:06Z</time>
      </trkpt>
      <trkpt lat="47.69034" lon="6.12416">
        <ele>280.45</ele>
        <time>2018-01-31T09:28:08Z</time>
      </trkpt>
      <trkpt lat="47.69031" lon="6.12428">
        <ele>280.46</ele>
        <time>2018-01-31T09:28:10Z</time>
      </trkpt>
      <trkpt lat="47.69028" lon="6.12438">
        <ele>280.49</ele>
        <time>2018-01-31T09:28:12Z</time>
      </trkpt>
      <trkpt lat="47.69023" lon="6.12449">
        <ele>280.51</ele>
        <time>2018-01-31T09:28:14Z</time>
      </trkpt>
      <trkpt lat="47.69019" lon="6.12459">
        <ele>280.52</ele>
        <time>2018-01-31T09:28:16Z</time>
      </trkpt>
      <trkpt lat="47.69015" lon="6.12468">
        <ele>280.54</ele>
        <time>2018-01-31T09:28:18Z</time>
      </trkpt>
      <trkpt lat="47.69011" lon="6.12478">
        <ele>280.56</ele>
        <time>2018-01-31T09:28:20Z</time>
      </trkpt>
      <trkpt lat="47.69007" lon="6.12486">
        <ele>280.56</ele>
        <time>2018-01-31T09:28:22Z</time>
      </trkpt>
      <trkpt lat="47.69003" lon="6.12496">
        <ele>280.57</ele>
        <time>2018-01-31T09:28:24Z</time>
      </trkpt>
      <trkpt lat="47.68999" lon="6.12506">
        <ele>280.57</ele>
        <time>2018-01-31T09:28:26Z</time>
      </trkpt>
      <trkpt lat="47.68996" lon="6.12515">
        <ele>280.61</ele>
        <time>2018-01-31T09:28:28Z</time>
      </trkpt>
      <trkpt lat="47.68992" lon="6.12525">
        <ele>280.63</ele>
        <time>2018-01-31T09:28:30Z</time>
      </trkpt>
      <trkpt lat="47.68988" lon="6.12534">
        <ele>280.66</ele>
        <time>2018-01-31T09:28:32Z</time>
      </trkpt>
      <trkpt lat="47.68984" lon="6.12543">
        <ele>280.71</ele>
        <time>2018-01-31T09:28:33Z</time>
      </trkpt>
      <trkpt lat="47.6898" lon="6.12553">
        <ele>280.75</ele>
        <time>2018-01-31T09:28:35Z</time>
      </trkpt>
      <trkpt lat="47.68976" lon="6.1256">
        <ele>280.79</ele>
        <time>2018-01-31T09:28:37Z</time>
      </trkpt>
      <trkpt lat="47.68973" lon="6.12567">
        <ele>280.81</ele>
        <time>2018-01-31T09:28:39Z</time>
      </trkpt>
      <trkpt lat="47.68969" lon="6.12577">
        <ele>280.84</ele>
        <time>2018-01-31T09:28:41Z</time>
      </trkpt>
      <trkpt lat="47.68964" lon="6.12587">
        <ele>280.88</ele>
        <time>2018-01-31T09:28:43Z</time>
      </trkpt>
      <trkpt lat="47.6896" lon="6.12596">
        <ele>280.89</ele>
        <time>2018-01-31T09:28:45Z</time>
      </trkpt>
      <trkpt lat="47.68957" lon="6.12605">
        <ele>280.9</ele>
        <time>2018-01-31T09:28:47Z</time>
      </trkpt>
      <trkpt lat="47.68953" lon="6.12616">
        <ele>280.98</ele>
        <time>2018-01-31T09:28:49Z</time>
      </trkpt>
      <trkpt lat="47.68948" lon="6.12627">
        <ele>281.06</ele>
        <time>2018-01-31T09:28:51Z</time>
      </trkpt>
      <trkpt lat="47.68946" lon="6.12633">
        <ele>281.09</ele>
        <time>2018-01-31T09:28:52Z</time>
      </trkpt>
      <trkpt lat="47.68944" lon="6.12639">
        <ele>281.12</ele>
        <time>2018-01-31T09:28:53Z</time>
      </trkpt>
      <trkpt lat="47.68941" lon="6.12645">
        <ele>281.14</ele>
        <time>2018-01-31T09:28:54Z</time>
      </trkpt>
      <trkpt lat="47.68939" lon="6.12652">
        <ele>281.17</ele>
        <time>2018-01-31T09:28:55Z</time>
      </trkpt>
      <trkpt lat="47.68935" lon="6.12663">
        <ele>281.21</ele>
        <time>2018-01-31T09:28:57Z</time>
      </trkpt>
      <trkpt lat="47.68931" lon="6.12675">
        <ele>281.25</ele>
        <time>2018-01-31T09:28:59Z</time>
      </trkpt>
      <trkpt lat="47.6893" lon="6.12682">
        <ele>281.26</ele>
        <time>2018-01-31T09:29:00Z</time>
      </trkpt>
      <trkpt lat="47.68927" lon="6.12695">
        <ele>281.29</ele>
        <time>2018-01-31T09:29:02Z</time>
      </trkpt>
      <trkpt lat="47.68926" lon="6.12702">
        <ele>281.31</ele>
        <time>2018-01-31T09:29:03Z</time>
      </trkpt>
      <trkpt lat="47.68925" lon="6.1271">
        <ele>281.33</ele>
        <time>2018-01-31T09:29:04Z</time>
      </trkpt>
      <trkpt lat="47.68924" lon="6.12718">
        <ele>281.34</ele>
        <time>2018-01-31T09:29:05Z</time>
      </trkpt>
      <trkpt lat="47.68923" lon="6.12726">
        <ele>281.36</ele>
        <time>2018-01-31T09:29:06Z</time>
      </trkpt>
      <trkpt lat="47.68923" lon="6.12733">
        <ele>281.38</ele>
        <time>2018-01-31T09:29:07Z</time>
      </trkpt>
      <trkpt lat="47.68923" lon="6.12741">
        <ele>281.4</ele>
        <time>2018-01-31T09:29:08Z</time>
      </trkpt>
      <trkpt lat="47.68922" lon="6.12748">
        <ele>281.41</ele>
        <time>2018-01-31T09:29:09Z</time>
      </trkpt>
      <trkpt lat="47.68922" lon="6.12755">
        <ele>281.43</ele>
        <time>2018-01-31T09:29:10Z</time>
      </trkpt>
      <trkpt lat="47.68921" lon="6.12762">
        <ele>281.44</ele>
        <time>2018-01-31T09:29:11Z</time>
      </trkpt>
      <trkpt lat="47.6892" lon="6.1277">
        <ele>281.45</ele>
        <time>2018-01-31T09:29:12Z</time>
      </trkpt>
      <trkpt lat="47.68919" lon="6.12777">
        <ele>281.47</ele>
        <time>2018-01-31T09:29:13Z</time>
      </trkpt>
      <trkpt lat="47.68918" lon="6.12785">
        <ele>281.48</ele>
        <time>2018-01-31T09:29:14Z</time>
      </trkpt>
      <trkpt lat="47.68916" lon="6.12792">
        <ele>281.49</ele>
        <time>2018-01-31T09:29:15Z</time>
      </trkpt>
      <trkpt lat="47.68915" lon="6.12798">
        <ele>281.51</ele>
        <time>2018-01-31T09:29:16Z</time>
      </trkpt>
      <trkpt lat="47.68913" lon="6.12805">
        <ele>281.52</ele>
        <time>2018-01-31T09:29:17Z</time>
      </trkpt>
      <trkpt lat="47.6891" lon="6.12816">
        <ele>281.55</ele>
        <time>2018-01-31T09:29:19Z</time>
      </trkpt>
      <trkpt lat="47.68908" lon="6.12827">
        <ele>281.57</ele>
        <time>2018-01-31T09:29:21Z</time>
      </trkpt>
      <trkpt lat="47.68905" lon="6.12838">
        <ele>281.58</ele>
        <time>2018-01-31T09:29:23Z</time>
      </trkpt>
      <trkpt lat="47.68902" lon="6.12848">
        <ele>281.58</ele>
        <time>2018-01-31T09:29:25Z</time>
      </trkpt>
      <trkpt lat="47.68899" lon="6.12857">
        <ele>281.59</ele>
        <time>2018-01-31T09:29:27Z</time>
      </trkpt>
      <trkpt lat="47.68896" lon="6.12866">
        <ele>281.59</ele>
        <time>2018-01-31T09:29:29Z</time>
      </trkpt>
      <trkpt lat="47.68894" lon="6.12875">
        <ele>281.6</ele>
        <time>2018-01-31T09:29:31Z</time>
      </trkpt>
      <trkpt lat="47.68892" lon="6.12883">
        <ele>281.61</ele>
        <time>2018-01-31T09:29:33Z</time>
      </trkpt>
      <trkpt lat="47.6889" lon="6.1289">
        <ele>281.62</ele>
        <time>2018-01-31T09:29:35Z</time>
      </trkpt>
      <trkpt lat="47.68887" lon="6.12898">
        <ele>281.63</ele>
        <time>2018-01-31T09:29:37Z</time>
      </trkpt>
      <trkpt lat="47.68884" lon="6.12906">
        <ele>281.65</ele>
        <time>2018-01-31T09:29:39Z</time>
      </trkpt>
      <trkpt lat="47.68882" lon="6.12913">
        <ele>281.66</ele>
        <time>2018-01-31T09:29:41Z</time>
      </trkpt>
      <trkpt lat="47.6888" lon="6.12922">
        <ele>281.68</ele>
        <time>2018-01-31T09:29:43Z</time>
      </trkpt>
      <trkpt lat="47.68877" lon="6.1293">
        <ele>281.69</ele>
        <time>2018-01-31T09:29:45Z</time>
      </trkpt>
      <trkpt lat="47.68874" lon="6.12939">
        <ele>281.71</ele>
        <time>2018-01-31T09:29:47Z</time>
      </trkpt>
      <trkpt lat="47.68871" lon="6.12948">
        <ele>281.73</ele>
        <time>2018-01-31T09:29:49Z</time>
      </trkpt>
      <trkpt lat="47.68868" lon="6.12955">
        <ele>281.75</ele>
        <time>2018-01-31T09:29:51Z</time>
      </trkpt>
      <trkpt lat="47.68865" lon="6.12962">
        <ele>281.77</ele>
        <time>2018-01-31T09:29:53Z</time>
      </trkpt>
      <trkpt lat="47.68861" lon="6.1297">
        <ele>281.8</ele>
        <time>2018-01-31T09:29:55Z</time>
      </trkpt>
      <trkpt lat="47.68857" lon="6.12978">
        <ele>281.82</ele>
        <time>2018-01-31T09:29:57Z</time>
      </trkpt>
      <trkpt lat="47.68852" lon="6.12987">
        <ele>282.01</ele>
        <time>2018-01-31T09:29:59Z</time>
      </trkpt>
      <trkpt lat="47.68847" lon="6.12996">
        <ele>282.19</ele>
        <time>2018-01-31T09:30:01Z</time>
      </trkpt>
      <trkpt lat="47.68842" lon="6.13005">
        <ele>282.34</ele>
        <time>2018-01-31T09:30:03Z</time>
      </trkpt>
      <trkpt lat="47.68837" lon="6.13015">
        <ele>282.46</ele>
        <time>2018-01-31T09:30:05Z</time>
      </trkpt>
      <trkpt lat="47.68834" lon="6.13021">
        <ele>282.51</ele>
        <time>2018-01-31T09:30:06Z</time>
      </trkpt>
      <trkpt lat="47.68829" lon="6.13031">
        <ele>282.59</ele>
        <time>2018-01-31T09:30:08Z</time>
      </trkpt>
      <trkpt lat="47.68826" lon="6.13036">
        <ele>282.63</ele>
        <time>2018-01-31T09:30:09Z</time>
      </trkpt>
      <trkpt lat="47.68821" lon="6.13046">
        <ele>282.7</ele>
        <time>2018-01-31T09:30:11Z</time>
      </trkpt>
      <trkpt lat="47.68816" lon="6.13056">
        <ele>282.75</ele>
        <time>2018-01-31T09:30:13Z</time>
      </trkpt>
      <trkpt lat="47.68811" lon="6.13066">
        <ele>282.8</ele>
        <time>2018-01-31T09:30:15Z</time>
      </trkpt>
      <trkpt lat="47.68806" lon="6.13075">
        <ele>282.86</ele>
        <time>2018-01-31T09:30:17Z</time>
      </trkpt>
      <trkpt lat="47.68802" lon="6.13084">
        <ele>282.92</ele>
        <time>2018-01-31T09:30:19Z</time>
      </trkpt>
      <trkpt lat="47.68797" lon="6.13093">
        <ele>282.99</ele>
        <time>2018-01-31T09:30:21Z</time>
      </trkpt>
      <trkpt lat="47.68792" lon="6.13102">
        <ele>283.01</ele>
        <time>2018-01-31T09:30:23Z</time>
      </trkpt>
      <trkpt lat="47.68787" lon="6.1311">
        <ele>283.02</ele>
        <time>2018-01-31T09:30:25Z</time>
      </trkpt>
      <trkpt lat="47.68782" lon="6.13117">
        <ele>283.03</ele>
        <time>2018-01-31T09:30:27Z</time>
      </trkpt>
      <trkpt lat="47.68777" lon="6.13124">
        <ele>283.05</ele>
        <time>2018-01-31T09:30:29Z</time>
      </trkpt>
      <trkpt lat="47.68772" lon="6.1313">
        <ele>283.18</ele>
        <time>2018-01-31T09:30:31Z</time>
      </trkpt>
      <trkpt lat="47.68766" lon="6.13139">
        <ele>283.31</ele>
        <time>2018-01-31T09:30:33Z</time>
      </trkpt>
      <trkpt lat="47.68761" lon="6.13148">
        <ele>283.34</ele>
        <time>2018-01-31T09:30:35Z</time>
      </trkpt>
      <trkpt lat="47.68755" lon="6.13155">
        <ele>283.36</ele>
        <time>2018-01-31T09:30:37Z</time>
      </trkpt>
      <trkpt lat="47.6875" lon="6.13163">
        <ele>283.47</ele>
        <time>2018-01-31T09:30:39Z</time>
      </trkpt>
      <trkpt lat="47.68745" lon="6.13172">
        <ele>283.59</ele>
        <time>2018-01-31T09:30:41Z</time>
      </trkpt>
      <trkpt lat="47.68739" lon="6.13181">
        <ele>283.69</ele>
        <time>2018-01-31T09:30:43Z</time>
      </trkpt>
      <trkpt lat="47.68734" lon="6.13189">
        <ele>283.76</ele>
        <time>2018-01-31T09:30:45Z</time>
      </trkpt>
      <trkpt lat="47.68728" lon="6.13198">
        <ele>283.82</ele>
        <time>2018-01-31T09:30:47Z</time>
      </trkpt>
      <trkpt lat="47.68724" lon="6.13203">
        <ele>283.84</ele>
        <time>2018-01-31T09:30:48Z</time>
      </trkpt>
      <trkpt lat="47.68721" lon="6.13209">
        <ele>283.87</ele>
        <time>2018-01-31T09:30:49Z</time>
      </trkpt>
      <trkpt lat="47.68718" lon="6.13214">
        <ele>283.89</ele>
        <time>2018-01-31T09:30:50Z</time>
      </trkpt>
      <trkpt lat="47.68715" lon="6.13219">
        <ele>283.91</ele>
        <time>2018-01-31T09:30:51Z</time>
      </trkpt>
      <trkpt lat="47.68712" lon="6.13225">
        <ele>283.93</ele>
        <time>2018-01-31T09:30:52Z</time>
      </trkpt>
      <trkpt lat="47.68709" lon="6.1323">
        <ele>283.94</ele>
        <time>2018-01-31T09:30:53Z</time>
      </trkpt>
      <trkpt lat="47.68705" lon="6.13236">
        <ele>283.96</ele>
        <time>2018-01-31T09:30:54Z</time>
      </trkpt>
      <trkpt lat="47.68702" lon="6.13241">
        <ele>283.97</ele>
        <time>2018-01-31T09:30:55Z</time>
      </trkpt>
      <trkpt lat="47.68697" lon="6.1325">
        <ele>283.99</ele>
        <time>2018-01-31T09:30:57Z</time>
      </trkpt>
      <trkpt lat="47.68691" lon="6.13259">
        <ele>284.01</ele>
        <time>2018-01-31T09:30:59Z</time>
      </trkpt>
      <trkpt lat="47.68687" lon="6.13267">
        <ele>284.03</ele>
        <time>2018-01-31T09:31:01Z</time>
      </trkpt>
      <trkpt lat="47.68681" lon="6.13276">
        <ele>284.05</ele>
        <time>2018-01-31T09:31:03Z</time>
      </trkpt>
      <trkpt lat="47.68675" lon="6.13285">
        <ele>284.07</ele>
        <time>2018-01-31T09:31:05Z</time>
      </trkpt>
      <trkpt lat="47.68672" lon="6.13291">
        <ele>284.08</ele>
        <time>2018-01-31T09:31:06Z</time>
      </trkpt>
      <trkpt lat="47.68666" lon="6.13301">
        <ele>284.1</ele>
        <time>2018-01-31T09:31:08Z</time>
      </trkpt>
      <trkpt lat="47.68663" lon="6.13306">
        <ele>284.11</ele>
        <time>2018-01-31T09:31:09Z</time>
      </trkpt>
      <trkpt lat="47.68659" lon="6.13312">
        <ele>284.12</ele>
        <time>2018-01-31T09:31:10Z</time>
      </trkpt>
      <trkpt lat="47.68656" lon="6.13317">
        <ele>284.13</ele>
        <time>2018-01-31T09:31:11Z</time>
      </trkpt>
      <trkpt lat="47.6865" lon="6.13326">
        <ele>284.14</ele>
        <time>2018-01-31T09:31:13Z</time>
      </trkpt>
      <trkpt lat="47.68645" lon="6.13334">
        <ele>284.14</ele>
        <time>2018-01-31T09:31:15Z</time>
      </trkpt>
      <trkpt lat="47.6864" lon="6.13342">
        <ele>284.14</ele>
        <time>2018-01-31T09:31:17Z</time>
      </trkpt>
      <trkpt lat="47.68635" lon="6.1335">
        <ele>284.15</ele>
        <time>2018-01-31T09:31:19Z</time>
      </trkpt>
      <trkpt lat="47.6863" lon="6.13358">
        <ele>284.16</ele>
        <time>2018-01-31T09:31:21Z</time>
      </trkpt>
      <trkpt lat="47.68625" lon="6.13366">
        <ele>284.16</ele>
        <time>2018-01-31T09:31:23Z</time>
      </trkpt>
      <trkpt lat="47.68621" lon="6.13372">
        <ele>284.16</ele>
        <time>2018-01-31T09:31:25Z</time>
      </trkpt>
      <trkpt lat="47.68616" lon="6.13378">
        <ele>284.16</ele>
        <time>2018-01-31T09:31:27Z</time>
      </trkpt>
      <trkpt lat="47.68612" lon="6.13384">
        <ele>284.17</ele>
        <time>2018-01-31T09:31:29Z</time>
      </trkpt>
      <trkpt lat="47.68608" lon="6.13391">
        <ele>284.17</ele>
        <time>2018-01-31T09:31:31Z</time>
      </trkpt>
      <trkpt lat="47.68604" lon="6.13398">
        <ele>284.18</ele>
        <time>2018-01-31T09:31:33Z</time>
      </trkpt>
      <trkpt lat="47.68599" lon="6.13405">
        <ele>284.18</ele>
        <time>2018-01-31T09:31:35Z</time>
      </trkpt>
      <trkpt lat="47.68594" lon="6.13413">
        <ele>284.19</ele>
        <time>2018-01-31T09:31:37Z</time>
      </trkpt>
      <trkpt lat="47.68589" lon="6.13421">
        <ele>284.21</ele>
        <time>2018-01-31T09:31:39Z</time>
      </trkpt>
      <trkpt lat="47.68585" lon="6.1343">
        <ele>284.24</ele>
        <time>2018-01-31T09:31:41Z</time>
      </trkpt>
      <trkpt lat="47.6858" lon="6.13439">
        <ele>284.26</ele>
        <time>2018-01-31T09:31:43Z</time>
      </trkpt>
      <trkpt lat="47.68577" lon="6.13447">
        <ele>284.27</ele>
        <time>2018-01-31T09:31:45Z</time>
      </trkpt>
      <trkpt lat="47.68572" lon="6.13455">
        <ele>284.28</ele>
        <time>2018-01-31T09:31:47Z</time>
      </trkpt>
      <trkpt lat="47.68568" lon="6.13463">
        <ele>284.28</ele>
        <time>2018-01-31T09:31:49Z</time>
      </trkpt>
      <trkpt lat="47.68563" lon="6.1347">
        <ele>284.29</ele>
        <time>2018-01-31T09:31:51Z</time>
      </trkpt>
      <trkpt lat="47.68558" lon="6.13479">
        <ele>284.34</ele>
        <time>2018-01-31T09:31:53Z</time>
      </trkpt>
      <trkpt lat="47.68555" lon="6.13485">
        <ele>284.36</ele>
        <time>2018-01-31T09:31:54Z</time>
      </trkpt>
      <trkpt lat="47.68551" lon="6.1349">
        <ele>284.38</ele>
        <time>2018-01-31T09:31:55Z</time>
      </trkpt>
      <trkpt lat="47.68547" lon="6.13497">
        <ele>284.4</ele>
        <time>2018-01-31T09:31:56Z</time>
      </trkpt>
      <trkpt lat="47.68544" lon="6.13503">
        <ele>284.41</ele>
        <time>2018-01-31T09:31:57Z</time>
      </trkpt>
      <trkpt lat="47.6854" lon="6.13509">
        <ele>284.41</ele>
        <time>2018-01-31T09:31:58Z</time>
      </trkpt>
      <trkpt lat="47.68536" lon="6.13516">
        <ele>284.42</ele>
        <time>2018-01-31T09:31:59Z</time>
      </trkpt>
      <trkpt lat="47.68532" lon="6.13522">
        <ele>284.42</ele>
        <time>2018-01-31T09:32:00Z</time>
      </trkpt>
      <trkpt lat="47.68528" lon="6.13528">
        <ele>284.42</ele>
        <time>2018-01-31T09:32:01Z</time>
      </trkpt>
      <trkpt lat="47.68524" lon="6.13534">
        <ele>284.43</ele>
        <time>2018-01-31T09:32:02Z</time>
      </trkpt>
      <trkpt lat="47.68521" lon="6.1354">
        <ele>284.44</ele>
        <time>2018-01-31T09:32:03Z</time>
      </trkpt>
      <trkpt lat="47.68517" lon="6.13546">
        <ele>284.44</ele>
        <time>2018-01-31T09:32:04Z</time>
      </trkpt>
      <trkpt lat="47.68514" lon="6.13552">
        <ele>284.45</ele>
        <time>2018-01-31T09:32:05Z</time>
      </trkpt>
      <trkpt lat="47.68511" lon="6.13558">
        <ele>284.44</ele>
        <time>2018-01-31T09:32:06Z</time>
      </trkpt>
      <trkpt lat="47.68508" lon="6.13564">
        <ele>284.44</ele>
        <time>2018-01-31T09:32:07Z</time>
      </trkpt>
      <trkpt lat="47.68504" lon="6.13569">
        <ele>284.44</ele>
        <time>2018-01-31T09:32:08Z</time>
      </trkpt>
      <trkpt lat="47.68502" lon="6.13574">
        <ele>284.44</ele>
        <time>2018-01-31T09:32:09Z</time>
      </trkpt>
      <trkpt lat="47.68498" lon="6.1358">
        <ele>284.43</ele>
        <time>2018-01-31T09:32:10Z</time>
      </trkpt>
      <trkpt lat="47.68495" lon="6.13586">
        <ele>284.43</ele>
        <time>2018-01-31T09:32:11Z</time>
      </trkpt>
      <trkpt lat="47.68493" lon="6.13591">
        <ele>284.42</ele>
        <time>2018-01-31T09:32:12Z</time>
      </trkpt>
      <trkpt lat="47.68487" lon="6.13602">
        <ele>284.42</ele>
        <time>2018-01-31T09:32:14Z</time>
      </trkpt>
      <trkpt lat="47.68485" lon="6.13607">
        <ele>284.41</ele>
        <time>2018-01-31T09:32:15Z</time>
      </trkpt>
      <trkpt lat="47.68479" lon="6.13617">
        <ele>284.41</ele>
        <time>2018-01-31T09:32:17Z</time>
      </trkpt>
      <trkpt lat="47.68474" lon="6.13627">
        <ele>284.4</ele>
        <time>2018-01-31T09:32:19Z</time>
      </trkpt>
      <trkpt lat="47.68468" lon="6.13637">
        <ele>284.38</ele>
        <time>2018-01-31T09:32:21Z</time>
      </trkpt>
      <trkpt lat="47.68465" lon="6.13643">
        <ele>284.37</ele>
        <time>2018-01-31T09:32:22Z</time>
      </trkpt>
      <trkpt lat="47.68462" lon="6.13648">
        <ele>284.36</ele>
        <time>2018-01-31T09:32:23Z</time>
      </trkpt>
      <trkpt lat="47.68459" lon="6.13653">
        <ele>284.36</ele>
        <time>2018-01-31T09:32:24Z</time>
      </trkpt>
      <trkpt lat="47.68453" lon="6.13664">
        <ele>284.33</ele>
        <time>2018-01-31T09:32:26Z</time>
      </trkpt>
      <trkpt lat="47.6845" lon="6.13669">
        <ele>284.32</ele>
        <time>2018-01-31T09:32:27Z</time>
      </trkpt>
      <trkpt lat="47.68448" lon="6.13675">
        <ele>284.32</ele>
        <time>2018-01-31T09:32:28Z</time>
      </trkpt>
      <trkpt lat="47.68444" lon="6.1368">
        <ele>284.31</ele>
        <time>2018-01-31T09:32:29Z</time>
      </trkpt>
      <trkpt lat="47.68441" lon="6.13686">
        <ele>284.3</ele>
        <time>2018-01-31T09:32:30Z</time>
      </trkpt>
      <trkpt lat="47.68436" lon="6.13696">
        <ele>284.29</ele>
        <time>2018-01-31T09:32:32Z</time>
      </trkpt>
      <trkpt lat="47.68431" lon="6.13705">
        <ele>284.28</ele>
        <time>2018-01-31T09:32:34Z</time>
      </trkpt>
      <trkpt lat="47.68426" lon="6.13713">
        <ele>284.27</ele>
        <time>2018-01-31T09:32:36Z</time>
      </trkpt>
      <trkpt lat="47.68421" lon="6.13722">
        <ele>284.24</ele>
        <time>2018-01-31T09:32:38Z</time>
      </trkpt>
      <trkpt lat="47.68416" lon="6.13732">
        <ele>284.21</ele>
        <time>2018-01-31T09:32:40Z</time>
      </trkpt>
      <trkpt lat="47.68412" lon="6.13741">
        <ele>284.2</ele>
        <time>2018-01-31T09:32:42Z</time>
      </trkpt>
      <trkpt lat="47.68408" lon="6.13748">
        <ele>284.2</ele>
        <time>2018-01-31T09:32:44Z</time>
      </trkpt>
      <trkpt lat="47.68404" lon="6.13755">
        <ele>284.2</ele>
        <time>2018-01-31T09:32:46Z</time>
      </trkpt>
      <trkpt lat="47.68401" lon="6.13761">
        <ele>284.19</ele>
        <time>2018-01-31T09:32:48Z</time>
      </trkpt>
      <trkpt lat="47.68397" lon="6.13766">
        <ele>284.18</ele>
        <time>2018-01-31T09:32:50Z</time>
      </trkpt>
      <trkpt lat="47.68394" lon="6.13771">
        <ele>284.17</ele>
        <time>2018-01-31T09:32:52Z</time>
      </trkpt>
      <trkpt lat="47.68389" lon="6.13774">
        <ele>284.16</ele>
        <time>2018-01-31T09:32:55Z</time>
      </trkpt>
      <trkpt lat="47.68385" lon="6.13768">
        <ele>284.12</ele>
        <time>2018-01-31T09:33:05Z</time>
      </trkpt>
      <trkpt lat="47.68382" lon="6.13763">
        <ele>284.11</ele>
        <time>2018-01-31T09:33:07Z</time>
      </trkpt>
      <trkpt lat="47.68377" lon="6.13758">
        <ele>284.1</ele>
        <time>2018-01-31T09:33:09Z</time>
      </trkpt>
      <trkpt lat="47.68372" lon="6.13752">
        <ele>284.09</ele>
        <time>2018-01-31T09:33:11Z</time>
      </trkpt>
      <trkpt lat="47.68367" lon="6.13746">
        <ele>284.08</ele>
        <time>2018-01-31T09:33:13Z</time>
      </trkpt>
      <trkpt lat="47.68362" lon="6.13741">
        <ele>284.07</ele>
        <time>2018-01-31T09:33:15Z</time>
      </trkpt>
      <trkpt lat="47.68357" lon="6.13736">
        <ele>284.06</ele>
        <time>2018-01-31T09:33:17Z</time>
      </trkpt>
      <trkpt lat="47.68351" lon="6.13731">
        <ele>284.05</ele>
        <time>2018-01-31T09:33:19Z</time>
      </trkpt>
      <trkpt lat="47.68346" lon="6.13725">
        <ele>284.04</ele>
        <time>2018-01-31T09:33:21Z</time>
      </trkpt>
      <trkpt lat="47.68341" lon="6.1372">
        <ele>284.03</ele>
        <time>2018-01-31T09:33:23Z</time>
      </trkpt>
      <trkpt lat="47.68336" lon="6.13716">
        <ele>284.01</ele>
        <time>2018-01-31T09:33:25Z</time>
      </trkpt>
      <trkpt lat="47.68331" lon="6.13711">
        <ele>284</ele>
        <time>2018-01-31T09:33:27Z</time>
      </trkpt>
      <trkpt lat="47.68326" lon="6.13706">
        <ele>283.99</ele>
        <time>2018-01-31T09:33:29Z</time>
      </trkpt>
      <trkpt lat="47.68322" lon="6.13701">
        <ele>283.98</ele>
        <time>2018-01-31T09:33:31Z</time>
      </trkpt>
      <trkpt lat="47.68317" lon="6.13696">
        <ele>283.96</ele>
        <time>2018-01-31T09:33:33Z</time>
      </trkpt>
      <trkpt lat="47.68313" lon="6.13691">
        <ele>283.95</ele>
        <time>2018-01-31T09:33:35Z</time>
      </trkpt>
      <trkpt lat="47.68308" lon="6.13686">
        <ele>283.9</ele>
        <time>2018-01-31T09:33:37Z</time>
      </trkpt>
      <trkpt lat="47.68301" lon="6.13679">
        <ele>283.79</ele>
        <time>2018-01-31T09:33:39Z</time>
      </trkpt>
      <trkpt lat="47.68297" lon="6.13674">
        <ele>283.75</ele>
        <time>2018-01-31T09:33:40Z</time>
      </trkpt>
      <trkpt lat="47.68293" lon="6.13669">
        <ele>283.71</ele>
        <time>2018-01-31T09:33:41Z</time>
      </trkpt>
      <trkpt lat="47.68289" lon="6.13664">
        <ele>283.68</ele>
        <time>2018-01-31T09:33:42Z</time>
      </trkpt>
      <trkpt lat="47.68285" lon="6.13659">
        <ele>283.65</ele>
        <time>2018-01-31T09:33:43Z</time>
      </trkpt>
      <trkpt lat="47.6828" lon="6.13655">
        <ele>283.63</ele>
        <time>2018-01-31T09:33:44Z</time>
      </trkpt>
      <trkpt lat="47.68276" lon="6.1365">
        <ele>283.61</ele>
        <time>2018-01-31T09:33:45Z</time>
      </trkpt>
      <trkpt lat="47.68271" lon="6.13645">
        <ele>283.59</ele>
        <time>2018-01-31T09:33:46Z</time>
      </trkpt>
      <trkpt lat="47.68267" lon="6.1364">
        <ele>283.58</ele>
        <time>2018-01-31T09:33:47Z</time>
      </trkpt>
      <trkpt lat="47.68262" lon="6.13636">
        <ele>283.56</ele>
        <time>2018-01-31T09:33:48Z</time>
      </trkpt>
      <trkpt lat="47.68258" lon="6.13631">
        <ele>283.54</ele>
        <time>2018-01-31T09:33:49Z</time>
      </trkpt>
      <trkpt lat="47.68253" lon="6.13625">
        <ele>283.53</ele>
        <time>2018-01-31T09:33:50Z</time>
      </trkpt>
      <trkpt lat="47.68248" lon="6.1362">
        <ele>283.51</ele>
        <time>2018-01-31T09:33:51Z</time>
      </trkpt>
      <trkpt lat="47.68244" lon="6.13614">
        <ele>283.48</ele>
        <time>2018-01-31T09:33:52Z</time>
      </trkpt>
      <trkpt lat="47.68239" lon="6.13608">
        <ele>283.46</ele>
        <time>2018-01-31T09:33:53Z</time>
      </trkpt>
      <trkpt lat="47.68234" lon="6.13603">
        <ele>283.43</ele>
        <time>2018-01-31T09:33:54Z</time>
      </trkpt>
      <trkpt lat="47.68229" lon="6.13597">
        <ele>283.41</ele>
        <time>2018-01-31T09:33:55Z</time>
      </trkpt>
      <trkpt lat="47.68224" lon="6.13592">
        <ele>283.37</ele>
        <time>2018-01-31T09:33:56Z</time>
      </trkpt>
      <trkpt lat="47.68218" lon="6.13586">
        <ele>283.31</ele>
        <time>2018-01-31T09:33:57Z</time>
      </trkpt>
      <trkpt lat="47.68212" lon="6.1358">
        <ele>283.23</ele>
        <time>2018-01-31T09:33:58Z</time>
      </trkpt>
      <trkpt lat="47.68205" lon="6.13573">
        <ele>283.11</ele>
        <time>2018-01-31T09:33:59Z</time>
      </trkpt>
      <trkpt lat="47.68199" lon="6.13567">
        <ele>282.96</ele>
        <time>2018-01-31T09:34:00Z</time>
      </trkpt>
      <trkpt lat="47.68193" lon="6.13561">
        <ele>282.81</ele>
        <time>2018-01-31T09:34:01Z</time>
      </trkpt>
      <trkpt lat="47.68186" lon="6.13554">
        <ele>282.65</ele>
        <time>2018-01-31T09:34:02Z</time>
      </trkpt>
      <trkpt lat="47.68179" lon="6.13547">
        <ele>282.49</ele>
        <time>2018-01-31T09:34:03Z</time>
      </trkpt>
      <trkpt lat="47.68172" lon="6.1354">
        <ele>282.35</ele>
        <time>2018-01-31T09:34:04Z</time>
      </trkpt>
      <trkpt lat="47.68165" lon="6.13533">
        <ele>282.24</ele>
        <time>2018-01-31T09:34:05Z</time>
      </trkpt>
      <trkpt lat="47.68158" lon="6.13525">
        <ele>282.16</ele>
        <time>2018-01-31T09:34:06Z</time>
      </trkpt>
      <trkpt lat="47.68152" lon="6.13517">
        <ele>282.07</ele>
        <time>2018-01-31T09:34:07Z</time>
      </trkpt>
      <trkpt lat="47.68145" lon="6.13511">
        <ele>281.99</ele>
        <time>2018-01-31T09:34:08Z</time>
      </trkpt>
      <trkpt lat="47.68138" lon="6.13503">
        <ele>281.92</ele>
        <time>2018-01-31T09:34:09Z</time>
      </trkpt>
      <trkpt lat="47.68131" lon="6.13497">
        <ele>281.87</ele>
        <time>2018-01-31T09:34:10Z</time>
      </trkpt>
      <trkpt lat="47.68124" lon="6.13489">
        <ele>281.83</ele>
        <time>2018-01-31T09:34:11Z</time>
      </trkpt>
      <trkpt lat="47.68118" lon="6.13483">
        <ele>281.79</ele>
        <time>2018-01-31T09:34:12Z</time>
      </trkpt>
      <trkpt lat="47.68111" lon="6.13476">
        <ele>281.73</ele>
        <time>2018-01-31T09:34:13Z</time>
      </trkpt>
      <trkpt lat="47.68105" lon="6.13469">
        <ele>281.66</ele>
        <time>2018-01-31T09:34:14Z</time>
      </trkpt>
      <trkpt lat="47.68099" lon="6.13462">
        <ele>281.58</ele>
        <time>2018-01-31T09:34:15Z</time>
      </trkpt>
      <trkpt lat="47.68092" lon="6.13457">
        <ele>281.54</ele>
        <time>2018-01-31T09:34:16Z</time>
      </trkpt>
      <trkpt lat="47.68086" lon="6.13451">
        <ele>281.5</ele>
        <time>2018-01-31T09:34:17Z</time>
      </trkpt>
      <trkpt lat="47.6808" lon="6.13445">
        <ele>281.44</ele>
        <time>2018-01-31T09:34:18Z</time>
      </trkpt>
      <trkpt lat="47.68075" lon="6.13439">
        <ele>281.34</ele>
        <time>2018-01-31T09:34:19Z</time>
      </trkpt>
      <trkpt lat="47.6807" lon="6.13434">
        <ele>281.22</ele>
        <time>2018-01-31T09:34:20Z</time>
      </trkpt>
      <trkpt lat="47.68066" lon="6.13429">
        <ele>281.12</ele>
        <time>2018-01-31T09:34:21Z</time>
      </trkpt>
      <trkpt lat="47.68061" lon="6.13425">
        <ele>281.04</ele>
        <time>2018-01-31T09:34:22Z</time>
      </trkpt>
      <trkpt lat="47.68057" lon="6.13421">
        <ele>281.01</ele>
        <time>2018-01-31T09:34:23Z</time>
      </trkpt>
      <trkpt lat="47.68053" lon="6.13417">
        <ele>280.99</ele>
        <time>2018-01-31T09:34:24Z</time>
      </trkpt>
      <trkpt lat="47.68049" lon="6.13413">
        <ele>280.95</ele>
        <time>2018-01-31T09:34:25Z</time>
      </trkpt>
      <trkpt lat="47.68045" lon="6.13409">
        <ele>280.88</ele>
        <time>2018-01-31T09:34:26Z</time>
      </trkpt>
      <trkpt lat="47.68041" lon="6.13404">
        <ele>280.81</ele>
        <time>2018-01-31T09:34:27Z</time>
      </trkpt>
      <trkpt lat="47.68037" lon="6.13399">
        <ele>280.73</ele>
        <time>2018-01-31T09:34:28Z</time>
      </trkpt>
      <trkpt lat="47.68033" lon="6.13394">
        <ele>280.61</ele>
        <time>2018-01-31T09:34:29Z</time>
      </trkpt>
      <trkpt lat="47.68028" lon="6.13389">
        <ele>280.51</ele>
        <time>2018-01-31T09:34:30Z</time>
      </trkpt>
      <trkpt lat="47.68023" lon="6.13385">
        <ele>280.43</ele>
        <time>2018-01-31T09:34:31Z</time>
      </trkpt>
      <trkpt lat="47.68018" lon="6.13381">
        <ele>280.34</ele>
        <time>2018-01-31T09:34:32Z</time>
      </trkpt>
      <trkpt lat="47.68014" lon="6.13378">
        <ele>280.25</ele>
        <time>2018-01-31T09:34:33Z</time>
      </trkpt>
      <trkpt lat="47.68009" lon="6.13375">
        <ele>280.16</ele>
        <time>2018-01-31T09:34:34Z</time>
      </trkpt>
      <trkpt lat="47.68005" lon="6.13371">
        <ele>280.06</ele>
        <time>2018-01-31T09:34:35Z</time>
      </trkpt>
      <trkpt lat="47.68001" lon="6.13366">
        <ele>279.94</ele>
        <time>2018-01-31T09:34:36Z</time>
      </trkpt>
      <trkpt lat="47.67997" lon="6.13362">
        <ele>279.78</ele>
        <time>2018-01-31T09:34:37Z</time>
      </trkpt>
      <trkpt lat="47.67994" lon="6.13358">
        <ele>279.6</ele>
        <time>2018-01-31T09:34:38Z</time>
      </trkpt>
      <trkpt lat="47.6799" lon="6.13354">
        <ele>279.4</ele>
        <time>2018-01-31T09:34:39Z</time>
      </trkpt>
      <trkpt lat="47.67986" lon="6.1335">
        <ele>279.25</ele>
        <time>2018-01-31T09:34:40Z</time>
      </trkpt>
      <trkpt lat="47.67979" lon="6.13342">
        <ele>279.08</ele>
        <time>2018-01-31T09:34:42Z</time>
      </trkpt>
      <trkpt lat="47.67973" lon="6.13332">
        <ele>279.09</ele>
        <time>2018-01-31T09:34:44Z</time>
      </trkpt>
      <trkpt lat="47.67966" lon="6.13324">
        <ele>279.14</ele>
        <time>2018-01-31T09:34:46Z</time>
      </trkpt>
      <trkpt lat="47.6796" lon="6.13317">
        <ele>279.34</ele>
        <time>2018-01-31T09:34:48Z</time>
      </trkpt>
      <trkpt lat="47.67954" lon="6.13311">
        <ele>279.41</ele>
        <time>2018-01-31T09:34:50Z</time>
      </trkpt>
      <trkpt lat="47.67949" lon="6.13305">
        <ele>279.44</ele>
        <time>2018-01-31T09:34:52Z</time>
      </trkpt>
      <trkpt lat="47.67945" lon="6.133">
        <ele>279.47</ele>
        <time>2018-01-31T09:34:54Z</time>
      </trkpt>
      <trkpt lat="47.6794" lon="6.13295">
        <ele>279.49</ele>
        <time>2018-01-31T09:34:56Z</time>
      </trkpt>
      <trkpt lat="47.67936" lon="6.1329">
        <ele>279.5</ele>
        <time>2018-01-31T09:34:58Z</time>
      </trkpt>
      <trkpt lat="47.67932" lon="6.13285">
        <ele>279.51</ele>
        <time>2018-01-31T09:35:01Z</time>
      </trkpt>
      <trkpt lat="47.67926" lon="6.13279">
        <ele>279.53</ele>
        <time>2018-01-31T09:35:04Z</time>
      </trkpt>
      <trkpt lat="47.67923" lon="6.13274">
        <ele>279.53</ele>
        <time>2018-01-31T09:35:06Z</time>
      </trkpt>
      <trkpt lat="47.67919" lon="6.1327">
        <ele>279.52</ele>
        <time>2018-01-31T09:35:08Z</time>
      </trkpt>
      <trkpt lat="47.67915" lon="6.13265">
        <ele>279.51</ele>
        <time>2018-01-31T09:35:11Z</time>
      </trkpt>
      <trkpt lat="47.6791" lon="6.13261">
        <ele>279.48</ele>
        <time>2018-01-31T09:35:14Z</time>
      </trkpt>
      <trkpt lat="47.67906" lon="6.13254">
        <ele>279.45</ele>
        <time>2018-01-31T09:35:17Z</time>
      </trkpt>
      <trkpt lat="47.67902" lon="6.13249">
        <ele>279.42</ele>
        <time>2018-01-31T09:35:20Z</time>
      </trkpt>
      <trkpt lat="47.67898" lon="6.13244">
        <ele>279.39</ele>
        <time>2018-01-31T09:35:23Z</time>
      </trkpt>
      <trkpt lat="47.67892" lon="6.1324">
        <ele>279.28</ele>
        <time>2018-01-31T09:35:26Z</time>
      </trkpt>
      <trkpt lat="47.67886" lon="6.13239">
        <ele>278.5</ele>
        <time>2018-01-31T09:36:03Z</time>
      </trkpt>
      <trkpt lat="47.67883" lon="6.13234">
        <ele>278.17</ele>
        <time>2018-01-31T09:36:06Z</time>
      </trkpt>
      <trkpt lat="47.67878" lon="6.13228">
        <ele>277.94</ele>
        <time>2018-01-31T09:36:08Z</time>
      </trkpt>
      <trkpt lat="47.67873" lon="6.13219">
        <ele>276.94</ele>
        <time>2018-01-31T09:36:10Z</time>
      </trkpt>
      <trkpt lat="47.6787" lon="6.13213">
        <ele>275.99</ele>
        <time>2018-01-31T09:36:11Z</time>
      </trkpt>
      <trkpt lat="47.67867" lon="6.13206">
        <ele>275.14</ele>
        <time>2018-01-31T09:36:12Z</time>
      </trkpt>
      <trkpt lat="47.67863" lon="6.13198">
        <ele>274.42</ele>
        <time>2018-01-31T09:36:13Z</time>
      </trkpt>
      <trkpt lat="47.67859" lon="6.13191">
        <ele>273.82</ele>
        <time>2018-01-31T09:36:14Z</time>
      </trkpt>
      <trkpt lat="47.67855" lon="6.13184">
        <ele>273.32</ele>
        <time>2018-01-31T09:36:15Z</time>
      </trkpt>
      <trkpt lat="47.67851" lon="6.13176">
        <ele>272.87</ele>
        <time>2018-01-31T09:36:16Z</time>
      </trkpt>
      <trkpt lat="47.67847" lon="6.13169">
        <ele>272.49</ele>
        <time>2018-01-31T09:36:17Z</time>
      </trkpt>
      <trkpt lat="47.67843" lon="6.13161">
        <ele>272.16</ele>
        <time>2018-01-31T09:36:18Z</time>
      </trkpt>
      <trkpt lat="47.67839" lon="6.13154">
        <ele>271.89</ele>
        <time>2018-01-31T09:36:19Z</time>
      </trkpt>
      <trkpt lat="47.67835" lon="6.13147">
        <ele>271.67</ele>
        <time>2018-01-31T09:36:20Z</time>
      </trkpt>
      <trkpt lat="47.67831" lon="6.1314">
        <ele>271.51</ele>
        <time>2018-01-31T09:36:21Z</time>
      </trkpt>
      <trkpt lat="47.67827" lon="6.13134">
        <ele>271.36</ele>
        <time>2018-01-31T09:36:22Z</time>
      </trkpt>
      <trkpt lat="47.67824" lon="6.13127">
        <ele>271.25</ele>
        <time>2018-01-31T09:36:23Z</time>
      </trkpt>
      <trkpt lat="47.67822" lon="6.13119">
        <ele>271.17</ele>
        <time>2018-01-31T09:36:24Z</time>
      </trkpt>
      <trkpt lat="47.67818" lon="6.13113">
        <ele>271.11</ele>
        <time>2018-01-31T09:36:25Z</time>
      </trkpt>
      <trkpt lat="47.67815" lon="6.13106">
        <ele>271.03</ele>
        <time>2018-01-31T09:36:26Z</time>
      </trkpt>
      <trkpt lat="47.67812" lon="6.13099">
        <ele>270.9</ele>
        <time>2018-01-31T09:36:27Z</time>
      </trkpt>
      <trkpt lat="47.67809" lon="6.13093">
        <ele>270.76</ele>
        <time>2018-01-31T09:36:28Z</time>
      </trkpt>
      <trkpt lat="47.67805" lon="6.13086">
        <ele>270.6</ele>
        <time>2018-01-31T09:36:29Z</time>
      </trkpt>
      <trkpt lat="47.67803" lon="6.13079">
        <ele>270.45</ele>
        <time>2018-01-31T09:36:30Z</time>
      </trkpt>
      <trkpt lat="47.67801" lon="6.13073">
        <ele>270.32</ele>
        <time>2018-01-31T09:36:31Z</time>
      </trkpt>
      <trkpt lat="47.67799" lon="6.13067">
        <ele>270.26</ele>
        <time>2018-01-31T09:36:32Z</time>
      </trkpt>
      <trkpt lat="47.67796" lon="6.13061">
        <ele>270.21</ele>
        <time>2018-01-31T09:36:33Z</time>
      </trkpt>
      <trkpt lat="47.67791" lon="6.13051">
        <ele>270.06</ele>
        <time>2018-01-31T09:36:35Z</time>
      </trkpt>
      <trkpt lat="47.67786" lon="6.13041">
        <ele>269.94</ele>
        <time>2018-01-31T09:36:37Z</time>
      </trkpt>
      <trkpt lat="47.67781" lon="6.13032">
        <ele>269.83</ele>
        <time>2018-01-31T09:36:39Z</time>
      </trkpt>
      <trkpt lat="47.67775" lon="6.13022">
        <ele>269.71</ele>
        <time>2018-01-31T09:36:41Z</time>
      </trkpt>
      <trkpt lat="47.67773" lon="6.13016">
        <ele>269.65</ele>
        <time>2018-01-31T09:36:42Z</time>
      </trkpt>
      <trkpt lat="47.6777" lon="6.13011">
        <ele>269.56</ele>
        <time>2018-01-31T09:36:43Z</time>
      </trkpt>
      <trkpt lat="47.67767" lon="6.13005">
        <ele>269.45</ele>
        <time>2018-01-31T09:36:44Z</time>
      </trkpt>
      <trkpt lat="47.67764" lon="6.12999">
        <ele>269.33</ele>
        <time>2018-01-31T09:36:45Z</time>
      </trkpt>
      <trkpt lat="47.6776" lon="6.12993">
        <ele>269.18</ele>
        <time>2018-01-31T09:36:46Z</time>
      </trkpt>
      <trkpt lat="47.67757" lon="6.12988">
        <ele>269.04</ele>
        <time>2018-01-31T09:36:47Z</time>
      </trkpt>
      <trkpt lat="47.67753" lon="6.12984">
        <ele>268.92</ele>
        <time>2018-01-31T09:36:48Z</time>
      </trkpt>
      <trkpt lat="47.67749" lon="6.1298">
        <ele>268.81</ele>
        <time>2018-01-31T09:36:49Z</time>
      </trkpt>
      <trkpt lat="47.67745" lon="6.12976">
        <ele>268.67</ele>
        <time>2018-01-31T09:36:50Z</time>
      </trkpt>
      <trkpt lat="47.67741" lon="6.12972">
        <ele>268.52</ele>
        <time>2018-01-31T09:36:51Z</time>
      </trkpt>
      <trkpt lat="47.67737" lon="6.12967">
        <ele>268.36</ele>
        <time>2018-01-31T09:36:52Z</time>
      </trkpt>
      <trkpt lat="47.67734" lon="6.12963">
        <ele>268.24</ele>
        <time>2018-01-31T09:36:53Z</time>
      </trkpt>
      <trkpt lat="47.6773" lon="6.12959">
        <ele>268.14</ele>
        <time>2018-01-31T09:36:54Z</time>
      </trkpt>
      <trkpt lat="47.67727" lon="6.12955">
        <ele>268.07</ele>
        <time>2018-01-31T09:36:55Z</time>
      </trkpt>
      <trkpt lat="47.67723" lon="6.12951">
        <ele>268.01</ele>
        <time>2018-01-31T09:36:56Z</time>
      </trkpt>
      <trkpt lat="47.67719" lon="6.12946">
        <ele>267.94</ele>
        <time>2018-01-31T09:36:57Z</time>
      </trkpt>
      <trkpt lat="47.67715" lon="6.12942">
        <ele>267.87</ele>
        <time>2018-01-31T09:36:58Z</time>
      </trkpt>
      <trkpt lat="47.67711" lon="6.12937">
        <ele>267.78</ele>
        <time>2018-01-31T09:36:59Z</time>
      </trkpt>
      <trkpt lat="47.67708" lon="6.12933">
        <ele>267.69</ele>
        <time>2018-01-31T09:37:00Z</time>
      </trkpt>
      <trkpt lat="47.67704" lon="6.12928">
        <ele>267.59</ele>
        <time>2018-01-31T09:37:01Z</time>
      </trkpt>
      <trkpt lat="47.677" lon="6.12924">
        <ele>267.46</ele>
        <time>2018-01-31T09:37:02Z</time>
      </trkpt>
      <trkpt lat="47.67693" lon="6.12916">
        <ele>267.23</ele>
        <time>2018-01-31T09:37:04Z</time>
      </trkpt>
      <trkpt lat="47.67687" lon="6.12909">
        <ele>267.04</ele>
        <time>2018-01-31T09:37:06Z</time>
      </trkpt>
      <trkpt lat="47.67681" lon="6.12902">
        <ele>266.94</ele>
        <time>2018-01-31T09:37:08Z</time>
      </trkpt>
      <trkpt lat="47.67674" lon="6.12895">
        <ele>266.77</ele>
        <time>2018-01-31T09:37:10Z</time>
      </trkpt>
      <trkpt lat="47.67668" lon="6.12888">
        <ele>266.64</ele>
        <time>2018-01-31T09:37:12Z</time>
      </trkpt>
      <trkpt lat="47.67662" lon="6.12882">
        <ele>266.58</ele>
        <time>2018-01-31T09:37:14Z</time>
      </trkpt>
      <trkpt lat="47.67656" lon="6.12876">
        <ele>266.46</ele>
        <time>2018-01-31T09:37:16Z</time>
      </trkpt>
      <trkpt lat="47.67649" lon="6.12869">
        <ele>266.28</ele>
        <time>2018-01-31T09:37:18Z</time>
      </trkpt>
      <trkpt lat="47.67643" lon="6.12861">
        <ele>266.1</ele>
        <time>2018-01-31T09:37:20Z</time>
      </trkpt>
      <trkpt lat="47.67639" lon="6.12857">
        <ele>266.03</ele>
        <time>2018-01-31T09:37:21Z</time>
      </trkpt>
      <trkpt lat="47.67632" lon="6.12851">
        <ele>265.91</ele>
        <time>2018-01-31T09:37:23Z</time>
      </trkpt>
      <trkpt lat="47.67625" lon="6.12845">
        <ele>265.82</ele>
        <time>2018-01-31T09:37:25Z</time>
      </trkpt>
      <trkpt lat="47.67619" lon="6.12837">
        <ele>265.74</ele>
        <time>2018-01-31T09:37:27Z</time>
      </trkpt>
      <trkpt lat="47.67612" lon="6.1283">
        <ele>265.69</ele>
        <time>2018-01-31T09:37:29Z</time>
      </trkpt>
      <trkpt lat="47.67606" lon="6.12822">
        <ele>265.64</ele>
        <time>2018-01-31T09:37:31Z</time>
      </trkpt>
      <trkpt lat="47.676" lon="6.12813">
        <ele>265.59</ele>
        <time>2018-01-31T09:37:33Z</time>
      </trkpt>
      <trkpt lat="47.67595" lon="6.12805">
        <ele>265.58</ele>
        <time>2018-01-31T09:37:35Z</time>
      </trkpt>
      <trkpt lat="47.6759" lon="6.12797">
        <ele>265.52</ele>
        <time>2018-01-31T09:37:37Z</time>
      </trkpt>
      <trkpt lat="47.67586" lon="6.12786">
        <ele>265.44</ele>
        <time>2018-01-31T09:37:39Z</time>
      </trkpt>
      <trkpt lat="47.67581" lon="6.12774">
        <ele>265.37</ele>
        <time>2018-01-31T09:37:41Z</time>
      </trkpt>
      <trkpt lat="47.67579" lon="6.12768">
        <ele>265.34</ele>
        <time>2018-01-31T09:37:42Z</time>
      </trkpt>
      <trkpt lat="47.67577" lon="6.12762">
        <ele>265.32</ele>
        <time>2018-01-31T09:37:43Z</time>
      </trkpt>
      <trkpt lat="47.67575" lon="6.12755">
        <ele>265.29</ele>
        <time>2018-01-31T09:37:44Z</time>
      </trkpt>
      <trkpt lat="47.67573" lon="6.12749">
        <ele>265.27</ele>
        <time>2018-01-31T09:37:45Z</time>
      </trkpt>
      <trkpt lat="47.67571" lon="6.12743">
        <ele>265.24</ele>
        <time>2018-01-31T09:37:46Z</time>
      </trkpt>
      <trkpt lat="47.67569" lon="6.12737">
        <ele>265.21</ele>
        <time>2018-01-31T09:37:47Z</time>
      </trkpt>
      <trkpt lat="47.67567" lon="6.12731">
        <ele>265.18</ele>
        <time>2018-01-31T09:37:48Z</time>
      </trkpt>
      <trkpt lat="47.67564" lon="6.12725">
        <ele>265.15</ele>
        <time>2018-01-31T09:37:49Z</time>
      </trkpt>
      <trkpt lat="47.67562" lon="6.12719">
        <ele>265.11</ele>
        <time>2018-01-31T09:37:50Z</time>
      </trkpt>
      <trkpt lat="47.6756" lon="6.12713">
        <ele>265.07</ele>
        <time>2018-01-31T09:37:51Z</time>
      </trkpt>
      <trkpt lat="47.67557" lon="6.12706">
        <ele>265.03</ele>
        <time>2018-01-31T09:37:52Z</time>
      </trkpt>
      <trkpt lat="47.67555" lon="6.127">
        <ele>264.99</ele>
        <time>2018-01-31T09:37:53Z</time>
      </trkpt>
      <trkpt lat="47.67552" lon="6.12693">
        <ele>264.94</ele>
        <time>2018-01-31T09:37:54Z</time>
      </trkpt>
      <trkpt lat="47.67549" lon="6.12686">
        <ele>264.9</ele>
        <time>2018-01-31T09:37:55Z</time>
      </trkpt>
      <trkpt lat="47.67547" lon="6.12679">
        <ele>264.85</ele>
        <time>2018-01-31T09:37:56Z</time>
      </trkpt>
      <trkpt lat="47.67544" lon="6.12671">
        <ele>264.81</ele>
        <time>2018-01-31T09:37:57Z</time>
      </trkpt>
      <trkpt lat="47.67541" lon="6.12664">
        <ele>264.77</ele>
        <time>2018-01-31T09:37:58Z</time>
      </trkpt>
      <trkpt lat="47.67538" lon="6.12657">
        <ele>264.72</ele>
        <time>2018-01-31T09:37:59Z</time>
      </trkpt>
      <trkpt lat="47.67535" lon="6.12649">
        <ele>264.68</ele>
        <time>2018-01-31T09:38:00Z</time>
      </trkpt>
      <trkpt lat="47.67532" lon="6.12642">
        <ele>264.63</ele>
        <time>2018-01-31T09:38:01Z</time>
      </trkpt>
      <trkpt lat="47.67529" lon="6.12635">
        <ele>264.59</ele>
        <time>2018-01-31T09:38:02Z</time>
      </trkpt>
      <trkpt lat="47.67526" lon="6.12628">
        <ele>264.54</ele>
        <time>2018-01-31T09:38:03Z</time>
      </trkpt>
      <trkpt lat="47.67524" lon="6.12621">
        <ele>264.5</ele>
        <time>2018-01-31T09:38:04Z</time>
      </trkpt>
      <trkpt lat="47.67522" lon="6.12614">
        <ele>264.44</ele>
        <time>2018-01-31T09:38:05Z</time>
      </trkpt>
      <trkpt lat="47.6752" lon="6.12608">
        <ele>264.38</ele>
        <time>2018-01-31T09:38:06Z</time>
      </trkpt>
      <trkpt lat="47.6752" lon="6.12601">
        <ele>264.32</ele>
        <time>2018-01-31T09:38:07Z</time>
      </trkpt>
      <trkpt lat="47.67522" lon="6.12589">
        <ele>264.24</ele>
        <time>2018-01-31T09:38:09Z</time>
      </trkpt>
      <trkpt lat="47.67523" lon="6.12582">
        <ele>264.11</ele>
        <time>2018-01-31T09:38:10Z</time>
      </trkpt>
      <trkpt lat="47.67525" lon="6.12575">
        <ele>263.93</ele>
        <time>2018-01-31T09:38:11Z</time>
      </trkpt>
      <trkpt lat="47.67527" lon="6.12569">
        <ele>263.74</ele>
        <time>2018-01-31T09:38:12Z</time>
      </trkpt>
      <trkpt lat="47.6753" lon="6.12564">
        <ele>263.55</ele>
        <time>2018-01-31T09:38:13Z</time>
      </trkpt>
      <trkpt lat="47.67534" lon="6.12553">
        <ele>263.22</ele>
        <time>2018-01-31T09:38:15Z</time>
      </trkpt>
      <trkpt lat="47.67537" lon="6.12542">
        <ele>263.14</ele>
        <time>2018-01-31T09:38:17Z</time>
      </trkpt>
      <trkpt lat="47.6754" lon="6.12531">
        <ele>263.1</ele>
        <time>2018-01-31T09:38:19Z</time>
      </trkpt>
      <trkpt lat="47.67542" lon="6.12521">
        <ele>263.07</ele>
        <time>2018-01-31T09:38:21Z</time>
      </trkpt>
      <trkpt lat="47.67541" lon="6.12511">
        <ele>263.04</ele>
        <time>2018-01-31T09:38:23Z</time>
      </trkpt>
      <trkpt lat="47.67538" lon="6.12501">
        <ele>263</ele>
        <time>2018-01-31T09:38:25Z</time>
      </trkpt>
      <trkpt lat="47.67533" lon="6.12491">
        <ele>262.72</ele>
        <time>2018-01-31T09:38:27Z</time>
      </trkpt>
      <trkpt lat="47.67528" lon="6.12483">
        <ele>262.56</ele>
        <time>2018-01-31T09:38:29Z</time>
      </trkpt>
      <trkpt lat="47.67524" lon="6.12479">
        <ele>262.45</ele>
        <time>2018-01-31T09:38:30Z</time>
      </trkpt>
      <trkpt lat="47.6752" lon="6.12476">
        <ele>262.36</ele>
        <time>2018-01-31T09:38:31Z</time>
      </trkpt>
      <trkpt lat="47.67516" lon="6.12472">
        <ele>262.27</ele>
        <time>2018-01-31T09:38:32Z</time>
      </trkpt>
      <trkpt lat="47.67512" lon="6.12469">
        <ele>262.18</ele>
        <time>2018-01-31T09:38:33Z</time>
      </trkpt>
      <trkpt lat="47.67507" lon="6.12466">
        <ele>262.11</ele>
        <time>2018-01-31T09:38:34Z</time>
      </trkpt>
      <trkpt lat="47.67502" lon="6.12463">
        <ele>262.05</ele>
        <time>2018-01-31T09:38:35Z</time>
      </trkpt>
      <trkpt lat="47.67494" lon="6.12458">
        <ele>261.93</ele>
        <time>2018-01-31T09:38:37Z</time>
      </trkpt>
      <trkpt lat="47.67486" lon="6.12454">
        <ele>261.85</ele>
        <time>2018-01-31T09:38:39Z</time>
      </trkpt>
      <trkpt lat="47.67479" lon="6.12451">
        <ele>261.83</ele>
        <time>2018-01-31T09:38:41Z</time>
      </trkpt>
      <trkpt lat="47.67472" lon="6.12447">
        <ele>261.8</ele>
        <time>2018-01-31T09:38:43Z</time>
      </trkpt>
      <trkpt lat="47.67466" lon="6.12444">
        <ele>261.77</ele>
        <time>2018-01-31T09:38:45Z</time>
      </trkpt>
      <trkpt lat="47.67459" lon="6.12442">
        <ele>261.73</ele>
        <time>2018-01-31T09:38:47Z</time>
      </trkpt>
      <trkpt lat="47.67453" lon="6.1244">
        <ele>261.68</ele>
        <time>2018-01-31T09:38:49Z</time>
      </trkpt>
      <trkpt lat="47.67447" lon="6.12435">
        <ele>261.63</ele>
        <time>2018-01-31T09:38:51Z</time>
      </trkpt>
      <trkpt lat="47.6744" lon="6.12432">
        <ele>261.58</ele>
        <time>2018-01-31T09:38:53Z</time>
      </trkpt>
      <trkpt lat="47.67434" lon="6.1243">
        <ele>261.52</ele>
        <time>2018-01-31T09:38:55Z</time>
      </trkpt>
      <trkpt lat="47.67427" lon="6.12426">
        <ele>261.47</ele>
        <time>2018-01-31T09:38:57Z</time>
      </trkpt>
      <trkpt lat="47.67421" lon="6.12423">
        <ele>261.41</ele>
        <time>2018-01-31T09:38:59Z</time>
      </trkpt>
      <trkpt lat="47.67414" lon="6.12419">
        <ele>261.36</ele>
        <time>2018-01-31T09:39:01Z</time>
      </trkpt>
      <trkpt lat="47.67408" lon="6.12415">
        <ele>261.3</ele>
        <time>2018-01-31T09:39:03Z</time>
      </trkpt>
      <trkpt lat="47.67402" lon="6.12412">
        <ele>261.23</ele>
        <time>2018-01-31T09:39:05Z</time>
      </trkpt>
      <trkpt lat="47.67396" lon="6.12407">
        <ele>261.16</ele>
        <time>2018-01-31T09:39:07Z</time>
      </trkpt>
      <trkpt lat="47.6739" lon="6.12404">
        <ele>261.09</ele>
        <time>2018-01-31T09:39:09Z</time>
      </trkpt>
      <trkpt lat="47.67382" lon="6.12399">
        <ele>260.5</ele>
        <time>2018-01-31T09:39:11Z</time>
      </trkpt>
      <trkpt lat="47.67374" lon="6.12395">
        <ele>259.95</ele>
        <time>2018-01-31T09:39:13Z</time>
      </trkpt>
      <trkpt lat="47.67367" lon="6.12391">
        <ele>259.54</ele>
        <time>2018-01-31T09:39:15Z</time>
      </trkpt>
      <trkpt lat="47.67359" lon="6.12388">
        <ele>259.23</ele>
        <time>2018-01-31T09:39:17Z</time>
      </trkpt>
      <trkpt lat="47.67351" lon="6.12384">
        <ele>259.07</ele>
        <time>2018-01-31T09:39:19Z</time>
      </trkpt>
      <trkpt lat="47.67343" lon="6.1238">
        <ele>258.91</ele>
        <time>2018-01-31T09:39:21Z</time>
      </trkpt>
      <trkpt lat="47.67335" lon="6.12377">
        <ele>258.74</ele>
        <time>2018-01-31T09:39:23Z</time>
      </trkpt>
      <trkpt lat="47.67328" lon="6.12375">
        <ele>258.69</ele>
        <time>2018-01-31T09:39:25Z</time>
      </trkpt>
      <trkpt lat="47.6732" lon="6.12375">
        <ele>258.67</ele>
        <time>2018-01-31T09:39:27Z</time>
      </trkpt>
      <trkpt lat="47.67313" lon="6.12377">
        <ele>258.65</ele>
        <time>2018-01-31T09:39:29Z</time>
      </trkpt>
      <trkpt lat="47.67308" lon="6.12379">
        <ele>258.63</ele>
        <time>2018-01-31T09:39:31Z</time>
      </trkpt>
      <trkpt lat="47.67304" lon="6.12385">
        <ele>258.61</ele>
        <time>2018-01-31T09:39:33Z</time>
      </trkpt>
      <trkpt lat="47.67299" lon="6.12389">
        <ele>258.58</ele>
        <time>2018-01-31T09:39:35Z</time>
      </trkpt>
      <trkpt lat="47.67293" lon="6.12393">
        <ele>258.54</ele>
        <time>2018-01-31T09:39:37Z</time>
      </trkpt>
      <trkpt lat="47.67287" lon="6.12399">
        <ele>258.5</ele>
        <time>2018-01-31T09:39:39Z</time>
      </trkpt>
      <trkpt lat="47.6728" lon="6.12405">
        <ele>258.33</ele>
        <time>2018-01-31T09:39:41Z</time>
      </trkpt>
      <trkpt lat="47.67273" lon="6.12411">
        <ele>257.99</ele>
        <time>2018-01-31T09:39:43Z</time>
      </trkpt>
      <trkpt lat="47.67269" lon="6.12416">
        <ele>257.84</ele>
        <time>2018-01-31T09:39:44Z</time>
      </trkpt>
      <trkpt lat="47.67265" lon="6.12419">
        <ele>257.7</ele>
        <time>2018-01-31T09:39:45Z</time>
      </trkpt>
      <trkpt lat="47.67258" lon="6.12427">
        <ele>257.45</ele>
        <time>2018-01-31T09:39:47Z</time>
      </trkpt>
      <trkpt lat="47.67251" lon="6.12435">
        <ele>257.26</ele>
        <time>2018-01-31T09:39:49Z</time>
      </trkpt>
      <trkpt lat="47.67246" lon="6.12442">
        <ele>257.1</ele>
        <time>2018-01-31T09:39:51Z</time>
      </trkpt>
      <trkpt lat="47.6724" lon="6.1245">
        <ele>256.99</ele>
        <time>2018-01-31T09:39:53Z</time>
      </trkpt>
      <trkpt lat="47.67233" lon="6.12457">
        <ele>256.89</ele>
        <time>2018-01-31T09:39:55Z</time>
      </trkpt>
      <trkpt lat="47.67227" lon="6.12465">
        <ele>256.82</ele>
        <time>2018-01-31T09:39:57Z</time>
      </trkpt>
      <trkpt lat="47.6722" lon="6.12472">
        <ele>256.76</ele>
        <time>2018-01-31T09:39:59Z</time>
      </trkpt>
      <trkpt lat="47.67212" lon="6.12479">
        <ele>256.69</ele>
        <time>2018-01-31T09:40:01Z</time>
      </trkpt>
      <trkpt lat="47.67205" lon="6.12485">
        <ele>256.56</ele>
        <time>2018-01-31T09:40:03Z</time>
      </trkpt>
      <trkpt lat="47.67199" lon="6.1249">
        <ele>256.52</ele>
        <time>2018-01-31T09:40:05Z</time>
      </trkpt>
      <trkpt lat="47.67192" lon="6.12494">
        <ele>256.46</ele>
        <time>2018-01-31T09:40:07Z</time>
      </trkpt>
      <trkpt lat="47.67186" lon="6.12498">
        <ele>256.38</ele>
        <time>2018-01-31T09:40:09Z</time>
      </trkpt>
      <trkpt lat="47.67179" lon="6.12503">
        <ele>256.27</ele>
        <time>2018-01-31T09:40:11Z</time>
      </trkpt>
      <trkpt lat="47.67175" lon="6.12506">
        <ele>256.19</ele>
        <time>2018-01-31T09:40:12Z</time>
      </trkpt>
      <trkpt lat="47.6717" lon="6.12509">
        <ele>256.11</ele>
        <time>2018-01-31T09:40:13Z</time>
      </trkpt>
      <trkpt lat="47.67163" lon="6.12514">
        <ele>255.98</ele>
        <time>2018-01-31T09:40:15Z</time>
      </trkpt>
      <trkpt lat="47.67155" lon="6.12519">
        <ele>255.87</ele>
        <time>2018-01-31T09:40:17Z</time>
      </trkpt>
      <trkpt lat="47.67147" lon="6.12524">
        <ele>255.78</ele>
        <time>2018-01-31T09:40:19Z</time>
      </trkpt>
      <trkpt lat="47.67139" lon="6.12529">
        <ele>255.7</ele>
        <time>2018-01-31T09:40:21Z</time>
      </trkpt>
      <trkpt lat="47.67131" lon="6.12534">
        <ele>255.63</ele>
        <time>2018-01-31T09:40:23Z</time>
      </trkpt>
      <trkpt lat="47.67126" lon="6.12537">
        <ele>255.59</ele>
        <time>2018-01-31T09:40:24Z</time>
      </trkpt>
      <trkpt lat="47.67122" lon="6.12541">
        <ele>255.56</ele>
        <time>2018-01-31T09:40:25Z</time>
      </trkpt>
      <trkpt lat="47.67118" lon="6.12544">
        <ele>255.52</ele>
        <time>2018-01-31T09:40:26Z</time>
      </trkpt>
      <trkpt lat="47.67109" lon="6.12549">
        <ele>255.46</ele>
        <time>2018-01-31T09:40:28Z</time>
      </trkpt>
      <trkpt lat="47.67105" lon="6.12552">
        <ele>255.43</ele>
        <time>2018-01-31T09:40:29Z</time>
      </trkpt>
      <trkpt lat="47.671" lon="6.12555">
        <ele>255.4</ele>
        <time>2018-01-31T09:40:30Z</time>
      </trkpt>
      <trkpt lat="47.67096" lon="6.12559">
        <ele>255.36</ele>
        <time>2018-01-31T09:40:31Z</time>
      </trkpt>
      <trkpt lat="47.67091" lon="6.12561">
        <ele>255.33</ele>
        <time>2018-01-31T09:40:32Z</time>
      </trkpt>
      <trkpt lat="47.67086" lon="6.12564">
        <ele>255.29</ele>
        <time>2018-01-31T09:40:33Z</time>
      </trkpt>
      <trkpt lat="47.67081" lon="6.12567">
        <ele>255.25</ele>
        <time>2018-01-31T09:40:34Z</time>
      </trkpt>
      <trkpt lat="47.67076" lon="6.1257">
        <ele>255.21</ele>
        <time>2018-01-31T09:40:35Z</time>
      </trkpt>
      <trkpt lat="47.6707" lon="6.12574">
        <ele>255.17</ele>
        <time>2018-01-31T09:40:36Z</time>
      </trkpt>
      <trkpt lat="47.67065" lon="6.12577">
        <ele>255.14</ele>
        <time>2018-01-31T09:40:37Z</time>
      </trkpt>
      <trkpt lat="47.6706" lon="6.1258">
        <ele>255.11</ele>
        <time>2018-01-31T09:40:38Z</time>
      </trkpt>
      <trkpt lat="47.67055" lon="6.12583">
        <ele>255.08</ele>
        <time>2018-01-31T09:40:39Z</time>
      </trkpt>
      <trkpt lat="47.6705" lon="6.12586">
        <ele>255.05</ele>
        <time>2018-01-31T09:40:40Z</time>
      </trkpt>
      <trkpt lat="47.67045" lon="6.12589">
        <ele>255.02</ele>
        <time>2018-01-31T09:40:41Z</time>
      </trkpt>
      <trkpt lat="47.6704" lon="6.12591">
        <ele>255</ele>
        <time>2018-01-31T09:40:42Z</time>
      </trkpt>
      <trkpt lat="47.67036" lon="6.12594">
        <ele>254.97</ele>
        <time>2018-01-31T09:40:43Z</time>
      </trkpt>
      <trkpt lat="47.67031" lon="6.12596">
        <ele>254.95</ele>
        <time>2018-01-31T09:40:44Z</time>
      </trkpt>
      <trkpt lat="47.67027" lon="6.12598">
        <ele>254.93</ele>
        <time>2018-01-31T09:40:45Z</time>
      </trkpt>
      <trkpt lat="47.67023" lon="6.126">
        <ele>254.91</ele>
        <time>2018-01-31T09:40:46Z</time>
      </trkpt>
      <trkpt lat="47.67014" lon="6.12604">
        <ele>254.87</ele>
        <time>2018-01-31T09:40:48Z</time>
      </trkpt>
      <trkpt lat="47.67006" lon="6.12606">
        <ele>254.83</ele>
        <time>2018-01-31T09:40:50Z</time>
      </trkpt>
      <trkpt lat="47.66997" lon="6.12607">
        <ele>254.8</ele>
        <time>2018-01-31T09:40:52Z</time>
      </trkpt>
      <trkpt lat="47.66988" lon="6.12606">
        <ele>254.77</ele>
        <time>2018-01-31T09:40:54Z</time>
      </trkpt>
      <trkpt lat="47.66983" lon="6.12606">
        <ele>254.76</ele>
        <time>2018-01-31T09:40:55Z</time>
      </trkpt>
      <trkpt lat="47.66979" lon="6.12605">
        <ele>254.74</ele>
        <time>2018-01-31T09:40:56Z</time>
      </trkpt>
      <trkpt lat="47.66974" lon="6.12604">
        <ele>254.73</ele>
        <time>2018-01-31T09:40:57Z</time>
      </trkpt>
      <trkpt lat="47.6697" lon="6.12603">
        <ele>254.71</ele>
        <time>2018-01-31T09:40:58Z</time>
      </trkpt>
      <trkpt lat="47.66961" lon="6.12602">
        <ele>254.68</ele>
        <time>2018-01-31T09:41:00Z</time>
      </trkpt>
      <trkpt lat="47.66952" lon="6.12602">
        <ele>254.65</ele>
        <time>2018-01-31T09:41:02Z</time>
      </trkpt>
      <trkpt lat="47.66947" lon="6.12601">
        <ele>254.64</ele>
        <time>2018-01-31T09:41:03Z</time>
      </trkpt>
      <trkpt lat="47.66943" lon="6.12601">
        <ele>254.63</ele>
        <time>2018-01-31T09:41:04Z</time>
      </trkpt>
      <trkpt lat="47.66938" lon="6.126">
        <ele>254.61</ele>
        <time>2018-01-31T09:41:05Z</time>
      </trkpt>
      <trkpt lat="47.66933" lon="6.126">
        <ele>254.6</ele>
        <time>2018-01-31T09:41:06Z</time>
      </trkpt>
      <trkpt lat="47.66929" lon="6.126">
        <ele>254.59</ele>
        <time>2018-01-31T09:41:07Z</time>
      </trkpt>
      <trkpt lat="47.6692" lon="6.12601">
        <ele>254.56</ele>
        <time>2018-01-31T09:41:09Z</time>
      </trkpt>
      <trkpt lat="47.66915" lon="6.12601">
        <ele>254.54</ele>
        <time>2018-01-31T09:41:10Z</time>
      </trkpt>
      <trkpt lat="47.66907" lon="6.12602">
        <ele>254.5</ele>
        <time>2018-01-31T09:41:12Z</time>
      </trkpt>
      <trkpt lat="47.66902" lon="6.12603">
        <ele>254.49</ele>
        <time>2018-01-31T09:41:13Z</time>
      </trkpt>
      <trkpt lat="47.66893" lon="6.12605">
        <ele>254.45</ele>
        <time>2018-01-31T09:41:15Z</time>
      </trkpt>
      <trkpt lat="47.66885" lon="6.12608">
        <ele>254.42</ele>
        <time>2018-01-31T09:41:17Z</time>
      </trkpt>
      <trkpt lat="47.66877" lon="6.1261">
        <ele>254.4</ele>
        <time>2018-01-31T09:41:19Z</time>
      </trkpt>
      <trkpt lat="47.66869" lon="6.12613">
        <ele>254.37</ele>
        <time>2018-01-31T09:41:21Z</time>
      </trkpt>
      <trkpt lat="47.66862" lon="6.12616">
        <ele>254.32</ele>
        <time>2018-01-31T09:41:23Z</time>
      </trkpt>
      <trkpt lat="47.66855" lon="6.12621">
        <ele>254.28</ele>
        <time>2018-01-31T09:41:25Z</time>
      </trkpt>
      <trkpt lat="47.66847" lon="6.12626">
        <ele>254.23</ele>
        <time>2018-01-31T09:41:27Z</time>
      </trkpt>
      <trkpt lat="47.6684" lon="6.1263">
        <ele>254.18</ele>
        <time>2018-01-31T09:41:29Z</time>
      </trkpt>
      <trkpt lat="47.66833" lon="6.12636">
        <ele>254.12</ele>
        <time>2018-01-31T09:41:31Z</time>
      </trkpt>
      <trkpt lat="47.66825" lon="6.12641">
        <ele>254.06</ele>
        <time>2018-01-31T09:41:33Z</time>
      </trkpt>
      <trkpt lat="47.66818" lon="6.12647">
        <ele>254</ele>
        <time>2018-01-31T09:41:35Z</time>
      </trkpt>
      <trkpt lat="47.66811" lon="6.12653">
        <ele>253.95</ele>
        <time>2018-01-31T09:41:37Z</time>
      </trkpt>
      <trkpt lat="47.66804" lon="6.12659">
        <ele>253.89</ele>
        <time>2018-01-31T09:41:39Z</time>
      </trkpt>
      <trkpt lat="47.66797" lon="6.12665">
        <ele>253.82</ele>
        <time>2018-01-31T09:41:41Z</time>
      </trkpt>
      <trkpt lat="47.6679" lon="6.1267">
        <ele>253.72</ele>
        <time>2018-01-31T09:41:43Z</time>
      </trkpt>
      <trkpt lat="47.66785" lon="6.12673">
        <ele>253.66</ele>
        <time>2018-01-31T09:41:44Z</time>
      </trkpt>
      <trkpt lat="47.66778" lon="6.12679">
        <ele>253.56</ele>
        <time>2018-01-31T09:41:46Z</time>
      </trkpt>
      <trkpt lat="47.6677" lon="6.12685">
        <ele>253.46</ele>
        <time>2018-01-31T09:41:48Z</time>
      </trkpt>
      <trkpt lat="47.66764" lon="6.12691">
        <ele>253.44</ele>
        <time>2018-01-31T09:41:50Z</time>
      </trkpt>
      <trkpt lat="47.66757" lon="6.12696">
        <ele>253.43</ele>
        <time>2018-01-31T09:41:52Z</time>
      </trkpt>
      <trkpt lat="47.66751" lon="6.12702">
        <ele>253.35</ele>
        <time>2018-01-31T09:41:54Z</time>
      </trkpt>
      <trkpt lat="47.66744" lon="6.12708">
        <ele>253.32</ele>
        <time>2018-01-31T09:41:56Z</time>
      </trkpt>
      <trkpt lat="47.66738" lon="6.12714">
        <ele>253.31</ele>
        <time>2018-01-31T09:41:58Z</time>
      </trkpt>
      <trkpt lat="47.66732" lon="6.12719">
        <ele>253.3</ele>
        <time>2018-01-31T09:42:00Z</time>
      </trkpt>
      <trkpt lat="47.66727" lon="6.12725">
        <ele>253.28</ele>
        <time>2018-01-31T09:42:02Z</time>
      </trkpt>
      <trkpt lat="47.66721" lon="6.1273">
        <ele>253.26</ele>
        <time>2018-01-31T09:42:04Z</time>
      </trkpt>
      <trkpt lat="47.66716" lon="6.12738">
        <ele>253.18</ele>
        <time>2018-01-31T09:42:06Z</time>
      </trkpt>
      <trkpt lat="47.66709" lon="6.12746">
        <ele>253.03</ele>
        <time>2018-01-31T09:42:08Z</time>
      </trkpt>
      <trkpt lat="47.66705" lon="6.12751">
        <ele>252.96</ele>
        <time>2018-01-31T09:42:09Z</time>
      </trkpt>
      <trkpt lat="47.66701" lon="6.12755">
        <ele>252.9</ele>
        <time>2018-01-31T09:42:10Z</time>
      </trkpt>
      <trkpt lat="47.66698" lon="6.1276">
        <ele>252.85</ele>
        <time>2018-01-31T09:42:11Z</time>
      </trkpt>
      <trkpt lat="47.66694" lon="6.12764">
        <ele>252.8</ele>
        <time>2018-01-31T09:42:12Z</time>
      </trkpt>
      <trkpt lat="47.66688" lon="6.12772">
        <ele>252.72</ele>
        <time>2018-01-31T09:42:14Z</time>
      </trkpt>
      <trkpt lat="47.66682" lon="6.12781">
        <ele>252.66</ele>
        <time>2018-01-31T09:42:16Z</time>
      </trkpt>
      <trkpt lat="47.66675" lon="6.12789">
        <ele>252.61</ele>
        <time>2018-01-31T09:42:18Z</time>
      </trkpt>
      <trkpt lat="47.66669" lon="6.12795">
        <ele>252.58</ele>
        <time>2018-01-31T09:42:20Z</time>
      </trkpt>
      <trkpt lat="47.66663" lon="6.12802">
        <ele>252.55</ele>
        <time>2018-01-31T09:42:22Z</time>
      </trkpt>
      <trkpt lat="47.66657" lon="6.12808">
        <ele>252.51</ele>
        <time>2018-01-31T09:42:24Z</time>
      </trkpt>
      <trkpt lat="47.6665" lon="6.12813">
        <ele>252.44</ele>
        <time>2018-01-31T09:42:26Z</time>
      </trkpt>
      <trkpt lat="47.66641" lon="6.12817">
        <ele>252.36</ele>
        <time>2018-01-31T09:42:28Z</time>
      </trkpt>
      <trkpt lat="47.66636" lon="6.12818">
        <ele>252.31</ele>
        <time>2018-01-31T09:42:29Z</time>
      </trkpt>
      <trkpt lat="47.66626" lon="6.1282">
        <ele>252.28</ele>
        <time>2018-01-31T09:42:31Z</time>
      </trkpt>
      <trkpt lat="47.66619" lon="6.1282">
        <ele>252.25</ele>
        <time>2018-01-31T09:42:33Z</time>
      </trkpt>
      <trkpt lat="47.66613" lon="6.12819">
        <ele>252.23</ele>
        <time>2018-01-31T09:42:35Z</time>
      </trkpt>
      <trkpt lat="47.66608" lon="6.12817">
        <ele>252.2</ele>
        <time>2018-01-31T09:42:37Z</time>
      </trkpt>
      <trkpt lat="47.66603" lon="6.12817">
        <ele>252.16</ele>
        <time>2018-01-31T09:42:39Z</time>
      </trkpt>
      <trkpt lat="47.66597" lon="6.12814">
        <ele>252.12</ele>
        <time>2018-01-31T09:42:41Z</time>
      </trkpt>
      <trkpt lat="47.66588" lon="6.12811">
        <ele>252.09</ele>
        <time>2018-01-31T09:42:43Z</time>
      </trkpt>
      <trkpt lat="47.66581" lon="6.12807">
        <ele>252.05</ele>
        <time>2018-01-31T09:42:45Z</time>
      </trkpt>
      <trkpt lat="47.66574" lon="6.12802">
        <ele>252.01</ele>
        <time>2018-01-31T09:42:47Z</time>
      </trkpt>
      <trkpt lat="47.66567" lon="6.12799">
        <ele>251.98</ele>
        <time>2018-01-31T09:42:49Z</time>
      </trkpt>
      <trkpt lat="47.6656" lon="6.12795">
        <ele>251.94</ele>
        <time>2018-01-31T09:42:51Z</time>
      </trkpt>
      <trkpt lat="47.66553" lon="6.12789">
        <ele>251.91</ele>
        <time>2018-01-31T09:42:53Z</time>
      </trkpt>
      <trkpt lat="47.66547" lon="6.12784">
        <ele>251.87</ele>
        <time>2018-01-31T09:42:55Z</time>
      </trkpt>
      <trkpt lat="47.66541" lon="6.12779">
        <ele>251.83</ele>
        <time>2018-01-31T09:42:57Z</time>
      </trkpt>
      <trkpt lat="47.66535" lon="6.12775">
        <ele>251.79</ele>
        <time>2018-01-31T09:42:59Z</time>
      </trkpt>
      <trkpt lat="47.6653" lon="6.12769">
        <ele>251.75</ele>
        <time>2018-01-31T09:43:01Z</time>
      </trkpt>
      <trkpt lat="47.66526" lon="6.12763">
        <ele>251.71</ele>
        <time>2018-01-31T09:43:03Z</time>
      </trkpt>
      <trkpt lat="47.6652" lon="6.12757">
        <ele>251.54</ele>
        <time>2018-01-31T09:43:05Z</time>
      </trkpt>
      <trkpt lat="47.66513" lon="6.12748">
        <ele>251.24</ele>
        <time>2018-01-31T09:43:07Z</time>
      </trkpt>
      <trkpt lat="47.66509" lon="6.12744">
        <ele>251.12</ele>
        <time>2018-01-31T09:43:08Z</time>
      </trkpt>
      <trkpt lat="47.66506" lon="6.12739">
        <ele>251.03</ele>
        <time>2018-01-31T09:43:09Z</time>
      </trkpt>
      <trkpt lat="47.66501" lon="6.12729">
        <ele>250.87</ele>
        <time>2018-01-31T09:43:11Z</time>
      </trkpt>
      <trkpt lat="47.66494" lon="6.12719">
        <ele>250.8</ele>
        <time>2018-01-31T09:43:13Z</time>
      </trkpt>
      <trkpt lat="47.66491" lon="6.12714">
        <ele>250.76</ele>
        <time>2018-01-31T09:43:14Z</time>
      </trkpt>
      <trkpt lat="47.66487" lon="6.12708">
        <ele>250.73</ele>
        <time>2018-01-31T09:43:15Z</time>
      </trkpt>
      <trkpt lat="47.66484" lon="6.12702">
        <ele>250.7</ele>
        <time>2018-01-31T09:43:16Z</time>
      </trkpt>
      <trkpt lat="47.6648" lon="6.12695">
        <ele>250.68</ele>
        <time>2018-01-31T09:43:17Z</time>
      </trkpt>
      <trkpt lat="47.66476" lon="6.12689">
        <ele>250.65</ele>
        <time>2018-01-31T09:43:18Z</time>
      </trkpt>
      <trkpt lat="47.66473" lon="6.12684">
        <ele>250.63</ele>
        <time>2018-01-31T09:43:19Z</time>
      </trkpt>
      <trkpt lat="47.66469" lon="6.12677">
        <ele>250.6</ele>
        <time>2018-01-31T09:43:20Z</time>
      </trkpt>
      <trkpt lat="47.66465" lon="6.12671">
        <ele>250.57</ele>
        <time>2018-01-31T09:43:21Z</time>
      </trkpt>
      <trkpt lat="47.66461" lon="6.12666">
        <ele>250.54</ele>
        <time>2018-01-31T09:43:22Z</time>
      </trkpt>
      <trkpt lat="47.66457" lon="6.1266">
        <ele>250.5</ele>
        <time>2018-01-31T09:43:23Z</time>
      </trkpt>
      <trkpt lat="47.66453" lon="6.12654">
        <ele>250.45</ele>
        <time>2018-01-31T09:43:24Z</time>
      </trkpt>
      <trkpt lat="47.66449" lon="6.12648">
        <ele>250.41</ele>
        <time>2018-01-31T09:43:25Z</time>
      </trkpt>
      <trkpt lat="47.66444" lon="6.12642">
        <ele>250.36</ele>
        <time>2018-01-31T09:43:26Z</time>
      </trkpt>
      <trkpt lat="47.6644" lon="6.12637">
        <ele>250.3</ele>
        <time>2018-01-31T09:43:27Z</time>
      </trkpt>
      <trkpt lat="47.66436" lon="6.12631">
        <ele>250.25</ele>
        <time>2018-01-31T09:43:28Z</time>
      </trkpt>
      <trkpt lat="47.66431" lon="6.12625">
        <ele>250.19</ele>
        <time>2018-01-31T09:43:29Z</time>
      </trkpt>
      <trkpt lat="47.66427" lon="6.1262">
        <ele>250.14</ele>
        <time>2018-01-31T09:43:30Z</time>
      </trkpt>
      <trkpt lat="47.66423" lon="6.12615">
        <ele>250.08</ele>
        <time>2018-01-31T09:43:31Z</time>
      </trkpt>
      <trkpt lat="47.66419" lon="6.1261">
        <ele>250.01</ele>
        <time>2018-01-31T09:43:32Z</time>
      </trkpt>
      <trkpt lat="47.66414" lon="6.12605">
        <ele>249.94</ele>
        <time>2018-01-31T09:43:33Z</time>
      </trkpt>
      <trkpt lat="47.6641" lon="6.126">
        <ele>249.88</ele>
        <time>2018-01-31T09:43:34Z</time>
      </trkpt>
      <trkpt lat="47.66406" lon="6.12596">
        <ele>249.82</ele>
        <time>2018-01-31T09:43:35Z</time>
      </trkpt>
      <trkpt lat="47.66401" lon="6.12591">
        <ele>249.77</ele>
        <time>2018-01-31T09:43:36Z</time>
      </trkpt>
      <trkpt lat="47.66397" lon="6.12588">
        <ele>249.72</ele>
        <time>2018-01-31T09:43:37Z</time>
      </trkpt>
      <trkpt lat="47.66392" lon="6.12585">
        <ele>249.66</ele>
        <time>2018-01-31T09:43:38Z</time>
      </trkpt>
      <trkpt lat="47.66386" lon="6.12582">
        <ele>249.61</ele>
        <time>2018-01-31T09:43:39Z</time>
      </trkpt>
      <trkpt lat="47.66381" lon="6.1258">
        <ele>249.56</ele>
        <time>2018-01-31T09:43:40Z</time>
      </trkpt>
      <trkpt lat="47.66375" lon="6.12579">
        <ele>249.51</ele>
        <time>2018-01-31T09:43:41Z</time>
      </trkpt>
      <trkpt lat="47.6637" lon="6.12578">
        <ele>249.47</ele>
        <time>2018-01-31T09:43:42Z</time>
      </trkpt>
      <trkpt lat="47.66365" lon="6.12577">
        <ele>249.42</ele>
        <time>2018-01-31T09:43:43Z</time>
      </trkpt>
      <trkpt lat="47.66359" lon="6.12578">
        <ele>249.38</ele>
        <time>2018-01-31T09:43:44Z</time>
      </trkpt>
      <trkpt lat="47.66351" lon="6.12578">
        <ele>249.34</ele>
        <time>2018-01-31T09:43:45Z</time>
      </trkpt>
      <trkpt lat="47.66343" lon="6.1258">
        <ele>249.3</ele>
        <time>2018-01-31T09:43:46Z</time>
      </trkpt>
      <trkpt lat="47.66336" lon="6.12583">
        <ele>249.24</ele>
        <time>2018-01-31T09:43:47Z</time>
      </trkpt>
      <trkpt lat="47.6633" lon="6.12586">
        <ele>249.18</ele>
        <time>2018-01-31T09:43:48Z</time>
      </trkpt>
      <trkpt lat="47.66324" lon="6.1259">
        <ele>249.11</ele>
        <time>2018-01-31T09:43:49Z</time>
      </trkpt>
      <trkpt lat="47.66319" lon="6.12595">
        <ele>249.04</ele>
        <time>2018-01-31T09:43:50Z</time>
      </trkpt>
      <trkpt lat="47.66313" lon="6.12599">
        <ele>248.95</ele>
        <time>2018-01-31T09:43:51Z</time>
      </trkpt>
      <trkpt lat="47.66309" lon="6.12604">
        <ele>248.86</ele>
        <time>2018-01-31T09:43:52Z</time>
      </trkpt>
      <trkpt lat="47.66305" lon="6.12607">
        <ele>248.77</ele>
        <time>2018-01-31T09:43:53Z</time>
      </trkpt>
      <trkpt lat="47.663" lon="6.12611">
        <ele>248.68</ele>
        <time>2018-01-31T09:43:54Z</time>
      </trkpt>
      <trkpt lat="47.66297" lon="6.12615">
        <ele>248.58</ele>
        <time>2018-01-31T09:43:55Z</time>
      </trkpt>
      <trkpt lat="47.6629" lon="6.12622">
        <ele>248.37</ele>
        <time>2018-01-31T09:43:57Z</time>
      </trkpt>
      <trkpt lat="47.66283" lon="6.1263">
        <ele>248.15</ele>
        <time>2018-01-31T09:43:59Z</time>
      </trkpt>
      <trkpt lat="47.66277" lon="6.12638">
        <ele>247.94</ele>
        <time>2018-01-31T09:44:01Z</time>
      </trkpt>
      <trkpt lat="47.6627" lon="6.12645">
        <ele>247.75</ele>
        <time>2018-01-31T09:44:03Z</time>
      </trkpt>
      <trkpt lat="47.66264" lon="6.12651">
        <ele>247.58</ele>
        <time>2018-01-31T09:44:05Z</time>
      </trkpt>
      <trkpt lat="47.66257" lon="6.12656">
        <ele>247.46</ele>
        <time>2018-01-31T09:44:07Z</time>
      </trkpt>
      <trkpt lat="47.6625" lon="6.12659">
        <ele>247.36</ele>
        <time>2018-01-31T09:44:09Z</time>
      </trkpt>
      <trkpt lat="47.66243" lon="6.1266">
        <ele>247.32</ele>
        <time>2018-01-31T09:44:11Z</time>
      </trkpt>
      <trkpt lat="47.66236" lon="6.12658">
        <ele>247.2</ele>
        <time>2018-01-31T09:44:13Z</time>
      </trkpt>
      <trkpt lat="47.66228" lon="6.12655">
        <ele>247.17</ele>
        <time>2018-01-31T09:44:15Z</time>
      </trkpt>
      <trkpt lat="47.66222" lon="6.12651">
        <ele>247.15</ele>
        <time>2018-01-31T09:44:17Z</time>
      </trkpt>
      <trkpt lat="47.66215" lon="6.12647">
        <ele>247.13</ele>
        <time>2018-01-31T09:44:19Z</time>
      </trkpt>
      <trkpt lat="47.66209" lon="6.12643">
        <ele>247.11</ele>
        <time>2018-01-31T09:44:21Z</time>
      </trkpt>
      <trkpt lat="47.66203" lon="6.12641">
        <ele>247.09</ele>
        <time>2018-01-31T09:44:23Z</time>
      </trkpt>
      <trkpt lat="47.66197" lon="6.12638">
        <ele>247.06</ele>
        <time>2018-01-31T09:44:25Z</time>
      </trkpt>
      <trkpt lat="47.66192" lon="6.12635">
        <ele>247.04</ele>
        <time>2018-01-31T09:44:27Z</time>
      </trkpt>
      <trkpt lat="47.66187" lon="6.12633">
        <ele>247.01</ele>
        <time>2018-01-31T09:44:29Z</time>
      </trkpt>
      <trkpt lat="47.66181" lon="6.12632">
        <ele>246.99</ele>
        <time>2018-01-31T09:44:31Z</time>
      </trkpt>
      <trkpt lat="47.66176" lon="6.12628">
        <ele>246.95</ele>
        <time>2018-01-31T09:44:33Z</time>
      </trkpt>
      <trkpt lat="47.6617" lon="6.12626">
        <ele>246.92</ele>
        <time>2018-01-31T09:44:35Z</time>
      </trkpt>
      <trkpt lat="47.66165" lon="6.12625">
        <ele>246.88</ele>
        <time>2018-01-31T09:44:37Z</time>
      </trkpt>
      <trkpt lat="47.6616" lon="6.12625">
        <ele>246.84</ele>
        <time>2018-01-31T09:44:39Z</time>
      </trkpt>
      <trkpt lat="47.66155" lon="6.12626">
        <ele>246.8</ele>
        <time>2018-01-31T09:44:41Z</time>
      </trkpt>
      <trkpt lat="47.66148" lon="6.12626">
        <ele>246.72</ele>
        <time>2018-01-31T09:44:44Z</time>
      </trkpt>
      <trkpt lat="47.66144" lon="6.1263">
        <ele>246.62</ele>
        <time>2018-01-31T09:44:47Z</time>
      </trkpt>
      <trkpt lat="47.66139" lon="6.12633">
        <ele>246.48</ele>
        <time>2018-01-31T09:44:51Z</time>
      </trkpt>
      <trkpt lat="47.66134" lon="6.12636">
        <ele>246.33</ele>
        <time>2018-01-31T09:44:55Z</time>
      </trkpt>
      <trkpt lat="47.66129" lon="6.12639">
        <ele>246.15</ele>
        <time>2018-01-31T09:44:59Z</time>
      </trkpt>
      <trkpt lat="47.66126" lon="6.12645">
        <ele>245.96</ele>
        <time>2018-01-31T09:45:03Z</time>
      </trkpt>
      <trkpt lat="47.66121" lon="6.12646">
        <ele>245.7</ele>
        <time>2018-01-31T09:45:08Z</time>
      </trkpt>
      <trkpt lat="47.66118" lon="6.12651">
        <ele>245.5</ele>
        <time>2018-01-31T09:45:12Z</time>
      </trkpt>
      <trkpt lat="47.66113" lon="6.12654">
        <ele>245.26</ele>
        <time>2018-01-31T09:45:17Z</time>
      </trkpt>
      <trkpt lat="47.66108" lon="6.12658">
        <ele>245.08</ele>
        <time>2018-01-31T09:45:21Z</time>
      </trkpt>
      <trkpt lat="47.66105" lon="6.12663">
        <ele>244.92</ele>
        <time>2018-01-31T09:45:25Z</time>
      </trkpt>
      <trkpt lat="47.661" lon="6.12666">
        <ele>244.78</ele>
        <time>2018-01-31T09:45:29Z</time>
      </trkpt>
      <trkpt lat="47.66095" lon="6.12668">
        <ele>244.63</ele>
        <time>2018-01-31T09:45:33Z</time>
      </trkpt>
      <trkpt lat="47.66089" lon="6.12669">
        <ele>244.52</ele>
        <time>2018-01-31T09:45:36Z</time>
      </trkpt>
      <trkpt lat="47.66083" lon="6.12667">
        <ele>244.41</ele>
        <time>2018-01-31T09:45:39Z</time>
      </trkpt>
      <trkpt lat="47.66078" lon="6.12666">
        <ele>244.3</ele>
        <time>2018-01-31T09:45:42Z</time>
      </trkpt>
      <trkpt lat="47.66072" lon="6.12663">
        <ele>244.19</ele>
        <time>2018-01-31T09:45:45Z</time>
      </trkpt>
      <trkpt lat="47.66067" lon="6.1266">
        <ele>244.09</ele>
        <time>2018-01-31T09:45:48Z</time>
      </trkpt>
      <trkpt lat="47.66062" lon="6.12657">
        <ele>243.99</ele>
        <time>2018-01-31T09:45:51Z</time>
      </trkpt>
      <trkpt lat="47.66058" lon="6.12654">
        <ele>243.94</ele>
        <time>2018-01-31T09:45:53Z</time>
      </trkpt>
      <trkpt lat="47.66051" lon="6.12651">
        <ele>243.87</ele>
        <time>2018-01-31T09:45:56Z</time>
      </trkpt>
      <trkpt lat="47.66047" lon="6.12649">
        <ele>243.83</ele>
        <time>2018-01-31T09:45:58Z</time>
      </trkpt>
      <trkpt lat="47.66043" lon="6.12647">
        <ele>243.8</ele>
        <time>2018-01-31T09:46:00Z</time>
      </trkpt>
      <trkpt lat="47.66038" lon="6.12645">
        <ele>243.77</ele>
        <time>2018-01-31T09:46:02Z</time>
      </trkpt>
      <trkpt lat="47.66033" lon="6.12643">
        <ele>243.74</ele>
        <time>2018-01-31T09:46:04Z</time>
      </trkpt>
      <trkpt lat="47.66027" lon="6.1264">
        <ele>243.72</ele>
        <time>2018-01-31T09:46:06Z</time>
      </trkpt>
      <trkpt lat="47.66021" lon="6.12637">
        <ele>243.7</ele>
        <time>2018-01-31T09:46:08Z</time>
      </trkpt>
      <trkpt lat="47.66014" lon="6.12634">
        <ele>243.6</ele>
        <time>2018-01-31T09:46:10Z</time>
      </trkpt>
      <trkpt lat="47.66006" lon="6.1263">
        <ele>243.53</ele>
        <time>2018-01-31T09:46:12Z</time>
      </trkpt>
      <trkpt lat="47.65997" lon="6.12627">
        <ele>243.51</ele>
        <time>2018-01-31T09:46:14Z</time>
      </trkpt>
      <trkpt lat="47.65989" lon="6.12624">
        <ele>243.53</ele>
        <time>2018-01-31T09:46:16Z</time>
      </trkpt>
      <trkpt lat="47.65984" lon="6.12622">
        <ele>243.55</ele>
        <time>2018-01-31T09:46:17Z</time>
      </trkpt>
      <trkpt lat="47.65979" lon="6.12621">
        <ele>243.58</ele>
        <time>2018-01-31T09:46:18Z</time>
      </trkpt>
      <trkpt lat="47.65973" lon="6.1262">
        <ele>243.61</ele>
        <time>2018-01-31T09:46:19Z</time>
      </trkpt>
      <trkpt lat="47.65966" lon="6.12619">
        <ele>243.64</ele>
        <time>2018-01-31T09:46:20Z</time>
      </trkpt>
      <trkpt lat="47.6596" lon="6.12618">
        <ele>243.67</ele>
        <time>2018-01-31T09:46:21Z</time>
      </trkpt>
      <trkpt lat="47.65953" lon="6.12617">
        <ele>243.67</ele>
        <time>2018-01-31T09:46:22Z</time>
      </trkpt>
      <trkpt lat="47.65947" lon="6.12616">
        <ele>243.65</ele>
        <time>2018-01-31T09:46:23Z</time>
      </trkpt>
      <trkpt lat="47.65941" lon="6.12615">
        <ele>243.61</ele>
        <time>2018-01-31T09:46:24Z</time>
      </trkpt>
      <trkpt lat="47.65936" lon="6.12614">
        <ele>243.57</ele>
        <time>2018-01-31T09:46:25Z</time>
      </trkpt>
      <trkpt lat="47.65931" lon="6.12613">
        <ele>243.54</ele>
        <time>2018-01-31T09:46:26Z</time>
      </trkpt>
      <trkpt lat="47.65925" lon="6.12613">
        <ele>243.5</ele>
        <time>2018-01-31T09:46:27Z</time>
      </trkpt>
      <trkpt lat="47.6592" lon="6.12612">
        <ele>243.45</ele>
        <time>2018-01-31T09:46:28Z</time>
      </trkpt>
      <trkpt lat="47.65915" lon="6.12611">
        <ele>243.4</ele>
        <time>2018-01-31T09:46:29Z</time>
      </trkpt>
      <trkpt lat="47.6591" lon="6.1261">
        <ele>243.33</ele>
        <time>2018-01-31T09:46:30Z</time>
      </trkpt>
      <trkpt lat="47.65905" lon="6.12609">
        <ele>243.27</ele>
        <time>2018-01-31T09:46:31Z</time>
      </trkpt>
      <trkpt lat="47.659" lon="6.12608">
        <ele>243.19</ele>
        <time>2018-01-31T09:46:32Z</time>
      </trkpt>
      <trkpt lat="47.65895" lon="6.12606">
        <ele>243.13</ele>
        <time>2018-01-31T09:46:33Z</time>
      </trkpt>
      <trkpt lat="47.65889" lon="6.12604">
        <ele>243.07</ele>
        <time>2018-01-31T09:46:34Z</time>
      </trkpt>
      <trkpt lat="47.65884" lon="6.12603">
        <ele>243.01</ele>
        <time>2018-01-31T09:46:35Z</time>
      </trkpt>
      <trkpt lat="47.65878" lon="6.12602">
        <ele>242.96</ele>
        <time>2018-01-31T09:46:36Z</time>
      </trkpt>
      <trkpt lat="47.65873" lon="6.12601">
        <ele>242.91</ele>
        <time>2018-01-31T09:46:37Z</time>
      </trkpt>
      <trkpt lat="47.65867" lon="6.126">
        <ele>242.84</ele>
        <time>2018-01-31T09:46:38Z</time>
      </trkpt>
      <trkpt lat="47.65861" lon="6.12599">
        <ele>242.78</ele>
        <time>2018-01-31T09:46:39Z</time>
      </trkpt>
      <trkpt lat="47.65856" lon="6.12597">
        <ele>242.7</ele>
        <time>2018-01-31T09:46:40Z</time>
      </trkpt>
      <trkpt lat="47.65851" lon="6.12595">
        <ele>242.63</ele>
        <time>2018-01-31T09:46:41Z</time>
      </trkpt>
      <trkpt lat="47.65846" lon="6.12594">
        <ele>242.56</ele>
        <time>2018-01-31T09:46:42Z</time>
      </trkpt>
      <trkpt lat="47.6584" lon="6.12592">
        <ele>242.48</ele>
        <time>2018-01-31T09:46:43Z</time>
      </trkpt>
      <trkpt lat="47.65835" lon="6.1259">
        <ele>242.39</ele>
        <time>2018-01-31T09:46:44Z</time>
      </trkpt>
      <trkpt lat="47.6583" lon="6.12588">
        <ele>242.3</ele>
        <time>2018-01-31T09:46:45Z</time>
      </trkpt>
      <trkpt lat="47.65825" lon="6.12587">
        <ele>242.22</ele>
        <time>2018-01-31T09:46:46Z</time>
      </trkpt>
      <trkpt lat="47.65819" lon="6.12586">
        <ele>242.14</ele>
        <time>2018-01-31T09:46:47Z</time>
      </trkpt>
      <trkpt lat="47.65814" lon="6.12585">
        <ele>242.06</ele>
        <time>2018-01-31T09:46:48Z</time>
      </trkpt>
      <trkpt lat="47.65808" lon="6.12584">
        <ele>241.97</ele>
        <time>2018-01-31T09:46:49Z</time>
      </trkpt>
      <trkpt lat="47.65803" lon="6.12584">
        <ele>241.88</ele>
        <time>2018-01-31T09:46:50Z</time>
      </trkpt>
      <trkpt lat="47.65798" lon="6.12584">
        <ele>241.8</ele>
        <time>2018-01-31T09:46:51Z</time>
      </trkpt>
      <trkpt lat="47.65793" lon="6.12585">
        <ele>241.72</ele>
        <time>2018-01-31T09:46:52Z</time>
      </trkpt>
      <trkpt lat="47.65785" lon="6.12587">
        <ele>241.61</ele>
        <time>2018-01-31T09:46:54Z</time>
      </trkpt>
      <trkpt lat="47.65779" lon="6.12591">
        <ele>241.59</ele>
        <time>2018-01-31T09:46:56Z</time>
      </trkpt>
      <trkpt lat="47.65774" lon="6.12594">
        <ele>241.56</ele>
        <time>2018-01-31T09:46:58Z</time>
      </trkpt>
      <trkpt lat="47.65769" lon="6.12597">
        <ele>241.52</ele>
        <time>2018-01-31T09:47:00Z</time>
      </trkpt>
      <trkpt lat="47.65764" lon="6.126">
        <ele>241.43</ele>
        <time>2018-01-31T09:47:03Z</time>
      </trkpt>
      <trkpt lat="47.6576" lon="6.12604">
        <ele>241.21</ele>
        <time>2018-01-31T09:47:39Z</time>
      </trkpt>
      <trkpt lat="47.65756" lon="6.12608">
        <ele>241.2</ele>
        <time>2018-01-31T09:47:47Z</time>
      </trkpt>
      <trkpt lat="47.65752" lon="6.12601">
        <ele>241.18</ele>
        <time>2018-01-31T09:47:49Z</time>
      </trkpt>
      <trkpt lat="47.65753" lon="6.12594">
        <ele>241.15</ele>
        <time>2018-01-31T09:47:51Z</time>
      </trkpt>
      <trkpt lat="47.65755" lon="6.12589">
        <ele>241.11</ele>
        <time>2018-01-31T09:47:53Z</time>
      </trkpt>
      <trkpt lat="47.65753" lon="6.12595">
        <ele>240.99</ele>
        <time>2018-01-31T09:48:00Z</time>
      </trkpt>
      <trkpt lat="47.65752" lon="6.12603">
        <ele>240.96</ele>
        <time>2018-01-31T09:48:02Z</time>
      </trkpt>
      <trkpt lat="47.65753" lon="6.1261">
        <ele>240.93</ele>
        <time>2018-01-31T09:48:04Z</time>
      </trkpt>
      <trkpt lat="47.6576" lon="6.1261">
        <ele>240.89</ele>
        <time>2018-01-31T09:48:07Z</time>
      </trkpt>
      <trkpt lat="47.65764" lon="6.12605">
        <ele>240.86</ele>
        <time>2018-01-31T09:48:09Z</time>
      </trkpt>
      <trkpt lat="47.65768" lon="6.12599">
        <ele>240.83</ele>
        <time>2018-01-31T09:48:11Z</time>
      </trkpt>
      <trkpt lat="47.6577" lon="6.1259">
        <ele>240.79</ele>
        <time>2018-01-31T09:48:14Z</time>
      </trkpt>
      <trkpt lat="47.6577" lon="6.12582">
        <ele>240.74</ele>
        <time>2018-01-31T09:48:17Z</time>
      </trkpt>
      <trkpt lat="47.65771" lon="6.12575">
        <ele>240.5</ele>
        <time>2018-01-31T09:49:44Z</time>
      </trkpt>
      <trkpt lat="47.65767" lon="6.12571">
        <ele>240.46</ele>
        <time>2018-01-31T09:53:04Z</time>
      </trkpt>
      <trkpt lat="47.65763" lon="6.12574">
        <ele>240.44</ele>
        <time>2018-01-31T09:53:50Z</time>
      </trkpt>
      <trkpt lat="47.65768" lon="6.12576">
        <ele>240.4</ele>
        <time>2018-01-31T09:55:21Z</time>
      </trkpt>
      <trkpt lat="47.65772" lon="6.12578">
        <ele>240.4</ele>
        <time>2018-01-31T09:56:17Z</time>
      </trkpt>
      <trkpt lat="47.65774" lon="6.1257">
        <ele>240.38</ele>
        <time>2018-01-31T09:56:20Z</time>
      </trkpt>
      <trkpt lat="47.65774" lon="6.12563">
        <ele>240.37</ele>
        <time>2018-01-31T09:56:23Z</time>
      </trkpt>
      <trkpt lat="47.65776" lon="6.12557">
        <ele>240.35</ele>
        <time>2018-01-31T09:56:25Z</time>
      </trkpt>
      <trkpt lat="47.65779" lon="6.1255">
        <ele>240.34</ele>
        <time>2018-01-31T09:56:27Z</time>
      </trkpt>
      <trkpt lat="47.65781" lon="6.12541">
        <ele>240.33</ele>
        <time>2018-01-31T09:56:29Z</time>
      </trkpt>
      <trkpt lat="47.65783" lon="6.12532">
        <ele>240.32</ele>
        <time>2018-01-31T09:56:31Z</time>
      </trkpt>
      <trkpt lat="47.65786" lon="6.12522">
        <ele>240.31</ele>
        <time>2018-01-31T09:56:33Z</time>
      </trkpt>
      <trkpt lat="47.65789" lon="6.12513">
        <ele>240.29</ele>
        <time>2018-01-31T09:56:35Z</time>
      </trkpt>
      <trkpt lat="47.65791" lon="6.12503">
        <ele>240.28</ele>
        <time>2018-01-31T09:56:37Z</time>
      </trkpt>
      <trkpt lat="47.65793" lon="6.12493">
        <ele>240.27</ele>
        <time>2018-01-31T09:56:39Z</time>
      </trkpt>
      <trkpt lat="47.65795" lon="6.12483">
        <ele>240.25</ele>
        <time>2018-01-31T09:56:41Z</time>
      </trkpt>
      <trkpt lat="47.65797" lon="6.12472">
        <ele>240.23</ele>
        <time>2018-01-31T09:56:43Z</time>
      </trkpt>
      <trkpt lat="47.65799" lon="6.12464">
        <ele>240.21</ele>
        <time>2018-01-31T09:56:45Z</time>
      </trkpt>
      <trkpt lat="47.65801" lon="6.12455">
        <ele>240.2</ele>
        <time>2018-01-31T09:56:47Z</time>
      </trkpt>
      <trkpt lat="47.65802" lon="6.12447">
        <ele>240.18</ele>
        <time>2018-01-31T09:56:49Z</time>
      </trkpt>
      <trkpt lat="47.65804" lon="6.12439">
        <ele>240.16</ele>
        <time>2018-01-31T09:56:51Z</time>
      </trkpt>
      <trkpt lat="47.65806" lon="6.12431">
        <ele>240.14</ele>
        <time>2018-01-31T09:56:53Z</time>
      </trkpt>
      <trkpt lat="47.65808" lon="6.12424">
        <ele>240.13</ele>
        <time>2018-01-31T09:56:55Z</time>
      </trkpt>
      <trkpt lat="47.65809" lon="6.12416">
        <ele>240.11</ele>
        <time>2018-01-31T09:56:57Z</time>
      </trkpt>
      <trkpt lat="47.65811" lon="6.12409">
        <ele>240.09</ele>
        <time>2018-01-31T09:56:59Z</time>
      </trkpt>
      <trkpt lat="47.65813" lon="6.12403">
        <ele>240.08</ele>
        <time>2018-01-31T09:57:01Z</time>
      </trkpt>
      <trkpt lat="47.65816" lon="6.12395">
        <ele>240.06</ele>
        <time>2018-01-31T09:57:03Z</time>
      </trkpt>
      <trkpt lat="47.65818" lon="6.12389">
        <ele>240.05</ele>
        <time>2018-01-31T09:57:05Z</time>
      </trkpt>
      <trkpt lat="47.65821" lon="6.12382">
        <ele>240.03</ele>
        <time>2018-01-31T09:57:07Z</time>
      </trkpt>
      <trkpt lat="47.65824" lon="6.12375">
        <ele>240.02</ele>
        <time>2018-01-31T09:57:09Z</time>
      </trkpt>
      <trkpt lat="47.65827" lon="6.12368">
        <ele>240.01</ele>
        <time>2018-01-31T09:57:11Z</time>
      </trkpt>
      <trkpt lat="47.6583" lon="6.12359">
        <ele>239.99</ele>
        <time>2018-01-31T09:57:13Z</time>
      </trkpt>
      <trkpt lat="47.65834" lon="6.12353">
        <ele>239.98</ele>
        <time>2018-01-31T09:57:15Z</time>
      </trkpt>
      <trkpt lat="47.65836" lon="6.12345">
        <ele>239.97</ele>
        <time>2018-01-31T09:57:17Z</time>
      </trkpt>
      <trkpt lat="47.6584" lon="6.12339">
        <ele>239.95</ele>
        <time>2018-01-31T09:57:19Z</time>
      </trkpt>
      <trkpt lat="47.65843" lon="6.12332">
        <ele>239.94</ele>
        <time>2018-01-31T09:57:21Z</time>
      </trkpt>
      <trkpt lat="47.65846" lon="6.12325">
        <ele>239.92</ele>
        <time>2018-01-31T09:57:23Z</time>
      </trkpt>
      <trkpt lat="47.65849" lon="6.12318">
        <ele>239.91</ele>
        <time>2018-01-31T09:57:25Z</time>
      </trkpt>
      <trkpt lat="47.65852" lon="6.12312">
        <ele>239.9</ele>
        <time>2018-01-31T09:57:27Z</time>
      </trkpt>
      <trkpt lat="47.65856" lon="6.12305">
        <ele>239.88</ele>
        <time>2018-01-31T09:57:29Z</time>
      </trkpt>
      <trkpt lat="47.65859" lon="6.12299">
        <ele>239.87</ele>
        <time>2018-01-31T09:57:31Z</time>
      </trkpt>
      <trkpt lat="47.65863" lon="6.12292">
        <ele>239.86</ele>
        <time>2018-01-31T09:57:33Z</time>
      </trkpt>
      <trkpt lat="47.65866" lon="6.12285">
        <ele>239.85</ele>
        <time>2018-01-31T09:57:35Z</time>
      </trkpt>
      <trkpt lat="47.65869" lon="6.12277">
        <ele>239.84</ele>
        <time>2018-01-31T09:57:37Z</time>
      </trkpt>
      <trkpt lat="47.65872" lon="6.1227">
        <ele>239.83</ele>
        <time>2018-01-31T09:57:39Z</time>
      </trkpt>
      <trkpt lat="47.65875" lon="6.12263">
        <ele>239.82</ele>
        <time>2018-01-31T09:57:41Z</time>
      </trkpt>
      <trkpt lat="47.65877" lon="6.12256">
        <ele>239.81</ele>
        <time>2018-01-31T09:57:43Z</time>
      </trkpt>
      <trkpt lat="47.6588" lon="6.1225">
        <ele>239.79</ele>
        <time>2018-01-31T09:57:45Z</time>
      </trkpt>
      <trkpt lat="47.65883" lon="6.12244">
        <ele>239.77</ele>
        <time>2018-01-31T09:57:47Z</time>
      </trkpt>
      <trkpt lat="47.65887" lon="6.12236">
        <ele>239.75</ele>
        <time>2018-01-31T09:57:49Z</time>
      </trkpt>
      <trkpt lat="47.65892" lon="6.12229">
        <ele>239.73</ele>
        <time>2018-01-31T09:57:51Z</time>
      </trkpt>
      <trkpt lat="47.65896" lon="6.12222">
        <ele>239.7</ele>
        <time>2018-01-31T09:57:53Z</time>
      </trkpt>
      <trkpt lat="47.659" lon="6.12214">
        <ele>239.68</ele>
        <time>2018-01-31T09:57:55Z</time>
      </trkpt>
      <trkpt lat="47.65903" lon="6.12207">
        <ele>239.66</ele>
        <time>2018-01-31T09:57:57Z</time>
      </trkpt>
      <trkpt lat="47.65908" lon="6.122">
        <ele>239.64</ele>
        <time>2018-01-31T09:57:59Z</time>
      </trkpt>
      <trkpt lat="47.65912" lon="6.12192">
        <ele>239.61</ele>
        <time>2018-01-31T09:58:01Z</time>
      </trkpt>
      <trkpt lat="47.65915" lon="6.12185">
        <ele>239.59</ele>
        <time>2018-01-31T09:58:03Z</time>
      </trkpt>
      <trkpt lat="47.65917" lon="6.12179">
        <ele>239.57</ele>
        <time>2018-01-31T09:58:05Z</time>
      </trkpt>
      <trkpt lat="47.6592" lon="6.12174">
        <ele>239.54</ele>
        <time>2018-01-31T09:58:07Z</time>
      </trkpt>
      <trkpt lat="47.65924" lon="6.12167">
        <ele>239.51</ele>
        <time>2018-01-31T09:58:09Z</time>
      </trkpt>
      <trkpt lat="47.65927" lon="6.1216">
        <ele>239.49</ele>
        <time>2018-01-31T09:58:11Z</time>
      </trkpt>
      <trkpt lat="47.65931" lon="6.12154">
        <ele>239.46</ele>
        <time>2018-01-31T09:58:13Z</time>
      </trkpt>
      <trkpt lat="47.65936" lon="6.12146">
        <ele>239.44</ele>
        <time>2018-01-31T09:58:15Z</time>
      </trkpt>
      <trkpt lat="47.6594" lon="6.1214">
        <ele>239.41</ele>
        <time>2018-01-31T09:58:17Z</time>
      </trkpt>
      <trkpt lat="47.65944" lon="6.12133">
        <ele>239.39</ele>
        <time>2018-01-31T09:58:19Z</time>
      </trkpt>
      <trkpt lat="47.65949" lon="6.12127">
        <ele>239.36</ele>
        <time>2018-01-31T09:58:21Z</time>
      </trkpt>
      <trkpt lat="47.65952" lon="6.12121">
        <ele>239.33</ele>
        <time>2018-01-31T09:58:23Z</time>
      </trkpt>
      <trkpt lat="47.65956" lon="6.12115">
        <ele>239.3</ele>
        <time>2018-01-31T09:58:25Z</time>
      </trkpt>
      <trkpt lat="47.6596" lon="6.12108">
        <ele>239.27</ele>
        <time>2018-01-31T09:58:27Z</time>
      </trkpt>
      <trkpt lat="47.65964" lon="6.12102">
        <ele>239.24</ele>
        <time>2018-01-31T09:58:29Z</time>
      </trkpt>
      <trkpt lat="47.65967" lon="6.12096">
        <ele>239.21</ele>
        <time>2018-01-31T09:58:31Z</time>
      </trkpt>
      <trkpt lat="47.65971" lon="6.1209">
        <ele>239.18</ele>
        <time>2018-01-31T09:58:33Z</time>
      </trkpt>
      <trkpt lat="47.65975" lon="6.12084">
        <ele>239.15</ele>
        <time>2018-01-31T09:58:35Z</time>
      </trkpt>
      <trkpt lat="47.65979" lon="6.12077">
        <ele>239.12</ele>
        <time>2018-01-31T09:58:37Z</time>
      </trkpt>
      <trkpt lat="47.65983" lon="6.12072">
        <ele>239.09</ele>
        <time>2018-01-31T09:58:39Z</time>
      </trkpt>
      <trkpt lat="47.65987" lon="6.12066">
        <ele>239.05</ele>
        <time>2018-01-31T09:58:41Z</time>
      </trkpt>
      <trkpt lat="47.65991" lon="6.1206">
        <ele>239.02</ele>
        <time>2018-01-31T09:58:43Z</time>
      </trkpt>
      <trkpt lat="47.65994" lon="6.12055">
        <ele>238.99</ele>
        <time>2018-01-31T09:58:45Z</time>
      </trkpt>
      <trkpt lat="47.65998" lon="6.12048">
        <ele>238.96</ele>
        <time>2018-01-31T09:58:47Z</time>
      </trkpt>
      <trkpt lat="47.66002" lon="6.12041">
        <ele>238.92</ele>
        <time>2018-01-31T09:58:49Z</time>
      </trkpt>
      <trkpt lat="47.66005" lon="6.12036">
        <ele>238.89</ele>
        <time>2018-01-31T09:58:51Z</time>
      </trkpt>
      <trkpt lat="47.66009" lon="6.1203">
        <ele>238.86</ele>
        <time>2018-01-31T09:58:53Z</time>
      </trkpt>
      <trkpt lat="47.66012" lon="6.12024">
        <ele>238.83</ele>
        <time>2018-01-31T09:58:55Z</time>
      </trkpt>
      <trkpt lat="47.66016" lon="6.12019">
        <ele>238.8</ele>
        <time>2018-01-31T09:58:57Z</time>
      </trkpt>
      <trkpt lat="47.6602" lon="6.12013">
        <ele>238.77</ele>
        <time>2018-01-31T09:58:59Z</time>
      </trkpt>
      <trkpt lat="47.66023" lon="6.12007">
        <ele>238.74</ele>
        <time>2018-01-31T09:59:01Z</time>
      </trkpt>
      <trkpt lat="47.66027" lon="6.12001">
        <ele>238.71</ele>
        <time>2018-01-31T09:59:03Z</time>
      </trkpt>
      <trkpt lat="47.6603" lon="6.11996">
        <ele>238.68</ele>
        <time>2018-01-31T09:59:05Z</time>
      </trkpt>
      <trkpt lat="47.66032" lon="6.11988">
        <ele>238.65</ele>
        <time>2018-01-31T09:59:07Z</time>
      </trkpt>
      <trkpt lat="47.66032" lon="6.11979">
        <ele>238.63</ele>
        <time>2018-01-31T09:59:09Z</time>
      </trkpt>
      <trkpt lat="47.6603" lon="6.11971">
        <ele>238.61</ele>
        <time>2018-01-31T09:59:11Z</time>
      </trkpt>
      <trkpt lat="47.66027" lon="6.11964">
        <ele>238.59</ele>
        <time>2018-01-31T09:59:13Z</time>
      </trkpt>
      <trkpt lat="47.66023" lon="6.11958">
        <ele>238.56</ele>
        <time>2018-01-31T09:59:15Z</time>
      </trkpt>
      <trkpt lat="47.6602" lon="6.11953">
        <ele>238.54</ele>
        <time>2018-01-31T09:59:17Z</time>
      </trkpt>
      <trkpt lat="47.66017" lon="6.11947">
        <ele>238.52</ele>
        <time>2018-01-31T09:59:19Z</time>
      </trkpt>
      <trkpt lat="47.66014" lon="6.11942">
        <ele>238.5</ele>
        <time>2018-01-31T09:59:21Z</time>
      </trkpt>
      <trkpt lat="47.6601" lon="6.11937">
        <ele>238.48</ele>
        <time>2018-01-31T09:59:23Z</time>
      </trkpt>
      <trkpt lat="47.66008" lon="6.1193">
        <ele>238.46</ele>
        <time>2018-01-31T09:59:25Z</time>
      </trkpt>
      <trkpt lat="47.66005" lon="6.11924">
        <ele>238.44</ele>
        <time>2018-01-31T09:59:27Z</time>
      </trkpt>
      <trkpt lat="47.66002" lon="6.11918">
        <ele>238.43</ele>
        <time>2018-01-31T09:59:29Z</time>
      </trkpt>
      <trkpt lat="47.65999" lon="6.11912">
        <ele>238.41</ele>
        <time>2018-01-31T09:59:31Z</time>
      </trkpt>
      <trkpt lat="47.65996" lon="6.11906">
        <ele>238.39</ele>
        <time>2018-01-31T09:59:33Z</time>
      </trkpt>
      <trkpt lat="47.65993" lon="6.119">
        <ele>238.38</ele>
        <time>2018-01-31T09:59:35Z</time>
      </trkpt>
      <trkpt lat="47.6599" lon="6.11895">
        <ele>238.36</ele>
        <time>2018-01-31T09:59:37Z</time>
      </trkpt>
      <trkpt lat="47.65987" lon="6.11889">
        <ele>238.35</ele>
        <time>2018-01-31T09:59:39Z</time>
      </trkpt>
      <trkpt lat="47.65984" lon="6.11884">
        <ele>238.33</ele>
        <time>2018-01-31T09:59:41Z</time>
      </trkpt>
      <trkpt lat="47.65981" lon="6.11878">
        <ele>238.32</ele>
        <time>2018-01-31T09:59:43Z</time>
      </trkpt>
      <trkpt lat="47.65978" lon="6.11872">
        <ele>238.31</ele>
        <time>2018-01-31T09:59:45Z</time>
      </trkpt>
      <trkpt lat="47.65975" lon="6.11866">
        <ele>238.3</ele>
        <time>2018-01-31T09:59:47Z</time>
      </trkpt>
      <trkpt lat="47.65972" lon="6.11859">
        <ele>238.28</ele>
        <time>2018-01-31T09:59:49Z</time>
      </trkpt>
      <trkpt lat="47.65968" lon="6.11853">
        <ele>238.27</ele>
        <time>2018-01-31T09:59:51Z</time>
      </trkpt>
      <trkpt lat="47.65965" lon="6.11846">
        <ele>238.26</ele>
        <time>2018-01-31T09:59:53Z</time>
      </trkpt>
      <trkpt lat="47.65961" lon="6.11839">
        <ele>238.25</ele>
        <time>2018-01-31T09:59:55Z</time>
      </trkpt>
      <trkpt lat="47.65957" lon="6.11831">
        <ele>238.24</ele>
        <time>2018-01-31T09:59:57Z</time>
      </trkpt>
      <trkpt lat="47.65953" lon="6.11823">
        <ele>238.23</ele>
        <time>2018-01-31T09:59:59Z</time>
      </trkpt>
      <trkpt lat="47.65948" lon="6.11815">
        <ele>238.23</ele>
        <time>2018-01-31T10:00:01Z</time>
      </trkpt>
      <trkpt lat="47.65944" lon="6.11807">
        <ele>238.22</ele>
        <time>2018-01-31T10:00:03Z</time>
      </trkpt>
      <trkpt lat="47.65939" lon="6.11798">
        <ele>238.15</ele>
        <time>2018-01-31T10:00:05Z</time>
      </trkpt>
      <trkpt lat="47.65935" lon="6.1179">
        <ele>238.13</ele>
        <time>2018-01-31T10:00:07Z</time>
      </trkpt>
      <trkpt lat="47.6593" lon="6.11783">
        <ele>238.13</ele>
        <time>2018-01-31T10:00:09Z</time>
      </trkpt>
      <trkpt lat="47.65926" lon="6.11777">
        <ele>238.12</ele>
        <time>2018-01-31T10:00:11Z</time>
      </trkpt>
      <trkpt lat="47.65923" lon="6.11771">
        <ele>238.11</ele>
        <time>2018-01-31T10:00:13Z</time>
      </trkpt>
      <trkpt lat="47.65919" lon="6.11765">
        <ele>238.11</ele>
        <time>2018-01-31T10:00:15Z</time>
      </trkpt>
      <trkpt lat="47.65915" lon="6.11758">
        <ele>238.1</ele>
        <time>2018-01-31T10:00:17Z</time>
      </trkpt>
      <trkpt lat="47.65913" lon="6.11752">
        <ele>238.1</ele>
        <time>2018-01-31T10:00:19Z</time>
      </trkpt>
      <trkpt lat="47.6591" lon="6.11747">
        <ele>238.09</ele>
        <time>2018-01-31T10:00:21Z</time>
      </trkpt>
      <trkpt lat="47.65906" lon="6.11738">
        <ele>238.09</ele>
        <time>2018-01-31T10:00:24Z</time>
      </trkpt>
      <trkpt lat="47.65902" lon="6.11731">
        <ele>238.08</ele>
        <time>2018-01-31T10:00:27Z</time>
      </trkpt>
      <trkpt lat="47.65898" lon="6.11723">
        <ele>238.08</ele>
        <time>2018-01-31T10:00:30Z</time>
      </trkpt>
      <trkpt lat="47.65895" lon="6.11716">
        <ele>238.08</ele>
        <time>2018-01-31T10:00:32Z</time>
      </trkpt>
      <trkpt lat="47.65892" lon="6.1171">
        <ele>238.08</ele>
        <time>2018-01-31T10:00:34Z</time>
      </trkpt>
      <trkpt lat="47.65889" lon="6.11704">
        <ele>238.08</ele>
        <time>2018-01-31T10:00:36Z</time>
      </trkpt>
      <trkpt lat="47.65885" lon="6.11697">
        <ele>238.08</ele>
        <time>2018-01-31T10:00:38Z</time>
      </trkpt>
      <trkpt lat="47.65882" lon="6.11691">
        <ele>238.08</ele>
        <time>2018-01-31T10:00:40Z</time>
      </trkpt>
      <trkpt lat="47.65878" lon="6.11684">
        <ele>238.08</ele>
        <time>2018-01-31T10:00:42Z</time>
      </trkpt>
      <trkpt lat="47.65875" lon="6.11677">
        <ele>238.09</ele>
        <time>2018-01-31T10:00:44Z</time>
      </trkpt>
      <trkpt lat="47.65871" lon="6.11669">
        <ele>238.09</ele>
        <time>2018-01-31T10:00:46Z</time>
      </trkpt>
      <trkpt lat="47.65868" lon="6.11662">
        <ele>238.09</ele>
        <time>2018-01-31T10:00:48Z</time>
      </trkpt>
      <trkpt lat="47.65864" lon="6.11655">
        <ele>238.09</ele>
        <time>2018-01-31T10:00:50Z</time>
      </trkpt>
      <trkpt lat="47.6586" lon="6.11647">
        <ele>238.1</ele>
        <time>2018-01-31T10:00:52Z</time>
      </trkpt>
      <trkpt lat="47.65856" lon="6.11639">
        <ele>238.1</ele>
        <time>2018-01-31T10:00:54Z</time>
      </trkpt>
      <trkpt lat="47.65852" lon="6.11631">
        <ele>238.11</ele>
        <time>2018-01-31T10:00:56Z</time>
      </trkpt>
      <trkpt lat="47.65848" lon="6.11623">
        <ele>238.12</ele>
        <time>2018-01-31T10:00:58Z</time>
      </trkpt>
      <trkpt lat="47.65844" lon="6.11617">
        <ele>238.12</ele>
        <time>2018-01-31T10:01:00Z</time>
      </trkpt>
      <trkpt lat="47.65841" lon="6.1161">
        <ele>238.13</ele>
        <time>2018-01-31T10:01:02Z</time>
      </trkpt>
      <trkpt lat="47.65837" lon="6.11603">
        <ele>238.14</ele>
        <time>2018-01-31T10:01:04Z</time>
      </trkpt>
      <trkpt lat="47.65833" lon="6.11596">
        <ele>238.15</ele>
        <time>2018-01-31T10:01:06Z</time>
      </trkpt>
      <trkpt lat="47.65829" lon="6.11588">
        <ele>238.16</ele>
        <time>2018-01-31T10:01:08Z</time>
      </trkpt>
      <trkpt lat="47.65825" lon="6.1158">
        <ele>238.17</ele>
        <time>2018-01-31T10:01:10Z</time>
      </trkpt>
      <trkpt lat="47.65821" lon="6.11571">
        <ele>238.18</ele>
        <time>2018-01-31T10:01:12Z</time>
      </trkpt>
      <trkpt lat="47.65817" lon="6.11563">
        <ele>238.19</ele>
        <time>2018-01-31T10:01:14Z</time>
      </trkpt>
      <trkpt lat="47.65813" lon="6.11555">
        <ele>238.2</ele>
        <time>2018-01-31T10:01:16Z</time>
      </trkpt>
      <trkpt lat="47.65809" lon="6.11547">
        <ele>238.21</ele>
        <time>2018-01-31T10:01:18Z</time>
      </trkpt>
      <trkpt lat="47.65805" lon="6.11538">
        <ele>238.22</ele>
        <time>2018-01-31T10:01:20Z</time>
      </trkpt>
      <trkpt lat="47.65801" lon="6.11531">
        <ele>238.23</ele>
        <time>2018-01-31T10:01:22Z</time>
      </trkpt>
      <trkpt lat="47.65797" lon="6.11522">
        <ele>238.24</ele>
        <time>2018-01-31T10:01:24Z</time>
      </trkpt>
      <trkpt lat="47.65793" lon="6.11514">
        <ele>238.25</ele>
        <time>2018-01-31T10:01:26Z</time>
      </trkpt>
      <trkpt lat="47.65789" lon="6.11505">
        <ele>238.25</ele>
        <time>2018-01-31T10:01:28Z</time>
      </trkpt>
      <trkpt lat="47.65784" lon="6.11497">
        <ele>238.26</ele>
        <time>2018-01-31T10:01:30Z</time>
      </trkpt>
      <trkpt lat="47.6578" lon="6.11488">
        <ele>238.27</ele>
        <time>2018-01-31T10:01:32Z</time>
      </trkpt>
      <trkpt lat="47.65776" lon="6.1148">
        <ele>238.28</ele>
        <time>2018-01-31T10:01:34Z</time>
      </trkpt>
      <trkpt lat="47.65773" lon="6.11473">
        <ele>238.3</ele>
        <time>2018-01-31T10:01:36Z</time>
      </trkpt>
      <trkpt lat="47.65769" lon="6.11467">
        <ele>238.31</ele>
        <time>2018-01-31T10:01:38Z</time>
      </trkpt>
      <trkpt lat="47.65766" lon="6.11461">
        <ele>238.32</ele>
        <time>2018-01-31T10:01:40Z</time>
      </trkpt>
      <trkpt lat="47.65763" lon="6.11456">
        <ele>238.33</ele>
        <time>2018-01-31T10:01:42Z</time>
      </trkpt>
      <trkpt lat="47.6576" lon="6.11451">
        <ele>238.34</ele>
        <time>2018-01-31T10:01:44Z</time>
      </trkpt>
      <trkpt lat="47.65759" lon="6.11444">
        <ele>238.35</ele>
        <time>2018-01-31T10:01:47Z</time>
      </trkpt>
      <trkpt lat="47.6576" lon="6.11437">
        <ele>238.36</ele>
        <time>2018-01-31T10:01:49Z</time>
      </trkpt>
      <trkpt lat="47.65763" lon="6.1143">
        <ele>238.37</ele>
        <time>2018-01-31T10:01:51Z</time>
      </trkpt>
      <trkpt lat="47.65765" lon="6.11424">
        <ele>238.38</ele>
        <time>2018-01-31T10:01:53Z</time>
      </trkpt>
      <trkpt lat="47.65768" lon="6.11417">
        <ele>238.4</ele>
        <time>2018-01-31T10:01:55Z</time>
      </trkpt>
      <trkpt lat="47.65771" lon="6.11411">
        <ele>238.41</ele>
        <time>2018-01-31T10:01:57Z</time>
      </trkpt>
      <trkpt lat="47.65775" lon="6.11405">
        <ele>238.42</ele>
        <time>2018-01-31T10:01:59Z</time>
      </trkpt>
      <trkpt lat="47.65778" lon="6.11397">
        <ele>238.43</ele>
        <time>2018-01-31T10:02:01Z</time>
      </trkpt>
      <trkpt lat="47.65783" lon="6.11391">
        <ele>238.45</ele>
        <time>2018-01-31T10:02:03Z</time>
      </trkpt>
      <trkpt lat="47.65787" lon="6.11383">
        <ele>238.46</ele>
        <time>2018-01-31T10:02:05Z</time>
      </trkpt>
      <trkpt lat="47.65791" lon="6.11375">
        <ele>238.47</ele>
        <time>2018-01-31T10:02:07Z</time>
      </trkpt>
      <trkpt lat="47.65795" lon="6.11367">
        <ele>238.49</ele>
        <time>2018-01-31T10:02:09Z</time>
      </trkpt>
      <trkpt lat="47.65799" lon="6.1136">
        <ele>238.5</ele>
        <time>2018-01-31T10:02:11Z</time>
      </trkpt>
      <trkpt lat="47.65803" lon="6.11352">
        <ele>238.52</ele>
        <time>2018-01-31T10:02:13Z</time>
      </trkpt>
      <trkpt lat="47.65807" lon="6.11346">
        <ele>238.53</ele>
        <time>2018-01-31T10:02:15Z</time>
      </trkpt>
      <trkpt lat="47.6581" lon="6.1134">
        <ele>238.55</ele>
        <time>2018-01-31T10:02:17Z</time>
      </trkpt>
      <trkpt lat="47.65814" lon="6.11334">
        <ele>238.57</ele>
        <time>2018-01-31T10:02:19Z</time>
      </trkpt>
      <trkpt lat="47.65819" lon="6.11327">
        <ele>238.59</ele>
        <time>2018-01-31T10:02:21Z</time>
      </trkpt>
      <trkpt lat="47.65823" lon="6.1132">
        <ele>238.61</ele>
        <time>2018-01-31T10:02:23Z</time>
      </trkpt>
      <trkpt lat="47.65827" lon="6.11314">
        <ele>238.64</ele>
        <time>2018-01-31T10:02:25Z</time>
      </trkpt>
      <trkpt lat="47.65832" lon="6.11307">
        <ele>238.66</ele>
        <time>2018-01-31T10:02:27Z</time>
      </trkpt>
      <trkpt lat="47.65837" lon="6.11299">
        <ele>238.68</ele>
        <time>2018-01-31T10:02:29Z</time>
      </trkpt>
      <trkpt lat="47.65841" lon="6.11292">
        <ele>238.71</ele>
        <time>2018-01-31T10:02:31Z</time>
      </trkpt>
      <trkpt lat="47.65846" lon="6.11286">
        <ele>238.74</ele>
        <time>2018-01-31T10:02:33Z</time>
      </trkpt>
      <trkpt lat="47.65851" lon="6.11279">
        <ele>238.77</ele>
        <time>2018-01-31T10:02:35Z</time>
      </trkpt>
      <trkpt lat="47.65855" lon="6.11272">
        <ele>238.8</ele>
        <time>2018-01-31T10:02:37Z</time>
      </trkpt>
      <trkpt lat="47.6586" lon="6.11265">
        <ele>238.83</ele>
        <time>2018-01-31T10:02:39Z</time>
      </trkpt>
      <trkpt lat="47.65865" lon="6.11258">
        <ele>238.86</ele>
        <time>2018-01-31T10:02:41Z</time>
      </trkpt>
      <trkpt lat="47.6587" lon="6.11251">
        <ele>238.89</ele>
        <time>2018-01-31T10:02:43Z</time>
      </trkpt>
      <trkpt lat="47.65874" lon="6.11245">
        <ele>238.93</ele>
        <time>2018-01-31T10:02:45Z</time>
      </trkpt>
      <trkpt lat="47.65878" lon="6.11238">
        <ele>238.96</ele>
        <time>2018-01-31T10:02:47Z</time>
      </trkpt>
      <trkpt lat="47.65883" lon="6.11232">
        <ele>238.99</ele>
        <time>2018-01-31T10:02:49Z</time>
      </trkpt>
      <trkpt lat="47.65887" lon="6.11225">
        <ele>239.03</ele>
        <time>2018-01-31T10:02:51Z</time>
      </trkpt>
      <trkpt lat="47.65892" lon="6.11219">
        <ele>239.07</ele>
        <time>2018-01-31T10:02:53Z</time>
      </trkpt>
      <trkpt lat="47.65896" lon="6.11213">
        <ele>239.11</ele>
        <time>2018-01-31T10:02:55Z</time>
      </trkpt>
      <trkpt lat="47.659" lon="6.11207">
        <ele>239.15</ele>
        <time>2018-01-31T10:02:57Z</time>
      </trkpt>
      <trkpt lat="47.65905" lon="6.11201">
        <ele>239.19</ele>
        <time>2018-01-31T10:02:59Z</time>
      </trkpt>
      <trkpt lat="47.65909" lon="6.11194">
        <ele>239.23</ele>
        <time>2018-01-31T10:03:01Z</time>
      </trkpt>
      <trkpt lat="47.65914" lon="6.11188">
        <ele>239.28</ele>
        <time>2018-01-31T10:03:03Z</time>
      </trkpt>
      <trkpt lat="47.65918" lon="6.11182">
        <ele>239.33</ele>
        <time>2018-01-31T10:03:05Z</time>
      </trkpt>
      <trkpt lat="47.65922" lon="6.11176">
        <ele>239.37</ele>
        <time>2018-01-31T10:03:07Z</time>
      </trkpt>
      <trkpt lat="47.65926" lon="6.11171">
        <ele>239.42</ele>
        <time>2018-01-31T10:03:09Z</time>
      </trkpt>
      <trkpt lat="47.6593" lon="6.11165">
        <ele>239.47</ele>
        <time>2018-01-31T10:03:11Z</time>
      </trkpt>
      <trkpt lat="47.65935" lon="6.11158">
        <ele>239.52</ele>
        <time>2018-01-31T10:03:13Z</time>
      </trkpt>
      <trkpt lat="47.65939" lon="6.11151">
        <ele>239.57</ele>
        <time>2018-01-31T10:03:15Z</time>
      </trkpt>
      <trkpt lat="47.65942" lon="6.11146">
        <ele>239.63</ele>
        <time>2018-01-31T10:03:17Z</time>
      </trkpt>
      <trkpt lat="47.65945" lon="6.1114">
        <ele>239.69</ele>
        <time>2018-01-31T10:03:19Z</time>
      </trkpt>
      <trkpt lat="47.6595" lon="6.11134">
        <ele>239.75</ele>
        <time>2018-01-31T10:03:21Z</time>
      </trkpt>
      <trkpt lat="47.65953" lon="6.11129">
        <ele>239.8</ele>
        <time>2018-01-31T10:03:23Z</time>
      </trkpt>
      <trkpt lat="47.65959" lon="6.11123">
        <ele>239.89</ele>
        <time>2018-01-31T10:03:26Z</time>
      </trkpt>
      <trkpt lat="47.65964" lon="6.11117">
        <ele>239.99</ele>
        <time>2018-01-31T10:03:29Z</time>
      </trkpt>
      <trkpt lat="47.65968" lon="6.11112">
        <ele>240.05</ele>
        <time>2018-01-31T10:03:31Z</time>
      </trkpt>
      <trkpt lat="47.65972" lon="6.11105">
        <ele>240.12</ele>
        <time>2018-01-31T10:03:33Z</time>
      </trkpt>
      <trkpt lat="47.65976" lon="6.11099">
        <ele>240.18</ele>
        <time>2018-01-31T10:03:35Z</time>
      </trkpt>
      <trkpt lat="47.65981" lon="6.11094">
        <ele>240.25</ele>
        <time>2018-01-31T10:03:37Z</time>
      </trkpt>
      <trkpt lat="47.65986" lon="6.11088">
        <ele>240.32</ele>
        <time>2018-01-31T10:03:39Z</time>
      </trkpt>
      <trkpt lat="47.6599" lon="6.11083">
        <ele>240.39</ele>
        <time>2018-01-31T10:03:41Z</time>
      </trkpt>
      <trkpt lat="47.65995" lon="6.11076">
        <ele>240.46</ele>
        <time>2018-01-31T10:03:43Z</time>
      </trkpt>
      <trkpt lat="47.66" lon="6.1107">
        <ele>240.54</ele>
        <time>2018-01-31T10:03:45Z</time>
      </trkpt>
      <trkpt lat="47.66004" lon="6.11063">
        <ele>240.61</ele>
        <time>2018-01-31T10:03:47Z</time>
      </trkpt>
      <trkpt lat="47.66009" lon="6.11058">
        <ele>240.69</ele>
        <time>2018-01-31T10:03:49Z</time>
      </trkpt>
      <trkpt lat="47.66013" lon="6.11052">
        <ele>240.77</ele>
        <time>2018-01-31T10:03:51Z</time>
      </trkpt>
      <trkpt lat="47.66018" lon="6.11046">
        <ele>240.85</ele>
        <time>2018-01-31T10:03:53Z</time>
      </trkpt>
      <trkpt lat="47.66023" lon="6.11039">
        <ele>240.93</ele>
        <time>2018-01-31T10:03:55Z</time>
      </trkpt>
      <trkpt lat="47.66028" lon="6.11032">
        <ele>241.02</ele>
        <time>2018-01-31T10:03:57Z</time>
      </trkpt>
      <trkpt lat="47.66033" lon="6.11026">
        <ele>241.1</ele>
        <time>2018-01-31T10:03:59Z</time>
      </trkpt>
      <trkpt lat="47.66038" lon="6.11019">
        <ele>241.19</ele>
        <time>2018-01-31T10:04:01Z</time>
      </trkpt>
      <trkpt lat="47.66043" lon="6.11013">
        <ele>241.28</ele>
        <time>2018-01-31T10:04:03Z</time>
      </trkpt>
      <trkpt lat="47.66048" lon="6.11007">
        <ele>241.37</ele>
        <time>2018-01-31T10:04:05Z</time>
      </trkpt>
      <trkpt lat="47.66053" lon="6.11001">
        <ele>241.46</ele>
        <time>2018-01-31T10:04:07Z</time>
      </trkpt>
      <trkpt lat="47.66058" lon="6.10994">
        <ele>241.55</ele>
        <time>2018-01-31T10:04:09Z</time>
      </trkpt>
      <trkpt lat="47.66063" lon="6.10988">
        <ele>241.64</ele>
        <time>2018-01-31T10:04:11Z</time>
      </trkpt>
      <trkpt lat="47.66069" lon="6.10981">
        <ele>241.74</ele>
        <time>2018-01-31T10:04:13Z</time>
      </trkpt>
      <trkpt lat="47.66073" lon="6.10976">
        <ele>241.83</ele>
        <time>2018-01-31T10:04:15Z</time>
      </trkpt>
      <trkpt lat="47.66079" lon="6.1097">
        <ele>241.93</ele>
        <time>2018-01-31T10:04:17Z</time>
      </trkpt>
      <trkpt lat="47.66084" lon="6.10964">
        <ele>242.02</ele>
        <time>2018-01-31T10:04:19Z</time>
      </trkpt>
      <trkpt lat="47.66089" lon="6.10958">
        <ele>242.12</ele>
        <time>2018-01-31T10:04:21Z</time>
      </trkpt>
      <trkpt lat="47.66093" lon="6.10953">
        <ele>242.22</ele>
        <time>2018-01-31T10:04:23Z</time>
      </trkpt>
      <trkpt lat="47.66097" lon="6.10945">
        <ele>242.32</ele>
        <time>2018-01-31T10:04:25Z</time>
      </trkpt>
      <trkpt lat="47.661" lon="6.10939">
        <ele>242.42</ele>
        <time>2018-01-31T10:04:27Z</time>
      </trkpt>
      <trkpt lat="47.66104" lon="6.10934">
        <ele>242.52</ele>
        <time>2018-01-31T10:04:29Z</time>
      </trkpt>
      <trkpt lat="47.66108" lon="6.1093">
        <ele>242.62</ele>
        <time>2018-01-31T10:04:31Z</time>
      </trkpt>
      <trkpt lat="47.66113" lon="6.10924">
        <ele>242.72</ele>
        <time>2018-01-31T10:04:33Z</time>
      </trkpt>
      <trkpt lat="47.66116" lon="6.10919">
        <ele>242.82</ele>
        <time>2018-01-31T10:04:35Z</time>
      </trkpt>
      <trkpt lat="47.6612" lon="6.10914">
        <ele>242.92</ele>
        <time>2018-01-31T10:04:37Z</time>
      </trkpt>
      <trkpt lat="47.66124" lon="6.10909">
        <ele>243.02</ele>
        <time>2018-01-31T10:04:39Z</time>
      </trkpt>
      <trkpt lat="47.66128" lon="6.10902">
        <ele>243.18</ele>
        <time>2018-01-31T10:04:42Z</time>
      </trkpt>
      <trkpt lat="47.66132" lon="6.10898">
        <ele>243.28</ele>
        <time>2018-01-31T10:04:44Z</time>
      </trkpt>
      <trkpt lat="47.66136" lon="6.10893">
        <ele>243.39</ele>
        <time>2018-01-31T10:04:46Z</time>
      </trkpt>
      <trkpt lat="47.6614" lon="6.1089">
        <ele>243.5</ele>
        <time>2018-01-31T10:04:48Z</time>
      </trkpt>
      <trkpt lat="47.66144" lon="6.10885">
        <ele>243.61</ele>
        <time>2018-01-31T10:04:50Z</time>
      </trkpt>
      <trkpt lat="47.66148" lon="6.1088">
        <ele>243.71</ele>
        <time>2018-01-31T10:04:52Z</time>
      </trkpt>
      <trkpt lat="47.66152" lon="6.10874">
        <ele>243.82</ele>
        <time>2018-01-31T10:04:54Z</time>
      </trkpt>
      <trkpt lat="47.66158" lon="6.10867">
        <ele>243.99</ele>
        <time>2018-01-31T10:04:57Z</time>
      </trkpt>
      <trkpt lat="47.66162" lon="6.1086">
        <ele>244.1</ele>
        <time>2018-01-31T10:04:59Z</time>
      </trkpt>
      <trkpt lat="47.66166" lon="6.10855">
        <ele>244.21</ele>
        <time>2018-01-31T10:05:01Z</time>
      </trkpt>
      <trkpt lat="47.66172" lon="6.10848">
        <ele>244.32</ele>
        <time>2018-01-31T10:05:03Z</time>
      </trkpt>
      <trkpt lat="47.66177" lon="6.10843">
        <ele>244.43</ele>
        <time>2018-01-31T10:05:05Z</time>
      </trkpt>
      <trkpt lat="47.66183" lon="6.10837">
        <ele>244.53</ele>
        <time>2018-01-31T10:05:07Z</time>
      </trkpt>
      <trkpt lat="47.66185" lon="6.1083">
        <ele>244.63</ele>
        <time>2018-01-31T10:05:09Z</time>
      </trkpt>
      <trkpt lat="47.66186" lon="6.10821">
        <ele>244.73</ele>
        <time>2018-01-31T10:05:11Z</time>
      </trkpt>
      <trkpt lat="47.66189" lon="6.10815">
        <ele>244.82</ele>
        <time>2018-01-31T10:05:13Z</time>
      </trkpt>
      <trkpt lat="47.66194" lon="6.10808">
        <ele>244.92</ele>
        <time>2018-01-31T10:05:15Z</time>
      </trkpt>
      <trkpt lat="47.66198" lon="6.10802">
        <ele>245.01</ele>
        <time>2018-01-31T10:05:17Z</time>
      </trkpt>
      <trkpt lat="47.66202" lon="6.10797">
        <ele>245.11</ele>
        <time>2018-01-31T10:05:19Z</time>
      </trkpt>
      <trkpt lat="47.66207" lon="6.10791">
        <ele>245.2</ele>
        <time>2018-01-31T10:05:21Z</time>
      </trkpt>
      <trkpt lat="47.66211" lon="6.10788">
        <ele>245.29</ele>
        <time>2018-01-31T10:05:23Z</time>
      </trkpt>
      <trkpt lat="47.66217" lon="6.10783">
        <ele>245.39</ele>
        <time>2018-01-31T10:05:25Z</time>
      </trkpt>
      <trkpt lat="47.66221" lon="6.10779">
        <ele>245.48</ele>
        <time>2018-01-31T10:05:27Z</time>
      </trkpt>
      <trkpt lat="47.66224" lon="6.10773">
        <ele>245.57</ele>
        <time>2018-01-31T10:05:29Z</time>
      </trkpt>
      <trkpt lat="47.66226" lon="6.10766">
        <ele>245.66</ele>
        <time>2018-01-31T10:05:31Z</time>
      </trkpt>
      <trkpt lat="47.6623" lon="6.10761">
        <ele>245.8</ele>
        <time>2018-01-31T10:05:34Z</time>
      </trkpt>
      <trkpt lat="47.66228" lon="6.10754">
        <ele>245.94</ele>
        <time>2018-01-31T10:05:37Z</time>
      </trkpt>
      <trkpt lat="47.66231" lon="6.10747">
        <ele>246.33</ele>
        <time>2018-01-31T10:05:57Z</time>
      </trkpt>
      <trkpt lat="47.66236" lon="6.10741">
        <ele>246.42</ele>
        <time>2018-01-31T10:05:59Z</time>
      </trkpt>
      <trkpt lat="47.66241" lon="6.10732">
        <ele>246.85</ele>
        <time>2018-01-31T10:06:01Z</time>
      </trkpt>
      <trkpt lat="47.66244" lon="6.10721">
        <ele>246.94</ele>
        <time>2018-01-31T10:06:03Z</time>
      </trkpt>
      <trkpt lat="47.66246" lon="6.1071">
        <ele>247.21</ele>
        <time>2018-01-31T10:06:05Z</time>
      </trkpt>
      <trkpt lat="47.66245" lon="6.10702">
        <ele>247.45</ele>
        <time>2018-01-31T10:06:06Z</time>
      </trkpt>
      <trkpt lat="47.66244" lon="6.10695">
        <ele>247.66</ele>
        <time>2018-01-31T10:06:07Z</time>
      </trkpt>
      <trkpt lat="47.66242" lon="6.10687">
        <ele>247.84</ele>
        <time>2018-01-31T10:06:08Z</time>
      </trkpt>
      <trkpt lat="47.6624" lon="6.1068">
        <ele>247.98</ele>
        <time>2018-01-31T10:06:09Z</time>
      </trkpt>
      <trkpt lat="47.66238" lon="6.10671">
        <ele>248.09</ele>
        <time>2018-01-31T10:06:10Z</time>
      </trkpt>
      <trkpt lat="47.66235" lon="6.10662">
        <ele>248.19</ele>
        <time>2018-01-31T10:06:11Z</time>
      </trkpt>
      <trkpt lat="47.66232" lon="6.10654">
        <ele>248.26</ele>
        <time>2018-01-31T10:06:12Z</time>
      </trkpt>
      <trkpt lat="47.6623" lon="6.10646">
        <ele>248.32</ele>
        <time>2018-01-31T10:06:13Z</time>
      </trkpt>
      <trkpt lat="47.66227" lon="6.10638">
        <ele>248.37</ele>
        <time>2018-01-31T10:06:14Z</time>
      </trkpt>
      <trkpt lat="47.66224" lon="6.1063">
        <ele>248.4</ele>
        <time>2018-01-31T10:06:15Z</time>
      </trkpt>
      <trkpt lat="47.66221" lon="6.10621">
        <ele>248.44</ele>
        <time>2018-01-31T10:06:16Z</time>
      </trkpt>
      <trkpt lat="47.66217" lon="6.10612">
        <ele>248.47</ele>
        <time>2018-01-31T10:06:17Z</time>
      </trkpt>
      <trkpt lat="47.66213" lon="6.10603">
        <ele>248.5</ele>
        <time>2018-01-31T10:06:18Z</time>
      </trkpt>
      <trkpt lat="47.66209" lon="6.10595">
        <ele>248.53</ele>
        <time>2018-01-31T10:06:19Z</time>
      </trkpt>
      <trkpt lat="47.66205" lon="6.10587">
        <ele>248.55</ele>
        <time>2018-01-31T10:06:20Z</time>
      </trkpt>
      <trkpt lat="47.66201" lon="6.1058">
        <ele>248.58</ele>
        <time>2018-01-31T10:06:21Z</time>
      </trkpt>
      <trkpt lat="47.66197" lon="6.10572">
        <ele>248.6</ele>
        <time>2018-01-31T10:06:22Z</time>
      </trkpt>
      <trkpt lat="47.66193" lon="6.10566">
        <ele>248.62</ele>
        <time>2018-01-31T10:06:23Z</time>
      </trkpt>
      <trkpt lat="47.66189" lon="6.1056">
        <ele>248.66</ele>
        <time>2018-01-31T10:06:24Z</time>
      </trkpt>
      <trkpt lat="47.66185" lon="6.10553">
        <ele>248.7</ele>
        <time>2018-01-31T10:06:25Z</time>
      </trkpt>
      <trkpt lat="47.66182" lon="6.10547">
        <ele>248.74</ele>
        <time>2018-01-31T10:06:26Z</time>
      </trkpt>
      <trkpt lat="47.66179" lon="6.10541">
        <ele>248.78</ele>
        <time>2018-01-31T10:06:27Z</time>
      </trkpt>
      <trkpt lat="47.66176" lon="6.10536">
        <ele>248.81</ele>
        <time>2018-01-31T10:06:28Z</time>
      </trkpt>
      <trkpt lat="47.66169" lon="6.10527">
        <ele>248.86</ele>
        <time>2018-01-31T10:06:30Z</time>
      </trkpt>
      <trkpt lat="47.66164" lon="6.10517">
        <ele>248.89</ele>
        <time>2018-01-31T10:06:32Z</time>
      </trkpt>
      <trkpt lat="47.66159" lon="6.10509">
        <ele>248.91</ele>
        <time>2018-01-31T10:06:34Z</time>
      </trkpt>
      <trkpt lat="47.66155" lon="6.10502">
        <ele>248.92</ele>
        <time>2018-01-31T10:06:36Z</time>
      </trkpt>
      <trkpt lat="47.6615" lon="6.10494">
        <ele>248.94</ele>
        <time>2018-01-31T10:06:38Z</time>
      </trkpt>
      <trkpt lat="47.66146" lon="6.10487">
        <ele>248.96</ele>
        <time>2018-01-31T10:06:40Z</time>
      </trkpt>
      <trkpt lat="47.66141" lon="6.1048">
        <ele>248.99</ele>
        <time>2018-01-31T10:06:42Z</time>
      </trkpt>
      <trkpt lat="47.66136" lon="6.10472">
        <ele>249.02</ele>
        <time>2018-01-31T10:06:44Z</time>
      </trkpt>
      <trkpt lat="47.66131" lon="6.10462">
        <ele>249.12</ele>
        <time>2018-01-31T10:06:46Z</time>
      </trkpt>
      <trkpt lat="47.66126" lon="6.10454">
        <ele>249.14</ele>
        <time>2018-01-31T10:06:48Z</time>
      </trkpt>
      <trkpt lat="47.66121" lon="6.10446">
        <ele>249.13</ele>
        <time>2018-01-31T10:06:50Z</time>
      </trkpt>
      <trkpt lat="47.66116" lon="6.10437">
        <ele>249.07</ele>
        <time>2018-01-31T10:06:52Z</time>
      </trkpt>
      <trkpt lat="47.6611" lon="6.10429">
        <ele>248.96</ele>
        <time>2018-01-31T10:06:54Z</time>
      </trkpt>
      <trkpt lat="47.66106" lon="6.10421">
        <ele>248.94</ele>
        <time>2018-01-31T10:06:56Z</time>
      </trkpt>
      <trkpt lat="47.66103" lon="6.10413">
        <ele>248.93</ele>
        <time>2018-01-31T10:06:58Z</time>
      </trkpt>
      <trkpt lat="47.66098" lon="6.10406">
        <ele>248.91</ele>
        <time>2018-01-31T10:07:00Z</time>
      </trkpt>
      <trkpt lat="47.66092" lon="6.10399">
        <ele>248.81</ele>
        <time>2018-01-31T10:07:02Z</time>
      </trkpt>
      <trkpt lat="47.66087" lon="6.10393">
        <ele>248.8</ele>
        <time>2018-01-31T10:07:04Z</time>
      </trkpt>
      <trkpt lat="47.66082" lon="6.10387">
        <ele>248.79</ele>
        <time>2018-01-31T10:07:06Z</time>
      </trkpt>
      <trkpt lat="47.66081" lon="6.10378">
        <ele>248.77</ele>
        <time>2018-01-31T10:07:08Z</time>
      </trkpt>
      <trkpt lat="47.66082" lon="6.10371">
        <ele>248.74</ele>
        <time>2018-01-31T10:07:10Z</time>
      </trkpt>
      <trkpt lat="47.66086" lon="6.10368">
        <ele>248.71</ele>
        <time>2018-01-31T10:07:12Z</time>
      </trkpt>
      <trkpt lat="47.6609" lon="6.10373">
        <ele>248.69</ele>
        <time>2018-01-31T10:07:14Z</time>
      </trkpt>
      <trkpt lat="47.66092" lon="6.10382">
        <ele>248.66</ele>
        <time>2018-01-31T10:07:16Z</time>
      </trkpt>
      <trkpt lat="47.66095" lon="6.10391">
        <ele>248.64</ele>
        <time>2018-01-31T10:07:18Z</time>
      </trkpt>
      <trkpt lat="47.66098" lon="6.10401">
        <ele>248.61</ele>
        <time>2018-01-31T10:07:20Z</time>
      </trkpt>
      <trkpt lat="47.66102" lon="6.1041">
        <ele>248.59</ele>
        <time>2018-01-31T10:07:22Z</time>
      </trkpt>
      <trkpt lat="47.66106" lon="6.10415">
        <ele>248.58</ele>
        <time>2018-01-31T10:07:24Z</time>
      </trkpt>
      <trkpt lat="47.66112" lon="6.10419">
        <ele>248.57</ele>
        <time>2018-01-31T10:07:26Z</time>
      </trkpt>
      <trkpt lat="47.6612" lon="6.10417">
        <ele>248.56</ele>
        <time>2018-01-31T10:07:28Z</time>
      </trkpt>
      <trkpt lat="47.66127" lon="6.10413">
        <ele>248.54</ele>
        <time>2018-01-31T10:07:30Z</time>
      </trkpt>
      <trkpt lat="47.66135" lon="6.10409">
        <ele>248.51</ele>
        <time>2018-01-31T10:07:32Z</time>
      </trkpt>
      <trkpt lat="47.66141" lon="6.10405">
        <ele>248.47</ele>
        <time>2018-01-31T10:07:34Z</time>
      </trkpt>
      <trkpt lat="47.66148" lon="6.10401">
        <ele>248.28</ele>
        <time>2018-01-31T10:07:36Z</time>
      </trkpt>
      <trkpt lat="47.66153" lon="6.10399">
        <ele>248.03</ele>
        <time>2018-01-31T10:07:37Z</time>
      </trkpt>
      <trkpt lat="47.66158" lon="6.10397">
        <ele>247.69</ele>
        <time>2018-01-31T10:07:38Z</time>
      </trkpt>
      <trkpt lat="47.66164" lon="6.10395">
        <ele>247.36</ele>
        <time>2018-01-31T10:07:39Z</time>
      </trkpt>
      <trkpt lat="47.66169" lon="6.10393">
        <ele>247.04</ele>
        <time>2018-01-31T10:07:40Z</time>
      </trkpt>
      <trkpt lat="47.66178" lon="6.1039">
        <ele>246.7</ele>
        <time>2018-01-31T10:07:42Z</time>
      </trkpt>
      <trkpt lat="47.66185" lon="6.1039">
        <ele>246.63</ele>
        <time>2018-01-31T10:07:43Z</time>
      </trkpt>
      <trkpt lat="47.66192" lon="6.10388">
        <ele>246.61</ele>
        <time>2018-01-31T10:07:44Z</time>
      </trkpt>
      <trkpt lat="47.662" lon="6.10385">
        <ele>246.6</ele>
        <time>2018-01-31T10:07:45Z</time>
      </trkpt>
      <trkpt lat="47.66208" lon="6.10381">
        <ele>246.6</ele>
        <time>2018-01-31T10:07:46Z</time>
      </trkpt>
      <trkpt lat="47.66214" lon="6.10375">
        <ele>246.59</ele>
        <time>2018-01-31T10:07:47Z</time>
      </trkpt>
      <trkpt lat="47.6622" lon="6.1037">
        <ele>246.57</ele>
        <time>2018-01-31T10:07:48Z</time>
      </trkpt>
      <trkpt lat="47.66226" lon="6.10365">
        <ele>246.53</ele>
        <time>2018-01-31T10:07:49Z</time>
      </trkpt>
      <trkpt lat="47.66231" lon="6.10361">
        <ele>246.5</ele>
        <time>2018-01-31T10:07:50Z</time>
      </trkpt>
      <trkpt lat="47.66236" lon="6.10357">
        <ele>246.47</ele>
        <time>2018-01-31T10:07:51Z</time>
      </trkpt>
      <trkpt lat="47.66241" lon="6.10352">
        <ele>246.45</ele>
        <time>2018-01-31T10:07:52Z</time>
      </trkpt>
      <trkpt lat="47.66246" lon="6.10348">
        <ele>246.44</ele>
        <time>2018-01-31T10:07:53Z</time>
      </trkpt>
      <trkpt lat="47.6625" lon="6.10344">
        <ele>246.44</ele>
        <time>2018-01-31T10:07:54Z</time>
      </trkpt>
      <trkpt lat="47.66254" lon="6.1034">
        <ele>246.45</ele>
        <time>2018-01-31T10:07:55Z</time>
      </trkpt>
      <trkpt lat="47.66258" lon="6.10336">
        <ele>246.49</ele>
        <time>2018-01-31T10:07:56Z</time>
      </trkpt>
      <trkpt lat="47.66262" lon="6.10332">
        <ele>246.51</ele>
        <time>2018-01-31T10:07:57Z</time>
      </trkpt>
      <trkpt lat="47.66266" lon="6.10329">
        <ele>246.49</ele>
        <time>2018-01-31T10:07:58Z</time>
      </trkpt>
      <trkpt lat="47.6627" lon="6.10325">
        <ele>246.44</ele>
        <time>2018-01-31T10:07:59Z</time>
      </trkpt>
      <trkpt lat="47.66278" lon="6.10319">
        <ele>246.31</ele>
        <time>2018-01-31T10:08:01Z</time>
      </trkpt>
      <trkpt lat="47.66285" lon="6.10313">
        <ele>246.18</ele>
        <time>2018-01-31T10:08:03Z</time>
      </trkpt>
      <trkpt lat="47.66292" lon="6.10308">
        <ele>246.15</ele>
        <time>2018-01-31T10:08:05Z</time>
      </trkpt>
      <trkpt lat="47.66299" lon="6.10302">
        <ele>245.92</ele>
        <time>2018-01-31T10:08:07Z</time>
      </trkpt>
      <trkpt lat="47.66303" lon="6.10299">
        <ele>245.81</ele>
        <time>2018-01-31T10:08:08Z</time>
      </trkpt>
      <trkpt lat="47.66307" lon="6.10296">
        <ele>245.73</ele>
        <time>2018-01-31T10:08:09Z</time>
      </trkpt>
      <trkpt lat="47.66311" lon="6.10293">
        <ele>245.65</ele>
        <time>2018-01-31T10:08:10Z</time>
      </trkpt>
      <trkpt lat="47.66316" lon="6.1029">
        <ele>245.58</ele>
        <time>2018-01-31T10:08:11Z</time>
      </trkpt>
      <trkpt lat="47.66324" lon="6.10285">
        <ele>245.52</ele>
        <time>2018-01-31T10:08:13Z</time>
      </trkpt>
      <trkpt lat="47.66331" lon="6.10281">
        <ele>245.46</ele>
        <time>2018-01-31T10:08:15Z</time>
      </trkpt>
      <trkpt lat="47.66338" lon="6.10276">
        <ele>245.33</ele>
        <time>2018-01-31T10:08:17Z</time>
      </trkpt>
      <trkpt lat="47.66346" lon="6.10271">
        <ele>245.17</ele>
        <time>2018-01-31T10:08:19Z</time>
      </trkpt>
      <trkpt lat="47.6635" lon="6.10268">
        <ele>245.1</ele>
        <time>2018-01-31T10:08:20Z</time>
      </trkpt>
      <trkpt lat="47.66355" lon="6.10264">
        <ele>245.03</ele>
        <time>2018-01-31T10:08:21Z</time>
      </trkpt>
      <trkpt lat="47.6636" lon="6.10261">
        <ele>244.94</ele>
        <time>2018-01-31T10:08:22Z</time>
      </trkpt>
      <trkpt lat="47.66364" lon="6.10259">
        <ele>244.86</ele>
        <time>2018-01-31T10:08:23Z</time>
      </trkpt>
      <trkpt lat="47.66368" lon="6.10256">
        <ele>244.82</ele>
        <time>2018-01-31T10:08:24Z</time>
      </trkpt>
      <trkpt lat="47.66373" lon="6.10254">
        <ele>244.79</ele>
        <time>2018-01-31T10:08:25Z</time>
      </trkpt>
      <trkpt lat="47.66377" lon="6.10251">
        <ele>244.78</ele>
        <time>2018-01-31T10:08:26Z</time>
      </trkpt>
      <trkpt lat="47.66382" lon="6.10248">
        <ele>244.78</ele>
        <time>2018-01-31T10:08:27Z</time>
      </trkpt>
      <trkpt lat="47.66386" lon="6.10245">
        <ele>244.79</ele>
        <time>2018-01-31T10:08:28Z</time>
      </trkpt>
      <trkpt lat="47.66389" lon="6.10239">
        <ele>244.76</ele>
        <time>2018-01-31T10:08:29Z</time>
      </trkpt>
      <trkpt lat="47.66392" lon="6.10234">
        <ele>244.71</ele>
        <time>2018-01-31T10:08:30Z</time>
      </trkpt>
      <trkpt lat="47.66395" lon="6.10226">
        <ele>244.59</ele>
        <time>2018-01-31T10:08:31Z</time>
      </trkpt>
      <trkpt lat="47.66396" lon="6.10218">
        <ele>244.41</ele>
        <time>2018-01-31T10:08:32Z</time>
      </trkpt>
      <trkpt lat="47.66397" lon="6.1021">
        <ele>244.17</ele>
        <time>2018-01-31T10:08:33Z</time>
      </trkpt>
      <trkpt lat="47.66398" lon="6.102">
        <ele>243.93</ele>
        <time>2018-01-31T10:08:34Z</time>
      </trkpt>
      <trkpt lat="47.66398" lon="6.1019">
        <ele>243.68</ele>
        <time>2018-01-31T10:08:35Z</time>
      </trkpt>
      <trkpt lat="47.664" lon="6.10182">
        <ele>243.45</ele>
        <time>2018-01-31T10:08:36Z</time>
      </trkpt>
      <trkpt lat="47.66401" lon="6.10173">
        <ele>243.25</ele>
        <time>2018-01-31T10:08:37Z</time>
      </trkpt>
      <trkpt lat="47.66403" lon="6.10164">
        <ele>243.09</ele>
        <time>2018-01-31T10:08:38Z</time>
      </trkpt>
      <trkpt lat="47.66404" lon="6.10157">
        <ele>242.96</ele>
        <time>2018-01-31T10:08:39Z</time>
      </trkpt>
      <trkpt lat="47.66406" lon="6.1015">
        <ele>242.86</ele>
        <time>2018-01-31T10:08:40Z</time>
      </trkpt>
      <trkpt lat="47.66408" lon="6.10143">
        <ele>242.79</ele>
        <time>2018-01-31T10:08:41Z</time>
      </trkpt>
      <trkpt lat="47.6641" lon="6.10137">
        <ele>242.69</ele>
        <time>2018-01-31T10:08:42Z</time>
      </trkpt>
      <trkpt lat="47.66412" lon="6.1013">
        <ele>242.61</ele>
        <time>2018-01-31T10:08:43Z</time>
      </trkpt>
      <trkpt lat="47.66414" lon="6.10123">
        <ele>242.53</ele>
        <time>2018-01-31T10:08:44Z</time>
      </trkpt>
      <trkpt lat="47.66416" lon="6.10117">
        <ele>242.45</ele>
        <time>2018-01-31T10:08:45Z</time>
      </trkpt>
      <trkpt lat="47.66417" lon="6.1011">
        <ele>242.36</ele>
        <time>2018-01-31T10:08:46Z</time>
      </trkpt>
      <trkpt lat="47.66418" lon="6.10101">
        <ele>242.27</ele>
        <time>2018-01-31T10:08:47Z</time>
      </trkpt>
      <trkpt lat="47.66419" lon="6.10093">
        <ele>242.17</ele>
        <time>2018-01-31T10:08:48Z</time>
      </trkpt>
      <trkpt lat="47.6642" lon="6.10085">
        <ele>242.08</ele>
        <time>2018-01-31T10:08:49Z</time>
      </trkpt>
      <trkpt lat="47.66421" lon="6.10077">
        <ele>241.97</ele>
        <time>2018-01-31T10:08:50Z</time>
      </trkpt>
      <trkpt lat="47.66423" lon="6.10069">
        <ele>241.88</ele>
        <time>2018-01-31T10:08:51Z</time>
      </trkpt>
      <trkpt lat="47.66424" lon="6.1006">
        <ele>241.77</ele>
        <time>2018-01-31T10:08:52Z</time>
      </trkpt>
      <trkpt lat="47.66426" lon="6.10052">
        <ele>241.64</ele>
        <time>2018-01-31T10:08:53Z</time>
      </trkpt>
      <trkpt lat="47.66427" lon="6.10044">
        <ele>241.5</ele>
        <time>2018-01-31T10:08:54Z</time>
      </trkpt>
      <trkpt lat="47.66429" lon="6.10036">
        <ele>241.35</ele>
        <time>2018-01-31T10:08:55Z</time>
      </trkpt>
      <trkpt lat="47.6643" lon="6.10027">
        <ele>241.22</ele>
        <time>2018-01-31T10:08:56Z</time>
      </trkpt>
      <trkpt lat="47.66431" lon="6.10018">
        <ele>241.09</ele>
        <time>2018-01-31T10:08:57Z</time>
      </trkpt>
      <trkpt lat="47.66431" lon="6.1001">
        <ele>240.98</ele>
        <time>2018-01-31T10:08:58Z</time>
      </trkpt>
      <trkpt lat="47.66432" lon="6.10002">
        <ele>240.88</ele>
        <time>2018-01-31T10:08:59Z</time>
      </trkpt>
      <trkpt lat="47.66431" lon="6.09993">
        <ele>240.8</ele>
        <time>2018-01-31T10:09:00Z</time>
      </trkpt>
      <trkpt lat="47.66431" lon="6.09984">
        <ele>240.73</ele>
        <time>2018-01-31T10:09:01Z</time>
      </trkpt>
      <trkpt lat="47.66431" lon="6.09975">
        <ele>240.68</ele>
        <time>2018-01-31T10:09:02Z</time>
      </trkpt>
      <trkpt lat="47.66431" lon="6.09965">
        <ele>240.62</ele>
        <time>2018-01-31T10:09:03Z</time>
      </trkpt>
      <trkpt lat="47.66431" lon="6.09956">
        <ele>240.57</ele>
        <time>2018-01-31T10:09:04Z</time>
      </trkpt>
      <trkpt lat="47.66432" lon="6.09947">
        <ele>240.51</ele>
        <time>2018-01-31T10:09:05Z</time>
      </trkpt>
      <trkpt lat="47.66432" lon="6.09937">
        <ele>240.44</ele>
        <time>2018-01-31T10:09:06Z</time>
      </trkpt>
      <trkpt lat="47.66432" lon="6.09928">
        <ele>240.37</ele>
        <time>2018-01-31T10:09:07Z</time>
      </trkpt>
      <trkpt lat="47.66432" lon="6.09918">
        <ele>240.31</ele>
        <time>2018-01-31T10:09:08Z</time>
      </trkpt>
      <trkpt lat="47.66432" lon="6.09909">
        <ele>240.25</ele>
        <time>2018-01-31T10:09:09Z</time>
      </trkpt>
      <trkpt lat="47.66432" lon="6.09899">
        <ele>240.18</ele>
        <time>2018-01-31T10:09:10Z</time>
      </trkpt>
      <trkpt lat="47.66432" lon="6.0989">
        <ele>240.1</ele>
        <time>2018-01-31T10:09:11Z</time>
      </trkpt>
      <trkpt lat="47.66431" lon="6.09881">
        <ele>240</ele>
        <time>2018-01-31T10:09:12Z</time>
      </trkpt>
      <trkpt lat="47.6643" lon="6.09871">
        <ele>239.94</ele>
        <time>2018-01-31T10:09:13Z</time>
      </trkpt>
      <trkpt lat="47.6643" lon="6.09861">
        <ele>239.92</ele>
        <time>2018-01-31T10:09:14Z</time>
      </trkpt>
      <trkpt lat="47.66427" lon="6.09852">
        <ele>239.91</ele>
        <time>2018-01-31T10:09:15Z</time>
      </trkpt>
      <trkpt lat="47.66425" lon="6.09843">
        <ele>239.88</ele>
        <time>2018-01-31T10:09:16Z</time>
      </trkpt>
      <trkpt lat="47.66422" lon="6.09835">
        <ele>239.83</ele>
        <time>2018-01-31T10:09:17Z</time>
      </trkpt>
      <trkpt lat="47.66419" lon="6.09826">
        <ele>239.78</ele>
        <time>2018-01-31T10:09:18Z</time>
      </trkpt>
      <trkpt lat="47.66416" lon="6.09819">
        <ele>239.75</ele>
        <time>2018-01-31T10:09:19Z</time>
      </trkpt>
      <trkpt lat="47.66414" lon="6.09811">
        <ele>239.74</ele>
        <time>2018-01-31T10:09:20Z</time>
      </trkpt>
      <trkpt lat="47.66412" lon="6.09802">
        <ele>239.79</ele>
        <time>2018-01-31T10:09:21Z</time>
      </trkpt>
      <trkpt lat="47.6641" lon="6.09794">
        <ele>239.84</ele>
        <time>2018-01-31T10:09:22Z</time>
      </trkpt>
      <trkpt lat="47.66409" lon="6.09786">
        <ele>239.89</ele>
        <time>2018-01-31T10:09:23Z</time>
      </trkpt>
      <trkpt lat="47.66409" lon="6.09778">
        <ele>239.94</ele>
        <time>2018-01-31T10:09:24Z</time>
      </trkpt>
      <trkpt lat="47.66408" lon="6.0977">
        <ele>239.98</ele>
        <time>2018-01-31T10:09:25Z</time>
      </trkpt>
      <trkpt lat="47.66407" lon="6.09762">
        <ele>240.01</ele>
        <time>2018-01-31T10:09:26Z</time>
      </trkpt>
      <trkpt lat="47.66406" lon="6.09754">
        <ele>240.06</ele>
        <time>2018-01-31T10:09:27Z</time>
      </trkpt>
      <trkpt lat="47.66405" lon="6.09746">
        <ele>240.11</ele>
        <time>2018-01-31T10:09:28Z</time>
      </trkpt>
      <trkpt lat="47.66405" lon="6.09738">
        <ele>240.16</ele>
        <time>2018-01-31T10:09:29Z</time>
      </trkpt>
      <trkpt lat="47.66406" lon="6.0973">
        <ele>240.18</ele>
        <time>2018-01-31T10:09:30Z</time>
      </trkpt>
      <trkpt lat="47.66407" lon="6.09723">
        <ele>240.16</ele>
        <time>2018-01-31T10:09:31Z</time>
      </trkpt>
      <trkpt lat="47.66408" lon="6.09717">
        <ele>240.24</ele>
        <time>2018-01-31T10:09:32Z</time>
      </trkpt>
      <trkpt lat="47.66412" lon="6.09705">
        <ele>240.31</ele>
        <time>2018-01-31T10:09:34Z</time>
      </trkpt>
      <trkpt lat="47.66414" lon="6.09694">
        <ele>240.32</ele>
        <time>2018-01-31T10:09:36Z</time>
      </trkpt>
      <trkpt lat="47.66415" lon="6.09688">
        <ele>240.35</ele>
        <time>2018-01-31T10:09:37Z</time>
      </trkpt>
      <trkpt lat="47.66417" lon="6.09677">
        <ele>240.36</ele>
        <time>2018-01-31T10:09:39Z</time>
      </trkpt>
      <trkpt lat="47.6642" lon="6.09668">
        <ele>240.37</ele>
        <time>2018-01-31T10:09:41Z</time>
      </trkpt>
      <trkpt lat="47.66422" lon="6.0966">
        <ele>240.38</ele>
        <time>2018-01-31T10:09:43Z</time>
      </trkpt>
      <trkpt lat="47.66423" lon="6.09652">
        <ele>240.39</ele>
        <time>2018-01-31T10:09:45Z</time>
      </trkpt>
      <trkpt lat="47.66425" lon="6.09644">
        <ele>240.45</ele>
        <time>2018-01-31T10:09:47Z</time>
      </trkpt>
      <trkpt lat="47.66427" lon="6.09636">
        <ele>240.51</ele>
        <time>2018-01-31T10:09:49Z</time>
      </trkpt>
      <trkpt lat="47.66429" lon="6.09627">
        <ele>240.62</ele>
        <time>2018-01-31T10:09:52Z</time>
      </trkpt>
      <trkpt lat="47.66431" lon="6.0962">
        <ele>240.69</ele>
        <time>2018-01-31T10:09:54Z</time>
      </trkpt>
      <trkpt lat="47.66433" lon="6.0961">
        <ele>240.79</ele>
        <time>2018-01-31T10:09:57Z</time>
      </trkpt>
      <trkpt lat="47.66434" lon="6.09603">
        <ele>240.86</ele>
        <time>2018-01-31T10:09:59Z</time>
      </trkpt>
      <trkpt lat="47.66436" lon="6.09594">
        <ele>240.94</ele>
        <time>2018-01-31T10:10:01Z</time>
      </trkpt>
      <trkpt lat="47.66438" lon="6.09585">
        <ele>241.02</ele>
        <time>2018-01-31T10:10:03Z</time>
      </trkpt>
      <trkpt lat="47.6644" lon="6.09577">
        <ele>241.16</ele>
        <time>2018-01-31T10:10:06Z</time>
      </trkpt>
      <trkpt lat="47.66441" lon="6.09569">
        <ele>241.29</ele>
        <time>2018-01-31T10:10:09Z</time>
      </trkpt>
      <trkpt lat="47.66441" lon="6.0956">
        <ele>241.44</ele>
        <time>2018-01-31T10:10:12Z</time>
      </trkpt>
      <trkpt lat="47.66443" lon="6.0955">
        <ele>241.59</ele>
        <time>2018-01-31T10:10:15Z</time>
      </trkpt>
      <trkpt lat="47.66442" lon="6.09544">
        <ele>241.69</ele>
        <time>2018-01-31T10:10:17Z</time>
      </trkpt>
      <trkpt lat="47.66444" lon="6.09535">
        <ele>241.84</ele>
        <time>2018-01-31T10:10:20Z</time>
      </trkpt>
      <trkpt lat="47.66444" lon="6.09528">
        <ele>241.94</ele>
        <time>2018-01-31T10:10:22Z</time>
      </trkpt>
      <trkpt lat="47.66444" lon="6.09519">
        <ele>242.11</ele>
        <time>2018-01-31T10:10:25Z</time>
      </trkpt>
      <trkpt lat="47.66443" lon="6.09512">
        <ele>242.27</ele>
        <time>2018-01-31T10:11:01Z</time>
      </trkpt>
      <trkpt lat="47.66444" lon="6.09504">
        <ele>242.2</ele>
        <time>2018-01-31T10:11:04Z</time>
      </trkpt>
      <trkpt lat="47.66444" lon="6.09496">
        <ele>242.15</ele>
        <time>2018-01-31T10:11:06Z</time>
      </trkpt>
      <trkpt lat="47.66444" lon="6.09488">
        <ele>242.11</ele>
        <time>2018-01-31T10:11:08Z</time>
      </trkpt>
      <trkpt lat="47.66444" lon="6.09478">
        <ele>242.06</ele>
        <time>2018-01-31T10:11:10Z</time>
      </trkpt>
      <trkpt lat="47.66444" lon="6.09467">
        <ele>242.02</ele>
        <time>2018-01-31T10:11:12Z</time>
      </trkpt>
      <trkpt lat="47.66444" lon="6.09458">
        <ele>241.97</ele>
        <time>2018-01-31T10:11:14Z</time>
      </trkpt>
      <trkpt lat="47.66445" lon="6.09447">
        <ele>241.52</ele>
        <time>2018-01-31T10:11:16Z</time>
      </trkpt>
      <trkpt lat="47.66445" lon="6.0944">
        <ele>241.33</ele>
        <time>2018-01-31T10:11:17Z</time>
      </trkpt>
      <trkpt lat="47.66444" lon="6.09428">
        <ele>241.06</ele>
        <time>2018-01-31T10:11:19Z</time>
      </trkpt>
      <trkpt lat="47.66442" lon="6.09418">
        <ele>240.94</ele>
        <time>2018-01-31T10:11:21Z</time>
      </trkpt>
      <trkpt lat="47.6644" lon="6.09405">
        <ele>240.85</ele>
        <time>2018-01-31T10:11:23Z</time>
      </trkpt>
      <trkpt lat="47.66438" lon="6.09398">
        <ele>240.79</ele>
        <time>2018-01-31T10:11:24Z</time>
      </trkpt>
      <trkpt lat="47.66436" lon="6.09387">
        <ele>240.78</ele>
        <time>2018-01-31T10:11:25Z</time>
      </trkpt>
      <trkpt lat="47.66434" lon="6.09377">
        <ele>240.76</ele>
        <time>2018-01-31T10:11:26Z</time>
      </trkpt>
      <trkpt lat="47.66431" lon="6.09367">
        <ele>240.74</ele>
        <time>2018-01-31T10:11:27Z</time>
      </trkpt>
      <trkpt lat="47.66429" lon="6.09358">
        <ele>240.71</ele>
        <time>2018-01-31T10:11:28Z</time>
      </trkpt>
      <trkpt lat="47.66427" lon="6.09347">
        <ele>240.68</ele>
        <time>2018-01-31T10:11:29Z</time>
      </trkpt>
      <trkpt lat="47.66425" lon="6.09337">
        <ele>240.65</ele>
        <time>2018-01-31T10:11:30Z</time>
      </trkpt>
      <trkpt lat="47.66423" lon="6.09327">
        <ele>240.63</ele>
        <time>2018-01-31T10:11:31Z</time>
      </trkpt>
      <trkpt lat="47.66421" lon="6.09317">
        <ele>240.62</ele>
        <time>2018-01-31T10:11:32Z</time>
      </trkpt>
      <trkpt lat="47.66419" lon="6.09307">
        <ele>240.61</ele>
        <time>2018-01-31T10:11:33Z</time>
      </trkpt>
      <trkpt lat="47.66417" lon="6.09297">
        <ele>240.59</ele>
        <time>2018-01-31T10:11:34Z</time>
      </trkpt>
      <trkpt lat="47.66415" lon="6.09287">
        <ele>240.57</ele>
        <time>2018-01-31T10:11:35Z</time>
      </trkpt>
      <trkpt lat="47.66414" lon="6.09277">
        <ele>240.54</ele>
        <time>2018-01-31T10:11:36Z</time>
      </trkpt>
      <trkpt lat="47.66413" lon="6.09267">
        <ele>240.5</ele>
        <time>2018-01-31T10:11:37Z</time>
      </trkpt>
      <trkpt lat="47.66412" lon="6.09258">
        <ele>240.47</ele>
        <time>2018-01-31T10:11:38Z</time>
      </trkpt>
      <trkpt lat="47.66411" lon="6.09249">
        <ele>240.44</ele>
        <time>2018-01-31T10:11:39Z</time>
      </trkpt>
      <trkpt lat="47.66411" lon="6.09241">
        <ele>240.42</ele>
        <time>2018-01-31T10:11:40Z</time>
      </trkpt>
      <trkpt lat="47.66411" lon="6.09233">
        <ele>240.39</ele>
        <time>2018-01-31T10:11:41Z</time>
      </trkpt>
      <trkpt lat="47.6641" lon="6.09225">
        <ele>240.41</ele>
        <time>2018-01-31T10:11:42Z</time>
      </trkpt>
      <trkpt lat="47.66409" lon="6.09217">
        <ele>240.46</ele>
        <time>2018-01-31T10:11:43Z</time>
      </trkpt>
      <trkpt lat="47.66409" lon="6.09209">
        <ele>240.54</ele>
        <time>2018-01-31T10:11:44Z</time>
      </trkpt>
      <trkpt lat="47.66408" lon="6.09202">
        <ele>240.66</ele>
        <time>2018-01-31T10:11:45Z</time>
      </trkpt>
      <trkpt lat="47.66408" lon="6.09195">
        <ele>240.76</ele>
        <time>2018-01-31T10:11:46Z</time>
      </trkpt>
      <trkpt lat="47.66406" lon="6.09188">
        <ele>240.87</ele>
        <time>2018-01-31T10:11:47Z</time>
      </trkpt>
      <trkpt lat="47.66406" lon="6.09181">
        <ele>240.97</ele>
        <time>2018-01-31T10:11:48Z</time>
      </trkpt>
      <trkpt lat="47.66406" lon="6.09174">
        <ele>241.07</ele>
        <time>2018-01-31T10:11:49Z</time>
      </trkpt>
      <trkpt lat="47.66406" lon="6.09166">
        <ele>241.16</ele>
        <time>2018-01-31T10:11:50Z</time>
      </trkpt>
      <trkpt lat="47.66405" lon="6.09159">
        <ele>241.21</ele>
        <time>2018-01-31T10:11:51Z</time>
      </trkpt>
      <trkpt lat="47.66405" lon="6.09152">
        <ele>241.27</ele>
        <time>2018-01-31T10:11:52Z</time>
      </trkpt>
      <trkpt lat="47.66406" lon="6.09145">
        <ele>241.3</ele>
        <time>2018-01-31T10:11:53Z</time>
      </trkpt>
      <trkpt lat="47.66405" lon="6.09138">
        <ele>241.32</ele>
        <time>2018-01-31T10:11:54Z</time>
      </trkpt>
      <trkpt lat="47.66405" lon="6.09131">
        <ele>241.31</ele>
        <time>2018-01-31T10:11:55Z</time>
      </trkpt>
      <trkpt lat="47.66404" lon="6.09123">
        <ele>241.3</ele>
        <time>2018-01-31T10:11:56Z</time>
      </trkpt>
      <trkpt lat="47.66404" lon="6.09115">
        <ele>241.23</ele>
        <time>2018-01-31T10:11:57Z</time>
      </trkpt>
      <trkpt lat="47.66403" lon="6.09108">
        <ele>241.14</ele>
        <time>2018-01-31T10:11:58Z</time>
      </trkpt>
      <trkpt lat="47.66403" lon="6.09101">
        <ele>241.05</ele>
        <time>2018-01-31T10:11:59Z</time>
      </trkpt>
      <trkpt lat="47.66403" lon="6.09094">
        <ele>240.95</ele>
        <time>2018-01-31T10:12:00Z</time>
      </trkpt>
      <trkpt lat="47.66403" lon="6.09087">
        <ele>240.85</ele>
        <time>2018-01-31T10:12:01Z</time>
      </trkpt>
      <trkpt lat="47.66404" lon="6.0908">
        <ele>240.75</ele>
        <time>2018-01-31T10:12:02Z</time>
      </trkpt>
      <trkpt lat="47.66405" lon="6.09067">
        <ele>240.45</ele>
        <time>2018-01-31T10:12:04Z</time>
      </trkpt>
      <trkpt lat="47.66407" lon="6.09061">
        <ele>240.32</ele>
        <time>2018-01-31T10:12:05Z</time>
      </trkpt>
      <trkpt lat="47.66411" lon="6.09051">
        <ele>240.04</ele>
        <time>2018-01-31T10:12:07Z</time>
      </trkpt>
      <trkpt lat="47.66417" lon="6.09045">
        <ele>239.76</ele>
        <time>2018-01-31T10:12:09Z</time>
      </trkpt>
      <trkpt lat="47.66424" lon="6.09043">
        <ele>239.35</ele>
        <time>2018-01-31T10:12:11Z</time>
      </trkpt>
      <trkpt lat="47.66431" lon="6.09043">
        <ele>239.04</ele>
        <time>2018-01-31T10:12:13Z</time>
      </trkpt>
      <trkpt lat="47.6644" lon="6.09043">
        <ele>238.94</ele>
        <time>2018-01-31T10:12:15Z</time>
      </trkpt>
      <trkpt lat="47.66445" lon="6.09042">
        <ele>238.91</ele>
        <time>2018-01-31T10:12:16Z</time>
      </trkpt>
      <trkpt lat="47.66449" lon="6.09042">
        <ele>238.87</ele>
        <time>2018-01-31T10:12:17Z</time>
      </trkpt>
      <trkpt lat="47.66455" lon="6.09041">
        <ele>238.82</ele>
        <time>2018-01-31T10:12:18Z</time>
      </trkpt>
      <trkpt lat="47.6646" lon="6.0904">
        <ele>238.78</ele>
        <time>2018-01-31T10:12:19Z</time>
      </trkpt>
      <trkpt lat="47.66465" lon="6.09039">
        <ele>238.82</ele>
        <time>2018-01-31T10:12:20Z</time>
      </trkpt>
      <trkpt lat="47.66471" lon="6.09038">
        <ele>238.89</ele>
        <time>2018-01-31T10:12:20Z</time>
      </trkpt>
      <trkpt lat="47.66477" lon="6.09038">
        <ele>238.96</ele>
        <time>2018-01-31T10:12:21Z</time>
      </trkpt>
      <trkpt lat="47.66482" lon="6.09037">
        <ele>239.03</ele>
        <time>2018-01-31T10:12:22Z</time>
      </trkpt>
      <trkpt lat="47.66487" lon="6.09036">
        <ele>239.08</ele>
        <time>2018-01-31T10:12:23Z</time>
      </trkpt>
      <trkpt lat="47.66493" lon="6.09036">
        <ele>239.1</ele>
        <time>2018-01-31T10:12:24Z</time>
      </trkpt>
      <trkpt lat="47.66498" lon="6.09036">
        <ele>239.13</ele>
        <time>2018-01-31T10:12:25Z</time>
      </trkpt>
      <trkpt lat="47.66503" lon="6.09035">
        <ele>239.17</ele>
        <time>2018-01-31T10:12:26Z</time>
      </trkpt>
      <trkpt lat="47.66509" lon="6.09035">
        <ele>239.21</ele>
        <time>2018-01-31T10:12:27Z</time>
      </trkpt>
      <trkpt lat="47.66515" lon="6.09036">
        <ele>239.21</ele>
        <time>2018-01-31T10:12:28Z</time>
      </trkpt>
      <trkpt lat="47.66521" lon="6.09035">
        <ele>239.2</ele>
        <time>2018-01-31T10:12:29Z</time>
      </trkpt>
      <trkpt lat="47.66526" lon="6.09035">
        <ele>239.19</ele>
        <time>2018-01-31T10:12:30Z</time>
      </trkpt>
      <trkpt lat="47.66532" lon="6.09036">
        <ele>239.15</ele>
        <time>2018-01-31T10:12:31Z</time>
      </trkpt>
      <trkpt lat="47.66538" lon="6.09036">
        <ele>239.1</ele>
        <time>2018-01-31T10:12:32Z</time>
      </trkpt>
      <trkpt lat="47.66544" lon="6.09037">
        <ele>239.03</ele>
        <time>2018-01-31T10:12:33Z</time>
      </trkpt>
      <trkpt lat="47.6655" lon="6.09038">
        <ele>238.95</ele>
        <time>2018-01-31T10:12:34Z</time>
      </trkpt>
      <trkpt lat="47.66556" lon="6.09039">
        <ele>238.89</ele>
        <time>2018-01-31T10:12:35Z</time>
      </trkpt>
      <trkpt lat="47.66562" lon="6.0904">
        <ele>238.86</ele>
        <time>2018-01-31T10:12:36Z</time>
      </trkpt>
      <trkpt lat="47.66568" lon="6.09041">
        <ele>238.85</ele>
        <time>2018-01-31T10:12:37Z</time>
      </trkpt>
      <trkpt lat="47.66574" lon="6.09043">
        <ele>238.83</ele>
        <time>2018-01-31T10:12:38Z</time>
      </trkpt>
      <trkpt lat="47.6658" lon="6.09044">
        <ele>238.81</ele>
        <time>2018-01-31T10:12:39Z</time>
      </trkpt>
      <trkpt lat="47.66585" lon="6.09045">
        <ele>238.79</ele>
        <time>2018-01-31T10:12:40Z</time>
      </trkpt>
      <trkpt lat="47.66591" lon="6.09046">
        <ele>238.75</ele>
        <time>2018-01-31T10:12:41Z</time>
      </trkpt>
      <trkpt lat="47.66596" lon="6.09048">
        <ele>238.71</ele>
        <time>2018-01-31T10:12:42Z</time>
      </trkpt>
      <trkpt lat="47.66601" lon="6.09049">
        <ele>238.67</ele>
        <time>2018-01-31T10:12:43Z</time>
      </trkpt>
      <trkpt lat="47.66606" lon="6.09049">
        <ele>238.58</ele>
        <time>2018-01-31T10:12:44Z</time>
      </trkpt>
      <trkpt lat="47.66612" lon="6.09051">
        <ele>238.48</ele>
        <time>2018-01-31T10:12:45Z</time>
      </trkpt>
      <trkpt lat="47.66617" lon="6.09052">
        <ele>238.36</ele>
        <time>2018-01-31T10:12:46Z</time>
      </trkpt>
      <trkpt lat="47.66622" lon="6.09053">
        <ele>238.25</ele>
        <time>2018-01-31T10:12:47Z</time>
      </trkpt>
      <trkpt lat="47.66628" lon="6.09055">
        <ele>238.14</ele>
        <time>2018-01-31T10:12:48Z</time>
      </trkpt>
      <trkpt lat="47.66633" lon="6.09056">
        <ele>238.03</ele>
        <time>2018-01-31T10:12:49Z</time>
      </trkpt>
      <trkpt lat="47.66639" lon="6.09058">
        <ele>237.91</ele>
        <time>2018-01-31T10:12:50Z</time>
      </trkpt>
      <trkpt lat="47.66644" lon="6.09059">
        <ele>237.81</ele>
        <time>2018-01-31T10:12:51Z</time>
      </trkpt>
      <trkpt lat="47.66653" lon="6.09059">
        <ele>237.62</ele>
        <time>2018-01-31T10:12:53Z</time>
      </trkpt>
      <trkpt lat="47.66661" lon="6.09054">
        <ele>237.43</ele>
        <time>2018-01-31T10:12:55Z</time>
      </trkpt>
      <trkpt lat="47.66667" lon="6.09049">
        <ele>237.24</ele>
        <time>2018-01-31T10:12:57Z</time>
      </trkpt>
      <trkpt lat="47.66673" lon="6.09043">
        <ele>237.12</ele>
        <time>2018-01-31T10:12:59Z</time>
      </trkpt>
      <trkpt lat="47.66679" lon="6.09037">
        <ele>237.1</ele>
        <time>2018-01-31T10:13:01Z</time>
      </trkpt>
      <trkpt lat="47.66685" lon="6.0903">
        <ele>237.05</ele>
        <time>2018-01-31T10:13:03Z</time>
      </trkpt>
      <trkpt lat="47.66691" lon="6.09023">
        <ele>237</ele>
        <time>2018-01-31T10:13:05Z</time>
      </trkpt>
      <trkpt lat="47.66695" lon="6.0902">
        <ele>236.99</ele>
        <time>2018-01-31T10:13:06Z</time>
      </trkpt>
      <trkpt lat="47.66699" lon="6.09017">
        <ele>236.97</ele>
        <time>2018-01-31T10:13:07Z</time>
      </trkpt>
      <trkpt lat="47.66706" lon="6.09009">
        <ele>236.91</ele>
        <time>2018-01-31T10:13:09Z</time>
      </trkpt>
      <trkpt lat="47.66709" lon="6.09004">
        <ele>236.86</ele>
        <time>2018-01-31T10:13:10Z</time>
      </trkpt>
      <trkpt lat="47.66713" lon="6.08999">
        <ele>236.8</ele>
        <time>2018-01-31T10:13:11Z</time>
      </trkpt>
      <trkpt lat="47.66718" lon="6.08988">
        <ele>236.69</ele>
        <time>2018-01-31T10:13:13Z</time>
      </trkpt>
      <trkpt lat="47.6672" lon="6.08982">
        <ele>236.62</ele>
        <time>2018-01-31T10:13:14Z</time>
      </trkpt>
      <trkpt lat="47.66722" lon="6.08975">
        <ele>236.54</ele>
        <time>2018-01-31T10:13:15Z</time>
      </trkpt>
      <trkpt lat="47.66724" lon="6.08969">
        <ele>236.47</ele>
        <time>2018-01-31T10:13:16Z</time>
      </trkpt>
      <trkpt lat="47.66726" lon="6.08963">
        <ele>236.41</ele>
        <time>2018-01-31T10:13:17Z</time>
      </trkpt>
      <trkpt lat="47.6673" lon="6.08951">
        <ele>236.3</ele>
        <time>2018-01-31T10:13:19Z</time>
      </trkpt>
      <trkpt lat="47.66733" lon="6.0894">
        <ele>236.21</ele>
        <time>2018-01-31T10:13:21Z</time>
      </trkpt>
      <trkpt lat="47.66737" lon="6.08929">
        <ele>236.12</ele>
        <time>2018-01-31T10:13:23Z</time>
      </trkpt>
      <trkpt lat="47.6674" lon="6.08923">
        <ele>236.08</ele>
        <time>2018-01-31T10:13:24Z</time>
      </trkpt>
      <trkpt lat="47.66744" lon="6.08912">
        <ele>236.01</ele>
        <time>2018-01-31T10:13:26Z</time>
      </trkpt>
      <trkpt lat="47.66748" lon="6.08902">
        <ele>235.95</ele>
        <time>2018-01-31T10:13:28Z</time>
      </trkpt>
      <trkpt lat="47.66752" lon="6.08892">
        <ele>235.92</ele>
        <time>2018-01-31T10:13:30Z</time>
      </trkpt>
      <trkpt lat="47.66755" lon="6.08881">
        <ele>235.93</ele>
        <time>2018-01-31T10:13:32Z</time>
      </trkpt>
      <trkpt lat="47.66755" lon="6.0887">
        <ele>235.93</ele>
        <time>2018-01-31T10:13:34Z</time>
      </trkpt>
      <trkpt lat="47.66753" lon="6.08864">
        <ele>235.89</ele>
        <time>2018-01-31T10:13:35Z</time>
      </trkpt>
      <trkpt lat="47.66748" lon="6.08853">
        <ele>235.8</ele>
        <time>2018-01-31T10:13:37Z</time>
      </trkpt>
      <trkpt lat="47.66744" lon="6.08844">
        <ele>235.7</ele>
        <time>2018-01-31T10:13:39Z</time>
      </trkpt>
      <trkpt lat="47.66739" lon="6.08835">
        <ele>235.65</ele>
        <time>2018-01-31T10:13:41Z</time>
      </trkpt>
      <trkpt lat="47.66734" lon="6.08824">
        <ele>235.66</ele>
        <time>2018-01-31T10:13:43Z</time>
      </trkpt>
      <trkpt lat="47.66728" lon="6.08813">
        <ele>235.72</ele>
        <time>2018-01-31T10:13:45Z</time>
      </trkpt>
      <trkpt lat="47.66724" lon="6.08804">
        <ele>235.78</ele>
        <time>2018-01-31T10:13:47Z</time>
      </trkpt>
      <trkpt lat="47.66721" lon="6.08795">
        <ele>235.8</ele>
        <time>2018-01-31T10:13:49Z</time>
      </trkpt>
      <trkpt lat="47.66718" lon="6.08784">
        <ele>235.78</ele>
        <time>2018-01-31T10:13:51Z</time>
      </trkpt>
      <trkpt lat="47.66717" lon="6.08773">
        <ele>235.72</ele>
        <time>2018-01-31T10:13:53Z</time>
      </trkpt>
      <trkpt lat="47.66715" lon="6.08762">
        <ele>235.67</ele>
        <time>2018-01-31T10:13:55Z</time>
      </trkpt>
      <trkpt lat="47.66713" lon="6.08751">
        <ele>235.66</ele>
        <time>2018-01-31T10:13:57Z</time>
      </trkpt>
      <trkpt lat="47.66711" lon="6.0874">
        <ele>235.58</ele>
        <time>2018-01-31T10:13:59Z</time>
      </trkpt>
      <trkpt lat="47.66709" lon="6.08729">
        <ele>235.46</ele>
        <time>2018-01-31T10:14:01Z</time>
      </trkpt>
      <trkpt lat="47.66706" lon="6.08717">
        <ele>235.35</ele>
        <time>2018-01-31T10:14:03Z</time>
      </trkpt>
      <trkpt lat="47.66704" lon="6.08705">
        <ele>235.09</ele>
        <time>2018-01-31T10:14:05Z</time>
      </trkpt>
      <trkpt lat="47.66702" lon="6.08694">
        <ele>235.02</ele>
        <time>2018-01-31T10:14:07Z</time>
      </trkpt>
      <trkpt lat="47.66699" lon="6.08684">
        <ele>234.98</ele>
        <time>2018-01-31T10:14:09Z</time>
      </trkpt>
      <trkpt lat="47.66697" lon="6.08674">
        <ele>234.93</ele>
        <time>2018-01-31T10:14:11Z</time>
      </trkpt>
      <trkpt lat="47.66695" lon="6.08662">
        <ele>234.89</ele>
        <time>2018-01-31T10:14:13Z</time>
      </trkpt>
      <trkpt lat="47.66693" lon="6.08652">
        <ele>234.84</ele>
        <time>2018-01-31T10:14:15Z</time>
      </trkpt>
      <trkpt lat="47.66691" lon="6.08644">
        <ele>234.79</ele>
        <time>2018-01-31T10:14:17Z</time>
      </trkpt>
      <trkpt lat="47.66688" lon="6.08632">
        <ele>234.74</ele>
        <time>2018-01-31T10:14:19Z</time>
      </trkpt>
      <trkpt lat="47.66686" lon="6.0862">
        <ele>234.69</ele>
        <time>2018-01-31T10:14:21Z</time>
      </trkpt>
      <trkpt lat="47.66685" lon="6.08611">
        <ele>234.63</ele>
        <time>2018-01-31T10:14:23Z</time>
      </trkpt>
      <trkpt lat="47.66685" lon="6.08602">
        <ele>234.55</ele>
        <time>2018-01-31T10:14:25Z</time>
      </trkpt>
      <trkpt lat="47.66685" lon="6.08592">
        <ele>234.47</ele>
        <time>2018-01-31T10:14:27Z</time>
      </trkpt>
      <trkpt lat="47.66686" lon="6.08581">
        <ele>234.4</ele>
        <time>2018-01-31T10:14:29Z</time>
      </trkpt>
      <trkpt lat="47.66688" lon="6.08568">
        <ele>234.35</ele>
        <time>2018-01-31T10:14:31Z</time>
      </trkpt>
      <trkpt lat="47.6669" lon="6.08557">
        <ele>234.31</ele>
        <time>2018-01-31T10:14:33Z</time>
      </trkpt>
      <trkpt lat="47.66692" lon="6.08547">
        <ele>234.26</ele>
        <time>2018-01-31T10:14:35Z</time>
      </trkpt>
      <trkpt lat="47.66695" lon="6.08535">
        <ele>234.21</ele>
        <time>2018-01-31T10:14:37Z</time>
      </trkpt>
      <trkpt lat="47.66698" lon="6.08524">
        <ele>234.16</ele>
        <time>2018-01-31T10:14:39Z</time>
      </trkpt>
      <trkpt lat="47.66703" lon="6.08514">
        <ele>234.08</ele>
        <time>2018-01-31T10:14:41Z</time>
      </trkpt>
      <trkpt lat="47.66706" lon="6.08509">
        <ele>234.04</ele>
        <time>2018-01-31T10:14:42Z</time>
      </trkpt>
      <trkpt lat="47.66709" lon="6.08503">
        <ele>234</ele>
        <time>2018-01-31T10:14:43Z</time>
      </trkpt>
      <trkpt lat="47.66712" lon="6.08498">
        <ele>233.96</ele>
        <time>2018-01-31T10:14:44Z</time>
      </trkpt>
      <trkpt lat="47.66715" lon="6.08492">
        <ele>233.92</ele>
        <time>2018-01-31T10:14:45Z</time>
      </trkpt>
      <trkpt lat="47.66721" lon="6.08483">
        <ele>233.85</ele>
        <time>2018-01-31T10:14:47Z</time>
      </trkpt>
      <trkpt lat="47.66725" lon="6.08477">
        <ele>233.82</ele>
        <time>2018-01-31T10:14:48Z</time>
      </trkpt>
      <trkpt lat="47.66729" lon="6.08472">
        <ele>233.79</ele>
        <time>2018-01-31T10:14:49Z</time>
      </trkpt>
      <trkpt lat="47.66732" lon="6.08467">
        <ele>233.77</ele>
        <time>2018-01-31T10:14:50Z</time>
      </trkpt>
      <trkpt lat="47.66735" lon="6.08462">
        <ele>233.74</ele>
        <time>2018-01-31T10:14:51Z</time>
      </trkpt>
      <trkpt lat="47.6674" lon="6.08454">
        <ele>233.71</ele>
        <time>2018-01-31T10:14:53Z</time>
      </trkpt>
      <trkpt lat="47.66745" lon="6.08445">
        <ele>233.72</ele>
        <time>2018-01-31T10:14:55Z</time>
      </trkpt>
      <trkpt lat="47.66751" lon="6.08436">
        <ele>233.75</ele>
        <time>2018-01-31T10:14:57Z</time>
      </trkpt>
      <trkpt lat="47.66757" lon="6.08428">
        <ele>233.78</ele>
        <time>2018-01-31T10:14:59Z</time>
      </trkpt>
      <trkpt lat="47.66761" lon="6.08421">
        <ele>233.78</ele>
        <time>2018-01-31T10:15:01Z</time>
      </trkpt>
      <trkpt lat="47.66764" lon="6.08415">
        <ele>233.77</ele>
        <time>2018-01-31T10:15:03Z</time>
      </trkpt>
      <trkpt lat="47.66766" lon="6.08408">
        <ele>233.7</ele>
        <time>2018-01-31T10:15:08Z</time>
      </trkpt>
      <trkpt lat="47.66771" lon="6.08409">
        <ele>233.58</ele>
        <time>2018-01-31T10:15:12Z</time>
      </trkpt>
      <trkpt lat="47.66776" lon="6.08411">
        <ele>233.35</ele>
        <time>2018-01-31T10:15:16Z</time>
      </trkpt>
      <trkpt lat="47.66781" lon="6.08415">
        <ele>233.05</ele>
        <time>2018-01-31T10:15:19Z</time>
      </trkpt>
      <trkpt lat="47.66788" lon="6.08419">
        <ele>232.81</ele>
        <time>2018-01-31T10:15:21Z</time>
      </trkpt>
      <trkpt lat="47.66795" lon="6.0842">
        <ele>232.4</ele>
        <time>2018-01-31T10:15:24Z</time>
      </trkpt>
      <trkpt lat="47.66808" lon="6.08411">
        <ele>231.79</ele>
        <time>2018-01-31T10:15:28Z</time>
      </trkpt>
      <trkpt lat="47.66815" lon="6.08405">
        <ele>231.61</ele>
        <time>2018-01-31T10:15:29Z</time>
      </trkpt>
      <trkpt lat="47.6682" lon="6.084">
        <ele>231.43</ele>
        <time>2018-01-31T10:15:30Z</time>
      </trkpt>
      <trkpt lat="47.66824" lon="6.08396">
        <ele>231.27</ele>
        <time>2018-01-31T10:15:31Z</time>
      </trkpt>
      <trkpt lat="47.66828" lon="6.08393">
        <ele>231.12</ele>
        <time>2018-01-31T10:15:32Z</time>
      </trkpt>
      <trkpt lat="47.66835" lon="6.08389">
        <ele>230.86</ele>
        <time>2018-01-31T10:15:34Z</time>
      </trkpt>
      <trkpt lat="47.66839" lon="6.08386">
        <ele>230.75</ele>
        <time>2018-01-31T10:15:35Z</time>
      </trkpt>
      <trkpt lat="47.66845" lon="6.08381">
        <ele>230.65</ele>
        <time>2018-01-31T10:15:36Z</time>
      </trkpt>
      <trkpt lat="47.66852" lon="6.08374">
        <ele>230.51</ele>
        <time>2018-01-31T10:15:38Z</time>
      </trkpt>
      <trkpt lat="47.66857" lon="6.08367">
        <ele>230.43</ele>
        <time>2018-01-31T10:15:40Z</time>
      </trkpt>
      <trkpt lat="47.6686" lon="6.08361">
        <ele>230.38</ele>
        <time>2018-01-31T10:15:42Z</time>
      </trkpt>
      <trkpt lat="47.66865" lon="6.08356">
        <ele>230.33</ele>
        <time>2018-01-31T10:15:44Z</time>
      </trkpt>
      <trkpt lat="47.66869" lon="6.08347">
        <ele>230.29</ele>
        <time>2018-01-31T10:15:46Z</time>
      </trkpt>
      <trkpt lat="47.66874" lon="6.08339">
        <ele>230.25</ele>
        <time>2018-01-31T10:15:48Z</time>
      </trkpt>
      <trkpt lat="47.66879" lon="6.0833">
        <ele>230.21</ele>
        <time>2018-01-31T10:15:50Z</time>
      </trkpt>
      <trkpt lat="47.66885" lon="6.08322">
        <ele>230.19</ele>
        <time>2018-01-31T10:15:52Z</time>
      </trkpt>
      <trkpt lat="47.6689" lon="6.08315">
        <ele>230.19</ele>
        <time>2018-01-31T10:15:54Z</time>
      </trkpt>
      <trkpt lat="47.66896" lon="6.08308">
        <ele>230.21</ele>
        <time>2018-01-31T10:15:56Z</time>
      </trkpt>
      <trkpt lat="47.66898" lon="6.08302">
        <ele>230.26</ele>
        <time>2018-01-31T10:15:58Z</time>
      </trkpt>
      <trkpt lat="47.66901" lon="6.08294">
        <ele>230.3</ele>
        <time>2018-01-31T10:16:00Z</time>
      </trkpt>
      <trkpt lat="47.66906" lon="6.08283">
        <ele>230.35</ele>
        <time>2018-01-31T10:16:02Z</time>
      </trkpt>
      <trkpt lat="47.6691" lon="6.08274">
        <ele>230.4</ele>
        <time>2018-01-31T10:16:04Z</time>
      </trkpt>
      <trkpt lat="47.66915" lon="6.08265">
        <ele>230.45</ele>
        <time>2018-01-31T10:16:06Z</time>
      </trkpt>
      <trkpt lat="47.66918" lon="6.08257">
        <ele>230.52</ele>
        <time>2018-01-31T10:16:08Z</time>
      </trkpt>
      <trkpt lat="47.66921" lon="6.08251">
        <ele>230.59</ele>
        <time>2018-01-31T10:16:10Z</time>
      </trkpt>
      <trkpt lat="47.66922" lon="6.08242">
        <ele>231.35</ele>
        <time>2018-01-31T10:16:25Z</time>
      </trkpt>
      <trkpt lat="47.66917" lon="6.08238">
        <ele>231.86</ele>
        <time>2018-01-31T10:16:28Z</time>
      </trkpt>
      <trkpt lat="47.66913" lon="6.08231">
        <ele>232.32</ele>
        <time>2018-01-31T10:16:31Z</time>
      </trkpt>
      <trkpt lat="47.66912" lon="6.08221">
        <ele>232.76</ele>
        <time>2018-01-31T10:16:34Z</time>
      </trkpt>
      <trkpt lat="47.6691" lon="6.08214">
        <ele>233.03</ele>
        <time>2018-01-31T10:16:36Z</time>
      </trkpt>
      <trkpt lat="47.66907" lon="6.08207">
        <ele>233.27</ele>
        <time>2018-01-31T10:16:38Z</time>
      </trkpt>
      <trkpt lat="47.66904" lon="6.08197">
        <ele>233.49</ele>
        <time>2018-01-31T10:16:40Z</time>
      </trkpt>
      <trkpt lat="47.66901" lon="6.08186">
        <ele>235.02</ele>
        <time>2018-01-31T10:16:42Z</time>
      </trkpt>
      <trkpt lat="47.66897" lon="6.08175">
        <ele>236.21</ele>
        <time>2018-01-31T10:16:44Z</time>
      </trkpt>
      <trkpt lat="47.66895" lon="6.08169">
        <ele>236.61</ele>
        <time>2018-01-31T10:16:45Z</time>
      </trkpt>
      <trkpt lat="47.66893" lon="6.08162">
        <ele>236.91</ele>
        <time>2018-01-31T10:16:46Z</time>
      </trkpt>
      <trkpt lat="47.66891" lon="6.08155">
        <ele>237.13</ele>
        <time>2018-01-31T10:16:47Z</time>
      </trkpt>
      <trkpt lat="47.66889" lon="6.08142">
        <ele>237.41</ele>
        <time>2018-01-31T10:16:49Z</time>
      </trkpt>
      <trkpt lat="47.66888" lon="6.08134">
        <ele>237.51</ele>
        <time>2018-01-31T10:16:50Z</time>
      </trkpt>
      <trkpt lat="47.66889" lon="6.08121">
        <ele>237.58</ele>
        <time>2018-01-31T10:16:52Z</time>
      </trkpt>
      <trkpt lat="47.66892" lon="6.08111">
        <ele>237.58</ele>
        <time>2018-01-31T10:16:54Z</time>
      </trkpt>
      <trkpt lat="47.66896" lon="6.081">
        <ele>237.54</ele>
        <time>2018-01-31T10:16:56Z</time>
      </trkpt>
      <trkpt lat="47.66899" lon="6.08094">
        <ele>237.53</ele>
        <time>2018-01-31T10:16:57Z</time>
      </trkpt>
      <trkpt lat="47.66902" lon="6.08087">
        <ele>237.51</ele>
        <time>2018-01-31T10:16:58Z</time>
      </trkpt>
      <trkpt lat="47.66907" lon="6.08079">
        <ele>237.48</ele>
        <time>2018-01-31T10:16:59Z</time>
      </trkpt>
      <trkpt lat="47.66911" lon="6.08072">
        <ele>237.46</ele>
        <time>2018-01-31T10:17:00Z</time>
      </trkpt>
      <trkpt lat="47.66915" lon="6.08064">
        <ele>237.44</ele>
        <time>2018-01-31T10:17:01Z</time>
      </trkpt>
      <trkpt lat="47.66919" lon="6.08058">
        <ele>237.42</ele>
        <time>2018-01-31T10:17:02Z</time>
      </trkpt>
      <trkpt lat="47.66922" lon="6.08053">
        <ele>237.41</ele>
        <time>2018-01-31T10:17:03Z</time>
      </trkpt>
      <trkpt lat="47.66925" lon="6.08047">
        <ele>237.4</ele>
        <time>2018-01-31T10:17:04Z</time>
      </trkpt>
      <trkpt lat="47.66928" lon="6.08036">
        <ele>237.4</ele>
        <time>2018-01-31T10:17:06Z</time>
      </trkpt>
      <trkpt lat="47.66926" lon="6.08026">
        <ele>237.39</ele>
        <time>2018-01-31T10:17:08Z</time>
      </trkpt>
      <trkpt lat="47.66923" lon="6.08018">
        <ele>237.37</ele>
        <time>2018-01-31T10:17:10Z</time>
      </trkpt>
      <trkpt lat="47.66922" lon="6.08009">
        <ele>237.36</ele>
        <time>2018-01-31T10:17:12Z</time>
      </trkpt>
      <trkpt lat="47.66924" lon="6.08002">
        <ele>237.34</ele>
        <time>2018-01-31T10:17:14Z</time>
      </trkpt>
      <trkpt lat="47.66928" lon="6.07996">
        <ele>237.33</ele>
        <time>2018-01-31T10:17:16Z</time>
      </trkpt>
      <trkpt lat="47.66932" lon="6.07991">
        <ele>237.3</ele>
        <time>2018-01-31T10:17:18Z</time>
      </trkpt>
      <trkpt lat="47.66937" lon="6.07984">
        <ele>237.27</ele>
        <time>2018-01-31T10:17:20Z</time>
      </trkpt>
      <trkpt lat="47.66942" lon="6.07977">
        <ele>237.21</ele>
        <time>2018-01-31T10:17:22Z</time>
      </trkpt>
      <trkpt lat="47.66947" lon="6.0797">
        <ele>237.15</ele>
        <time>2018-01-31T10:17:24Z</time>
      </trkpt>
      <trkpt lat="47.66952" lon="6.07962">
        <ele>237.09</ele>
        <time>2018-01-31T10:17:26Z</time>
      </trkpt>
      <trkpt lat="47.66957" lon="6.07953">
        <ele>237.03</ele>
        <time>2018-01-31T10:17:28Z</time>
      </trkpt>
      <trkpt lat="47.66961" lon="6.07945">
        <ele>236.96</ele>
        <time>2018-01-31T10:17:30Z</time>
      </trkpt>
      <trkpt lat="47.66965" lon="6.07938">
        <ele>236.87</ele>
        <time>2018-01-31T10:17:32Z</time>
      </trkpt>
      <trkpt lat="47.66968" lon="6.07932">
        <ele>236.78</ele>
        <time>2018-01-31T10:17:34Z</time>
      </trkpt>
      <trkpt lat="47.66972" lon="6.07926">
        <ele>236.68</ele>
        <time>2018-01-31T10:17:36Z</time>
      </trkpt>
      <trkpt lat="47.66976" lon="6.07919">
        <ele>236.52</ele>
        <time>2018-01-31T10:17:39Z</time>
      </trkpt>
      <trkpt lat="47.66979" lon="6.07912">
        <ele>236.36</ele>
        <time>2018-01-31T10:17:42Z</time>
      </trkpt>
      <trkpt lat="47.66983" lon="6.07909">
        <ele>236.25</ele>
        <time>2018-01-31T10:17:44Z</time>
      </trkpt>
      <trkpt lat="47.66989" lon="6.07909">
        <ele>236.13</ele>
        <time>2018-01-31T10:17:46Z</time>
      </trkpt>
      <trkpt lat="47.66994" lon="6.07912">
        <ele>235.95</ele>
        <time>2018-01-31T10:17:49Z</time>
      </trkpt>
      <trkpt lat="47.67" lon="6.07915">
        <ele>235.78</ele>
        <time>2018-01-31T10:17:52Z</time>
      </trkpt>
      <trkpt lat="47.67004" lon="6.07918">
        <ele>235.65</ele>
        <time>2018-01-31T10:17:54Z</time>
      </trkpt>
      <trkpt lat="47.67009" lon="6.07919">
        <ele>235.53</ele>
        <time>2018-01-31T10:17:56Z</time>
      </trkpt>
      <trkpt lat="47.67013" lon="6.07921">
        <ele>235.4</ele>
        <time>2018-01-31T10:17:58Z</time>
      </trkpt>
      <trkpt lat="47.67018" lon="6.07922">
        <ele>235.27</ele>
        <time>2018-01-31T10:18:00Z</time>
      </trkpt>
      <trkpt lat="47.67025" lon="6.07921">
        <ele>235.05</ele>
        <time>2018-01-31T10:18:03Z</time>
      </trkpt>
      <trkpt lat="47.6703" lon="6.07918">
        <ele>234.82</ele>
        <time>2018-01-31T10:18:06Z</time>
      </trkpt>
      <trkpt lat="47.67035" lon="6.07916">
        <ele>234.67</ele>
        <time>2018-01-31T10:18:08Z</time>
      </trkpt>
      <trkpt lat="47.67039" lon="6.07912">
        <ele>234.5</ele>
        <time>2018-01-31T10:18:10Z</time>
      </trkpt>
      <trkpt lat="47.67043" lon="6.07907">
        <ele>234.34</ele>
        <time>2018-01-31T10:18:12Z</time>
      </trkpt>
      <trkpt lat="47.67046" lon="6.07901">
        <ele>234.18</ele>
        <time>2018-01-31T10:18:14Z</time>
      </trkpt>
      <trkpt lat="47.67051" lon="6.07894">
        <ele>233.94</ele>
        <time>2018-01-31T10:18:17Z</time>
      </trkpt>
      <trkpt lat="47.67055" lon="6.07888">
        <ele>233.68</ele>
        <time>2018-01-31T10:18:20Z</time>
      </trkpt>
      <trkpt lat="47.67059" lon="6.07881">
        <ele>233.42</ele>
        <time>2018-01-31T10:18:23Z</time>
      </trkpt>
      <trkpt lat="47.67062" lon="6.07873">
        <ele>233.18</ele>
        <time>2018-01-31T10:18:26Z</time>
      </trkpt>
      <trkpt lat="47.67065" lon="6.07867">
        <ele>232.92</ele>
        <time>2018-01-31T10:18:30Z</time>
      </trkpt>
      <trkpt lat="47.67068" lon="6.0786">
        <ele>232.76</ele>
        <time>2018-01-31T10:18:32Z</time>
      </trkpt>
      <trkpt lat="47.67073" lon="6.07856">
        <ele>232.6</ele>
        <time>2018-01-31T10:18:34Z</time>
      </trkpt>
      <trkpt lat="47.67077" lon="6.0785">
        <ele>232.45</ele>
        <time>2018-01-31T10:18:36Z</time>
      </trkpt>
      <trkpt lat="47.67082" lon="6.07844">
        <ele>232.22</ele>
        <time>2018-01-31T10:18:39Z</time>
      </trkpt>
      <trkpt lat="47.67087" lon="6.07841">
        <ele>232.07</ele>
        <time>2018-01-31T10:18:41Z</time>
      </trkpt>
      <trkpt lat="47.67093" lon="6.07837">
        <ele>231.86</ele>
        <time>2018-01-31T10:18:44Z</time>
      </trkpt>
      <trkpt lat="47.67099" lon="6.07831">
        <ele>231.75</ele>
        <time>2018-01-31T10:18:46Z</time>
      </trkpt>
      <trkpt lat="47.67107" lon="6.07829">
        <ele>231.65</ele>
        <time>2018-01-31T10:18:48Z</time>
      </trkpt>
      <trkpt lat="47.67113" lon="6.07827">
        <ele>231.56</ele>
        <time>2018-01-31T10:18:50Z</time>
      </trkpt>
      <trkpt lat="47.67118" lon="6.07826">
        <ele>231.46</ele>
        <time>2018-01-31T10:18:52Z</time>
      </trkpt>
      <trkpt lat="47.67124" lon="6.07825">
        <ele>231.3</ele>
        <time>2018-01-31T10:18:55Z</time>
      </trkpt>
      <trkpt lat="47.67129" lon="6.07824">
        <ele>231.2</ele>
        <time>2018-01-31T10:18:57Z</time>
      </trkpt>
      <trkpt lat="47.67134" lon="6.07824">
        <ele>231.1</ele>
        <time>2018-01-31T10:18:59Z</time>
      </trkpt>
      <trkpt lat="47.67139" lon="6.07826">
        <ele>230.97</ele>
        <time>2018-01-31T10:19:02Z</time>
      </trkpt>
      <trkpt lat="47.67144" lon="6.07823">
        <ele>230.86</ele>
        <time>2018-01-31T10:19:05Z</time>
      </trkpt>
      <trkpt lat="47.67149" lon="6.07817">
        <ele>230.76</ele>
        <time>2018-01-31T10:19:08Z</time>
      </trkpt>
      <trkpt lat="47.67153" lon="6.07815">
        <ele>230.71</ele>
        <time>2018-01-31T10:19:10Z</time>
      </trkpt>
      <trkpt lat="47.67158" lon="6.07816">
        <ele>230.67</ele>
        <time>2018-01-31T10:19:12Z</time>
      </trkpt>
      <trkpt lat="47.67163" lon="6.07815">
        <ele>230.64</ele>
        <time>2018-01-31T10:19:14Z</time>
      </trkpt>
      <trkpt lat="47.67168" lon="6.07813">
        <ele>230.62</ele>
        <time>2018-01-31T10:19:16Z</time>
      </trkpt>
      <trkpt lat="47.67173" lon="6.07812">
        <ele>230.63</ele>
        <time>2018-01-31T10:19:18Z</time>
      </trkpt>
      <trkpt lat="47.67179" lon="6.07813">
        <ele>230.69</ele>
        <time>2018-01-31T10:19:21Z</time>
      </trkpt>
      <trkpt lat="47.67184" lon="6.07809">
        <ele>230.78</ele>
        <time>2018-01-31T10:19:24Z</time>
      </trkpt>
      <trkpt lat="47.67187" lon="6.07803">
        <ele>230.87</ele>
        <time>2018-01-31T10:19:27Z</time>
      </trkpt>
      <trkpt lat="47.67192" lon="6.07799">
        <ele>230.93</ele>
        <time>2018-01-31T10:19:29Z</time>
      </trkpt>
      <trkpt lat="47.67197" lon="6.07796">
        <ele>230.98</ele>
        <time>2018-01-31T10:19:31Z</time>
      </trkpt>
      <trkpt lat="47.67202" lon="6.07794">
        <ele>231.07</ele>
        <time>2018-01-31T10:19:34Z</time>
      </trkpt>
      <trkpt lat="47.67208" lon="6.07791">
        <ele>231.16</ele>
        <time>2018-01-31T10:19:37Z</time>
      </trkpt>
      <trkpt lat="47.67212" lon="6.07787">
        <ele>231.27</ele>
        <time>2018-01-31T10:19:40Z</time>
      </trkpt>
      <trkpt lat="47.67217" lon="6.07784">
        <ele>231.4</ele>
        <time>2018-01-31T10:19:43Z</time>
      </trkpt>
      <trkpt lat="47.67222" lon="6.07779">
        <ele>231.57</ele>
        <time>2018-01-31T10:19:46Z</time>
      </trkpt>
      <trkpt lat="47.67227" lon="6.07776">
        <ele>231.69</ele>
        <time>2018-01-31T10:19:48Z</time>
      </trkpt>
      <trkpt lat="47.6723" lon="6.07771">
        <ele>231.82</ele>
        <time>2018-01-31T10:19:50Z</time>
      </trkpt>
      <trkpt lat="47.67234" lon="6.07767">
        <ele>231.97</ele>
        <time>2018-01-31T10:19:52Z</time>
      </trkpt>
      <trkpt lat="47.67238" lon="6.07761">
        <ele>232.19</ele>
        <time>2018-01-31T10:19:55Z</time>
      </trkpt>
      <trkpt lat="47.67243" lon="6.07755">
        <ele>232.42</ele>
        <time>2018-01-31T10:19:58Z</time>
      </trkpt>
      <trkpt lat="47.67249" lon="6.07754">
        <ele>232.76</ele>
        <time>2018-01-31T10:20:02Z</time>
      </trkpt>
      <trkpt lat="47.67255" lon="6.07751">
        <ele>233.13</ele>
        <time>2018-01-31T10:20:06Z</time>
      </trkpt>
      <trkpt lat="47.6726" lon="6.07749">
        <ele>233.39</ele>
        <time>2018-01-31T10:20:09Z</time>
      </trkpt>
      <trkpt lat="47.67267" lon="6.07745">
        <ele>233.95</ele>
        <time>2018-01-31T10:20:15Z</time>
      </trkpt>
      <trkpt lat="47.67272" lon="6.07743">
        <ele>234.33</ele>
        <time>2018-01-31T10:20:19Z</time>
      </trkpt>
      <trkpt lat="47.67277" lon="6.07741">
        <ele>234.62</ele>
        <time>2018-01-31T10:20:22Z</time>
      </trkpt>
      <trkpt lat="47.67287" lon="6.07741">
        <ele>235.28</ele>
        <time>2018-01-31T10:20:29Z</time>
      </trkpt>
      <trkpt lat="47.67292" lon="6.07742">
        <ele>235.7</ele>
        <time>2018-01-31T10:20:33Z</time>
      </trkpt>
      <trkpt lat="47.67303" lon="6.07744">
        <ele>236.69</ele>
        <time>2018-01-31T10:20:42Z</time>
      </trkpt>
      <trkpt lat="47.67311" lon="6.07745">
        <ele>237.45</ele>
        <time>2018-01-31T10:20:49Z</time>
      </trkpt>
      <trkpt lat="47.67317" lon="6.07745">
        <ele>237.89</ele>
        <time>2018-01-31T10:20:53Z</time>
      </trkpt>
      <trkpt lat="47.67323" lon="6.07747">
        <ele>238.32</ele>
        <time>2018-01-31T10:20:57Z</time>
      </trkpt>
      <trkpt lat="47.67329" lon="6.0775">
        <ele>238.55</ele>
        <time>2018-01-31T10:20:59Z</time>
      </trkpt>
      <trkpt lat="47.67334" lon="6.07752">
        <ele>238.8</ele>
        <time>2018-01-31T10:21:01Z</time>
      </trkpt>
      <trkpt lat="47.67339" lon="6.07754">
        <ele>239.19</ele>
        <time>2018-01-31T10:21:04Z</time>
      </trkpt>
      <trkpt lat="47.67347" lon="6.07757">
        <ele>239.94</ele>
        <time>2018-01-31T10:21:10Z</time>
      </trkpt>
      <trkpt lat="47.67352" lon="6.07759">
        <ele>240.28</ele>
        <time>2018-01-31T10:21:13Z</time>
      </trkpt>
      <trkpt lat="47.67359" lon="6.07761">
        <ele>240.61</ele>
        <time>2018-01-31T10:21:16Z</time>
      </trkpt>
      <trkpt lat="47.67364" lon="6.07763">
        <ele>240.84</ele>
        <time>2018-01-31T10:21:18Z</time>
      </trkpt>
      <trkpt lat="47.6737" lon="6.07764">
        <ele>241.17</ele>
        <time>2018-01-31T10:21:21Z</time>
      </trkpt>
      <trkpt lat="47.67375" lon="6.07766">
        <ele>241.49</ele>
        <time>2018-01-31T10:21:24Z</time>
      </trkpt>
      <trkpt lat="47.6738" lon="6.07767">
        <ele>241.7</ele>
        <time>2018-01-31T10:21:26Z</time>
      </trkpt>
      <trkpt lat="47.67387" lon="6.0777">
        <ele>242.14</ele>
        <time>2018-01-31T10:21:30Z</time>
      </trkpt>
      <trkpt lat="47.67392" lon="6.07772">
        <ele>242.47</ele>
        <time>2018-01-31T10:21:33Z</time>
      </trkpt>
      <trkpt lat="47.67397" lon="6.07772">
        <ele>242.82</ele>
        <time>2018-01-31T10:21:36Z</time>
      </trkpt>
      <trkpt lat="47.67404" lon="6.07772">
        <ele>243.06</ele>
        <time>2018-01-31T10:21:38Z</time>
      </trkpt>
      <trkpt lat="47.67411" lon="6.07773">
        <ele>243.31</ele>
        <time>2018-01-31T10:21:40Z</time>
      </trkpt>
      <trkpt lat="47.67415" lon="6.07775">
        <ele>243.69</ele>
        <time>2018-01-31T10:21:43Z</time>
      </trkpt>
      <trkpt lat="47.67422" lon="6.07777">
        <ele>244.16</ele>
        <time>2018-01-31T10:21:47Z</time>
      </trkpt>
      <trkpt lat="47.67431" lon="6.07777">
        <ele>244.39</ele>
        <time>2018-01-31T10:21:49Z</time>
      </trkpt>
      <trkpt lat="47.67436" lon="6.07778">
        <ele>244.61</ele>
        <time>2018-01-31T10:21:51Z</time>
      </trkpt>
      <trkpt lat="47.6744" lon="6.0778">
        <ele>244.94</ele>
        <time>2018-01-31T10:21:54Z</time>
      </trkpt>
      <trkpt lat="47.67446" lon="6.07784">
        <ele>245.27</ele>
        <time>2018-01-31T10:21:57Z</time>
      </trkpt>
      <trkpt lat="47.6745" lon="6.07788">
        <ele>245.48</ele>
        <time>2018-01-31T10:21:59Z</time>
      </trkpt>
      <trkpt lat="47.67455" lon="6.07793">
        <ele>245.79</ele>
        <time>2018-01-31T10:22:02Z</time>
      </trkpt>
      <trkpt lat="47.6746" lon="6.07797">
        <ele>246.08</ele>
        <time>2018-01-31T10:22:05Z</time>
      </trkpt>
      <trkpt lat="47.67463" lon="6.07802">
        <ele>246.34</ele>
        <time>2018-01-31T10:22:08Z</time>
      </trkpt>
      <trkpt lat="47.67467" lon="6.07808">
        <ele>246.58</ele>
        <time>2018-01-31T10:22:11Z</time>
      </trkpt>
      <trkpt lat="47.67471" lon="6.07812">
        <ele>246.73</ele>
        <time>2018-01-31T10:22:13Z</time>
      </trkpt>
      <trkpt lat="47.67476" lon="6.07816">
        <ele>246.86</ele>
        <time>2018-01-31T10:22:15Z</time>
      </trkpt>
      <trkpt lat="47.67482" lon="6.07818">
        <ele>247.04</ele>
        <time>2018-01-31T10:22:18Z</time>
      </trkpt>
      <trkpt lat="47.67488" lon="6.07816">
        <ele>247.22</ele>
        <time>2018-01-31T10:22:21Z</time>
      </trkpt>
      <trkpt lat="47.67493" lon="6.07815">
        <ele>247.28</ele>
        <time>2018-01-31T10:22:22Z</time>
      </trkpt>
      <trkpt lat="47.67498" lon="6.07811">
        <ele>247.4</ele>
        <time>2018-01-31T10:22:24Z</time>
      </trkpt>
      <trkpt lat="47.67503" lon="6.07807">
        <ele>247.6</ele>
        <time>2018-01-31T10:22:27Z</time>
      </trkpt>
      <trkpt lat="47.67507" lon="6.07801">
        <ele>247.79</ele>
        <time>2018-01-31T10:22:30Z</time>
      </trkpt>
      <trkpt lat="47.67503" lon="6.07797">
        <ele>248.16</ele>
        <time>2018-01-31T10:22:50Z</time>
      </trkpt>
      <trkpt lat="47.67499" lon="6.07792">
        <ele>248.52</ele>
        <time>2018-01-31T10:23:17Z</time>
      </trkpt>
      <trkpt lat="47.67505" lon="6.07785">
        <ele>248.83</ele>
        <time>2018-01-31T10:23:22Z</time>
      </trkpt>
      <trkpt lat="47.6751" lon="6.07783">
        <ele>248.95</ele>
        <time>2018-01-31T10:23:24Z</time>
      </trkpt>
      <trkpt lat="47.67514" lon="6.07778">
        <ele>249.12</ele>
        <time>2018-01-31T10:23:27Z</time>
      </trkpt>
      <trkpt lat="47.67518" lon="6.07773">
        <ele>249.32</ele>
        <time>2018-01-31T10:23:31Z</time>
      </trkpt>
      <trkpt lat="47.67522" lon="6.07765">
        <ele>249.55</ele>
        <time>2018-01-31T10:23:36Z</time>
      </trkpt>
      <trkpt lat="47.67527" lon="6.07759">
        <ele>249.64</ele>
        <time>2018-01-31T10:23:38Z</time>
      </trkpt>
      <trkpt lat="47.6753" lon="6.07753">
        <ele>249.72</ele>
        <time>2018-01-31T10:23:40Z</time>
      </trkpt>
      <trkpt lat="47.67534" lon="6.07748">
        <ele>249.84</ele>
        <time>2018-01-31T10:23:43Z</time>
      </trkpt>
      <trkpt lat="47.67538" lon="6.07742">
        <ele>249.95</ele>
        <time>2018-01-31T10:23:46Z</time>
      </trkpt>
      <trkpt lat="47.67542" lon="6.07738">
        <ele>250.06</ele>
        <time>2018-01-31T10:23:49Z</time>
      </trkpt>
      <trkpt lat="47.67546" lon="6.07732">
        <ele>250.16</ele>
        <time>2018-01-31T10:23:52Z</time>
      </trkpt>
      <trkpt lat="47.6755" lon="6.07728">
        <ele>250.35</ele>
        <time>2018-01-31T10:24:04Z</time>
      </trkpt>
      <trkpt lat="47.67553" lon="6.07722">
        <ele>250.59</ele>
        <time>2018-01-31T10:24:17Z</time>
      </trkpt>
      <trkpt lat="47.67557" lon="6.07717">
        <ele>250.64</ele>
        <time>2018-01-31T10:24:19Z</time>
      </trkpt>
      <trkpt lat="47.67562" lon="6.07714">
        <ele>250.7</ele>
        <time>2018-01-31T10:24:21Z</time>
      </trkpt>
      <trkpt lat="47.67566" lon="6.07711">
        <ele>250.75</ele>
        <time>2018-01-31T10:24:23Z</time>
      </trkpt>
      <trkpt lat="47.6757" lon="6.07705">
        <ele>250.79</ele>
        <time>2018-01-31T10:24:25Z</time>
      </trkpt>
      <trkpt lat="47.67574" lon="6.07702">
        <ele>250.84</ele>
        <time>2018-01-31T10:24:27Z</time>
      </trkpt>
      <trkpt lat="47.67579" lon="6.07697">
        <ele>250.88</ele>
        <time>2018-01-31T10:24:29Z</time>
      </trkpt>
      <trkpt lat="47.67582" lon="6.07689">
        <ele>250.92</ele>
        <time>2018-01-31T10:24:31Z</time>
      </trkpt>
      <trkpt lat="47.67586" lon="6.07685">
        <ele>250.96</ele>
        <time>2018-01-31T10:24:33Z</time>
      </trkpt>
      <trkpt lat="47.67591" lon="6.07679">
        <ele>251.02</ele>
        <time>2018-01-31T10:24:36Z</time>
      </trkpt>
      <trkpt lat="47.67597" lon="6.07675">
        <ele>251.08</ele>
        <time>2018-01-31T10:24:39Z</time>
      </trkpt>
      <trkpt lat="47.67601" lon="6.07671">
        <ele>251.13</ele>
        <time>2018-01-31T10:24:42Z</time>
      </trkpt>
      <trkpt lat="47.67604" lon="6.07665">
        <ele>251.18</ele>
        <time>2018-01-31T10:24:45Z</time>
      </trkpt>
      <trkpt lat="47.67607" lon="6.07656">
        <ele>251.26</ele>
        <time>2018-01-31T10:24:50Z</time>
      </trkpt>
      <trkpt lat="47.67608" lon="6.07647">
        <ele>251.31</ele>
        <time>2018-01-31T10:24:53Z</time>
      </trkpt>
      <trkpt lat="47.67612" lon="6.07642">
        <ele>251.42</ele>
        <time>2018-01-31T10:25:04Z</time>
      </trkpt>
      <trkpt lat="47.67613" lon="6.07636">
        <ele>251.49</ele>
        <time>2018-01-31T10:25:17Z</time>
      </trkpt>
      <trkpt lat="47.67617" lon="6.07629">
        <ele>251.53</ele>
        <time>2018-01-31T10:25:20Z</time>
      </trkpt>
      <trkpt lat="47.67621" lon="6.07623">
        <ele>251.55</ele>
        <time>2018-01-31T10:25:22Z</time>
      </trkpt>
      <trkpt lat="47.67625" lon="6.07616">
        <ele>251.58</ele>
        <time>2018-01-31T10:25:24Z</time>
      </trkpt>
      <trkpt lat="47.67629" lon="6.07612">
        <ele>251.6</ele>
        <time>2018-01-31T10:25:26Z</time>
      </trkpt>
      <trkpt lat="47.67634" lon="6.07607">
        <ele>251.62</ele>
        <time>2018-01-31T10:25:28Z</time>
      </trkpt>
      <trkpt lat="47.67639" lon="6.07605">
        <ele>251.64</ele>
        <time>2018-01-31T10:25:30Z</time>
      </trkpt>
      <trkpt lat="47.67643" lon="6.07603">
        <ele>251.72</ele>
        <time>2018-01-31T10:25:45Z</time>
      </trkpt>
      <trkpt lat="47.67647" lon="6.07599">
        <ele>251.73</ele>
        <time>2018-01-31T10:25:48Z</time>
      </trkpt>
      <trkpt lat="47.6765" lon="6.07593">
        <ele>251.76</ele>
        <time>2018-01-31T10:25:52Z</time>
      </trkpt>
      <trkpt lat="47.67654" lon="6.07588">
        <ele>251.79</ele>
        <time>2018-01-31T10:25:59Z</time>
      </trkpt>
      <trkpt lat="47.67658" lon="6.07582">
        <ele>251.82</ele>
        <time>2018-01-31T10:26:03Z</time>
      </trkpt>
      <trkpt lat="47.6766" lon="6.07575">
        <ele>251.84</ele>
        <time>2018-01-31T10:26:06Z</time>
      </trkpt>
      <trkpt lat="47.67663" lon="6.07569">
        <ele>251.87</ele>
        <time>2018-01-31T10:26:10Z</time>
      </trkpt>
      <trkpt lat="47.67664" lon="6.07562">
        <ele>251.89</ele>
        <time>2018-01-31T10:26:13Z</time>
      </trkpt>
      <trkpt lat="47.67664" lon="6.07554">
        <ele>251.9</ele>
        <time>2018-01-31T10:26:16Z</time>
      </trkpt>
      <trkpt lat="47.67665" lon="6.07546">
        <ele>251.92</ele>
        <time>2018-01-31T10:26:19Z</time>
      </trkpt>
      <trkpt lat="47.67665" lon="6.07538">
        <ele>251.93</ele>
        <time>2018-01-31T10:26:22Z</time>
      </trkpt>
      <trkpt lat="47.67665" lon="6.07531">
        <ele>251.95</ele>
        <time>2018-01-31T10:26:25Z</time>
      </trkpt>
      <trkpt lat="47.67667" lon="6.07525">
        <ele>251.99</ele>
        <time>2018-01-31T10:26:29Z</time>
      </trkpt>
      <trkpt lat="47.67671" lon="6.0752">
        <ele>252.03</ele>
        <time>2018-01-31T10:26:33Z</time>
      </trkpt>
      <trkpt lat="47.67675" lon="6.07516">
        <ele>252.08</ele>
        <time>2018-01-31T10:26:38Z</time>
      </trkpt>
      <trkpt lat="47.67679" lon="6.07511">
        <ele>252.12</ele>
        <time>2018-01-31T10:26:42Z</time>
      </trkpt>
      <trkpt lat="47.67683" lon="6.07505">
        <ele>252.16</ele>
        <time>2018-01-31T10:26:46Z</time>
      </trkpt>
      <trkpt lat="47.67686" lon="6.07499">
        <ele>252.19</ele>
        <time>2018-01-31T10:26:49Z</time>
      </trkpt>
      <trkpt lat="47.67691" lon="6.0749">
        <ele>252.22</ele>
        <time>2018-01-31T10:26:52Z</time>
      </trkpt>
      <trkpt lat="47.67697" lon="6.07482">
        <ele>252.24</ele>
        <time>2018-01-31T10:26:54Z</time>
      </trkpt>
      <trkpt lat="47.67701" lon="6.07473">
        <ele>252.27</ele>
        <time>2018-01-31T10:26:56Z</time>
      </trkpt>
      <trkpt lat="47.67707" lon="6.0747">
        <ele>252.29</ele>
        <time>2018-01-31T10:26:58Z</time>
      </trkpt>
      <trkpt lat="47.67711" lon="6.07463">
        <ele>252.31</ele>
        <time>2018-01-31T10:27:00Z</time>
      </trkpt>
      <trkpt lat="47.67714" lon="6.07458">
        <ele>252.33</ele>
        <time>2018-01-31T10:27:02Z</time>
      </trkpt>
      <trkpt lat="47.67719" lon="6.07451">
        <ele>252.36</ele>
        <time>2018-01-31T10:27:05Z</time>
      </trkpt>
      <trkpt lat="47.67722" lon="6.07446">
        <ele>252.39</ele>
        <time>2018-01-31T10:27:08Z</time>
      </trkpt>
      <trkpt lat="47.67726" lon="6.07441">
        <ele>252.41</ele>
        <time>2018-01-31T10:27:10Z</time>
      </trkpt>
      <trkpt lat="47.6773" lon="6.07433">
        <ele>252.43</ele>
        <time>2018-01-31T10:27:12Z</time>
      </trkpt>
      <trkpt lat="47.67733" lon="6.07425">
        <ele>252.46</ele>
        <time>2018-01-31T10:27:14Z</time>
      </trkpt>
      <trkpt lat="47.67737" lon="6.0742">
        <ele>252.49</ele>
        <time>2018-01-31T10:27:16Z</time>
      </trkpt>
      <trkpt lat="47.67741" lon="6.07413">
        <ele>252.52</ele>
        <time>2018-01-31T10:27:18Z</time>
      </trkpt>
      <trkpt lat="47.67745" lon="6.07407">
        <ele>252.55</ele>
        <time>2018-01-31T10:27:20Z</time>
      </trkpt>
      <trkpt lat="47.67749" lon="6.07403">
        <ele>252.58</ele>
        <time>2018-01-31T10:27:22Z</time>
      </trkpt>
      <trkpt lat="47.67753" lon="6.07398">
        <ele>252.62</ele>
        <time>2018-01-31T10:27:24Z</time>
      </trkpt>
      <trkpt lat="47.67756" lon="6.07391">
        <ele>252.65</ele>
        <time>2018-01-31T10:27:26Z</time>
      </trkpt>
      <trkpt lat="47.67761" lon="6.07386">
        <ele>252.7</ele>
        <time>2018-01-31T10:27:29Z</time>
      </trkpt>
      <trkpt lat="47.67765" lon="6.0738">
        <ele>252.73</ele>
        <time>2018-01-31T10:27:31Z</time>
      </trkpt>
      <trkpt lat="47.67768" lon="6.07375">
        <ele>252.77</ele>
        <time>2018-01-31T10:27:33Z</time>
      </trkpt>
      <trkpt lat="47.67772" lon="6.07369">
        <ele>252.8</ele>
        <time>2018-01-31T10:27:35Z</time>
      </trkpt>
      <trkpt lat="47.67776" lon="6.07362">
        <ele>252.86</ele>
        <time>2018-01-31T10:27:38Z</time>
      </trkpt>
      <trkpt lat="47.67782" lon="6.07354">
        <ele>252.91</ele>
        <time>2018-01-31T10:27:41Z</time>
      </trkpt>
      <trkpt lat="47.67786" lon="6.07346">
        <ele>252.95</ele>
        <time>2018-01-31T10:27:43Z</time>
      </trkpt>
      <trkpt lat="47.6779" lon="6.07341">
        <ele>252.99</ele>
        <time>2018-01-31T10:27:45Z</time>
      </trkpt>
      <trkpt lat="47.67792" lon="6.07336">
        <ele>253.07</ele>
        <time>2018-01-31T10:27:49Z</time>
      </trkpt>
      <trkpt lat="47.67795" lon="6.07329">
        <ele>253.12</ele>
        <time>2018-01-31T10:27:52Z</time>
      </trkpt>
      <trkpt lat="47.67801" lon="6.07322">
        <ele>253.17</ele>
        <time>2018-01-31T10:27:55Z</time>
      </trkpt>
      <trkpt lat="47.67804" lon="6.07317">
        <ele>253.21</ele>
        <time>2018-01-31T10:27:58Z</time>
      </trkpt>
      <trkpt lat="47.67808" lon="6.07311">
        <ele>253.27</ele>
        <time>2018-01-31T10:28:03Z</time>
      </trkpt>
      <trkpt lat="47.67812" lon="6.07308">
        <ele>253.33</ele>
        <time>2018-01-31T10:28:08Z</time>
      </trkpt>
      <trkpt lat="47.67816" lon="6.07303">
        <ele>253.38</ele>
        <time>2018-01-31T10:28:12Z</time>
      </trkpt>
      <trkpt lat="47.67821" lon="6.07297">
        <ele>253.43</ele>
        <time>2018-01-31T10:28:16Z</time>
      </trkpt>
      <trkpt lat="47.67825" lon="6.07293">
        <ele>253.46</ele>
        <time>2018-01-31T10:28:18Z</time>
      </trkpt>
      <trkpt lat="47.67828" lon="6.07288">
        <ele>253.48</ele>
        <time>2018-01-31T10:28:20Z</time>
      </trkpt>
      <trkpt lat="47.6783" lon="6.0728">
        <ele>253.52</ele>
        <time>2018-01-31T10:28:22Z</time>
      </trkpt>
      <trkpt lat="47.67834" lon="6.07274">
        <ele>253.54</ele>
        <time>2018-01-31T10:28:24Z</time>
      </trkpt>
      <trkpt lat="47.67838" lon="6.07267">
        <ele>253.57</ele>
        <time>2018-01-31T10:28:26Z</time>
      </trkpt>
      <trkpt lat="47.67842" lon="6.07259">
        <ele>253.59</ele>
        <time>2018-01-31T10:28:28Z</time>
      </trkpt>
      <trkpt lat="47.67846" lon="6.07251">
        <ele>253.61</ele>
        <time>2018-01-31T10:28:30Z</time>
      </trkpt>
      <trkpt lat="47.67849" lon="6.07245">
        <ele>253.64</ele>
        <time>2018-01-31T10:28:32Z</time>
      </trkpt>
      <trkpt lat="47.67853" lon="6.07238">
        <ele>253.66</ele>
        <time>2018-01-31T10:28:35Z</time>
      </trkpt>
      <trkpt lat="47.67858" lon="6.07233">
        <ele>253.69</ele>
        <time>2018-01-31T10:28:39Z</time>
      </trkpt>
      <trkpt lat="47.67863" lon="6.07228">
        <ele>253.71</ele>
        <time>2018-01-31T10:28:42Z</time>
      </trkpt>
      <trkpt lat="47.67867" lon="6.07222">
        <ele>253.73</ele>
        <time>2018-01-31T10:28:45Z</time>
      </trkpt>
      <trkpt lat="47.67871" lon="6.07216">
        <ele>253.76</ele>
        <time>2018-01-31T10:28:48Z</time>
      </trkpt>
      <trkpt lat="47.67876" lon="6.07213">
        <ele>253.79</ele>
        <time>2018-01-31T10:28:52Z</time>
      </trkpt>
      <trkpt lat="47.6788" lon="6.07209">
        <ele>253.8</ele>
        <time>2018-01-31T10:28:54Z</time>
      </trkpt>
      <trkpt lat="47.67885" lon="6.07203">
        <ele>253.82</ele>
        <time>2018-01-31T10:28:56Z</time>
      </trkpt>
      <trkpt lat="47.67887" lon="6.07197">
        <ele>253.83</ele>
        <time>2018-01-31T10:28:58Z</time>
      </trkpt>
      <trkpt lat="47.6789" lon="6.07191">
        <ele>253.85</ele>
        <time>2018-01-31T10:29:00Z</time>
      </trkpt>
      <trkpt lat="47.67895" lon="6.07184">
        <ele>253.88</ele>
        <time>2018-01-31T10:29:03Z</time>
      </trkpt>
      <trkpt lat="47.67898" lon="6.07179">
        <ele>253.9</ele>
        <time>2018-01-31T10:29:05Z</time>
      </trkpt>
      <trkpt lat="47.67903" lon="6.07175">
        <ele>253.91</ele>
        <time>2018-01-31T10:29:06Z</time>
      </trkpt>
      <trkpt lat="47.67909" lon="6.0717">
        <ele>253.93</ele>
        <time>2018-01-31T10:29:08Z</time>
      </trkpt>
      <trkpt lat="47.67913" lon="6.07166">
        <ele>253.96</ele>
        <time>2018-01-31T10:29:10Z</time>
      </trkpt>
      <trkpt lat="47.67917" lon="6.07158">
        <ele>254</ele>
        <time>2018-01-31T10:29:12Z</time>
      </trkpt>
      <trkpt lat="47.67921" lon="6.07152">
        <ele>254.05</ele>
        <time>2018-01-31T10:29:14Z</time>
      </trkpt>
      <trkpt lat="47.67923" lon="6.07143">
        <ele>254.13</ele>
        <time>2018-01-31T10:29:17Z</time>
      </trkpt>
      <trkpt lat="47.67922" lon="6.07135">
        <ele>254.22</ele>
        <time>2018-01-31T10:29:20Z</time>
      </trkpt>
      <trkpt lat="47.67918" lon="6.07128">
        <ele>254.3</ele>
        <time>2018-01-31T10:29:23Z</time>
      </trkpt>
      <trkpt lat="47.67917" lon="6.07122">
        <ele>254.37</ele>
        <time>2018-01-31T10:29:26Z</time>
      </trkpt>
      <trkpt lat="47.67916" lon="6.07114">
        <ele>254.41</ele>
        <time>2018-01-31T10:29:28Z</time>
      </trkpt>
      <trkpt lat="47.67914" lon="6.07107">
        <ele>254.45</ele>
        <time>2018-01-31T10:29:30Z</time>
      </trkpt>
      <trkpt lat="47.67913" lon="6.071">
        <ele>254.53</ele>
        <time>2018-01-31T10:29:33Z</time>
      </trkpt>
      <trkpt lat="47.67913" lon="6.07092">
        <ele>254.64</ele>
        <time>2018-01-31T10:29:37Z</time>
      </trkpt>
      <trkpt lat="47.67911" lon="6.07085">
        <ele>254.83</ele>
        <time>2018-01-31T10:29:57Z</time>
      </trkpt>
      <trkpt lat="47.67908" lon="6.07078">
        <ele>255.28</ele>
        <time>2018-01-31T10:30:05Z</time>
      </trkpt>
      <trkpt lat="47.67905" lon="6.07073">
        <ele>255.82</ele>
        <time>2018-01-31T10:30:12Z</time>
      </trkpt>
      <trkpt lat="47.67901" lon="6.07072">
        <ele>256.17</ele>
        <time>2018-01-31T10:30:19Z</time>
      </trkpt>
      <trkpt lat="47.67899" lon="6.07066">
        <ele>256.53</ele>
        <time>2018-01-31T10:30:33Z</time>
      </trkpt>
      <trkpt lat="47.67898" lon="6.07059">
        <ele>256.75</ele>
        <time>2018-01-31T10:30:36Z</time>
      </trkpt>
      <trkpt lat="47.67895" lon="6.0705">
        <ele>256.89</ele>
        <time>2018-01-31T10:30:38Z</time>
      </trkpt>
      <trkpt lat="47.67893" lon="6.07043">
        <ele>257.02</ele>
        <time>2018-01-31T10:30:40Z</time>
      </trkpt>
      <trkpt lat="47.67892" lon="6.07036">
        <ele>257.16</ele>
        <time>2018-01-31T10:30:42Z</time>
      </trkpt>
      <trkpt lat="47.67889" lon="6.0703">
        <ele>257.28</ele>
        <time>2018-01-31T10:30:44Z</time>
      </trkpt>
      <trkpt lat="47.67885" lon="6.07024">
        <ele>257.41</ele>
        <time>2018-01-31T10:30:46Z</time>
      </trkpt>
      <trkpt lat="47.67881" lon="6.07019">
        <ele>257.59</ele>
        <time>2018-01-31T10:30:49Z</time>
      </trkpt>
      <trkpt lat="47.67877" lon="6.07013">
        <ele>257.71</ele>
        <time>2018-01-31T10:30:51Z</time>
      </trkpt>
      <trkpt lat="47.67872" lon="6.07006">
        <ele>257.88</ele>
        <time>2018-01-31T10:30:54Z</time>
      </trkpt>
      <trkpt lat="47.67869" lon="6.07001">
        <ele>257.99</ele>
        <time>2018-01-31T10:30:56Z</time>
      </trkpt>
      <trkpt lat="47.67864" lon="6.06996">
        <ele>258.1</ele>
        <time>2018-01-31T10:30:58Z</time>
      </trkpt>
      <trkpt lat="47.67859" lon="6.06991">
        <ele>258.21</ele>
        <time>2018-01-31T10:31:00Z</time>
      </trkpt>
      <trkpt lat="47.67853" lon="6.06984">
        <ele>258.31</ele>
        <time>2018-01-31T10:31:02Z</time>
      </trkpt>
      <trkpt lat="47.67849" lon="6.06977">
        <ele>258.51</ele>
        <time>2018-01-31T10:31:06Z</time>
      </trkpt>
      <trkpt lat="47.67845" lon="6.06971">
        <ele>258.7</ele>
        <time>2018-01-31T10:31:10Z</time>
      </trkpt>
      <trkpt lat="47.67842" lon="6.06966">
        <ele>258.74</ele>
        <time>2018-01-31T10:31:11Z</time>
      </trkpt>
      <trkpt lat="47.67838" lon="6.06958">
        <ele>258.83</ele>
        <time>2018-01-31T10:31:13Z</time>
      </trkpt>
      <trkpt lat="47.67834" lon="6.06952">
        <ele>258.96</ele>
        <time>2018-01-31T10:31:16Z</time>
      </trkpt>
      <trkpt lat="47.67829" lon="6.06945">
        <ele>259.1</ele>
        <time>2018-01-31T10:31:19Z</time>
      </trkpt>
      <trkpt lat="47.67825" lon="6.06939">
        <ele>259.35</ele>
        <time>2018-01-31T10:31:25Z</time>
      </trkpt>
      <trkpt lat="47.67821" lon="6.06932">
        <ele>259.47</ele>
        <time>2018-01-31T10:31:28Z</time>
      </trkpt>
      <trkpt lat="47.67818" lon="6.06926">
        <ele>259.59</ele>
        <time>2018-01-31T10:31:31Z</time>
      </trkpt>
      <trkpt lat="47.67814" lon="6.0692">
        <ele>259.74</ele>
        <time>2018-01-31T10:31:35Z</time>
      </trkpt>
      <trkpt lat="47.67811" lon="6.06914">
        <ele>259.92</ele>
        <time>2018-01-31T10:31:40Z</time>
      </trkpt>
      <trkpt lat="47.67808" lon="6.06907">
        <ele>260.11</ele>
        <time>2018-01-31T10:31:46Z</time>
      </trkpt>
      <trkpt lat="47.67807" lon="6.06898">
        <ele>260.2</ele>
        <time>2018-01-31T10:31:49Z</time>
      </trkpt>
      <trkpt lat="47.67806" lon="6.06891">
        <ele>260.28</ele>
        <time>2018-01-31T10:31:52Z</time>
      </trkpt>
      <trkpt lat="47.67803" lon="6.06884">
        <ele>260.35</ele>
        <time>2018-01-31T10:31:55Z</time>
      </trkpt>
      <trkpt lat="47.67801" lon="6.06877">
        <ele>260.41</ele>
        <time>2018-01-31T10:31:58Z</time>
      </trkpt>
      <trkpt lat="47.67803" lon="6.06871">
        <ele>260.75</ele>
        <time>2018-01-31T10:33:03Z</time>
      </trkpt>
      <trkpt lat="47.67809" lon="6.06867">
        <ele>260.83</ele>
        <time>2018-01-31T10:33:09Z</time>
      </trkpt>
      <trkpt lat="47.67813" lon="6.06859">
        <ele>260.85</ele>
        <time>2018-01-31T10:33:11Z</time>
      </trkpt>
      <trkpt lat="47.67817" lon="6.06854">
        <ele>260.88</ele>
        <time>2018-01-31T10:33:13Z</time>
      </trkpt>
      <trkpt lat="47.67821" lon="6.06859">
        <ele>260.97</ele>
        <time>2018-01-31T10:33:19Z</time>
      </trkpt>
      <trkpt lat="47.67827" lon="6.06858">
        <ele>261.02</ele>
        <time>2018-01-31T10:33:23Z</time>
      </trkpt>
      <trkpt lat="47.67832" lon="6.06856">
        <ele>261.07</ele>
        <time>2018-01-31T10:33:27Z</time>
      </trkpt>
      <trkpt lat="47.67837" lon="6.06852">
        <ele>261.1</ele>
        <time>2018-01-31T10:33:30Z</time>
      </trkpt>
      <trkpt lat="47.67841" lon="6.06847">
        <ele>261.15</ele>
        <time>2018-01-31T10:33:34Z</time>
      </trkpt>
      <trkpt lat="47.67845" lon="6.06843">
        <ele>261.19</ele>
        <time>2018-01-31T10:33:37Z</time>
      </trkpt>
      <trkpt lat="47.67849" lon="6.06838">
        <ele>261.23</ele>
        <time>2018-01-31T10:33:40Z</time>
      </trkpt>
      <trkpt lat="47.67854" lon="6.06834">
        <ele>261.27</ele>
        <time>2018-01-31T10:33:43Z</time>
      </trkpt>
      <trkpt lat="47.67857" lon="6.06828">
        <ele>261.33</ele>
        <time>2018-01-31T10:33:46Z</time>
      </trkpt>
      <trkpt lat="47.6786" lon="6.06823">
        <ele>261.41</ele>
        <time>2018-01-31T10:33:50Z</time>
      </trkpt>
      <trkpt lat="47.67865" lon="6.06819">
        <ele>261.5</ele>
        <time>2018-01-31T10:33:54Z</time>
      </trkpt>
      <trkpt lat="47.6787" lon="6.06815">
        <ele>261.57</ele>
        <time>2018-01-31T10:33:57Z</time>
      </trkpt>
      <trkpt lat="47.67875" lon="6.06811">
        <ele>261.64</ele>
        <time>2018-01-31T10:34:00Z</time>
      </trkpt>
      <trkpt lat="47.6788" lon="6.06809">
        <ele>261.71</ele>
        <time>2018-01-31T10:34:03Z</time>
      </trkpt>
      <trkpt lat="47.67884" lon="6.06806">
        <ele>261.75</ele>
        <time>2018-01-31T10:34:05Z</time>
      </trkpt>
      <trkpt lat="47.6789" lon="6.06804">
        <ele>261.79</ele>
        <time>2018-01-31T10:34:07Z</time>
      </trkpt>
      <trkpt lat="47.67895" lon="6.06803">
        <ele>261.86</ele>
        <time>2018-01-31T10:34:10Z</time>
      </trkpt>
      <trkpt lat="47.679" lon="6.06801">
        <ele>261.94</ele>
        <time>2018-01-31T10:34:14Z</time>
      </trkpt>
      <trkpt lat="47.67904" lon="6.06797">
        <ele>262.06</ele>
        <time>2018-01-31T10:34:20Z</time>
      </trkpt>
      <trkpt lat="47.67909" lon="6.06793">
        <ele>262.19</ele>
        <time>2018-01-31T10:34:25Z</time>
      </trkpt>
      <trkpt lat="47.67914" lon="6.06789">
        <ele>262.29</ele>
        <time>2018-01-31T10:34:29Z</time>
      </trkpt>
      <trkpt lat="47.67919" lon="6.06786">
        <ele>262.36</ele>
        <time>2018-01-31T10:34:32Z</time>
      </trkpt>
      <trkpt lat="47.67924" lon="6.06782">
        <ele>262.44</ele>
        <time>2018-01-31T10:34:35Z</time>
      </trkpt>
      <trkpt lat="47.67929" lon="6.06778">
        <ele>262.54</ele>
        <time>2018-01-31T10:34:39Z</time>
      </trkpt>
      <trkpt lat="47.67933" lon="6.06775">
        <ele>262.61</ele>
        <time>2018-01-31T10:34:42Z</time>
      </trkpt>
      <trkpt lat="47.67938" lon="6.0677">
        <ele>262.7</ele>
        <time>2018-01-31T10:34:46Z</time>
      </trkpt>
      <trkpt lat="47.67944" lon="6.06769">
        <ele>262.76</ele>
        <time>2018-01-31T10:34:49Z</time>
      </trkpt>
      <trkpt lat="47.67948" lon="6.06767">
        <ele>262.83</ele>
        <time>2018-01-31T10:34:53Z</time>
      </trkpt>
      <trkpt lat="47.67954" lon="6.06763">
        <ele>262.89</ele>
        <time>2018-01-31T10:34:56Z</time>
      </trkpt>
      <trkpt lat="47.67961" lon="6.06761">
        <ele>262.91</ele>
        <time>2018-01-31T10:34:57Z</time>
      </trkpt>
      <trkpt lat="47.67966" lon="6.0676">
        <ele>262.94</ele>
        <time>2018-01-31T10:34:58Z</time>
      </trkpt>
      <trkpt lat="47.67971" lon="6.06759">
        <ele>263</ele>
        <time>2018-01-31T10:35:00Z</time>
      </trkpt>
      <trkpt lat="47.67976" lon="6.06757">
        <ele>263.08</ele>
        <time>2018-01-31T10:35:02Z</time>
      </trkpt>
      <trkpt lat="47.6798" lon="6.06753">
        <ele>263.21</ele>
        <time>2018-01-31T10:35:05Z</time>
      </trkpt>
      <trkpt lat="47.67984" lon="6.06749">
        <ele>263.35</ele>
        <time>2018-01-31T10:35:08Z</time>
      </trkpt>
      <trkpt lat="47.67988" lon="6.06745">
        <ele>263.49</ele>
        <time>2018-01-31T10:35:11Z</time>
      </trkpt>
      <trkpt lat="47.67993" lon="6.06742">
        <ele>263.73</ele>
        <time>2018-01-31T10:35:18Z</time>
      </trkpt>
      <trkpt lat="47.68003" lon="6.06745">
        <ele>263.82</ele>
        <time>2018-01-31T10:35:21Z</time>
      </trkpt>
      <trkpt lat="47.68013" lon="6.06749">
        <ele>263.88</ele>
        <time>2018-01-31T10:35:24Z</time>
      </trkpt>
      <trkpt lat="47.6802" lon="6.06749">
        <ele>263.9</ele>
        <time>2018-01-31T10:35:25Z</time>
      </trkpt>
      <trkpt lat="47.68025" lon="6.0675">
        <ele>263.92</ele>
        <time>2018-01-31T10:35:26Z</time>
      </trkpt>
      <trkpt lat="47.6803" lon="6.06751">
        <ele>263.94</ele>
        <time>2018-01-31T10:35:27Z</time>
      </trkpt>
      <trkpt lat="47.68038" lon="6.06753">
        <ele>263.98</ele>
        <time>2018-01-31T10:35:29Z</time>
      </trkpt>
      <trkpt lat="47.68044" lon="6.06752">
        <ele>264.08</ele>
        <time>2018-01-31T10:35:33Z</time>
      </trkpt>
      <trkpt lat="47.6805" lon="6.06754">
        <ele>264.17</ele>
        <time>2018-01-31T10:35:36Z</time>
      </trkpt>
      <trkpt lat="47.68055" lon="6.06756">
        <ele>264.27</ele>
        <time>2018-01-31T10:35:39Z</time>
      </trkpt>
      <trkpt lat="47.6806" lon="6.06759">
        <ele>264.48</ele>
        <time>2018-01-31T10:35:44Z</time>
      </trkpt>
      <trkpt lat="47.68069" lon="6.06761">
        <ele>264.68</ele>
        <time>2018-01-31T10:35:49Z</time>
      </trkpt>
      <trkpt lat="47.68077" lon="6.06758">
        <ele>264.71</ele>
        <time>2018-01-31T10:35:50Z</time>
      </trkpt>
      <trkpt lat="47.68083" lon="6.06759">
        <ele>264.74</ele>
        <time>2018-01-31T10:35:51Z</time>
      </trkpt>
      <trkpt lat="47.68089" lon="6.06758">
        <ele>264.8</ele>
        <time>2018-01-31T10:35:54Z</time>
      </trkpt>
      <trkpt lat="47.68094" lon="6.06758">
        <ele>264.82</ele>
        <time>2018-01-31T10:35:56Z</time>
      </trkpt>
      <trkpt lat="47.68098" lon="6.06755">
        <ele>264.84</ele>
        <time>2018-01-31T10:36:00Z</time>
      </trkpt>
      <trkpt lat="47.68105" lon="6.06751">
        <ele>264.84</ele>
        <time>2018-01-31T10:36:03Z</time>
      </trkpt>
      <trkpt lat="47.6811" lon="6.06748">
        <ele>264.84</ele>
        <time>2018-01-31T10:36:04Z</time>
      </trkpt>
      <trkpt lat="47.68115" lon="6.06742">
        <ele>264.84</ele>
        <time>2018-01-31T10:36:07Z</time>
      </trkpt>
      <trkpt lat="47.6812" lon="6.06742">
        <ele>264.81</ele>
        <time>2018-01-31T10:36:13Z</time>
      </trkpt>
      <trkpt lat="47.68123" lon="6.06748">
        <ele>264.76</ele>
        <time>2018-01-31T10:36:20Z</time>
      </trkpt>
      <trkpt lat="47.68125" lon="6.06756">
        <ele>264.74</ele>
        <time>2018-01-31T10:36:29Z</time>
      </trkpt>
      <trkpt lat="47.68128" lon="6.06761">
        <ele>264.72</ele>
        <time>2018-01-31T10:36:33Z</time>
      </trkpt>
      <trkpt lat="47.68127" lon="6.06768">
        <ele>264.63</ele>
        <time>2018-01-31T10:36:58Z</time>
      </trkpt>
      <trkpt lat="47.68128" lon="6.06775">
        <ele>264.63</ele>
        <time>2018-01-31T10:37:07Z</time>
      </trkpt>
      <trkpt lat="47.68133" lon="6.06775">
        <ele>264.57</ele>
        <time>2018-01-31T10:37:23Z</time>
      </trkpt>
      <trkpt lat="47.68138" lon="6.06773">
        <ele>264.55</ele>
        <time>2018-01-31T10:37:25Z</time>
      </trkpt>
      <trkpt lat="47.68137" lon="6.06766">
        <ele>264.47</ele>
        <time>2018-01-31T10:37:32Z</time>
      </trkpt>
      <trkpt lat="47.6814" lon="6.0676">
        <ele>264.43</ele>
        <time>2018-01-31T10:37:41Z</time>
      </trkpt>
      <trkpt lat="47.68145" lon="6.06758">
        <ele>264.38</ele>
        <time>2018-01-31T10:37:45Z</time>
      </trkpt>
      <trkpt lat="47.68151" lon="6.0676">
        <ele>264.32</ele>
        <time>2018-01-31T10:37:51Z</time>
      </trkpt>
      <trkpt lat="47.68155" lon="6.06761">
        <ele>264.26</ele>
        <time>2018-01-31T10:37:55Z</time>
      </trkpt>
      <trkpt lat="47.6816" lon="6.06763">
        <ele>264.19</ele>
        <time>2018-01-31T10:38:00Z</time>
      </trkpt>
      <trkpt lat="47.68165" lon="6.06765">
        <ele>264.08</ele>
        <time>2018-01-31T10:38:18Z</time>
      </trkpt>
      <trkpt lat="47.6817" lon="6.06768">
        <ele>263.96</ele>
        <time>2018-01-31T10:38:23Z</time>
      </trkpt>
      <trkpt lat="47.68176" lon="6.06769">
        <ele>263.83</ele>
        <time>2018-01-31T10:38:28Z</time>
      </trkpt>
      <trkpt lat="47.68179" lon="6.06775">
        <ele>263.7</ele>
        <time>2018-01-31T10:38:36Z</time>
      </trkpt>
      <trkpt lat="47.68183" lon="6.0678">
        <ele>263.56</ele>
        <time>2018-01-31T10:38:43Z</time>
      </trkpt>
      <trkpt lat="47.68188" lon="6.06783">
        <ele>263.47</ele>
        <time>2018-01-31T10:38:46Z</time>
      </trkpt>
      <trkpt lat="47.68192" lon="6.06786">
        <ele>263.3</ele>
        <time>2018-01-31T10:38:51Z</time>
      </trkpt>
      <trkpt lat="47.68196" lon="6.06791">
        <ele>263.1</ele>
        <time>2018-01-31T10:38:57Z</time>
      </trkpt>
      <trkpt lat="47.68196" lon="6.06798">
        <ele>262.87</ele>
        <time>2018-01-31T10:39:04Z</time>
      </trkpt>
      <trkpt lat="47.682" lon="6.06801">
        <ele>262.54</ele>
        <time>2018-01-31T10:39:15Z</time>
      </trkpt>
      <trkpt lat="47.68204" lon="6.06805">
        <ele>262.4</ele>
        <time>2018-01-31T10:39:19Z</time>
      </trkpt>
      <trkpt lat="47.68209" lon="6.06808">
        <ele>262.21</ele>
        <time>2018-01-31T10:39:24Z</time>
      </trkpt>
      <trkpt lat="47.68214" lon="6.06813">
        <ele>262.06</ele>
        <time>2018-01-31T10:39:28Z</time>
      </trkpt>
      <trkpt lat="47.68219" lon="6.06817">
        <ele>261.96</ele>
        <time>2018-01-31T10:39:31Z</time>
      </trkpt>
      <trkpt lat="47.68225" lon="6.06818">
        <ele>261.89</ele>
        <time>2018-01-31T10:39:33Z</time>
      </trkpt>
      <trkpt lat="47.6823" lon="6.06815">
        <ele>261.71</ele>
        <time>2018-01-31T10:39:39Z</time>
      </trkpt>
      <trkpt lat="47.68227" lon="6.06809">
        <ele>261.52</ele>
        <time>2018-01-31T10:39:54Z</time>
      </trkpt>
      <trkpt lat="47.68218" lon="6.06808">
        <ele>261.5</ele>
        <time>2018-01-31T10:39:57Z</time>
      </trkpt>
      <trkpt lat="47.68213" lon="6.06807">
        <ele>261.48</ele>
        <time>2018-01-31T10:40:00Z</time>
      </trkpt>
      <trkpt lat="47.68218" lon="6.06804">
        <ele>260.62</ele>
        <time>2018-01-31T10:41:15Z</time>
      </trkpt>
      <trkpt lat="47.6822" lon="6.06796">
        <ele>260.27</ele>
        <time>2018-01-31T10:41:30Z</time>
      </trkpt>
      <trkpt lat="47.68224" lon="6.06789">
        <ele>260.13</ele>
        <time>2018-01-31T10:41:32Z</time>
      </trkpt>
      <trkpt lat="47.68228" lon="6.06782">
        <ele>260</ele>
        <time>2018-01-31T10:41:34Z</time>
      </trkpt>
      <trkpt lat="47.68231" lon="6.06775">
        <ele>259.87</ele>
        <time>2018-01-31T10:41:36Z</time>
      </trkpt>
      <trkpt lat="47.68235" lon="6.06767">
        <ele>259.75</ele>
        <time>2018-01-31T10:41:38Z</time>
      </trkpt>
      <trkpt lat="47.6824" lon="6.06758">
        <ele>259.63</ele>
        <time>2018-01-31T10:41:40Z</time>
      </trkpt>
      <trkpt lat="47.68245" lon="6.06749">
        <ele>259.51</ele>
        <time>2018-01-31T10:41:42Z</time>
      </trkpt>
      <trkpt lat="47.68251" lon="6.06741">
        <ele>259.4</ele>
        <time>2018-01-31T10:41:44Z</time>
      </trkpt>
      <trkpt lat="47.68255" lon="6.06735">
        <ele>259.34</ele>
        <time>2018-01-31T10:41:45Z</time>
      </trkpt>
      <trkpt lat="47.68259" lon="6.06725">
        <ele>259.23</ele>
        <time>2018-01-31T10:41:47Z</time>
      </trkpt>
      <trkpt lat="47.68265" lon="6.06716">
        <ele>259.13</ele>
        <time>2018-01-31T10:41:49Z</time>
      </trkpt>
      <trkpt lat="47.68269" lon="6.06708">
        <ele>259.02</ele>
        <time>2018-01-31T10:41:51Z</time>
      </trkpt>
      <trkpt lat="47.68274" lon="6.06698">
        <ele>258.62</ele>
        <time>2018-01-31T10:41:53Z</time>
      </trkpt>
      <trkpt lat="47.68279" lon="6.06689">
        <ele>258.18</ele>
        <time>2018-01-31T10:41:55Z</time>
      </trkpt>
      <trkpt lat="47.68284" lon="6.06679">
        <ele>257.61</ele>
        <time>2018-01-31T10:41:57Z</time>
      </trkpt>
      <trkpt lat="47.68289" lon="6.06669">
        <ele>257.22</ele>
        <time>2018-01-31T10:41:59Z</time>
      </trkpt>
      <trkpt lat="47.68292" lon="6.06663">
        <ele>257.07</ele>
        <time>2018-01-31T10:42:00Z</time>
      </trkpt>
      <trkpt lat="47.68297" lon="6.06653">
        <ele>256.87</ele>
        <time>2018-01-31T10:42:02Z</time>
      </trkpt>
      <trkpt lat="47.683" lon="6.06647">
        <ele>256.79</ele>
        <time>2018-01-31T10:42:03Z</time>
      </trkpt>
      <trkpt lat="47.68302" lon="6.0664">
        <ele>256.73</ele>
        <time>2018-01-31T10:42:04Z</time>
      </trkpt>
      <trkpt lat="47.68304" lon="6.06634">
        <ele>256.68</ele>
        <time>2018-01-31T10:42:05Z</time>
      </trkpt>
      <trkpt lat="47.68307" lon="6.06629">
        <ele>256.63</ele>
        <time>2018-01-31T10:42:06Z</time>
      </trkpt>
      <trkpt lat="47.68309" lon="6.06623">
        <ele>256.6</ele>
        <time>2018-01-31T10:42:07Z</time>
      </trkpt>
      <trkpt lat="47.68311" lon="6.06617">
        <ele>256.57</ele>
        <time>2018-01-31T10:42:08Z</time>
      </trkpt>
      <trkpt lat="47.68313" lon="6.0661">
        <ele>256.55</ele>
        <time>2018-01-31T10:42:09Z</time>
      </trkpt>
      <trkpt lat="47.68316" lon="6.06605">
        <ele>256.54</ele>
        <time>2018-01-31T10:42:10Z</time>
      </trkpt>
      <trkpt lat="47.6832" lon="6.06593">
        <ele>256.52</ele>
        <time>2018-01-31T10:42:12Z</time>
      </trkpt>
      <trkpt lat="47.68323" lon="6.06587">
        <ele>256.51</ele>
        <time>2018-01-31T10:42:13Z</time>
      </trkpt>
      <trkpt lat="47.68326" lon="6.06576">
        <ele>256.49</ele>
        <time>2018-01-31T10:42:15Z</time>
      </trkpt>
      <trkpt lat="47.6833" lon="6.06564">
        <ele>256.48</ele>
        <time>2018-01-31T10:42:17Z</time>
      </trkpt>
      <trkpt lat="47.68331" lon="6.06558">
        <ele>256.46</ele>
        <time>2018-01-31T10:42:18Z</time>
      </trkpt>
      <trkpt lat="47.68333" lon="6.06551">
        <ele>256.45</ele>
        <time>2018-01-31T10:42:19Z</time>
      </trkpt>
      <trkpt lat="47.68336" lon="6.06545">
        <ele>256.44</ele>
        <time>2018-01-31T10:42:20Z</time>
      </trkpt>
      <trkpt lat="47.68338" lon="6.06538">
        <ele>256.43</ele>
        <time>2018-01-31T10:42:21Z</time>
      </trkpt>
      <trkpt lat="47.6834" lon="6.06532">
        <ele>256.43</ele>
        <time>2018-01-31T10:42:22Z</time>
      </trkpt>
      <trkpt lat="47.68343" lon="6.06525">
        <ele>256.42</ele>
        <time>2018-01-31T10:42:23Z</time>
      </trkpt>
      <trkpt lat="47.68346" lon="6.06518">
        <ele>256.41</ele>
        <time>2018-01-31T10:42:24Z</time>
      </trkpt>
      <trkpt lat="47.68347" lon="6.06511">
        <ele>256.41</ele>
        <time>2018-01-31T10:42:25Z</time>
      </trkpt>
      <trkpt lat="47.68349" lon="6.06504">
        <ele>256.4</ele>
        <time>2018-01-31T10:42:26Z</time>
      </trkpt>
      <trkpt lat="47.6835" lon="6.06497">
        <ele>256.4</ele>
        <time>2018-01-31T10:42:27Z</time>
      </trkpt>
      <trkpt lat="47.68352" lon="6.0649">
        <ele>256.39</ele>
        <time>2018-01-31T10:42:28Z</time>
      </trkpt>
      <trkpt lat="47.68355" lon="6.06484">
        <ele>256.39</ele>
        <time>2018-01-31T10:42:29Z</time>
      </trkpt>
      <trkpt lat="47.68358" lon="6.06479">
        <ele>256.38</ele>
        <time>2018-01-31T10:42:30Z</time>
      </trkpt>
      <trkpt lat="47.68361" lon="6.06472">
        <ele>256.38</ele>
        <time>2018-01-31T10:42:31Z</time>
      </trkpt>
      <trkpt lat="47.68363" lon="6.06466">
        <ele>256.37</ele>
        <time>2018-01-31T10:42:32Z</time>
      </trkpt>
      <trkpt lat="47.68365" lon="6.0646">
        <ele>256.37</ele>
        <time>2018-01-31T10:42:33Z</time>
      </trkpt>
      <trkpt lat="47.68368" lon="6.06453">
        <ele>256.36</ele>
        <time>2018-01-31T10:42:34Z</time>
      </trkpt>
      <trkpt lat="47.6837" lon="6.06445">
        <ele>256.36</ele>
        <time>2018-01-31T10:42:35Z</time>
      </trkpt>
      <trkpt lat="47.68373" lon="6.06438">
        <ele>256.36</ele>
        <time>2018-01-31T10:42:36Z</time>
      </trkpt>
      <trkpt lat="47.68375" lon="6.0643">
        <ele>256.35</ele>
        <time>2018-01-31T10:42:37Z</time>
      </trkpt>
      <trkpt lat="47.68378" lon="6.06422">
        <ele>256.35</ele>
        <time>2018-01-31T10:42:38Z</time>
      </trkpt>
      <trkpt lat="47.6838" lon="6.06414">
        <ele>256.35</ele>
        <time>2018-01-31T10:42:39Z</time>
      </trkpt>
      <trkpt lat="47.68383" lon="6.06406">
        <ele>256.35</ele>
        <time>2018-01-31T10:42:40Z</time>
      </trkpt>
      <trkpt lat="47.68386" lon="6.06398">
        <ele>256.34</ele>
        <time>2018-01-31T10:42:41Z</time>
      </trkpt>
      <trkpt lat="47.68388" lon="6.06391">
        <ele>256.33</ele>
        <time>2018-01-31T10:42:42Z</time>
      </trkpt>
      <trkpt lat="47.6839" lon="6.06384">
        <ele>256.32</ele>
        <time>2018-01-31T10:42:43Z</time>
      </trkpt>
      <trkpt lat="47.68392" lon="6.06376">
        <ele>256.31</ele>
        <time>2018-01-31T10:42:44Z</time>
      </trkpt>
      <trkpt lat="47.68394" lon="6.06367">
        <ele>256.28</ele>
        <time>2018-01-31T10:42:45Z</time>
      </trkpt>
      <trkpt lat="47.68396" lon="6.06359">
        <ele>256.23</ele>
        <time>2018-01-31T10:42:46Z</time>
      </trkpt>
      <trkpt lat="47.68398" lon="6.0635">
        <ele>256.17</ele>
        <time>2018-01-31T10:42:47Z</time>
      </trkpt>
      <trkpt lat="47.684" lon="6.06342">
        <ele>256.1</ele>
        <time>2018-01-31T10:42:48Z</time>
      </trkpt>
      <trkpt lat="47.68402" lon="6.06334">
        <ele>256.03</ele>
        <time>2018-01-31T10:42:49Z</time>
      </trkpt>
      <trkpt lat="47.68405" lon="6.06326">
        <ele>255.95</ele>
        <time>2018-01-31T10:42:50Z</time>
      </trkpt>
      <trkpt lat="47.68407" lon="6.06319">
        <ele>255.87</ele>
        <time>2018-01-31T10:42:51Z</time>
      </trkpt>
      <trkpt lat="47.6841" lon="6.06311">
        <ele>255.79</ele>
        <time>2018-01-31T10:42:52Z</time>
      </trkpt>
      <trkpt lat="47.68413" lon="6.06303">
        <ele>255.71</ele>
        <time>2018-01-31T10:42:53Z</time>
      </trkpt>
      <trkpt lat="47.68415" lon="6.06295">
        <ele>255.62</ele>
        <time>2018-01-31T10:42:54Z</time>
      </trkpt>
      <trkpt lat="47.68417" lon="6.06288">
        <ele>255.53</ele>
        <time>2018-01-31T10:42:55Z</time>
      </trkpt>
      <trkpt lat="47.6842" lon="6.06281">
        <ele>255.43</ele>
        <time>2018-01-31T10:42:56Z</time>
      </trkpt>
      <trkpt lat="47.68422" lon="6.06273">
        <ele>255.34</ele>
        <time>2018-01-31T10:42:57Z</time>
      </trkpt>
      <trkpt lat="47.68424" lon="6.06266">
        <ele>255.25</ele>
        <time>2018-01-31T10:42:58Z</time>
      </trkpt>
      <trkpt lat="47.68425" lon="6.06259">
        <ele>255.17</ele>
        <time>2018-01-31T10:42:59Z</time>
      </trkpt>
      <trkpt lat="47.68428" lon="6.06251">
        <ele>255.08</ele>
        <time>2018-01-31T10:43:00Z</time>
      </trkpt>
      <trkpt lat="47.6843" lon="6.06243">
        <ele>255</ele>
        <time>2018-01-31T10:43:01Z</time>
      </trkpt>
      <trkpt lat="47.68433" lon="6.06235">
        <ele>254.91</ele>
        <time>2018-01-31T10:43:02Z</time>
      </trkpt>
      <trkpt lat="47.68435" lon="6.06227">
        <ele>254.82</ele>
        <time>2018-01-31T10:43:03Z</time>
      </trkpt>
      <trkpt lat="47.68438" lon="6.0622">
        <ele>254.73</ele>
        <time>2018-01-31T10:43:04Z</time>
      </trkpt>
      <trkpt lat="47.68441" lon="6.06213">
        <ele>254.64</ele>
        <time>2018-01-31T10:43:05Z</time>
      </trkpt>
      <trkpt lat="47.68444" lon="6.06206">
        <ele>254.54</ele>
        <time>2018-01-31T10:43:06Z</time>
      </trkpt>
      <trkpt lat="47.68445" lon="6.06199">
        <ele>254.44</ele>
        <time>2018-01-31T10:43:07Z</time>
      </trkpt>
      <trkpt lat="47.68448" lon="6.06192">
        <ele>254.35</ele>
        <time>2018-01-31T10:43:08Z</time>
      </trkpt>
      <trkpt lat="47.6845" lon="6.06184">
        <ele>254.26</ele>
        <time>2018-01-31T10:43:09Z</time>
      </trkpt>
      <trkpt lat="47.68453" lon="6.06175">
        <ele>254.17</ele>
        <time>2018-01-31T10:43:10Z</time>
      </trkpt>
      <trkpt lat="47.68456" lon="6.06167">
        <ele>254.08</ele>
        <time>2018-01-31T10:43:11Z</time>
      </trkpt>
      <trkpt lat="47.68459" lon="6.06158">
        <ele>253.99</ele>
        <time>2018-01-31T10:43:12Z</time>
      </trkpt>
      <trkpt lat="47.68462" lon="6.0615">
        <ele>253.87</ele>
        <time>2018-01-31T10:43:13Z</time>
      </trkpt>
      <trkpt lat="47.68464" lon="6.06142">
        <ele>253.74</ele>
        <time>2018-01-31T10:43:14Z</time>
      </trkpt>
      <trkpt lat="47.68467" lon="6.06134">
        <ele>253.6</ele>
        <time>2018-01-31T10:43:15Z</time>
      </trkpt>
      <trkpt lat="47.6847" lon="6.06126">
        <ele>253.48</ele>
        <time>2018-01-31T10:43:16Z</time>
      </trkpt>
      <trkpt lat="47.68472" lon="6.0612">
        <ele>253.35</ele>
        <time>2018-01-31T10:43:17Z</time>
      </trkpt>
      <trkpt lat="47.68474" lon="6.06113">
        <ele>253.22</ele>
        <time>2018-01-31T10:43:18Z</time>
      </trkpt>
      <trkpt lat="47.68476" lon="6.06105">
        <ele>253.08</ele>
        <time>2018-01-31T10:43:19Z</time>
      </trkpt>
      <trkpt lat="47.68479" lon="6.06097">
        <ele>252.9</ele>
        <time>2018-01-31T10:43:20Z</time>
      </trkpt>
      <trkpt lat="47.68483" lon="6.06089">
        <ele>252.69</ele>
        <time>2018-01-31T10:43:21Z</time>
      </trkpt>
      <trkpt lat="47.68486" lon="6.06081">
        <ele>252.46</ele>
        <time>2018-01-31T10:43:22Z</time>
      </trkpt>
      <trkpt lat="47.6849" lon="6.06074">
        <ele>252.24</ele>
        <time>2018-01-31T10:43:23Z</time>
      </trkpt>
      <trkpt lat="47.68493" lon="6.06067">
        <ele>252</ele>
        <time>2018-01-31T10:43:24Z</time>
      </trkpt>
      <trkpt lat="47.68496" lon="6.06059">
        <ele>251.77</ele>
        <time>2018-01-31T10:43:25Z</time>
      </trkpt>
      <trkpt lat="47.68499" lon="6.06051">
        <ele>251.53</ele>
        <time>2018-01-31T10:43:26Z</time>
      </trkpt>
      <trkpt lat="47.68502" lon="6.06043">
        <ele>251.33</ele>
        <time>2018-01-31T10:43:27Z</time>
      </trkpt>
      <trkpt lat="47.68505" lon="6.06035">
        <ele>251.15</ele>
        <time>2018-01-31T10:43:28Z</time>
      </trkpt>
      <trkpt lat="47.68509" lon="6.06027">
        <ele>251</ele>
        <time>2018-01-31T10:43:29Z</time>
      </trkpt>
      <trkpt lat="47.68511" lon="6.0602">
        <ele>250.87</ele>
        <time>2018-01-31T10:43:30Z</time>
      </trkpt>
      <trkpt lat="47.68514" lon="6.06012">
        <ele>250.75</ele>
        <time>2018-01-31T10:43:31Z</time>
      </trkpt>
      <trkpt lat="47.68517" lon="6.06005">
        <ele>250.64</ele>
        <time>2018-01-31T10:43:32Z</time>
      </trkpt>
      <trkpt lat="47.6852" lon="6.05998">
        <ele>250.53</ele>
        <time>2018-01-31T10:43:33Z</time>
      </trkpt>
      <trkpt lat="47.68523" lon="6.05989">
        <ele>250.41</ele>
        <time>2018-01-31T10:43:34Z</time>
      </trkpt>
      <trkpt lat="47.68527" lon="6.05981">
        <ele>250.28</ele>
        <time>2018-01-31T10:43:35Z</time>
      </trkpt>
      <trkpt lat="47.6853" lon="6.05972">
        <ele>250.12</ele>
        <time>2018-01-31T10:43:36Z</time>
      </trkpt>
      <trkpt lat="47.68533" lon="6.05964">
        <ele>249.96</ele>
        <time>2018-01-31T10:43:37Z</time>
      </trkpt>
      <trkpt lat="47.68537" lon="6.05956">
        <ele>249.81</ele>
        <time>2018-01-31T10:43:38Z</time>
      </trkpt>
      <trkpt lat="47.6854" lon="6.05947">
        <ele>249.65</ele>
        <time>2018-01-31T10:43:39Z</time>
      </trkpt>
      <trkpt lat="47.68543" lon="6.05939">
        <ele>249.5</ele>
        <time>2018-01-31T10:43:40Z</time>
      </trkpt>
      <trkpt lat="47.68546" lon="6.05931">
        <ele>249.37</ele>
        <time>2018-01-31T10:43:41Z</time>
      </trkpt>
      <trkpt lat="47.68549" lon="6.05924">
        <ele>249.26</ele>
        <time>2018-01-31T10:43:42Z</time>
      </trkpt>
      <trkpt lat="47.68552" lon="6.05917">
        <ele>249.17</ele>
        <time>2018-01-31T10:43:43Z</time>
      </trkpt>
      <trkpt lat="47.68555" lon="6.05911">
        <ele>249.09</ele>
        <time>2018-01-31T10:43:44Z</time>
      </trkpt>
      <trkpt lat="47.68558" lon="6.05904">
        <ele>249</ele>
        <time>2018-01-31T10:43:45Z</time>
      </trkpt>
      <trkpt lat="47.68561" lon="6.05897">
        <ele>248.92</ele>
        <time>2018-01-31T10:43:46Z</time>
      </trkpt>
      <trkpt lat="47.68564" lon="6.0589">
        <ele>248.84</ele>
        <time>2018-01-31T10:43:47Z</time>
      </trkpt>
      <trkpt lat="47.68567" lon="6.05883">
        <ele>248.77</ele>
        <time>2018-01-31T10:43:48Z</time>
      </trkpt>
      <trkpt lat="47.6857" lon="6.05876">
        <ele>248.69</ele>
        <time>2018-01-31T10:43:49Z</time>
      </trkpt>
      <trkpt lat="47.68573" lon="6.05869">
        <ele>248.59</ele>
        <time>2018-01-31T10:43:50Z</time>
      </trkpt>
      <trkpt lat="47.68577" lon="6.05862">
        <ele>248.49</ele>
        <time>2018-01-31T10:43:51Z</time>
      </trkpt>
      <trkpt lat="47.6858" lon="6.05855">
        <ele>248.38</ele>
        <time>2018-01-31T10:43:52Z</time>
      </trkpt>
      <trkpt lat="47.68583" lon="6.05847">
        <ele>248.25</ele>
        <time>2018-01-31T10:43:53Z</time>
      </trkpt>
      <trkpt lat="47.68586" lon="6.05839">
        <ele>248.12</ele>
        <time>2018-01-31T10:43:54Z</time>
      </trkpt>
      <trkpt lat="47.68589" lon="6.05832">
        <ele>247.97</ele>
        <time>2018-01-31T10:43:55Z</time>
      </trkpt>
      <trkpt lat="47.68593" lon="6.05824">
        <ele>247.81</ele>
        <time>2018-01-31T10:43:56Z</time>
      </trkpt>
      <trkpt lat="47.68596" lon="6.05817">
        <ele>247.66</ele>
        <time>2018-01-31T10:43:57Z</time>
      </trkpt>
      <trkpt lat="47.68598" lon="6.0581">
        <ele>247.5</ele>
        <time>2018-01-31T10:43:58Z</time>
      </trkpt>
      <trkpt lat="47.68602" lon="6.05802">
        <ele>247.34</ele>
        <time>2018-01-31T10:43:59Z</time>
      </trkpt>
      <trkpt lat="47.68605" lon="6.05794">
        <ele>247.18</ele>
        <time>2018-01-31T10:44:00Z</time>
      </trkpt>
      <trkpt lat="47.68609" lon="6.05787">
        <ele>247.05</ele>
        <time>2018-01-31T10:44:01Z</time>
      </trkpt>
      <trkpt lat="47.68613" lon="6.0578">
        <ele>246.94</ele>
        <time>2018-01-31T10:44:02Z</time>
      </trkpt>
      <trkpt lat="47.68616" lon="6.05773">
        <ele>246.81</ele>
        <time>2018-01-31T10:44:03Z</time>
      </trkpt>
      <trkpt lat="47.6862" lon="6.05766">
        <ele>246.7</ele>
        <time>2018-01-31T10:44:04Z</time>
      </trkpt>
      <trkpt lat="47.68624" lon="6.05761">
        <ele>246.59</ele>
        <time>2018-01-31T10:44:05Z</time>
      </trkpt>
      <trkpt lat="47.68628" lon="6.05756">
        <ele>246.47</ele>
        <time>2018-01-31T10:44:06Z</time>
      </trkpt>
      <trkpt lat="47.68632" lon="6.0575">
        <ele>246.37</ele>
        <time>2018-01-31T10:44:07Z</time>
      </trkpt>
      <trkpt lat="47.68636" lon="6.05745">
        <ele>246.32</ele>
        <time>2018-01-31T10:44:08Z</time>
      </trkpt>
      <trkpt lat="47.6864" lon="6.05739">
        <ele>246.3</ele>
        <time>2018-01-31T10:44:09Z</time>
      </trkpt>
      <trkpt lat="47.68643" lon="6.05734">
        <ele>246.35</ele>
        <time>2018-01-31T10:44:10Z</time>
      </trkpt>
      <trkpt lat="47.68647" lon="6.05729">
        <ele>246.4</ele>
        <time>2018-01-31T10:44:11Z</time>
      </trkpt>
      <trkpt lat="47.6865" lon="6.05722">
        <ele>246.49</ele>
        <time>2018-01-31T10:44:12Z</time>
      </trkpt>
      <trkpt lat="47.68654" lon="6.05716">
        <ele>246.59</ele>
        <time>2018-01-31T10:44:13Z</time>
      </trkpt>
      <trkpt lat="47.68657" lon="6.05711">
        <ele>246.71</ele>
        <time>2018-01-31T10:44:14Z</time>
      </trkpt>
      <trkpt lat="47.68661" lon="6.05705">
        <ele>246.81</ele>
        <time>2018-01-31T10:44:15Z</time>
      </trkpt>
      <trkpt lat="47.68664" lon="6.05699">
        <ele>246.92</ele>
        <time>2018-01-31T10:44:16Z</time>
      </trkpt>
      <trkpt lat="47.68667" lon="6.05693">
        <ele>247.03</ele>
        <time>2018-01-31T10:44:17Z</time>
      </trkpt>
      <trkpt lat="47.6867" lon="6.05688">
        <ele>247.18</ele>
        <time>2018-01-31T10:44:18Z</time>
      </trkpt>
      <trkpt lat="47.68673" lon="6.05683">
        <ele>247.33</ele>
        <time>2018-01-31T10:44:19Z</time>
      </trkpt>
      <trkpt lat="47.68678" lon="6.05674">
        <ele>247.5</ele>
        <time>2018-01-31T10:44:21Z</time>
      </trkpt>
      <trkpt lat="47.68683" lon="6.05666">
        <ele>247.67</ele>
        <time>2018-01-31T10:44:23Z</time>
      </trkpt>
      <trkpt lat="47.68687" lon="6.05658">
        <ele>247.72</ele>
        <time>2018-01-31T10:44:25Z</time>
      </trkpt>
      <trkpt lat="47.6869" lon="6.05653">
        <ele>247.75</ele>
        <time>2018-01-31T10:44:27Z</time>
      </trkpt>
      <trkpt lat="47.68695" lon="6.05646">
        <ele>247.81</ele>
        <time>2018-01-31T10:44:30Z</time>
      </trkpt>
      <trkpt lat="47.68699" lon="6.05641">
        <ele>247.87</ele>
        <time>2018-01-31T10:44:33Z</time>
      </trkpt>
      <trkpt lat="47.68699" lon="6.05634">
        <ele>248.18</ele>
        <time>2018-01-31T10:45:34Z</time>
      </trkpt>
      <trkpt lat="47.68703" lon="6.05628">
        <ele>248.23</ele>
        <time>2018-01-31T10:45:36Z</time>
      </trkpt>
      <trkpt lat="47.68708" lon="6.05617">
        <ele>248.27</ele>
        <time>2018-01-31T10:45:38Z</time>
      </trkpt>
      <trkpt lat="47.68712" lon="6.05608">
        <ele>248.32</ele>
        <time>2018-01-31T10:45:40Z</time>
      </trkpt>
      <trkpt lat="47.68715" lon="6.05599">
        <ele>248.37</ele>
        <time>2018-01-31T10:45:42Z</time>
      </trkpt>
      <trkpt lat="47.68718" lon="6.0559">
        <ele>248.41</ele>
        <time>2018-01-31T10:45:44Z</time>
      </trkpt>
      <trkpt lat="47.68724" lon="6.05584">
        <ele>248.45</ele>
        <time>2018-01-31T10:45:46Z</time>
      </trkpt>
      <trkpt lat="47.68726" lon="6.05577">
        <ele>248.47</ele>
        <time>2018-01-31T10:45:47Z</time>
      </trkpt>
      <trkpt lat="47.68728" lon="6.05565">
        <ele>248.6</ele>
        <time>2018-01-31T10:45:49Z</time>
      </trkpt>
      <trkpt lat="47.6873" lon="6.05556">
        <ele>248.73</ele>
        <time>2018-01-31T10:45:50Z</time>
      </trkpt>
      <trkpt lat="47.68731" lon="6.05549">
        <ele>248.84</ele>
        <time>2018-01-31T10:45:51Z</time>
      </trkpt>
      <trkpt lat="47.68733" lon="6.05541">
        <ele>248.92</ele>
        <time>2018-01-31T10:45:52Z</time>
      </trkpt>
      <trkpt lat="47.68734" lon="6.05533">
        <ele>248.98</ele>
        <time>2018-01-31T10:45:53Z</time>
      </trkpt>
      <trkpt lat="47.68735" lon="6.05525">
        <ele>249.02</ele>
        <time>2018-01-31T10:45:54Z</time>
      </trkpt>
      <trkpt lat="47.68736" lon="6.05517">
        <ele>249.05</ele>
        <time>2018-01-31T10:45:55Z</time>
      </trkpt>
      <trkpt lat="47.68737" lon="6.05508">
        <ele>249.07</ele>
        <time>2018-01-31T10:45:56Z</time>
      </trkpt>
      <trkpt lat="47.68738" lon="6.05495">
        <ele>249.07</ele>
        <time>2018-01-31T10:45:57Z</time>
      </trkpt>
      <trkpt lat="47.6874" lon="6.05485">
        <ele>249.05</ele>
        <time>2018-01-31T10:45:58Z</time>
      </trkpt>
      <trkpt lat="47.68742" lon="6.05475">
        <ele>249.02</ele>
        <time>2018-01-31T10:45:59Z</time>
      </trkpt>
      <trkpt lat="47.68743" lon="6.05466">
        <ele>249</ele>
        <time>2018-01-31T10:46:00Z</time>
      </trkpt>
      <trkpt lat="47.68745" lon="6.05458">
        <ele>249</ele>
        <time>2018-01-31T10:46:01Z</time>
      </trkpt>
      <trkpt lat="47.68746" lon="6.05449">
        <ele>249</ele>
        <time>2018-01-31T10:46:02Z</time>
      </trkpt>
      <trkpt lat="47.68747" lon="6.0544">
        <ele>249</ele>
        <time>2018-01-31T10:46:03Z</time>
      </trkpt>
      <trkpt lat="47.68748" lon="6.05432">
        <ele>249.01</ele>
        <time>2018-01-31T10:46:04Z</time>
      </trkpt>
      <trkpt lat="47.68749" lon="6.05425">
        <ele>249.02</ele>
        <time>2018-01-31T10:46:05Z</time>
      </trkpt>
      <trkpt lat="47.6875" lon="6.05416">
        <ele>249.02</ele>
        <time>2018-01-31T10:46:06Z</time>
      </trkpt>
      <trkpt lat="47.68751" lon="6.05409">
        <ele>249.02</ele>
        <time>2018-01-31T10:46:07Z</time>
      </trkpt>
      <trkpt lat="47.68752" lon="6.05402">
        <ele>249.01</ele>
        <time>2018-01-31T10:46:08Z</time>
      </trkpt>
      <trkpt lat="47.68753" lon="6.05388">
        <ele>248.99</ele>
        <time>2018-01-31T10:46:10Z</time>
      </trkpt>
      <trkpt lat="47.68754" lon="6.05381">
        <ele>248.97</ele>
        <time>2018-01-31T10:46:11Z</time>
      </trkpt>
      <trkpt lat="47.68754" lon="6.05374">
        <ele>248.93</ele>
        <time>2018-01-31T10:46:12Z</time>
      </trkpt>
      <trkpt lat="47.68755" lon="6.05367">
        <ele>248.86</ele>
        <time>2018-01-31T10:46:13Z</time>
      </trkpt>
      <trkpt lat="47.68756" lon="6.05359">
        <ele>248.77</ele>
        <time>2018-01-31T10:46:14Z</time>
      </trkpt>
      <trkpt lat="47.68756" lon="6.05351">
        <ele>248.69</ele>
        <time>2018-01-31T10:46:15Z</time>
      </trkpt>
      <trkpt lat="47.68759" lon="6.0534">
        <ele>248.54</ele>
        <time>2018-01-31T10:46:17Z</time>
      </trkpt>
      <trkpt lat="47.68759" lon="6.05328">
        <ele>248.41</ele>
        <time>2018-01-31T10:46:19Z</time>
      </trkpt>
      <trkpt lat="47.6876" lon="6.05321">
        <ele>248.35</ele>
        <time>2018-01-31T10:46:20Z</time>
      </trkpt>
      <trkpt lat="47.68762" lon="6.05313">
        <ele>248.28</ele>
        <time>2018-01-31T10:46:21Z</time>
      </trkpt>
      <trkpt lat="47.68763" lon="6.05305">
        <ele>248.21</ele>
        <time>2018-01-31T10:46:22Z</time>
      </trkpt>
      <trkpt lat="47.68764" lon="6.05298">
        <ele>248.13</ele>
        <time>2018-01-31T10:46:23Z</time>
      </trkpt>
      <trkpt lat="47.68764" lon="6.0529">
        <ele>248.06</ele>
        <time>2018-01-31T10:46:24Z</time>
      </trkpt>
      <trkpt lat="47.68765" lon="6.05282">
        <ele>247.99</ele>
        <time>2018-01-31T10:46:25Z</time>
      </trkpt>
      <trkpt lat="47.68766" lon="6.05274">
        <ele>247.92</ele>
        <time>2018-01-31T10:46:26Z</time>
      </trkpt>
      <trkpt lat="47.68766" lon="6.05266">
        <ele>247.87</ele>
        <time>2018-01-31T10:46:27Z</time>
      </trkpt>
      <trkpt lat="47.68767" lon="6.05257">
        <ele>247.82</ele>
        <time>2018-01-31T10:46:28Z</time>
      </trkpt>
      <trkpt lat="47.68767" lon="6.05249">
        <ele>247.77</ele>
        <time>2018-01-31T10:46:29Z</time>
      </trkpt>
      <trkpt lat="47.68768" lon="6.05241">
        <ele>247.71</ele>
        <time>2018-01-31T10:46:30Z</time>
      </trkpt>
      <trkpt lat="47.68769" lon="6.05233">
        <ele>247.64</ele>
        <time>2018-01-31T10:46:31Z</time>
      </trkpt>
      <trkpt lat="47.68769" lon="6.05225">
        <ele>247.57</ele>
        <time>2018-01-31T10:46:32Z</time>
      </trkpt>
      <trkpt lat="47.6877" lon="6.05216">
        <ele>247.51</ele>
        <time>2018-01-31T10:46:33Z</time>
      </trkpt>
      <trkpt lat="47.6877" lon="6.05208">
        <ele>247.46</ele>
        <time>2018-01-31T10:46:34Z</time>
      </trkpt>
      <trkpt lat="47.68771" lon="6.05199">
        <ele>247.42</ele>
        <time>2018-01-31T10:46:35Z</time>
      </trkpt>
      <trkpt lat="47.68772" lon="6.05191">
        <ele>247.39</ele>
        <time>2018-01-31T10:46:36Z</time>
      </trkpt>
      <trkpt lat="47.68774" lon="6.05183">
        <ele>247.35</ele>
        <time>2018-01-31T10:46:37Z</time>
      </trkpt>
      <trkpt lat="47.68775" lon="6.05176">
        <ele>247.31</ele>
        <time>2018-01-31T10:46:38Z</time>
      </trkpt>
      <trkpt lat="47.68776" lon="6.05169">
        <ele>247.25</ele>
        <time>2018-01-31T10:46:39Z</time>
      </trkpt>
      <trkpt lat="47.68776" lon="6.05162">
        <ele>247.2</ele>
        <time>2018-01-31T10:46:40Z</time>
      </trkpt>
      <trkpt lat="47.68777" lon="6.05155">
        <ele>247.13</ele>
        <time>2018-01-31T10:46:41Z</time>
      </trkpt>
      <trkpt lat="47.68777" lon="6.05143">
        <ele>247.02</ele>
        <time>2018-01-31T10:46:43Z</time>
      </trkpt>
      <trkpt lat="47.68777" lon="6.05132">
        <ele>246.96</ele>
        <time>2018-01-31T10:46:45Z</time>
      </trkpt>
      <trkpt lat="47.68779" lon="6.0512">
        <ele>246.91</ele>
        <time>2018-01-31T10:46:47Z</time>
      </trkpt>
      <trkpt lat="47.68779" lon="6.05107">
        <ele>246.84</ele>
        <time>2018-01-31T10:46:49Z</time>
      </trkpt>
      <trkpt lat="47.6878" lon="6.051">
        <ele>246.81</ele>
        <time>2018-01-31T10:46:50Z</time>
      </trkpt>
      <trkpt lat="47.68781" lon="6.05087">
        <ele>246.74</ele>
        <time>2018-01-31T10:46:52Z</time>
      </trkpt>
      <trkpt lat="47.68782" lon="6.05079">
        <ele>246.7</ele>
        <time>2018-01-31T10:46:53Z</time>
      </trkpt>
      <trkpt lat="47.68783" lon="6.0507">
        <ele>246.67</ele>
        <time>2018-01-31T10:46:54Z</time>
      </trkpt>
      <trkpt lat="47.68783" lon="6.05062">
        <ele>246.63</ele>
        <time>2018-01-31T10:46:55Z</time>
      </trkpt>
      <trkpt lat="47.68784" lon="6.05055">
        <ele>246.6</ele>
        <time>2018-01-31T10:46:56Z</time>
      </trkpt>
      <trkpt lat="47.68784" lon="6.05042">
        <ele>246.5</ele>
        <time>2018-01-31T10:46:58Z</time>
      </trkpt>
      <trkpt lat="47.68785" lon="6.05032">
        <ele>246.48</ele>
        <time>2018-01-31T10:47:00Z</time>
      </trkpt>
      <trkpt lat="47.68783" lon="6.05023">
        <ele>246.46</ele>
        <time>2018-01-31T10:47:02Z</time>
      </trkpt>
      <trkpt lat="47.68781" lon="6.05012">
        <ele>246.35</ele>
        <time>2018-01-31T10:47:04Z</time>
      </trkpt>
      <trkpt lat="47.68778" lon="6.05001">
        <ele>246.27</ele>
        <time>2018-01-31T10:47:06Z</time>
      </trkpt>
      <trkpt lat="47.68773" lon="6.04993">
        <ele>246.22</ele>
        <time>2018-01-31T10:47:08Z</time>
      </trkpt>
      <trkpt lat="47.68769" lon="6.04987">
        <ele>246.2</ele>
        <time>2018-01-31T10:47:10Z</time>
      </trkpt>
      <trkpt lat="47.6877" lon="6.04978">
        <ele>246.18</ele>
        <time>2018-01-31T10:47:12Z</time>
      </trkpt>
      <trkpt lat="47.68774" lon="6.04972">
        <ele>246.17</ele>
        <time>2018-01-31T10:47:14Z</time>
      </trkpt>
      <trkpt lat="47.6878" lon="6.04965">
        <ele>246.09</ele>
        <time>2018-01-31T10:47:16Z</time>
      </trkpt>
      <trkpt lat="47.68783" lon="6.04958">
        <ele>246.06</ele>
        <time>2018-01-31T10:47:18Z</time>
      </trkpt>
      <trkpt lat="47.68784" lon="6.0495">
        <ele>246.05</ele>
        <time>2018-01-31T10:47:20Z</time>
      </trkpt>
      <trkpt lat="47.68787" lon="6.04945">
        <ele>246.03</ele>
        <time>2018-01-31T10:47:22Z</time>
      </trkpt>
      <trkpt lat="47.68788" lon="6.04935">
        <ele>246</ele>
        <time>2018-01-31T10:47:25Z</time>
      </trkpt>
      <trkpt lat="47.68785" lon="6.04923">
        <ele>245.79</ele>
        <time>2018-01-31T10:47:27Z</time>
      </trkpt>
      <trkpt lat="47.68784" lon="6.04915">
        <ele>245.7</ele>
        <time>2018-01-31T10:47:28Z</time>
      </trkpt>
      <trkpt lat="47.68783" lon="6.04907">
        <ele>245.61</ele>
        <time>2018-01-31T10:47:29Z</time>
      </trkpt>
      <trkpt lat="47.68783" lon="6.04901">
        <ele>245.53</ele>
        <time>2018-01-31T10:47:30Z</time>
      </trkpt>
      <trkpt lat="47.68782" lon="6.04893">
        <ele>245.47</ele>
        <time>2018-01-31T10:47:31Z</time>
      </trkpt>
      <trkpt lat="47.68781" lon="6.04884">
        <ele>245.41</ele>
        <time>2018-01-31T10:47:32Z</time>
      </trkpt>
      <trkpt lat="47.68779" lon="6.04875">
        <ele>245.36</ele>
        <time>2018-01-31T10:47:33Z</time>
      </trkpt>
      <trkpt lat="47.68777" lon="6.04867">
        <ele>245.31</ele>
        <time>2018-01-31T10:47:34Z</time>
      </trkpt>
      <trkpt lat="47.68775" lon="6.04858">
        <ele>245.27</ele>
        <time>2018-01-31T10:47:35Z</time>
      </trkpt>
      <trkpt lat="47.68773" lon="6.0485">
        <ele>245.23</ele>
        <time>2018-01-31T10:47:36Z</time>
      </trkpt>
      <trkpt lat="47.68771" lon="6.04842">
        <ele>245.2</ele>
        <time>2018-01-31T10:47:37Z</time>
      </trkpt>
      <trkpt lat="47.68769" lon="6.04835">
        <ele>245.17</ele>
        <time>2018-01-31T10:47:38Z</time>
      </trkpt>
      <trkpt lat="47.68766" lon="6.04826">
        <ele>245.14</ele>
        <time>2018-01-31T10:47:39Z</time>
      </trkpt>
      <trkpt lat="47.68764" lon="6.04818">
        <ele>245.12</ele>
        <time>2018-01-31T10:47:40Z</time>
      </trkpt>
      <trkpt lat="47.68762" lon="6.0481">
        <ele>245.1</ele>
        <time>2018-01-31T10:47:41Z</time>
      </trkpt>
      <trkpt lat="47.6876" lon="6.04802">
        <ele>245.08</ele>
        <time>2018-01-31T10:47:42Z</time>
      </trkpt>
      <trkpt lat="47.68758" lon="6.04794">
        <ele>245.07</ele>
        <time>2018-01-31T10:47:43Z</time>
      </trkpt>
      <trkpt lat="47.68756" lon="6.04785">
        <ele>245.05</ele>
        <time>2018-01-31T10:47:44Z</time>
      </trkpt>
      <trkpt lat="47.68754" lon="6.04778">
        <ele>245.04</ele>
        <time>2018-01-31T10:47:45Z</time>
      </trkpt>
      <trkpt lat="47.68751" lon="6.04771">
        <ele>245.03</ele>
        <time>2018-01-31T10:47:46Z</time>
      </trkpt>
      <trkpt lat="47.68749" lon="6.04764">
        <ele>245.02</ele>
        <time>2018-01-31T10:47:47Z</time>
      </trkpt>
      <trkpt lat="47.68746" lon="6.04752">
        <ele>245</ele>
        <time>2018-01-31T10:47:49Z</time>
      </trkpt>
      <trkpt lat="47.68743" lon="6.04741">
        <ele>244.98</ele>
        <time>2018-01-31T10:47:51Z</time>
      </trkpt>
      <trkpt lat="47.6874" lon="6.04729">
        <ele>244.96</ele>
        <time>2018-01-31T10:47:53Z</time>
      </trkpt>
      <trkpt lat="47.68737" lon="6.04718">
        <ele>244.94</ele>
        <time>2018-01-31T10:47:55Z</time>
      </trkpt>
      <trkpt lat="47.68733" lon="6.04708">
        <ele>244.94</ele>
        <time>2018-01-31T10:47:57Z</time>
      </trkpt>
      <trkpt lat="47.6873" lon="6.047">
        <ele>244.94</ele>
        <time>2018-01-31T10:47:59Z</time>
      </trkpt>
      <trkpt lat="47.68726" lon="6.04694">
        <ele>244.93</ele>
        <time>2018-01-31T10:48:01Z</time>
      </trkpt>
      <trkpt lat="47.68723" lon="6.04687">
        <ele>244.92</ele>
        <time>2018-01-31T10:48:03Z</time>
      </trkpt>
      <trkpt lat="47.68721" lon="6.04679">
        <ele>244.91</ele>
        <time>2018-01-31T10:48:05Z</time>
      </trkpt>
      <trkpt lat="47.68718" lon="6.04673">
        <ele>244.9</ele>
        <time>2018-01-31T10:48:07Z</time>
      </trkpt>
      <trkpt lat="47.68714" lon="6.04665">
        <ele>244.88</ele>
        <time>2018-01-31T10:48:09Z</time>
      </trkpt>
      <trkpt lat="47.6871" lon="6.04657">
        <ele>244.86</ele>
        <time>2018-01-31T10:48:11Z</time>
      </trkpt>
      <trkpt lat="47.68707" lon="6.04649">
        <ele>244.83</ele>
        <time>2018-01-31T10:48:13Z</time>
      </trkpt>
      <trkpt lat="47.68704" lon="6.04643">
        <ele>244.81</ele>
        <time>2018-01-31T10:48:15Z</time>
      </trkpt>
      <trkpt lat="47.68701" lon="6.04636">
        <ele>244.78</ele>
        <time>2018-01-31T10:48:17Z</time>
      </trkpt>
      <trkpt lat="47.68697" lon="6.04629">
        <ele>244.75</ele>
        <time>2018-01-31T10:48:19Z</time>
      </trkpt>
      <trkpt lat="47.68694" lon="6.0462">
        <ele>244.72</ele>
        <time>2018-01-31T10:48:21Z</time>
      </trkpt>
      <trkpt lat="47.68689" lon="6.04612">
        <ele>244.68</ele>
        <time>2018-01-31T10:48:23Z</time>
      </trkpt>
      <trkpt lat="47.68685" lon="6.04602">
        <ele>244.65</ele>
        <time>2018-01-31T10:48:25Z</time>
      </trkpt>
      <trkpt lat="47.68682" lon="6.04592">
        <ele>244.62</ele>
        <time>2018-01-31T10:48:27Z</time>
      </trkpt>
      <trkpt lat="47.68679" lon="6.04584">
        <ele>244.58</ele>
        <time>2018-01-31T10:48:29Z</time>
      </trkpt>
      <trkpt lat="47.68676" lon="6.04576">
        <ele>244.55</ele>
        <time>2018-01-31T10:48:31Z</time>
      </trkpt>
      <trkpt lat="47.68672" lon="6.04568">
        <ele>244.51</ele>
        <time>2018-01-31T10:48:33Z</time>
      </trkpt>
      <trkpt lat="47.68668" lon="6.04561">
        <ele>244.47</ele>
        <time>2018-01-31T10:48:35Z</time>
      </trkpt>
      <trkpt lat="47.68664" lon="6.04553">
        <ele>244.43</ele>
        <time>2018-01-31T10:48:37Z</time>
      </trkpt>
      <trkpt lat="47.68659" lon="6.04548">
        <ele>244.39</ele>
        <time>2018-01-31T10:48:39Z</time>
      </trkpt>
      <trkpt lat="47.68654" lon="6.04543">
        <ele>244.33</ele>
        <time>2018-01-31T10:48:42Z</time>
      </trkpt>
      <trkpt lat="47.6865" lon="6.04538">
        <ele>244.26</ele>
        <time>2018-01-31T10:48:45Z</time>
      </trkpt>
      <trkpt lat="47.68646" lon="6.04534">
        <ele>244.18</ele>
        <time>2018-01-31T10:48:48Z</time>
      </trkpt>
      <trkpt lat="47.68641" lon="6.0453">
        <ele>243.98</ele>
        <time>2018-01-31T10:48:55Z</time>
      </trkpt>
      <trkpt lat="47.68636" lon="6.04528">
        <ele>243.91</ele>
        <time>2018-01-31T10:48:57Z</time>
      </trkpt>
      <trkpt lat="47.68631" lon="6.04531">
        <ele>243.84</ele>
        <time>2018-01-31T10:48:59Z</time>
      </trkpt>
      <trkpt lat="47.68627" lon="6.04537">
        <ele>243.72</ele>
        <time>2018-01-31T10:49:02Z</time>
      </trkpt>
      <trkpt lat="47.68626" lon="6.04545">
        <ele>243.6</ele>
        <time>2018-01-31T10:49:05Z</time>
      </trkpt>
      <trkpt lat="47.68623" lon="6.0455">
        <ele>243.39</ele>
        <time>2018-01-31T10:49:13Z</time>
      </trkpt>
      <trkpt lat="47.68619" lon="6.04549">
        <ele>243.12</ele>
        <time>2018-01-31T10:49:42Z</time>
      </trkpt>
      <trkpt lat="47.68624" lon="6.04541">
        <ele>243.06</ele>
        <time>2018-01-31T10:50:35Z</time>
      </trkpt>
      <trkpt lat="47.68629" lon="6.04537">
        <ele>243.06</ele>
        <time>2018-01-31T10:50:37Z</time>
      </trkpt>
    </trkseg>
  </trk>
</gpx>